<
# Wetter Temperatur Luftdruck Luftfeuchtigkeit Sichtweite Windgeschwindigkeit Windrichtung Zeit
1 Clear 11 1026 62 10000 0.5 0 09:42 08.04.2020
2 Clear 8 1026 70 10000 1 0 09:20 08.04.2020
3 Clear 8 1026 75 10000 1 0 08:59 08.04.2020
4 Clear 7 1026 75 10000 1 0 08:41 08.04.2020
5 Clear 5 1026 86 10000 1 180 08:21 08.04.2020
6 Clear 3 1026 86 10000 1.5 200 07:43 08.04.2020
7 Clear 3 1026 86 10000 1.5 200 07:23 08.04.2020
8 Clear 3 1026 80 10000 2.1 170 06:55 08.04.2020
9 Clear 4 1026 80 10000 1.5 220 05:56 08.04.2020
10 Clear 6 1026 75 10000 0.5 0 03:34 08.04.2020
11 Clear 7 1026 80 10000 1 50 02:49 08.04.2020
12 Clear 7 1027 70 10000 1.32 96 02:19 08.04.2020
13 Clear 7 1027 70 10000 1 0 01:43 08.04.2020
14 Clear 8 1027 70 10000 1 0 01:22 08.04.2020
15 Clear 8 1027 70 10000 1.32 96 00:41 08.04.2020
16 Clear 9 1027 61 10000 0.5 150 00:21 08.04.2020
17 Clear 10 1027 46 10000 2.6 90 23:39 07.04.2020
18 Clear 10 1027 46 10000 2.6 90 23:20 07.04.2020
19 Clear 10 1027 46 10000 2.6 100 22:57 07.04.2020
20 Clear 10 1027 46 10000 2.6 100 22:57 07.04.2020
21 Clear 11 1027 46 10000 2.1 70 22:39 07.04.2020
22 Clear 12 1027 46 10000 2.1 70 22:19 07.04.2020
23 Clear 12 1027 63 10000 2.6 70 21:56 07.04.2020
24 Clear 12 1027 63 10000 2.6 70 21:56 07.04.2020
25 Clear 13 1027 58 10000 2.6 70 21:38 07.04.2020
26 Clear 14 1027 60 10000 2.6 70 21:19 07.04.2020
27 Clear 15 1027 60 10000 3.1 60 20:56 07.04.2020
28 Clear 16 1027 60 10000 3.1 60 20:37 07.04.2020
29 Clear 16 1027 60 10000 3.1 60 20:19 07.04.2020
30 Clear 17 1027 60 10000 4.1 50 19:56 07.04.2020
31 Clear 18 1027 31 10000 5.1 50 19:36 07.04.2020
32 Clear 19 1027 31 10000 5.1 50 19:18 07.04.2020
33 Clear 19 1027 29 10000 5.1 30 18:54 07.04.2020
34 Clear 19 1027 29 10000 6.2 40 18:36 07.04.2020
35 Clear 20 1027 29 10000 5.7 40 18:18 07.04.2020
36 Clear 20 1027 32 10000 5.7 40 17:44 07.04.2020
37 Clear 20 1027 32 10000 5.7 40 17:20 07.04.2020
38 Clear 21 1028 28 10000 3.6 60 16:46 07.04.2020
39 Clear 21 1028 39 10000 3.6 50 16:27 07.04.2020
40 Clear 21 1028 39 10000 3.6 50 15:56 07.04.2020
41 Clear 21 1028 25 10000 4.6 10 15:38 07.04.2020
42 Clear 21 1029 28 10000 4.6 20 15:19 07.04.2020
43 Clear 20 1029 28 10000 4.6 20 14:41 07.04.2020
44 Clear 20 1029 29 10000 4.6 40 14:22 07.04.2020
45 Clear 20 1029 37 10000 5.7 30 13:57 07.04.2020
46 Clear 20 1029 37 10000 5.1 70 13:37 07.04.2020
47 Clear 20 1029 37 10000 5.1 70 13:18 07.04.2020
48 Clear 19 1030 37 10000 5.7 30 12:55 07.04.2020
49 Clear 17 1030 31 10000 4.6 30 12:36 07.04.2020
50 Clear 18 1030 31 10000 4.6 30 12:18 07.04.2020
51 Clear 17 1030 34 10000 4.1 40 11:42 07.04.2020
52 Clear 16 1030 38 10000 1.5 340 11:24 07.04.2020
53 Clear 16 1030 47 10000 0.5 0 10:58 07.04.2020
54 Clear 15 1030 47 10000 0.5 0 10:37 07.04.2020
55 Clear 13 1030 50 10000 1 0 10:19 07.04.2020
56 Clear 11 1030 62 10000 2.1 220 09:45 07.04.2020
57 Clear 9 1030 66 10000 1.5 220 09:18 07.04.2020
58 Clear 6 1030 70 10000 2.1 210 08:55 07.04.2020
59 Clear 5 1030 70 10000 2.1 210 08:36 07.04.2020
60 Clear 4 1029 80 10000 2.1 220 08:18 07.04.2020
61 Clear 3 1029 86 10000 2.1 210 07:40 07.04.2020
62 Clear 3 1029 86 10000 3.1 220 07:21 07.04.2020
63 Clear 3 1028 74 10000 3.1 210 06:51 07.04.2020
64 Clear 4 1028 73 10000 1.5 190 06:23 07.04.2020
65 Clear 4 1028 73 10000 2.1 170 05:43 07.04.2020
66 Clear 4 1028 80 10000 1.5 200 05:22 07.04.2020
67 Clear 4 1027 69 10000 1.5 190 03:32 07.04.2020
68 Clear 5 1027 80 10000 2.1 190 02:59 07.04.2020
69 Clear 5 1027 72 10000 1.5 180 01:58 07.04.2020
70 Clear 6 1027 72 10000 2.6 160 01:32 07.04.2020
71 Clear 7 1026 75 10000 1 210 00:44 07.04.2020
72 Clear 7 1026 65 10000 2.6 220 00:25 07.04.2020
73 Clear 8 1026 61 10000 1.5 170 23:39 06.04.2020
74 Clear 8 1026 61 10000 1.5 170 23:20 06.04.2020
75 Clear 9 1025 61 10000 0.5 290 22:41 06.04.2020
76 Clear 9 1025 61 10000 0.5 0 22:23 06.04.2020
77 Clear 10 1025 57 10000 1 150 21:59 06.04.2020
78 Clear 11 1025 58 10000 0.68 12 21:40 06.04.2020
79 Clear 12 1025 61 10000 0.95 14 21:19 06.04.2020
80 Clear 13 1025 61 10000 1 50 20:56 06.04.2020
81 Clear 14 1025 61 10000 1 50 20:38 06.04.2020
82 Clear 16 1024 31 10000 2.6 340 20:19 06.04.2020
83 Clear 16 1024 61 10000 3.6 340 19:56 06.04.2020
84 Clear 18 1024 27 10000 3.1 340 19:38 06.04.2020
85 Clear 18 1024 27 10000 3.1 340 19:19 06.04.2020
86 Clear 18 1024 27 10000 3.1 340 19:19 06.04.2020
87 Clear 19 1023 25 10000 2.6 340 18:42 06.04.2020
88 Clear 20 1023 39 10000 3.1 350 18:23 06.04.2020
89 Clear 20 1023 25 10000 3.6 340 17:57 06.04.2020
90 Clear 20 1023 25 10000 2.6 340 17:38 06.04.2020
91 Clear 20 1023 25 10000 2.6 340 17:18 06.04.2020
92 Clear 20 1023 25 10000 2.6 0 16:47 06.04.2020
93 Clear 20 1023 25 10000 2.6 0 16:47 06.04.2020
94 Clear 20 1023 29 10000 3.1 340 16:29 06.04.2020
95 Clear 19 1024 29 10000 1.5 0 14:47 06.04.2020
96 Clear 19 1024 29 10000 1.5 0 14:46 06.04.2020
97 Clear 20 1024 29 10000 1.5 0 14:46 06.04.2020
98 Clear 20 1024 29 10000 1.5 0 14:46 06.04.2020
99 Clear 19 1024 29 10000 1.5 0 14:46 06.04.2020
100 Clear 19 1024 31 10000 3.1 290 13:44 06.04.2020
101 Clear 19 1024 34 10000 2.1 230 13:22 06.04.2020
102 Clear 19 1024 34 10000 2.1 230 13:22 06.04.2020
103 Clear 18 1024 33 10000 2.6 0 12:46 06.04.2020
104 Clear 18 1024 33 10000 2.6 0 12:46 06.04.2020
105 Clear 18 1024 33 10000 2.6 0 12:46 06.04.2020
106 Clear 18 1024 33 10000 2.6 0 12:46 06.04.2020
107 Clear 18 1024 33 10000 2.6 0 12:46 06.04.2020
108 Clear 17 1024 41 10000 3.1 260 12:19 06.04.2020
109 Clear 16 1024 38 10000 4.1 230 11:40 06.04.2020
110 Clear 14 1024 38 10000 4.6 250 11:02 06.04.2020
111 Clear 15 1024 38 10000 4.6 250 11:02 06.04.2020
112 Clear 15 1024 38 10000 4.6 250 11:02 06.04.2020
113 Clear 14 1024 38 10000 4.6 250 11:02 06.04.2020
114 Clear 15 1024 38 10000 4.6 250 11:02 06.04.2020
115 Clear 14 1023 43 10000 4.1 220 10:37 06.04.2020
116 Clear 13 1023 46 10000 4.6 220 10:19 06.04.2020
117 Clear 13 1023 46 10000 4.6 220 10:19 06.04.2020
118 Clear 13 1023 46 10000 4.6 220 10:19 06.04.2020
119 Clear 13 1023 46 10000 4.6 220 10:19 06.04.2020
120 Clear 11 1023 61 10000 3.6 210 09:39 06.04.2020
121 Clear 11 1023 61 10000 3.6 210 09:39 06.04.2020
122 Clear 6 1023 70 10000 2.6 200 09:19 06.04.2020
123 Clear 4 1022 86 10000 2.6 220 08:43 06.04.2020
124 Clear 5 1022 86 10000 2.6 220 08:43 06.04.2020
125 Clear 5 1022 86 10000 2.6 220 08:43 06.04.2020
126 Clear 5 1022 86 10000 2.6 220 08:43 06.04.2020
127 Clear 5 1022 86 10000 2.6 220 08:43 06.04.2020
128 Clear 3 1022 63 10000 1.5 180 08:23 06.04.2020
129 Clear 1 1021 63 10000 3.1 210 07:23 06.04.2020
130 Clear 1 1021 63 10000 3.1 210 07:23 06.04.2020
131 Clear 1 1021 63 10000 3.1 210 07:23 06.04.2020
132 Clear 1 1021 63 10000 3.1 210 07:23 06.04.2020
133 Clear 1 1021 74 10000 1 0 06:27 06.04.2020
134 Clear 1 1020 92 10000 1 0 05:51 06.04.2020
135 Clear 2 1020 86 10000 1.5 140 03:57 06.04.2020
136 Clear 3 1020 71 10000 1 150 02:52 06.04.2020
137 Clear 4 1020 80 10000 1.5 150 01:56 06.04.2020
138 Clear 5 1020 80 10000 1.5 150 01:56 06.04.2020
139 Clear 5 1020 80 10000 1 0 00:55 06.04.2020
140 Clear 7 1020 69 10000 1.5 70 00:28 06.04.2020
141 Clear 6 1020 71 10000 1 0 00:28 06.04.2020
142 Clear 7 1020 49 10000 4.1 80 23:55 05.04.2020
143 Clear 7 1020 69 10000 0.5 0 23:37 05.04.2020
144 Clear 7 1020 56 10000 0.5 0 23:19 05.04.2020
145 Clear 8 1020 69 10000 2.1 80 22:54 05.04.2020
146 Clear 8 1020 69 10000 2.1 80 22:36 05.04.2020
147 Clear 9 1020 69 10000 2.1 90 22:18 05.04.2020
148 Clear 9 1020 69 10000 3.6 80 21:41 05.04.2020
149 Clear 11 1020 60 10000 3.1 70 21:23 05.04.2020
150 Clear 12 1020 64 10000 3.6 70 20:24 05.04.2020
151 Clear 12 1020 64 10000 3.6 70 20:24 05.04.2020
152 Clear 14 1020 64 10000 4.6 70 19:43 05.04.2020
153 Clear 15 1020 64 10000 4.1 70 19:24 05.04.2020
154 Clear 16 1020 64 10000 5.1 50 18:49 05.04.2020
155 Clear 16 1020 43 10000 5.1 50 18:18 05.04.2020
156 Clear 17 1021 31 10000 5.7 50 17:49 05.04.2020
157 Clear 17 1021 31 10000 5.7 50 17:49 05.04.2020
158 Clear 17 1021 31 10000 5.7 50 17:49 05.04.2020
159 Clear 17 1021 31 10000 5.7 50 17:49 05.04.2020
160 Clear 17 1021 31 10000 6.7 40 17:22 05.04.2020
161 Clear 17 1021 43 10000 5.1 50 16:47 05.04.2020
162 Clear 17 1021 43 10000 5.1 50 16:47 05.04.2020
163 Clear 17 1021 43 10000 5.1 50 16:47 05.04.2020
164 Clear 17 1021 31 10000 5.7 50 16:19 05.04.2020
165 Clear 16 1022 43 10000 5.1 40 15:46 05.04.2020
166 Clear 16 1022 39 10000 4.6 80 15:27 05.04.2020
167 Clear 16 1022 39 10000 4.6 80 15:27 05.04.2020
168 Clear 15 1022 33 10000 5.1 70 14:48 05.04.2020
169 Clear 15 1022 33 10000 5.1 70 14:48 05.04.2020
170 Clear 15 1022 33 10000 5.1 70 14:48 05.04.2020
171 Clear 15 1022 33 10000 5.1 70 14:48 05.04.2020
172 Clear 15 1023 40 10000 5.1 70 13:59 05.04.2020
173 Clear 15 1023 40 10000 5.1 70 13:40 05.04.2020
174 Clear 15 1023 40 10000 5.1 70 13:40 05.04.2020
175 Clear 15 1023 40 10000 5.1 70 13:40 05.04.2020
176 Clear 15 1023 40 10000 5.1 70 13:40 05.04.2020
177 Clear 15 1023 40 10000 5.1 70 13:40 05.04.2020
178 Clear 11 1024 40 10000 3.6 70 12:21 05.04.2020
179 Clear 12 1024 46 10000 4.1 80 11:40 05.04.2020
180 Clear 11 1024 46 10000 3.6 80 11:20 05.04.2020
181 Clear 10 1024 52 10000 3.6 80 10:47 05.04.2020
182 Clear 10 1024 52 10000 3.6 80 10:23 05.04.2020
183 Clear 10 1024 46 10000 3.6 90 10:23 05.04.2020
184 Clear 8 1024 46 10000 5.1 70 09:55 05.04.2020
185 Clear 7 1024 46 10000 5.1 70 09:27 05.04.2020
186 Clear 3 1024 74 10000 3.1 80 08:34 05.04.2020
187 Clear 3 1024 74 10000 3.1 80 08:34 05.04.2020
188 Clear 4 1024 74 10000 3.1 80 08:34 05.04.2020
189 Clear 1 1023 92 10000 2.1 100 07:21 05.04.2020
190 Clear 2 1023 74 10000 1 0 04:32 05.04.2020
191 Clear 3 1024 74 10000 2.1 60 03:29 05.04.2020
192 Clear 3 1024 74 10000 2.1 60 03:29 05.04.2020
193 Clear 3 1023 73 10000 1.5 80 02:46 05.04.2020
194 Clear 3 1024 74 10000 0.5 0 01:45 05.04.2020
195 Clear 4 1024 69 10000 1.5 80 01:23 05.04.2020
196 Clear 5 1024 65 10000 2.1 80 00:42 05.04.2020
197 Clear 5 1024 56 10000 2.6 90 00:21 05.04.2020
198 Clear 5 1024 56 10000 2.6 80 23:42 04.04.2020
199 Clear 6 1024 56 10000 2.6 80 23:23 04.04.2020
200 Clear 6 1024 56 10000 2.6 80 22:57 04.04.2020
201 Clear 7 1024 56 10000 3.1 70 22:39 04.04.2020
202 Clear 7 1024 56 10000 1.5 40 22:21 04.04.2020
203 Clear 7 1024 49 10000 2.6 60 21:58 04.04.2020
204 Clear 7 1024 49 10000 2.6 60 21:39 04.04.2020
205 Clouds 8 1023 45 10000 2.6 60 21:19 04.04.2020
206 Clear 8 1023 45 10000 2.6 60 20:58 04.04.2020
207 Clouds 9 1023 45 10000 3.1 60 20:39 04.04.2020
208 Clouds 10 1022 46 10000 3.6 60 20:20 04.04.2020
209 Clear 11 1022 43 10000 4.1 50 19:57 04.04.2020
210 Clouds 11 1022 43 10000 4.1 50 19:37 04.04.2020
211 Clouds 12 1022 40 10000 4.6 50 19:19 04.04.2020
212 Clear 12 1022 40 10000 4.6 50 19:19 04.04.2020
213 Clouds 13 1022 37 10000 4.6 70 18:55 04.04.2020
214 Clear 13 1022 37 10000 4.6 70 18:37 04.04.2020
215 Clouds 14 1022 35 10000 4.6 40 18:18 04.04.2020
216 Clouds 14 1022 37 10000 4.6 50 17:41 04.04.2020
217 Clouds 14 1022 37 10000 4.6 50 17:41 04.04.2020
218 Clouds 14 1022 37 10000 4.6 30 17:20 04.04.2020
219 Clouds 14 1022 35 10000 5.1 30 16:59 04.04.2020
220 Clouds 14 1022 35 10000 5.1 30 16:41 04.04.2020
221 Clouds 14 1022 37 10000 4.6 40 16:22 04.04.2020
222 Clouds 14 1022 37 10000 3.6 20 15:55 04.04.2020
223 Clouds 14 1022 37 10000 3.6 20 15:36 04.04.2020
224 Clear 14 1022 40 10000 4.6 50 15:18 04.04.2020
225 Clear 14 1022 35 10000 4.1 30 14:42 04.04.2020
226 Clear 14 1022 37 10000 3.6 0 14:22 04.04.2020
227 Clear 13 1022 37 10000 3.6 0 13:56 04.04.2020
228 Clear 13 1022 40 10000 3.1 20 13:37 04.04.2020
229 Clear 13 1023 39 10000 1 0 13:19 04.04.2020
230 Clear 13 1023 43 10000 3.1 50 12:44 04.04.2020
231 Clear 11 1023 39 10000 2.1 0 12:24 04.04.2020
232 Clear 11 1023 49 10000 2.1 0 11:59 04.04.2020
233 Clear 11 1023 49 10000 2.6 0 11:38 04.04.2020
234 Clear 11 1023 53 10000 2.6 100 11:19 04.04.2020
235 Clear 11 1023 53 10000 2.6 100 10:56 04.04.2020
236 Clear 9 1023 57 10000 3.1 80 10:38 04.04.2020
237 Clear 9 1022 61 10000 2.6 40 10:19 04.04.2020
238 Clear 8 1022 61 10000 2.6 40 09:55 04.04.2020
239 Clear 7 1022 65 10000 2.1 20 09:36 04.04.2020
240 Clouds 5 1022 75 10000 0.57 195 09:18 04.04.2020
241 Clouds 3 1022 86 10000 0.5 0 08:42 04.04.2020
242 Clouds 1 1021 71 10000 1.5 180 08:21 04.04.2020
243 Clouds 1 1021 92 10000 2.1 160 07:47 04.04.2020
244 Clouds 1 1021 100 10000 1.5 150 07:27 04.04.2020
245 Clouds 1 1021 86 10000 2.1 200 06:57 04.04.2020
246 Clouds 2 1020 86 10000 0.5 0 06:20 04.04.2020
247 Clouds 2 1020 77 10000 0.96 228 05:43 04.04.2020
248 Clouds 3 1020 77 10000 1 0 05:24 04.04.2020
249 Clouds 3 1020 77 10000 1 220 04:33 04.04.2020
250 Clouds 3 1020 77 10000 1.5 160 03:55 04.04.2020
251 Clouds 3 1020 77 10000 1.5 160 03:27 04.04.2020
252 Clouds 4 1020 75 10000 1 220 02:40 04.04.2020
253 Clouds 3 1020 75 10000 1.5 190 02:22 04.04.2020
254 Clouds 3 1020 75 10000 1.5 220 01:27 04.04.2020
255 Clouds 3 1020 75 10000 1.5 210 00:55 04.04.2020
256 Clouds 3 1020 75 10000 1.5 180 00:30 04.04.2020
257 Clouds 3 1020 72 10000 1 230 23:56 03.04.2020
258 Clouds 4 1019 86 10000 1.5 190 23:37 03.04.2020
259 Clouds 4 1019 74 10000 1 190 23:18 03.04.2020
260 Clouds 5 1019 69 10000 0.5 160 22:40 03.04.2020
261 Clouds 5 1019 64 10000 0.43 181 22:19 03.04.2020
262 Clouds 6 1018 60 10000 1 340 21:56 03.04.2020
263 Clouds 6 1018 60 10000 1 340 21:56 03.04.2020
264 Clouds 6 1018 60 10000 1 340 21:37 03.04.2020
265 Clouds 7 1018 52 10000 1.5 330 21:19 03.04.2020
266 Clouds 8 1017 49 10000 2.1 340 20:55 03.04.2020
267 Clouds 8 1017 49 10000 2.1 340 20:36 03.04.2020
268 Clouds 9 1017 49 10000 2.6 340 20:18 03.04.2020
269 Clouds 9 1016 45 10000 4.6 350 19:54 03.04.2020
270 Clouds 10 1016 45 10000 4.6 350 19:36 03.04.2020
271 Clouds 11 1016 39 10000 4.1 340 19:18 03.04.2020
272 Clouds 11 1016 34 10000 4.6 310 18:56 03.04.2020
273 Clouds 11 1016 34 10000 4.6 310 18:38 03.04.2020
274 Clouds 12 1015 34 10000 4.1 300 18:20 03.04.2020
275 Clouds 12 1015 34 10000 4.6 300 17:41 03.04.2020
276 Clouds 12 1015 32 10000 6.2 300 17:19 03.04.2020
277 Clouds 12 1015 32 10000 6.2 300 16:55 03.04.2020
278 Clouds 12 1015 34 10000 6.2 290 16:36 03.04.2020
279 Clouds 12 1015 37 10000 5.1 290 16:18 03.04.2020
280 Clouds 12 1015 34 10000 5.1 290 15:55 03.04.2020
281 Clouds 12 1015 37 10000 5.1 270 15:36 03.04.2020
282 Clouds 12 1015 34 10000 4.1 270 15:18 03.04.2020
283 Clouds 12 1016 40 10000 6.7 260 14:40 03.04.2020
284 Clouds 12 1016 40 10000 6.7 260 14:22 03.04.2020
285 Clouds 11 1016 40 10000 6.7 260 13:54 03.04.2020
286 Clouds 11 1015 45 10000 5.7 250 13:36 03.04.2020
287 Clouds 11 1016 45 10000 5.1 280 13:18 03.04.2020
288 Clouds 10 1016 45 10000 4.1 270 12:42 03.04.2020
289 Clouds 10 1016 49 10000 4.1 250 12:20 03.04.2020
290 Clouds 10 1015 49 10000 4.1 280 11:56 03.04.2020
291 Clouds 10 1015 49 10000 4.1 280 11:37 03.04.2020
292 Clouds 9 1015 52 10000 3.1 250 11:18 03.04.2020
293 Clouds 8 1015 56 10000 2.1 280 10:57 03.04.2020
294 Clouds 8 1015 56 10000 2.1 280 10:38 03.04.2020
295 Clouds 7 1015 52 10000 3.1 260 10:20 03.04.2020
296 Clouds 6 1015 52 10000 3.1 260 09:57 03.04.2020
297 Clouds 6 1015 56 10000 3.6 240 09:39 03.04.2020
298 Clouds 4 1015 60 10000 3.1 250 09:21 03.04.2020
299 Clouds 3 1015 60 10000 3.1 250 08:55 03.04.2020
300 Clouds 2 1014 74 10000 3.1 230 08:37 03.04.2020
301 Clouds 1 1014 74 10000 2.6 230 08:18 03.04.2020
302 Clouds 1 1014 74 10000 2.6 250 07:46 03.04.2020
303 Clouds 1 1013 74 10000 3.1 240 07:27 03.04.2020
304 Clouds 0 1013 74 10000 4.1 220 06:40 03.04.2020
305 Clouds 0 1013 74 10000 3.1 220 06:21 03.04.2020
306 Clouds 1 1012 69 10000 3.1 230 05:34 03.04.2020
307 Clouds 1 1012 74 10000 4.1 230 03:40 03.04.2020
308 Clouds 1 1012 86 10000 4.1 220 02:55 03.04.2020
309 Clouds 0 1011 75 10000 4.6 230 02:18 03.04.2020
310 Clouds 1 1011 79 10000 2.6 220 01:20 03.04.2020
311 Clouds 2 1011 75 10000 1.5 0 00:34 03.04.2020
312 Clear 2 1010 80 10000 1 0 23:58 02.04.2020
313 Clear 2 1010 80 10000 1 0 23:39 02.04.2020
314 Clear 2 1010 80 10000 1 0 23:39 02.04.2020
315 Clear 2 1010 80 10000 1 0 23:39 02.04.2020
316 Clear 3 1010 68 10000 1.5 200 23:21 02.04.2020
317 Clear 3 1010 69 10000 2.1 180 22:57 02.04.2020
318 Clear 4 1010 69 10000 2.1 180 22:37 02.04.2020
319 Clear 4 1010 74 10000 2.1 150 22:18 02.04.2020
320 Clear 5 1010 74 10000 2.1 170 21:39 02.04.2020
321 Clear 6 1010 56 10000 1.5 150 21:19 02.04.2020
322 Clear 6 1010 42 10000 1 0 20:58 02.04.2020
323 Clear 6 1010 56 10000 1.5 150 20:58 02.04.2020
324 Clear 7 1010 42 10000 1 0 20:40 02.04.2020
325 Clear 9 1009 34 10000 2.1 290 20:21 02.04.2020
326 Clear 10 1009 31 10000 2.6 310 19:44 02.04.2020
327 Clear 12 1009 29 10000 3.6 310 19:21 02.04.2020
328 Clear 12 1009 27 10000 3.6 290 18:58 02.04.2020
329 Clear 12 1009 27 10000 3.6 290 18:39 02.04.2020
330 Clear 12 1009 27 10000 3.6 290 18:39 02.04.2020
331 Clear 12 1009 27 10000 3.6 290 18:20 02.04.2020
332 Clear 13 1009 27 10000 2.6 300 17:56 02.04.2020
333 Clear 13 1009 27 10000 2.6 300 17:38 02.04.2020
334 Clear 13 1010 27 10000 3.6 280 17:20 02.04.2020
335 Clear 13 1010 27 10000 3.6 280 16:55 02.04.2020
336 Clear 13 1010 25 10000 3.6 280 16:37 02.04.2020
337 Clear 13 1010 27 10000 3.6 270 16:19 02.04.2020
338 Clear 13 1010 25 10000 2.6 0 15:54 02.04.2020
339 Clear 12 1010 25 10000 2.6 0 15:36 02.04.2020
340 Clear 12 1011 27 10000 3.1 280 15:18 02.04.2020
341 Clear 12 1011 25 10000 3.1 330 14:40 02.04.2020
342 Clear 12 1011 25 10000 3.1 330 14:40 02.04.2020
343 Clear 12 1011 29 10000 3.1 210 14:20 02.04.2020
344 Clear 11 1012 29 10000 3.6 210 13:58 02.04.2020
345 Clear 11 1012 29 10000 3.6 210 13:39 02.04.2020
346 Clear 11 1012 29 10000 2.6 0 13:21 02.04.2020
347 Clear 10 1012 34 10000 1.5 0 12:56 02.04.2020
348 Clear 10 1012 34 10000 1.5 0 12:38 02.04.2020
349 Clear 10 1012 39 10000 1.5 0 12:19 02.04.2020
350 Clear 9 1012 39 10000 1.5 0 12:19 02.04.2020
351 Clear 9 1012 39 10000 1.5 0 11:57 02.04.2020
352 Clear 9 1013 36 10000 1 0 11:38 02.04.2020
353 Clear 8 1013 48 10000 1.5 230 11:19 02.04.2020
354 Clear 8 1013 48 10000 1.5 230 10:55 02.04.2020
355 Clear 6 1013 60 10000 1 0 10:37 02.04.2020
356 Clear 6 1013 60 10000 1 0 10:37 02.04.2020
357 Clear 4 1013 60 10000 1 0 10:19 02.04.2020
358 Clear 3 1014 60 10000 1 0 09:55 02.04.2020
359 Clear 2 1013 74 10000 0.76 225 09:37 02.04.2020
360 Clear 0 1013 72 10000 0.5 0 09:18 02.04.2020
361 Clear -1 1013 80 10000 1 190 08:45 02.04.2020
362 Clear -2 1013 80 10000 1 190 08:26 02.04.2020
363 Clear -4 1013 92 10000 0.5 0 07:45 02.04.2020
364 Clear -4 1013 92 10000 2.1 210 07:20 02.04.2020
365 Clear -4 1013 92 10000 2.1 210 06:58 02.04.2020
366 Clear -4 1013 85 10000 1.5 190 06:22 02.04.2020
367 Clear -4 1013 85 10000 2.1 210 05:45 02.04.2020
368 Clear -3 1013 86 10000 2.1 190 04:35 02.04.2020
369 Clear -2 1014 85 10000 0.5 130 01:52 02.04.2020
370 Clear -2 1015 79 10000 0.5 150 00:51 02.04.2020
371 Clear -2 1015 79 10000 0.5 150 00:29 02.04.2020
372 Clear -1 1015 79 10000 0.5 120 23:57 01.04.2020
373 Clear -1 1016 74 10000 0.5 40 23:37 01.04.2020
374 Clear -1 1015 79 10000 1 0 23:18 01.04.2020
375 Clear 0 1015 79 10000 1.15 135 22:41 01.04.2020
376 Clear 0 1015 74 10000 1 140 22:22 01.04.2020
377 Clear 1 1015 68 10000 1 130 21:58 01.04.2020
378 Clear 1 1015 68 10000 1 130 21:39 01.04.2020
379 Clouds 2 1015 51 10000 1 50 21:19 01.04.2020
380 Clouds 2 1015 51 10000 1 50 20:56 01.04.2020
381 Clouds 4 1015 44 10000 2.1 10 20:38 01.04.2020
382 Clouds 5 1015 44 10000 3.1 30 20:19 01.04.2020
383 Clouds 6 1015 41 10000 3.6 20 19:57 01.04.2020
384 Clouds 7 1015 41 10000 3.6 20 19:37 01.04.2020
385 Clouds 7 1015 41 10000 3.6 20 19:37 01.04.2020
386 Clouds 8 1015 39 10000 3.6 10 19:19 01.04.2020
387 Clouds 8 1015 36 10000 3.6 10 18:42 01.04.2020
388 Clear 8 1015 36 10000 3.6 10 18:22 01.04.2020
389 Clear 9 1015 36 10000 3.6 360 17:57 01.04.2020
390 Clear 9 1015 36 10000 3.6 360 17:37 01.04.2020
391 Clear 9 1016 36 10000 3.6 20 17:19 01.04.2020
392 Clear 9 1016 36 10000 3.6 20 16:57 01.04.2020
393 Clear 9 1016 36 10000 4.6 10 16:39 01.04.2020
394 Clear 9 1016 36 10000 4.6 10 16:20 01.04.2020
395 Clear 9 1017 39 10000 4.6 30 15:56 01.04.2020
396 Clear 8 1017 39 10000 4.6 30 15:37 01.04.2020
397 Clear 8 1017 39 10000 4.1 20 15:18 01.04.2020
398 Clear 8 1017 42 10000 3.6 10 14:40 01.04.2020
399 Clear 8 1018 41 10000 3.1 60 14:22 01.04.2020
400 Clear 8 1018 41 10000 3.1 60 13:59 01.04.2020
401 Clear 7 1018 41 10000 3.6 30 13:40 01.04.2020
402 Clear 6 1019 41 10000 3.1 50 13:20 01.04.2020
403 Clear 6 1019 41 10000 3.1 50 13:20 01.04.2020
404 Clear 7 1019 41 10000 3.1 50 12:59 01.04.2020
405 Clear 6 1019 44 10000 3.6 70 12:41 01.04.2020
406 Clear 5 1019 44 10000 3.6 100 12:22 01.04.2020
407 Clear 5 1020 44 10000 4.6 60 11:59 01.04.2020
408 Clear 5 1020 44 10000 4.6 60 11:39 01.04.2020
409 Clear 4 1020 47 10000 2.6 80 11:20 01.04.2020
410 Clear 3 1020 51 10000 3.1 90 10:41 01.04.2020
411 Clear 3 1020 51 10000 3.1 90 10:22 01.04.2020
412 Clear 2 1020 59 10000 1.5 80 09:59 01.04.2020
413 Clear 0 1020 50 10000 1 0 09:40 01.04.2020
414 Clear 0 1020 50 10000 1 0 09:40 01.04.2020
415 Clear -2 1020 80 10000 1.25 110 09:21 01.04.2020
416 Clouds -2 1021 92 7000 2.1 60 08:59 01.04.2020
417 Clear -3 1020 79 3900 1.25 110 08:40 01.04.2020
418 Clear -4 1020 85 10000 1 110 08:18 01.04.2020
419 Clear -5 1020 85 10000 0.5 150 07:42 01.04.2020
420 Clear -5 1020 92 9000 1.25 110 07:19 01.04.2020
421 Clear -5 1020 92 10000 0.5 100 06:47 01.04.2020
422 Clear -5 1020 92 10000 1 140 06:21 01.04.2020
423 Clear -5 1021 85 10000 1 0 05:53 01.04.2020
424 Clear -4 1021 92 10000 0.5 0 04:30 01.04.2020
425 Clear -4 1022 85 10000 0.5 0 03:27 01.04.2020
426 Clear -3 1022 73 10000 2.02 107 02:46 01.04.2020
427 Clear -3 1022 73 10000 2.28 105 01:54 01.04.2020
428 Clear -3 1023 73 10000 0.5 0 01:29 01.04.2020
429 Clear -2 1023 73 10000 1.5 70 00:58 01.04.2020
430 Clear -2 1024 74 10000 2.1 90 00:40 01.04.2020
431 Clear -2 1024 74 10000 2.1 90 00:18 01.04.2020
432 Clear -2 1024 63 10000 2.1 60 23:41 31.03.2020
433 Clear -1 1024 68 10000 2.6 50 23:23 31.03.2020
434 Clear -1 1024 68 10000 2.6 50 23:23 31.03.2020
435 Clear -1 1024 81 10000 2.1 60 22:57 31.03.2020
436 Clear -1 1024 81 10000 2.1 60 22:36 31.03.2020
437 Clear 0 1024 68 10000 2.1 70 22:18 31.03.2020
438 Clear 0 1024 81 10000 2.6 50 21:55 31.03.2020
439 Clear 0 1024 81 10000 2.6 50 21:37 31.03.2020
440 Clouds 1 1024 67 10000 3.6 30 21:19 31.03.2020
441 Clouds 1 1025 64 10000 2.6 20 20:55 31.03.2020
442 Clouds 2 1024 55 10000 4.6 10 20:36 31.03.2020
443 Clouds 3 1024 55 10000 4.6 10 20:18 31.03.2020
444 Clouds 3 1023 44 10000 1.5 320 19:41 31.03.2020
445 Clouds 4 1023 44 10000 2.1 260 19:22 31.03.2020
446 Clouds 4 1023 40 10000 0.5 0 18:58 31.03.2020
447 Clouds 4 1023 40 10000 2.6 30 18:39 31.03.2020
448 Clouds 4 1023 40 10000 2.6 30 18:18 31.03.2020
449 Clouds 5 1023 38 10000 4.6 20 17:55 31.03.2020
450 Clouds 5 1023 38 10000 4.6 20 17:37 31.03.2020
451 Clouds 6 1023 35 10000 3.1 350 17:18 31.03.2020
452 Clouds 5 1023 32 10000 1.5 20 16:40 31.03.2020
453 Clouds 5 1023 41 10000 3.1 360 16:19 31.03.2020
454 Clouds 5 1023 41 10000 3.1 360 15:57 31.03.2020
455 Clouds 5 1023 38 10000 1.5 330 15:39 31.03.2020
456 Rain 5 1024 44 10000 3.6 10 15:21 31.03.2020
457 Rain 5 1024 40 10000 3.6 360 14:57 31.03.2020
458 Rain 5 1024 40 10000 3.6 360 14:39 31.03.2020
459 Clouds 5 1024 41 10000 3.6 330 14:20 31.03.2020
460 Clouds 5 1024 37 10000 2.6 0 13:43 31.03.2020
461 Clouds 5 1024 34 10000 2.1 0 13:20 31.03.2020
462 Clouds 5 1024 44 10000 2.6 30 12:59 31.03.2020
463 Clouds 5 1024 44 10000 2.6 30 12:40 31.03.2020
464 Clouds 5 1024 47 10000 2.6 30 12:19 31.03.2020
465 Clouds 4 1024 47 10000 2.6 330 11:41 31.03.2020
466 Clouds 4 1024 55 10000 1 0 11:20 31.03.2020
467 Clouds 4 1024 55 10000 1 0 11:20 31.03.2020
468 Clouds 3 1024 64 10000 0.5 0 10:59 31.03.2020
469 Clouds 2 1024 64 10000 0.5 0 10:41 31.03.2020
470 Clouds 1 1024 47 10000 1 0 10:22 31.03.2020
471 Clouds 0 1024 74 10000 1 0 09:59 31.03.2020
472 Clouds 0 1024 74 10000 1 0 09:41 31.03.2020
473 Clear -2 1024 80 10000 0.37 217 09:22 31.03.2020
474 Clear -2 1024 80 10000 0.37 217 08:57 31.03.2020
475 Clear -4 1024 85 10000 0.5 0 08:38 31.03.2020
476 Clear -4 1023 92 10000 2.1 220 08:19 31.03.2020
477 Clear -5 1023 85 10000 2.1 220 07:56 31.03.2020
478 Clear -5 1023 85 10000 2.1 220 07:38 31.03.2020
479 Clear -5 1023 92 10000 3.1 220 07:19 31.03.2020
480 Clear -5 1023 92 10000 1 200 06:47 31.03.2020
481 Clear -6 1023 92 10000 1 180 06:22 31.03.2020
482 Clear -6 1023 92 10000 1 170 05:39 31.03.2020
483 Clear -5 1023 92 10000 1.5 190 03:43 31.03.2020
484 Clear -4 1023 92 10000 1 210 02:19 31.03.2020
485 Clear -4 1023 85 10000 1 220 01:45 31.03.2020
486 Clear -3 1023 85 10000 1.5 190 00:51 31.03.2020
487 Clear -3 1023 86 10000 1.5 180 00:25 31.03.2020
488 Clouds -2 1023 86 10000 1 200 23:59 30.03.2020
489 Clouds -2 1023 86 10000 1 200 23:38 30.03.2020
490 Clouds -2 1023 86 10000 1 190 23:18 30.03.2020
491 Clouds -2 1023 86 10000 2.1 180 22:56 30.03.2020
492 Clouds -1 1023 86 10000 2.1 180 22:37 30.03.2020
493 Clouds -1 1023 86 10000 2.1 210 22:18 30.03.2020
494 Clouds -1 1023 80 10000 2.6 210 21:55 30.03.2020
495 Clouds -1 1023 80 10000 2.6 210 21:36 30.03.2020
496 Clouds 0 1023 80 10000 3.1 200 21:18 30.03.2020
497 Clouds 1 1022 86 10000 3.1 180 20:42 30.03.2020
498 Clouds 2 1022 74 10000 2.6 170 20:24 30.03.2020
499 Clouds 2 1022 74 10000 2.6 170 20:24 30.03.2020
500 Clouds 2 1022 74 10000 2.6 170 19:59 30.03.2020
501 Clouds 3 1022 64 10000 3.6 170 19:40 30.03.2020
502 Clouds 3 1022 37 10000 2.1 0 19:22 30.03.2020
503 Clouds 4 1022 37 10000 2.1 0 18:57 30.03.2020
504 Clouds 4 1022 37 10000 2.6 30 18:38 30.03.2020
505 Clouds 4 1021 44 10000 2.6 10 18:20 30.03.2020
506 Clouds 4 1022 47 10000 3.6 40 17:57 30.03.2020
507 Clouds 4 1022 47 10000 3.6 40 17:38 30.03.2020
508 Clouds 4 1022 51 10000 3.6 30 17:19 30.03.2020
509 Clouds 4 1022 51 10000 3.6 30 16:55 30.03.2020
510 Clouds 4 1022 51 10000 3.6 30 16:37 30.03.2020
511 Clouds 4 1022 51 10000 3.1 70 16:19 30.03.2020
512 Clouds 4 1022 51 10000 3.1 70 15:54 30.03.2020
513 Clouds 4 1022 59 10000 3.1 20 15:36 30.03.2020
514 Clouds 4 1022 64 10000 4.1 30 15:18 30.03.2020
515 Clouds 3 1022 64 10000 3.6 40 14:54 30.03.2020
516 Clouds 3 1022 64 10000 3.6 40 14:36 30.03.2020
517 Clouds 3 1022 64 10000 2.6 60 14:18 30.03.2020
518 Clouds 3 1023 53 10000 3.1 50 13:43 30.03.2020
519 Clouds 2 1023 53 10000 4.1 30 13:21 30.03.2020
520 Rain 2 1023 53 10000 4.1 40 12:58 30.03.2020
521 Rain 2 1023 53 10000 4.1 40 12:40 30.03.2020
522 Rain 1 1023 74 10000 4.6 40 12:19 30.03.2020
523 Clouds 1 1023 68 10000 6.2 40 11:56 30.03.2020
524 Clouds 0 1023 68 10000 6.2 40 11:38 30.03.2020
525 Clouds 0 1023 74 10000 6.7 40 11:20 30.03.2020
526 Clouds 0 1023 74 10000 6.7 30 10:40 30.03.2020
527 Clouds -1 1023 74 10000 6.2 30 10:22 30.03.2020
528 Clouds 0 1023 74 10000 7.2 20 09:56 30.03.2020
529 Clouds -1 1023 74 10000 7.2 20 09:38 30.03.2020
530 Snow -1 1023 79 10000 5.7 30 09:19 30.03.2020
531 Snow -1 1023 79 3400 7.2 30 08:42 30.03.2020
532 Snow -1 1022 86 4900 6.7 20 08:22 30.03.2020
533 Snow -1 1022 80 9000 6.2 30 07:49 30.03.2020
534 Snow -1 1022 80 9000 6.2 30 07:31 30.03.2020
535 Snow -1 1022 86 10000 5.7 30 06:57 30.03.2020
536 Snow -1 1022 86 6000 5.1 20 06:33 30.03.2020
537 Snow 0 1022 92 3900 4.1 20 05:54 30.03.2020
538 Snow 0 1022 92 10000 4.6 40 05:22 30.03.2020
539 Snow 0 1022 92 5000 5.7 40 04:23 30.03.2020
540 Snow 1 1022 81 4000 6.2 30 03:44 30.03.2020
541 Snow 1 1022 75 4000 5.7 20 02:42 30.03.2020
542 Rain 1 1021 75 8000 5.1 20 01:44 30.03.2020
543 Snow 2 1021 80 10000 5.1 20 00:55 30.03.2020
544 Clouds 3 1021 80 10000 5.1 10 00:24 30.03.2020
545 Clouds 3 1020 69 10000 7.2 20 23:43 29.03.2020
546 Clouds 3 1020 65 10000 3.6 10 23:24 29.03.2020
547 Clouds 3 1020 65 10000 3.6 10 22:59 29.03.2020
548 Clouds 4 1020 65 10000 4.6 10 22:39 29.03.2020
549 Clouds 4 1020 65 10000 3.6 10 22:20 29.03.2020
550 -273 0 0 0 0 0 21:58 29.03.2020
551 Clouds 4 1019 65 10000 6.2 10 21:37 29.03.2020
552 Rain 4 1019 86 10000 6.7 360 21:18 29.03.2020
553 Rain 4 1019 93 10000 4.6 360 20:55 29.03.2020
554 Rain 4 1019 93 10000 4.6 360 20:37 29.03.2020
555 Rain 5 1018 93 8000 4.1 340 20:18 29.03.2020
556 Rain 5 1018 93 6000 4.1 350 19:55 29.03.2020
557 Rain 5 1018 93 6000 4.1 350 19:37 29.03.2020
558 Rain 5 1018 93 7000 4.6 10 19:18 29.03.2020
559 Rain 5 1018 86 7000 6.2 360 18:55 29.03.2020
560 Rain 6 1018 86 7000 6.2 360 18:37 29.03.2020
561 Rain 6 1017 80 10000 5.7 20 18:18 29.03.2020
562 Rain 6 1017 80 10000 4.6 360 17:54 29.03.2020
563 Rain 6 1017 80 10000 4.6 360 17:36 29.03.2020
564 Rain 6 1017 75 10000 3.6 360 17:18 29.03.2020
565 Rain 7 1017 75 10000 3.6 360 16:55 29.03.2020
566 Rain 7 1017 75 10000 3.6 360 16:36 29.03.2020
567 Rain 7 1017 75 10000 3.6 360 16:36 29.03.2020
568 Rain 7 1017 75 10000 3.6 360 16:36 29.03.2020
569 Rain 7 1017 75 10000 3.6 360 16:36 29.03.2020
570 Rain 7 1017 70 10000 3.6 30 16:18 29.03.2020
571 Rain 8 1017 70 10000 3.6 10 15:40 29.03.2020
572 Clouds 8 1017 49 10000 4.6 330 15:22 29.03.2020
573 Rain 8 1017 70 10000 5.7 20 14:57 29.03.2020
574 Rain 8 1017 57 10000 4.6 10 14:39 29.03.2020
575 Rain 8 1017 58 10000 4.1 20 14:19 29.03.2020
576 Rain 8 1017 58 10000 2.1 10 13:56 29.03.2020
577 Rain 8 1017 58 10000 2.1 10 13:38 29.03.2020
578 Rain 8 1017 58 10000 1 0 13:19 29.03.2020
579 Rain 8 1017 58 10000 1 0 12:55 29.03.2020
580 Rain 8 1017 58 10000 1 0 12:37 29.03.2020
581 Rain 8 1017 58 10000 1 0 12:18 29.03.2020
582 Rain 7 1017 58 10000 1 0 11:40 29.03.2020
583 Rain 7 1017 58 10000 2.1 40 11:21 29.03.2020
584 Rain 7 1017 58 10000 2.1 350 10:59 29.03.2020
585 Rain 6 1017 58 10000 2.1 350 10:38 29.03.2020
586 Rain 6 1017 58 10000 1.5 10 10:18 29.03.2020
587 Rain 6 1017 58 10000 1.5 10 10:18 29.03.2020
588 Rain 5 1017 69 10000 2.6 10 09:40 29.03.2020
589 Rain 5 1017 76 10000 1.5 340 09:20 29.03.2020
590 Rain 4 1016 76 10000 1.5 340 08:54 29.03.2020
591 Rain 5 1017 76 10000 1.5 340 08:54 29.03.2020
592 Rain 4 1016 76 10000 2.1 360 08:30 29.03.2020
593 Rain 4 1016 76 10000 2.1 360 07:59 29.03.2020
594 Rain 4 1016 76 10000 0.5 0 07:41 29.03.2020
595 Rain 3 1016 76 10000 0.5 0 07:20 29.03.2020
596 Clouds 3 1016 74 10000 0.5 0 05:46 29.03.2020
597 Clouds 4 1016 74 10000 0.5 200 04:27 29.03.2020
598 Clouds 5 1016 74 10000 1 0 03:31 29.03.2020
599 Clouds 5 1016 70 10000 1.38 349 01:51 29.03.2020
600 Clouds 5 1016 70 10000 1.38 349 01:23 29.03.2020
601 Clouds 5 1016 73 10000 1.42 329 01:23 29.03.2020
602 Clouds 5 1016 73 10000 1.5 330 00:58 29.03.2020
603 Clouds 5 1016 73 10000 0.5 0 00:33 29.03.2020
604 Clouds 5 1016 74 10000 1.42 329 23:57 28.03.2020
605 Clouds 5 1016 74 10000 1.42 329 23:39 28.03.2020
606 Clouds 6 1016 70 10000 1 210 23:19 28.03.2020
607 Clouds 6 1016 73 10000 1 0 22:41 28.03.2020
608 Clouds 7 1016 73 10000 1.5 210 22:22 28.03.2020
609 Clouds 7 1016 73 10000 1.5 210 22:22 28.03.2020
610 Clouds 6 1016 80 10000 1.5 200 21:56 28.03.2020
611 Clouds 7 1016 80 10000 1.5 200 21:38 28.03.2020
612 Clouds 7 1015 73 10000 2.6 260 21:19 28.03.2020
613 Clouds 7 1016 70 10000 1.5 200 20:54 28.03.2020
614 Clouds 7 1016 70 10000 1.5 200 20:36 28.03.2020
615 Clouds 7 1016 70 10000 1.5 190 20:18 28.03.2020
616 Clouds 8 1016 70 10000 1.5 190 19:54 28.03.2020
617 Clouds 9 1015 70 10000 1 250 19:36 28.03.2020
618 Clouds 10 1015 70 10000 1.5 310 19:18 28.03.2020
619 Clouds 12 1015 46 10000 2.6 330 18:39 28.03.2020
620 Clouds 13 1015 70 10000 3.1 10 18:20 28.03.2020
621 Clouds 14 1015 70 10000 3.1 350 17:40 28.03.2020
622 Clouds 15 1014 53 10000 4.1 330 17:22 28.03.2020
623 Clouds 15 1015 53 10000 2.1 10 16:59 28.03.2020
624 Clouds 15 1015 53 10000 2.1 10 16:38 28.03.2020
625 Clouds 15 1015 53 10000 4.1 340 16:18 28.03.2020
626 Clouds 15 1015 53 10000 4.1 340 16:18 28.03.2020
627 Clouds 15 1015 33 10000 3.6 10 15:40 28.03.2020
628 Clouds 15 1015 53 10000 4.1 30 15:19 28.03.2020
629 Clouds 15 1015 53 10000 4.1 30 15:19 28.03.2020
630 Clouds 15 1015 35 10000 3.1 10 14:58 28.03.2020
631 Clouds 15 1015 35 10000 3.1 10 14:40 28.03.2020
632 Clouds 15 1015 50 10000 3.1 340 14:21 28.03.2020
633 Clouds 15 1015 50 10000 2.6 20 13:43 28.03.2020
634 Clouds 14 1016 49 10000 2.6 40 13:23 28.03.2020
635 Clouds 14 1016 49 10000 2.1 0 12:41 28.03.2020
636 Clouds 14 1016 49 10000 1.5 360 12:23 28.03.2020
637 Clouds 13 1016 49 10000 1.5 360 11:59 28.03.2020
638 Clouds 13 1016 49 10000 2.6 10 11:41 28.03.2020
639 Clouds 11 1016 50 10000 2.1 10 11:20 28.03.2020
640 Clouds 10 1016 53 10000 2.1 330 10:40 28.03.2020
641 Clouds 10 1016 61 10000 1 0 10:22 28.03.2020
642 Clouds 10 1016 61 10000 1 0 09:56 28.03.2020
643 Clouds 9 1016 65 10000 2.6 230 09:37 28.03.2020
644 Clouds 8 1016 75 10000 1.5 230 09:19 28.03.2020
645 Clouds 5 1016 80 10000 2.6 220 08:42 28.03.2020
646 Clouds 4 1016 80 10000 2.6 220 08:22 28.03.2020
647 Clear 1 1016 78 10000 2.1 210 07:49 28.03.2020
648 Clear 1 1016 78 10000 2.1 210 07:31 28.03.2020
649 Clear 0 1015 100 10000 1.5 200 06:42 28.03.2020
650 Clear 0 1015 78 10000 1.5 190 06:18 28.03.2020
651 Clear 0 1015 79 10000 1.5 250 05:24 28.03.2020
652 Clear 0 1015 92 10000 2.6 220 04:48 28.03.2020
653 Clear 1 1015 92 10000 2.1 210 04:28 28.03.2020
654 Clear 2 1014 92 10000 1.5 200 02:46 28.03.2020
655 Clear 3 1014 77 10000 1.5 170 01:46 28.03.2020
656 Clear 2 1014 78 10000 1 190 01:20 28.03.2020
657 Clear 3 1014 77 10000 0.5 0 00:47 28.03.2020
658 Clear 4 1014 77 10000 0.5 0 00:21 28.03.2020
659 Clear 4 1014 86 10000 1 0 23:43 27.03.2020
660 Clear 5 1014 77 10000 0.69 263 23:25 27.03.2020
661 Clear 5 1014 74 10000 1 30 22:57 27.03.2020
662 Clear 6 1014 74 10000 1 30 22:39 27.03.2020
663 Clear 7 1014 65 10000 1 0 22:20 27.03.2020
664 Clear 7 1014 65 10000 1 0 21:58 27.03.2020
665 Clear 7 1014 74 10000 2.1 20 21:40 27.03.2020
666 Clear 7 1014 74 10000 2.6 10 21:22 27.03.2020
667 Clear 7 1014 74 10000 2.6 10 21:22 27.03.2020
668 Clear 8 1014 61 10000 3.6 30 20:56 27.03.2020
669 Clear 8 1014 61 10000 3.6 30 20:38 27.03.2020
670 Clouds 10 1014 57 10000 4.1 20 20:19 27.03.2020
671 Clouds 10 1013 57 10000 4.1 30 19:54 27.03.2020
672 Clouds 10 1013 57 10000 4.1 30 19:36 27.03.2020
673 Clouds 11 1013 53 10000 3.6 20 19:18 27.03.2020
674 Clouds 12 1013 46 10000 3.6 50 18:42 27.03.2020
675 Clouds 13 1013 44 10000 3.6 60 18:22 27.03.2020
676 Clouds 14 1013 41 10000 4.1 70 17:41 27.03.2020
677 Clouds 15 1012 41 10000 4.6 60 17:21 27.03.2020
678 Clouds 15 1012 41 10000 4.6 60 16:59 27.03.2020
679 Clouds 15 1012 38 10000 4.6 70 16:41 27.03.2020
680 Clouds 15 1012 38 10000 6.2 40 16:23 27.03.2020
681 Clouds 16 1012 38 10000 5.7 80 15:43 27.03.2020
682 Clouds 16 1012 46 0 4.47 85 15:25 27.03.2020
683 Clouds 16 1013 47 0 4.47 68 14:56 27.03.2020
684 Clouds 16 1012 44 0 1.34 227 14:36 27.03.2020
685 Clouds 12 1013 43 0 2.56 73 14:18 27.03.2020
686 Clouds 12 1013 43 0 2.56 73 13:42 27.03.2020
687 Clouds 11 1013 43 0 2.45 72 13:21 27.03.2020
688 Clouds 14 1012 47 0 1.34 154 12:58 27.03.2020
689 Clouds 11 1013 43 0 2.45 72 12:39 27.03.2020
690 Clouds 14 1013 52 0 1.79 104 12:19 27.03.2020
691 Clouds 13 1013 52 0 2.24 110 11:42 27.03.2020
692 Clouds 8 1015 48 0 0.5 90 11:24 27.03.2020
693 Clouds 12 1012 54 0 0.89 160 10:56 27.03.2020
694 Clouds 11 1008 63 0 1.34 110 10:38 27.03.2020
695 Clouds 11 1013 56 0 0.45 54 10:20 27.03.2020
696 Clouds 10 1013 59 0 0.45 235 09:58 27.03.2020
697 Clouds 8 1013 64 0 0.5 90 09:38 27.03.2020
698 Clouds 7 1013 70 0 0.5 90 09:20 27.03.2020
699 Clouds 6 1013 71 0 0.5 90 08:57 27.03.2020
700 Clouds 5 1013 79 0 0.5 90 08:38 27.03.2020
701 Clouds 8 1015 48 0 0.5 90 08:20 27.03.2020
702 Clear -1 1013 88 0 0.82 207 07:52 27.03.2020
703 Clear -1 1013 87 0 0.82 207 07:26 27.03.2020
704 Clear -2 1013 85 0 0.82 207 06:55 27.03.2020
705 Clear -2 1013 85 0 0.82 207 06:37 27.03.2020
706 Clear -1 1013 82 0 0.82 207 05:37 27.03.2020
707 Clear -2 1016 84 0 1.15 110 02:49 27.03.2020
708 Clouds -1 1016 81 0 2.35 99 01:36 27.03.2020
709 Clouds 3 1012 71 0 1.79 104 00:55 27.03.2020
710 Clouds 1 1012 74 0 1.79 104 00:32 27.03.2020
711 Clouds -1 1015 81 0 1.79 104 23:44 26.03.2020
712 Clouds 3 1014 67 0 4.02 92 23:24 26.03.2020
713 Clouds 3 1014 67 0 4.02 92 22:59 26.03.2020
714 Clouds 3 1014 67 0 4.02 92 22:59 26.03.2020
715 Clouds 3 1014 67 0 4.02 92 22:39 26.03.2020
716 -273 0 0 0 0 0 22:20 26.03.2020
717 Clouds 3 1014 71 0 3.08 86 22:20 26.03.2020
718 Clouds 3 1014 70 0 3.08 86 21:59 26.03.2020
719 Clouds 3 1014 66 0 2.68 96 21:39 26.03.2020
720 Clouds 4 1015 69 0 0.45 167 21:21 26.03.2020
721 Clouds 4 1015 68 0 0.89 5 20:58 26.03.2020
722 Clouds 4 1015 67 0 0.89 49 20:38 26.03.2020
723 Clouds 4 1015 67 0 0.89 49 20:38 26.03.2020
724 Clouds 4 1015 67 0 0.89 51 20:20 26.03.2020
725 Clouds 4 1015 67 0 0.89 57 19:57 26.03.2020
726 Clouds 4 1015 67 0 0.89 37 19:39 26.03.2020
727 Clouds 5 1015 66 0 0.89 57 19:20 26.03.2020
728 Clouds 5 1015 66 0 0.89 57 19:20 26.03.2020
729 Clouds 4 1015 65 0 0.89 42 18:58 26.03.2020
730 Clouds 4 1015 65 0 0.89 42 18:58 26.03.2020
731 Clouds 5 1015 64 0 1.34 49 18:39 26.03.2020
732 Clouds 5 1015 63 0 1.34 36 18:21 26.03.2020
733 Clouds 6 1015 60 0 1.79 10 17:44 26.03.2020
734 Clouds 7 1064 29 0 1.79 271 17:19 26.03.2020
735 Clouds 8 1015 58 0 0.89 28 16:55 26.03.2020
736 Clouds 7 1016 57 0 1.34 30 16:37 26.03.2020
737 Clouds 7 1015 57 0 0.89 48 16:18 26.03.2020
738 Clouds 7 1015 58 0 0.89 39 15:41 26.03.2020
739 Clouds 7 1016 56 0 0.89 67 15:22 26.03.2020
740 Clouds 7 1016 55 0 1.34 28 14:59 26.03.2020
741 Clouds 7 1016 55 0 1.79 107 14:41 26.03.2020
742 Clouds 7 1016 55 0 1.34 44 14:23 26.03.2020
743 Clouds 7 1016 54 0 1.79 61 13:54 26.03.2020
744 Clouds 6 1016 56 0 0.89 42 13:36 26.03.2020
745 Clouds 6 1016 56 0 1.34 193 13:18 26.03.2020
746 Clouds 5 1016 61 0 0.89 90 12:38 26.03.2020
747 Clouds 5 1016 60 0 0.89 41 12:38 26.03.2020
748 Clouds 5 1016 63 0 0.89 94 12:20 26.03.2020
749 Clouds 4 1016 67 0 0.89 32 11:46 26.03.2020
750 Clouds 3 1016 71 0 0.89 39 11:23 26.03.2020
751 Clouds 3 1016 72 0 0.89 28 10:57 26.03.2020
752 Clouds 2 1016 75 0 0.45 278 10:39 26.03.2020
753 Clouds 2 1017 75 0 0.89 33 10:19 26.03.2020
754 Clouds 1 1017 77 0 0.89 19 09:45 26.03.2020
755 Clouds 0 1016 78 0 0.89 18 09:21 26.03.2020
756 Clouds 0 1016 79 0 0.45 286 08:57 26.03.2020
757 Clouds -1 1016 80 0 0.45 217 08:38 26.03.2020
758 Clouds -1 1016 79 0 3.13 129 08:19 26.03.2020
759 Clear -1 1016 80 0 0.45 223 07:45 26.03.2020
760 Clear -2 1015 79 0 0.45 57 07:24 26.03.2020
761 Clear -2 1015 79 0 0.45 43 06:57 26.03.2020
762 Clear -2 1015 78 0 0.45 347 06:32 26.03.2020
763 Clear -3 1015 77 0 0.45 259 05:29 26.03.2020
764 Clear -1 1015 75 0 0.45 10 03:45 26.03.2020
765 Clear -2 1015 75 0 0.89 109 02:57 26.03.2020
766 Clear -2 1015 75 0 0.89 63 01:51 26.03.2020
767 Clear -1 1016 76 0 0.89 57 01:18 26.03.2020
768 Clear -2 1017 74 0 0.45 63 00:30 26.03.2020
769 Clear -1 1017 74 0 0.45 20 23:42 25.03.2020
770 Clear -1 1017 74 0 0.45 47 23:24 25.03.2020
771 Clear -1 1018 73 0 0.89 105 22:42 25.03.2020
772 Clear -1 1018 72 0 1.34 36 22:22 25.03.2020
773 Clear -1 1018 71 0 1.34 112 21:59 25.03.2020
774 Clear -1 1019 70 0 0.89 23 21:41 25.03.2020
775 Clear -1 1019 70 0 1.34 61 21:23 25.03.2020
776 Clear 0 1019 68 0 1.34 54 20:57 25.03.2020
777 Clear 0 1019 66 0 1.34 98 20:38 25.03.2020
778 Clear 0 1019 66 0 1.34 98 20:38 25.03.2020
779 Clear 0 1019 64 0 1.79 31 20:19 25.03.2020
780 Clear 1 1019 60 0 0.89 53 19:55 25.03.2020
781 Clear 1 1019 58 0 1.79 22 19:36 25.03.2020
782 Clear 1 1019 57 0 1.79 66 19:18 25.03.2020
783 Clear 3 1019 53 0 1.79 26 18:42 25.03.2020
784 Clear 3 1017 51 0 6.15 73 18:24 25.03.2020
785 Clear 4 1017 51 0 6.15 73 17:58 25.03.2020
786 Clear 4 1017 51 0 6.15 73 17:58 25.03.2020
787 Clear 4 1017 51 0 6.15 73 17:40 25.03.2020
788 Clouds 4 1017 51 0 7.66 77 17:21 25.03.2020
789 Clear 4 1018 50 0 7.78 78 16:56 25.03.2020
790 Clouds 4 1018 50 0 7.66 77 16:38 25.03.2020
791 Clear 4 1018 50 0 7.78 78 16:20 25.03.2020
792 Clear 5 1019 48 0 1.79 254 15:42 25.03.2020
793 Clear 5 1019 46 0 2.24 355 15:21 25.03.2020
794 Clouds 5 1019 47 0 2.68 10 14:57 25.03.2020
795 Clear 5 1019 45 0 2.24 30 14:57 25.03.2020
796 Clouds 5 1020 47 0 1.79 186 14:39 25.03.2020
797 Clouds 5 1020 47 0 1.79 186 14:39 25.03.2020
798 Clouds 5 1020 47 0 1.79 186 14:39 25.03.2020
799 Clear 5 1020 47 0 2.24 317 14:19 25.03.2020
800 Clear 5 1020 48 0 2.24 15 13:44 25.03.2020
801 Clear 5 1020 48 0 3.13 60 13:24 25.03.2020
802 Clouds 4 1021 47 0 2.68 9 12:39 25.03.2020
803 Clouds 4 1021 47 0 2.24 82 12:21 25.03.2020
804 Clouds 4 1021 48 0 2.68 28 11:59 25.03.2020
805 Clouds 4 1021 49 0 2.24 52 11:40 25.03.2020
806 Clear 3 1022 50 0 1.79 14 11:21 25.03.2020
807 Clear 3 1022 50 0 1.79 14 10:58 25.03.2020
808 Clear 2 1022 50 0 1.79 148 10:40 25.03.2020
809 Clear 2 1022 52 0 1.79 62 10:18 25.03.2020
810 Clear 2 1022 50 0 1.34 186 09:56 25.03.2020
811 Clear 2 1022 53 0 1.34 180 09:38 25.03.2020
812 Clear 2 1023 54 0 0.89 5 09:20 25.03.2020
813 Clear 0 1023 59 0 0.89 267 08:42 25.03.2020
814 Clear 0 1023 62 0 0.45 319 08:24 25.03.2020
815 Clear -2 1023 67 0 0.89 33 07:57 25.03.2020
816 Clear -3 1023 69 0 0.45 313 07:38 25.03.2020
817 Clear -3 1023 70 0 4.98 78 07:18 25.03.2020
818 Clear -4 1024 70 0 4.98 78 06:42 25.03.2020
819 Clear -2 1024 70 0 4.98 78 06:24 25.03.2020
820 Clear -3 1024 69 0 4.98 78 05:47 25.03.2020
821 Clear -3 1024 67 0 4.13 77 04:46 25.03.2020
822 Clear -3 1024 67 0 4.13 77 03:58 25.03.2020
823 Clear -3 1024 68 0 4.13 77 03:34 25.03.2020
824 Clear -2 1025 67 0 0.45 49 01:41 25.03.2020
825 Clear -2 1026 64 0 4.78 81 00:51 25.03.2020
826 Clear -2 1026 63 0 4.78 81 00:32 25.03.2020
827 Clear -1 1026 62 0 0.45 67 23:59 24.03.2020
828 Clear -1 1026 64 0 0.45 55 23:40 24.03.2020
829 Clear -1 1026 65 0 5 81 23:21 24.03.2020
830 Clear -1 1026 66 0 5 81 22:55 24.03.2020
831 Clear -1 1027 66 0 0.45 50 22:36 24.03.2020
832 Clear -1 1027 67 0 5 81 22:18 24.03.2020
833 Clear -1 1027 66 0 5 81 21:43 24.03.2020
834 Clear 0 1027 64 0 5 81 21:19 24.03.2020
835 Clear 0 1027 63 0 5 81 20:59 24.03.2020
836 Clear 0 1027 62 0 5 81 20:41 24.03.2020
837 Clear 0 1027 61 0 4.09 79 20:23 24.03.2020
838 Clear 1 1027 58 0 4.2 77 19:54 24.03.2020
839 Clear 1 1027 56 0 4.2 77 19:36 24.03.2020
840 Clear 1 1027 54 0 4.2 77 19:18 24.03.2020
841 Clear 2 1027 52 0 4.2 77 18:54 24.03.2020
842 Clear 2 1027 51 0 0.89 121 18:36 24.03.2020
843 Clear 3 1027 50 0 0.45 75 18:18 24.03.2020
844 Clear 3 1027 48 0 0.89 334 17:41 24.03.2020
845 Clear 4 1027 48 0 0.89 283 17:22 24.03.2020
846 Clear 4 1027 48 0 1.34 21 17:22 24.03.2020
847 Clear 4 1027 44 10000 7.7 50 16:57 24.03.2020
848 Clear 4 1027 44 10000 7.7 50 16:39 24.03.2020
849 Clear 5 1027 44 10000 7.2 50 16:20 24.03.2020
850 Clear 5 1027 44 10000 7.2 70 15:55 24.03.2020
851 Clear 5 1027 44 10000 7.2 70 15:37 24.03.2020
852 Clear 5 1027 40 10000 7.2 60 15:19 24.03.2020
853 Clear 5 1028 44 10000 7.7 60 14:42 24.03.2020
854 Clear 4 1028 46 0 1.34 33 14:18 24.03.2020
855 Clear 4 1028 48 0 2.24 93 13:42 24.03.2020
856 Clear 4 1029 48 0 2.24 49 13:24 24.03.2020
857 Clear 3 1029 48 0 1.79 60 12:55 24.03.2020
858 Clear 3 1029 49 0 1.79 40 12:37 24.03.2020
859 Clear 3 1029 48 0 1.79 20 12:18 24.03.2020
860 Clear 2 1029 51 0 2.24 40 11:39 24.03.2020
861 Clear 2 1029 43 10000 7.2 50 11:20 24.03.2020
862 Clear 2 1029 41 10000 5.7 70 10:43 24.03.2020
863 Clear 1 1029 41 10000 6.2 70 10:20 24.03.2020
864 Clear 1 1029 41 10000 6.2 70 09:59 24.03.2020
865 Clear 0 1029 41 10000 5.7 80 09:41 24.03.2020
866 Clear 0 1029 41 10000 5.7 80 09:22 24.03.2020
867 Clear -1 1029 54 10000 6.2 70 08:39 24.03.2020
868 Clear -2 1029 68 10000 4.6 70 08:21 24.03.2020
869 Clear -2 1029 68 10000 4.6 70 08:21 24.03.2020
870 Clear -3 1029 73 10000 3.6 80 07:50 24.03.2020
871 Clear -4 1029 73 10000 3.1 70 07:25 24.03.2020
872 Clear -4 1029 73 10000 3.1 70 07:25 24.03.2020
873 Clear -5 1029 73 10000 3.1 70 06:59 24.03.2020
874 Clear -5 1029 73 10000 3.6 80 06:33 24.03.2020
875 Clear -5 1029 73 10000 3.1 80 05:30 24.03.2020
876 Clear -4 1029 73 10000 2.6 90 04:41 24.03.2020
877 Clear -4 1029 58 10000 3.1 70 03:19 24.03.2020
878 Clear -3 1030 58 10000 3.1 70 01:59 24.03.2020
879 Clear -3 1030 53 10000 4.1 80 00:52 24.03.2020
880 Clear -3 1030 53 10000 4.1 80 00:26 24.03.2020
881 Clear -2 1030 50 10000 4.6 80 23:55 23.03.2020
882 Clear -2 1030 50 10000 4.6 80 23:36 23.03.2020
883 Clear -2 1030 50 10000 4.1 70 23:18 23.03.2020
884 Clear -2 1030 46 10000 3.6 80 22:42 23.03.2020
885 Clear -2 1030 46 10000 3.1 80 22:22 23.03.2020
886 Clear -2 1030 46 10000 3.1 80 22:22 23.03.2020
887 Clear -2 1030 42 10000 4.1 70 21:54 23.03.2020
888 Clear -2 1030 42 10000 4.1 70 21:36 23.03.2020
889 Clear -1 1030 46 10000 3.1 80 21:18 23.03.2020
890 Clear -1 1030 42 10000 3.6 80 20:42 23.03.2020
891 Clear -1 1030 42 10000 4.6 70 20:24 23.03.2020
892 Clear 0 1030 39 10000 4.1 70 19:55 23.03.2020
893 Clear 0 1030 41 10000 5.7 70 19:37 23.03.2020
894 Clear 0 1030 41 10000 5.7 70 19:19 23.03.2020
895 Clear 1 1030 37 10000 5.1 60 18:43 23.03.2020
896 Clear 1 1029 37 10000 5.7 50 18:24 23.03.2020
897 Clear 2 1029 31 10000 5.1 60 17:59 23.03.2020
898 Clear 2 1029 31 10000 5.1 60 17:41 23.03.2020
899 Clear 3 1029 34 10000 6.2 60 17:19 23.03.2020
900 Clear 3 1029 32 10000 6.2 70 16:44 23.03.2020
901 Clear 3 1029 32 10000 6.2 70 16:25 23.03.2020
902 Clear 3 1029 32 10000 6.2 70 16:25 23.03.2020
903 Clear 4 1029 32 10000 6.2 70 15:58 23.03.2020
904 Clear 4 1029 29 10000 5.7 80 15:39 23.03.2020
905 Clear 4 1030 34 10000 6.2 80 15:18 23.03.2020
906 Clear 4 1030 32 10000 6.7 80 14:37 23.03.2020
907 Clear 3 1030 31 10000 7.7 80 14:19 23.03.2020
908 Clear 3 1030 31 10000 8.7 60 13:57 23.03.2020
909 Clear 3 1030 31 10000 8.7 60 13:38 23.03.2020
910 Clear 3 1030 31 10000 8.2 70 13:20 23.03.2020
911 Clear 3 1030 37 10000 8.7 70 12:43 23.03.2020
912 Clear 3 1030 37 10000 8.7 70 12:43 23.03.2020
913 Clear 3 1030 34 10000 7.7 70 12:23 23.03.2020
914 Clear 2 1031 34 10000 8.7 70 11:56 23.03.2020
915 Clear 2 1031 31 10000 8.2 80 11:37 23.03.2020
916 Clear 2 1031 31 10000 8.2 80 11:19 23.03.2020
917 Clear 1 1031 30 10000 7.7 80 10:56 23.03.2020
918 Clear 1 1031 30 10000 7.7 80 10:36 23.03.2020
919 Clear 1 1031 30 10000 6.7 70 10:18 23.03.2020
920 Clear 0 1031 42 10000 8.2 70 09:42 23.03.2020
921 Clear -1 1031 49 10000 8.2 70 09:20 23.03.2020
922 Clear -2 1031 58 10000 7.2 70 08:40 23.03.2020
923 Clear -3 1030 62 10000 7.2 70 08:20 23.03.2020
924 Clear -3 1030 62 10000 7.2 70 07:58 23.03.2020
925 Clear -4 1030 62 10000 6.7 70 07:37 23.03.2020
926 Clear -4 1030 67 10000 4.6 70 07:18 23.03.2020
927 Clear -5 1030 73 10000 4.1 60 06:48 23.03.2020
928 Clear -5 1030 67 10000 4.6 80 05:50 23.03.2020
929 Clear -4 1030 73 10000 5.7 80 04:57 23.03.2020
930 Clear -4 1030 68 10000 7.2 70 03:24 23.03.2020
931 Clear -3 1030 63 10000 6.2 70 01:50 23.03.2020
932 Clear -3 1030 63 10000 6.2 70 00:58 23.03.2020
933 Clear -2 1030 63 10000 6.7 70 00:36 23.03.2020
934 Clear -2 1030 58 10000 6.2 70 23:47 22.03.2020
935 Clear -2 1030 58 10000 6.2 70 23:47 22.03.2020
936 Clear -2 1030 63 10000 5.7 80 23:25 22.03.2020
937 Clear -2 1030 54 10000 5.1 70 22:45 22.03.2020
938 Clear -2 1032 63 10000 5.7 80 22:24 22.03.2020
939 Clear -1 1032 63 10000 5.7 80 21:56 22.03.2020
940 Clear -1 1029 54 10000 5.7 70 21:37 22.03.2020
941 Clear -1 1029 50 10000 5.1 70 21:19 22.03.2020
942 Clear -1 1029 54 10000 6.2 70 20:46 22.03.2020
943 Clear 0 1029 54 10000 5.7 60 20:25 22.03.2020
944 Clear 0 1029 54 10000 5.7 60 19:58 22.03.2020
945 Clear 0 1029 57 10000 7.2 60 19:40 22.03.2020
946 Clear 0 1028 57 10000 5.1 60 19:20 22.03.2020
947 Clear 0 1028 57 10000 5.1 60 19:20 22.03.2020
948 Clear 1 1028 57 10000 5.1 60 18:59 22.03.2020
949 Clear 1 1028 50 10000 6.2 60 18:41 22.03.2020
950 Clear 1 1028 50 10000 6.2 60 18:41 22.03.2020
951 Clear 2 1027 47 10000 7.2 60 18:22 22.03.2020
952 Clear 2 1027 47 10000 7.2 60 17:59 22.03.2020
953 Clear 3 1027 47 10000 7.2 60 17:39 22.03.2020
954 Clear 3 1027 47 10000 6.2 60 17:21 22.03.2020
955 Clear 4 1027 47 10000 6.2 60 16:58 22.03.2020
956 Clear 4 1026 47 10000 7.2 60 16:40 22.03.2020
957 Clouds 4 1026 47 10000 7.2 60 16:21 22.03.2020
958 Clouds 4 1026 47 10000 7.2 60 15:58 22.03.2020
959 Clouds 5 1026 51 10000 6.2 50 15:39 22.03.2020
960 Clear 5 1026 55 10000 6.7 50 14:47 22.03.2020
961 Clouds 5 1028 48 10000 7.7 70 14:19 22.03.2020
962 Clouds 4 1026 69 10000 7.2 70 13:58 22.03.2020
963 Clouds 4 1026 69 10000 7.2 70 13:40 22.03.2020
964 Clouds 4 1026 64 10000 7.2 70 13:19 22.03.2020
965 Clouds 4 1026 69 10000 6.2 70 12:44 22.03.2020
966 Clouds 4 1026 69 10000 6.2 70 12:44 22.03.2020
967 Clouds 3 1026 74 10000 6.2 70 12:22 22.03.2020
968 Clouds 3 1026 74 10000 6.2 70 12:22 22.03.2020
969 Clouds 3 1026 69 10000 6.2 80 11:58 22.03.2020
970 Rain 2 1026 69 10000 6.2 80 11:39 22.03.2020
971 Rain 2 1025 70 10000 6.7 80 11:21 22.03.2020
972 Rain 2 1025 86 10000 7.2 70 10:54 22.03.2020
973 Rain 1 1025 86 10000 7.2 70 10:36 22.03.2020
974 Snow 1 1025 80 10000 7.7 70 10:18 22.03.2020
975 Snow 0 1025 86 10000 6.2 60 09:41 22.03.2020
976 Clouds 0 1025 92 10000 8.2 70 09:19 22.03.2020
977 Clouds -1 1024 92 10000 6.7 70 08:43 22.03.2020
978 Clouds -1 1024 92 10000 7.2 70 08:24 22.03.2020
979 Clouds -1 1024 86 10000 6.7 60 07:51 22.03.2020
980 Clouds -1 1023 86 10000 6.2 60 07:26 22.03.2020
981 Clouds -1 1023 92 10000 6.7 70 06:35 22.03.2020
982 Clouds -1 1022 92 10000 6.2 70 05:35 22.03.2020
983 Snow 0 1022 89 10000 6.2 70 03:46 22.03.2020
984 Snow 0 1022 94 3100 6.2 60 01:28 22.03.2020
985 Clouds 0 1022 96 2500 7.2 60 00:48 22.03.2020
986 Clouds 0 1022 96 2600 7.7 60 00:29 22.03.2020
987 Clouds 1 1022 96 2700 6.2 60 23:43 21.03.2020
988 Snow 1 1022 96 2200 6.7 50 23:19 21.03.2020
989 Snow 1 1021 96 2700 5.7 60 22:58 21.03.2020
990 Snow 1 1021 96 2700 5.7 60 22:37 21.03.2020
991 Rain 1 1021 96 2400 7.7 60 22:18 21.03.2020
992 Rain 1 1021 96 2400 7.7 60 21:56 21.03.2020
993 Rain 1 1021 96 5000 5.7 60 21:37 21.03.2020
994 Rain 1 1021 96 10000 6.7 60 21:18 21.03.2020
995 Rain 2 1020 93 10000 6.7 50 20:42 21.03.2020
996 Rain 2 1020 93 10000 4.6 50 20:20 21.03.2020
997 Rain 2 1020 93 7000 6.2 60 19:54 21.03.2020
998 Rain 2 1020 93 7000 6.2 60 19:36 21.03.2020
999 Rain 2 1020 100 7000 4.6 60 19:18 21.03.2020
1000 Rain 2 1020 100 6000 5.7 50 18:40 21.03.2020
1001 Rain 2 1019 93 6000 5.7 60 18:20 21.03.2020
1002 Rain 2 1019 93 8000 5.7 60 17:57 21.03.2020
1003 Rain 3 1019 93 8000 5.7 60 17:39 21.03.2020
1004 Rain 3 1019 93 9000 5.7 50 17:21 21.03.2020
1005 Rain 3 1019 93 7000 6.2 50 16:42 21.03.2020
1006 Rain 3 1019 93 8000 5.1 50 16:23 21.03.2020
1007 Rain 3 1019 93 8000 5.1 50 15:58 21.03.2020
1008 Rain 3 1019 93 8000 5.7 50 15:40 21.03.2020
1009 Rain 3 1019 93 10000 6.2 50 15:21 21.03.2020
1010 Rain 3 1019 93 10000 6.2 50 14:56 21.03.2020
1011 Rain 3 1019 93 9000 5.7 60 14:37 21.03.2020
1012 Rain 3 1019 93 9000 4.6 50 14:19 21.03.2020
1013 Rain 3 1019 93 9000 4.6 50 13:57 21.03.2020
1014 Rain 4 1019 93 10000 4.6 70 13:38 21.03.2020
1015 Rain 4 1019 93 6000 3.6 50 13:20 21.03.2020
1016 Rain 4 1019 93 4400 4.1 50 12:55 21.03.2020
1017 Rain 4 1019 93 4400 4.1 50 12:36 21.03.2020
1018 Rain 4 1019 93 4300 3.6 40 12:18 21.03.2020
1019 Rain 3 1020 93 10000 4.1 50 11:55 21.03.2020
1020 Rain 3 1020 93 10000 4.1 50 11:37 21.03.2020
1021 Rain 3 1019 93 10000 4.6 20 11:18 21.03.2020
1022 Rain 3 1019 93 10000 5.1 20 10:55 21.03.2020
1023 Rain 4 1019 93 10000 5.1 20 10:37 21.03.2020
1024 Rain 4 1019 93 10000 5.1 20 10:18 21.03.2020
1025 Rain 4 1019 100 8000 4.6 20 09:40 21.03.2020
1026 Rain 4 1019 100 5000 4.6 30 09:21 21.03.2020
1027 Rain 4 1019 100 5000 4.6 30 08:56 21.03.2020
1028 Rain 4 1019 100 2800 5.1 20 08:38 21.03.2020
1029 Rain 4 1018 100 2400 5.1 30 08:20 21.03.2020
1030 Rain 4 1018 100 2600 5.7 10 07:39 21.03.2020
1031 Rain 5 1018 100 2800 6.2 10 07:20 21.03.2020
1032 Rain 5 1018 100 3500 5.7 10 06:45 21.03.2020
1033 Rain 5 1018 100 1000 4.6 10 06:26 21.03.2020
1034 Rain 6 1018 93 1200 4.6 350 05:41 21.03.2020
1035 Rain 7 1018 93 10000 2.6 20 04:37 21.03.2020
1036 Rain 8 1018 100 10000 1.5 220 02:39 21.03.2020
1037 Rain 8 1019 93 10000 2.1 220 01:57 21.03.2020
1038 Rain 9 1019 93 10000 3.1 150 01:29 21.03.2020
1039 Rain 9 1019 87 10000 4.1 190 00:47 21.03.2020
1040 Rain 9 1019 93 10000 3.1 210 00:24 21.03.2020
1041 Rain 9 1019 93 10000 3.1 240 23:48 20.03.2020
1042 Rain 9 1019 93 10000 6.7 220 23:24 20.03.2020
1043 Rain 10 1019 81 10000 6.2 220 22:56 20.03.2020
1044 Rain 10 1019 81 10000 6.2 220 22:37 20.03.2020
1045 Rain 10 1019 76 10000 7.2 220 22:19 20.03.2020
1046 Rain 10 1019 76 10000 7.2 220 21:54 20.03.2020
1047 Rain 11 1018 66 10000 3.6 310 21:36 20.03.2020
1048 Rain 11 1018 66 10000 4.6 340 21:18 20.03.2020
1049 Rain 11 1018 66 10000 4.6 340 20:55 20.03.2020
1050 Rain 11 1018 66 10000 4.1 330 20:37 20.03.2020
1051 Rain 12 1017 76 10000 1.52 108 20:18 20.03.2020
1052 Rain 12 1017 71 10000 2.1 60 19:44 20.03.2020
1053 Rain 13 1017 58 10000 1.5 70 19:18 20.03.2020
1054 Rain 14 1017 54 10000 3.1 30 18:55 20.03.2020
1055 Rain 15 1017 54 10000 3.1 30 18:37 20.03.2020
1056 Rain 16 1017 51 10000 4.1 30 18:19 20.03.2020
1057 Rain 17 1017 45 10000 4.1 30 17:39 20.03.2020
1058 Rain 17 1017 45 10000 4.1 20 17:21 20.03.2020
1059 Rain 18 1017 39 10000 3.1 340 16:58 20.03.2020
1060 Rain 18 1017 39 10000 3.1 340 16:58 20.03.2020
1061 Rain 18 1017 39 10000 3.1 340 16:40 20.03.2020
1062 Rain 18 1017 39 10000 3.6 360 16:18 20.03.2020
1063 Rain 18 1018 39 10000 3.1 360 15:42 20.03.2020
1064 Rain 18 1018 42 10000 2.1 10 15:22 20.03.2020
1065 Rain 19 1018 42 10000 2.1 10 15:22 20.03.2020
1066 Rain 18 1018 42 10000 2.1 10 14:56 20.03.2020
1067 Rain 18 1018 42 10000 1.5 0 14:37 20.03.2020
1068 Clouds 18 1018 42 10000 1.5 0 14:19 20.03.2020
1069 Clouds 18 1019 42 10000 1.5 0 13:45 20.03.2020
1070 Clouds 18 1019 48 10000 1.5 0 13:19 20.03.2020
1071 Clouds 17 1020 55 10000 1.5 0 12:54 20.03.2020
1072 Clouds 17 1020 55 10000 1.5 0 12:36 20.03.2020
1073 Clouds 17 1020 51 10000 1 0 12:18 20.03.2020
1074 Clouds 16 1020 58 10000 1 0 11:39 20.03.2020
1075 Clouds 14 1020 58 10000 1 0 11:20 20.03.2020
1076 Clouds 14 1021 66 10000 1 0 10:43 20.03.2020
1077 Clouds 13 1021 76 10000 0.5 0 10:21 20.03.2020
1078 Clouds 13 1021 76 10000 0.5 0 10:21 20.03.2020
1079 Clouds 12 1021 76 10000 1 0 10:00 20.03.2020
1080 Clouds 11 1021 76 10000 1 0 09:41 20.03.2020
1081 Clouds 10 1021 81 10000 1.5 310 09:19 20.03.2020
1082 Clouds 8 1021 93 10000 2.1 230 08:43 20.03.2020
1083 Clouds 6 1021 87 10000 2.1 240 08:22 20.03.2020
1084 Clouds 5 1021 87 10000 2.1 240 07:57 20.03.2020
1085 Clear 4 1020 100 10000 1.5 180 07:38 20.03.2020
1086 Clear 3 1020 93 10000 2.1 170 07:19 20.03.2020
1087 Clear 3 1021 100 7000 1 180 06:42 20.03.2020
1088 Clear 3 1021 93 10000 1 0 04:57 20.03.2020
1089 Clear 3 1021 93 10000 1 190 04:27 20.03.2020
1090 Clear 4 1021 100 10000 1.5 150 02:43 20.03.2020
1091 Clear 5 1021 86 10000 1 120 01:50 20.03.2020
1092 Clear 6 1022 81 10000 1.27 117 00:38 20.03.2020
1093 Clear 7 1022 81 10000 2.1 130 23:58 19.03.2020
1094 Clear 7 1022 81 10000 2.1 130 23:40 19.03.2020
1095 Clear 8 1022 76 10000 2.1 120 23:19 19.03.2020
1096 Clear 8 1022 76 10000 2.1 120 23:19 19.03.2020
1097 Clear 8 1022 81 10000 1.5 130 22:40 19.03.2020
1098 Clear 8 1022 87 10000 1 120 22:22 19.03.2020
1099 Clear 9 1022 81 10000 1.5 110 21:58 19.03.2020
1100 Clear 9 1022 81 10000 1.5 110 21:38 19.03.2020
1101 Clear 9 1022 81 10000 1.5 90 21:19 19.03.2020
1102 Clear 10 1023 76 10000 1 60 20:43 19.03.2020
1103 Clear 10 1023 76 10000 1 60 20:43 19.03.2020
1104 Clear 11 1022 66 10000 1.5 70 20:25 19.03.2020
1105 Clear 11 1022 58 10000 2.1 60 19:59 19.03.2020
1106 Clear 12 1022 58 10000 2.1 60 19:39 19.03.2020
1107 Clear 13 1022 58 10000 2.1 40 19:20 19.03.2020
1108 Clear 14 1022 54 10000 3.6 30 18:58 19.03.2020
1109 Clear 14 1022 54 10000 3.6 30 18:40 19.03.2020
1110 Clear 16 1022 51 10000 4.1 30 18:22 19.03.2020
1111 Clear 15 1022 51 10000 4.1 30 18:22 19.03.2020
1112 Clear 16 1022 48 10000 4.6 10 17:54 19.03.2020
1113 Clear 17 1022 48 10000 4.6 10 17:36 19.03.2020
1114 Clear 17 1022 48 10000 4.6 20 17:18 19.03.2020
1115 Clear 18 1022 45 10000 5.1 20 16:41 19.03.2020
1116 Clear 18 1022 42 10000 3.6 30 16:21 19.03.2020
1117 Clear 18 1022 42 10000 4.6 20 15:42 19.03.2020
1118 Clear 18 1023 42 10000 4.1 30 15:23 19.03.2020
1119 Clear 18 1023 42 10000 4.1 20 14:43 19.03.2020
1120 Clear 18 1023 45 10000 3.1 20 14:23 19.03.2020
1121 Clear 18 1023 45 10000 1.5 0 13:59 19.03.2020
1122 Clear 18 1023 45 10000 1.5 0 13:38 19.03.2020
1123 Clear 17 1024 45 10000 1.5 0 13:18 19.03.2020
1124 Clear 17 1024 48 10000 1.5 0 12:42 19.03.2020
1125 Clear 17 1024 44 10000 1.5 0 12:24 19.03.2020
1126 Clear 16 1025 48 10000 2.6 60 11:58 19.03.2020
1127 Clear 16 1025 48 10000 2.6 60 11:40 19.03.2020
1128 Clear 15 1025 47 10000 3.1 110 11:22 19.03.2020
1129 Clear 14 1025 54 10000 2.1 130 10:43 19.03.2020
1130 Clear 13 1025 58 10000 0.5 0 10:22 19.03.2020
1131 Clear 12 1025 71 10000 1 0 09:58 19.03.2020
1132 Clear 11 1025 71 10000 0.17 102 09:40 19.03.2020
1133 Clear 9 1025 81 10000 0.5 0 09:20 19.03.2020
1134 Clear 8 1025 81 10000 1 170 08:46 19.03.2020
1135 Clear 6 1025 93 10000 0.5 190 08:22 19.03.2020
1136 Clear 4 1025 93 10000 1 170 07:48 19.03.2020
1137 Clear 3 1025 93 10000 1.5 150 07:30 19.03.2020
1138 Clear 2 1025 100 2600 1.5 210 06:51 19.03.2020
1139 Clear 2 1024 93 10000 2.1 220 05:53 19.03.2020
1140 Clear 3 1024 93 10000 1.5 220 05:23 19.03.2020
1141 Clear 3 1024 100 10000 2.1 170 04:41 19.03.2020
1142 Clear 3 1025 93 10000 1.5 170 03:39 19.03.2020
1143 Clear 4 1025 93 10000 1 168 01:45 19.03.2020
1144 Clear 5 1025 93 10000 0.5 190 00:39 19.03.2020
1145 Clear 5 1025 93 10000 0.95 161 00:19 19.03.2020
1146 Clear 6 1026 87 10000 1 140 23:42 18.03.2020
1147 Clear 6 1026 93 10000 1 160 23:22 18.03.2020
1148 Clear 7 1026 87 10000 0.5 30 22:43 18.03.2020
1149 Clear 7 1026 81 10000 1 140 22:23 18.03.2020
1150 Clear 8 1026 81 10000 1 140 21:55 18.03.2020
1151 Clear 7 1026 86 10000 0.5 130 21:37 18.03.2020
1152 Clear 8 1026 87 10000 1 120 21:19 18.03.2020
1153 Clear 9 1026 71 10000 1 120 20:55 18.03.2020
1154 Clear 10 1026 71 10000 1 120 20:37 18.03.2020
1155 Clear 10 1026 71 10000 2.6 90 20:19 18.03.2020
1156 Clear 11 1026 71 10000 2.1 70 19:41 18.03.2020
1157 Clear 12 1026 62 10000 2.6 50 19:21 18.03.2020
1158 Clear 12 1026 62 10000 2.6 50 19:21 18.03.2020
1159 Clear 13 1026 58 10000 3.1 30 18:58 18.03.2020
1160 Clear 13 1026 58 10000 3.1 30 18:58 18.03.2020
1161 Clear 14 1026 58 10000 3.1 30 18:39 18.03.2020
1162 Clear 14 1026 54 10000 4.1 30 18:19 18.03.2020
1163 Clear 14 1026 54 10000 4.1 30 18:19 18.03.2020
1164 Clear 15 1025 51 10000 5.1 20 17:56 18.03.2020
1165 Clear 16 1026 48 10000 4.6 20 17:38 18.03.2020
1166 Clear 16 1026 48 10000 4.6 20 17:19 18.03.2020
1167 Clear 17 1026 48 10000 3.6 20 16:43 18.03.2020
1168 Clear 17 1026 45 10000 3.6 30 16:21 18.03.2020
1169 Clouds 17 1026 48 10000 3.1 50 15:59 18.03.2020
1170 Clouds 17 1026 48 10000 3.1 50 15:39 18.03.2020
1171 Clouds 17 1027 48 10000 2.6 360 15:20 18.03.2020
1172 Clouds 17 1027 48 10000 2.1 350 14:44 18.03.2020
1173 Clouds 17 1027 48 10000 2.6 360 14:21 18.03.2020
1174 Clouds 17 1028 44 10000 2.1 0 13:42 18.03.2020
1175 Clouds 16 1028 47 10000 2.1 320 13:20 18.03.2020
1176 Clouds 16 1028 51 10000 2.1 0 12:59 18.03.2020
1177 Clouds 16 1028 51 10000 2.1 0 12:41 18.03.2020
1178 Clouds 16 1029 51 10000 2.6 40 12:19 18.03.2020
1179 Clouds 15 1029 54 10000 1.5 350 11:39 18.03.2020
1180 Clouds 14 1029 58 10000 1.5 120 11:20 18.03.2020
1181 Clouds 13 1029 58 10000 1.5 120 10:58 18.03.2020
1182 Clouds 13 1029 58 10000 1.5 120 10:39 18.03.2020
1183 Clouds 13 1029 62 10000 1.5 0 10:20 18.03.2020
1184 Clouds 11 1029 66 10000 0.5 0 09:44 18.03.2020
1185 Clouds 9 1030 76 10000 1 0 09:26 18.03.2020
1186 Clouds 8 1030 76 10000 1 0 08:58 18.03.2020
1187 Clouds 7 1030 87 10000 1 180 08:39 18.03.2020
1188 Clouds 5 1029 100 10000 1.5 200 08:21 18.03.2020
1189 Clouds 4 1029 100 10000 0.5 0 07:49 18.03.2020
1190 Clouds 3 1029 93 10000 1 0 07:30 18.03.2020
1191 Clouds 3 1029 93 9000 1 180 06:50 18.03.2020
1192 Clouds 4 1029 93 9000 1 200 06:24 18.03.2020
1193 Clouds 4 1029 93 10000 1.5 180 05:35 18.03.2020
1194 Clouds 5 1029 93 10000 2.6 160 04:29 18.03.2020
1195 Clouds 5 1029 86 10000 2.1 150 02:51 18.03.2020
1196 Clouds 5 1030 93 10000 1.5 180 02:23 18.03.2020
1197 Rain 6 1030 100 10000 1 150 01:31 18.03.2020
1198 Clouds 6 1030 86 10000 1.5 170 00:42 18.03.2020
1199 Rain 7 1030 93 10000 1 150 00:20 18.03.2020
1200 Rain 7 1030 87 10000 0.39 226 23:40 17.03.2020
1201 Rain 8 1030 81 10000 1 200 23:19 17.03.2020
1202 Rain 8 1030 81 10000 2.1 160 22:42 17.03.2020
1203 Rain 9 1030 81 10000 2.1 160 22:24 17.03.2020
1204 Rain 9 1030 81 10000 1 140 21:42 17.03.2020
1205 Rain 9 1030 76 10000 1.5 190 21:22 17.03.2020
1206 Rain 9 1030 76 10000 1.5 190 20:56 17.03.2020
1207 Rain 10 1030 81 10000 2.6 160 20:37 17.03.2020
1208 Rain 10 1030 81 10000 2.1 140 20:19 17.03.2020
1209 Rain 10 1030 76 10000 2.6 110 19:41 17.03.2020
1210 Rain 11 1030 76 10000 2.1 120 19:18 17.03.2020
1211 Rain 11 1030 71 10000 1.5 110 18:57 17.03.2020
1212 Rain 12 1030 71 10000 1.5 110 18:39 17.03.2020
1213 Rain 12 1029 71 10000 1.5 100 18:21 17.03.2020
1214 -273 0 0 0 0 0 18:21 17.03.2020
1215 Rain 12 1029 66 10000 1.5 120 17:56 17.03.2020
1216 Rain 13 1029 66 10000 1.5 120 17:37 17.03.2020
1217 Rain 13 1029 66 10000 1.5 30 17:18 17.03.2020
1218 Rain 13 1029 62 10000 0.5 0 16:41 17.03.2020
1219 Rain 13 1030 66 10000 1 60 16:19 17.03.2020
1220 Rain 13 1030 62 10000 1 0 15:45 17.03.2020
1221 Rain 13 1030 62 10000 1 0 15:22 17.03.2020
1222 Rain 13 1030 71 10000 1 0 14:44 17.03.2020
1223 Clouds 12 1030 71 10000 1.5 20 14:26 17.03.2020
1224 Clouds 12 1030 71 10000 2.6 350 13:58 17.03.2020
1225 Clouds 12 1030 71 10000 2.6 350 13:40 17.03.2020
1226 Clouds 12 1030 50 10000 2.6 280 13:21 17.03.2020
1227 Clouds 12 1030 50 10000 2.6 230 12:44 17.03.2020
1228 Clouds 12 1030 50 10000 3.1 280 12:24 17.03.2020
1229 Clouds 12 1030 50 10000 3.6 280 11:56 17.03.2020
1230 Clouds 12 1030 50 10000 3.6 280 11:38 17.03.2020
1231 Clouds 12 1030 54 10000 3.6 290 11:20 17.03.2020
1232 Clouds 12 1030 50 10000 3.6 250 10:54 17.03.2020
1233 Clouds 11 1030 50 10000 3.6 250 10:36 17.03.2020
1234 Clouds 11 1030 58 10000 4.1 250 10:18 17.03.2020
1235 Clouds 10 1030 58 10000 4.1 240 09:44 17.03.2020
1236 Clouds 9 1030 66 10000 3.6 230 09:20 17.03.2020
1237 Clouds 8 1029 70 10000 4.6 230 08:57 17.03.2020
1238 Clouds 8 1029 70 10000 4.6 230 08:39 17.03.2020
1239 Clouds 7 1029 70 10000 4.6 230 08:18 17.03.2020
1240 Clouds 6 1028 75 10000 4.6 230 07:47 17.03.2020
1241 Clouds 6 1028 81 10000 3.6 220 07:20 17.03.2020
1242 Clouds 6 1028 80 10000 4.6 230 06:45 17.03.2020
1243 Clouds 6 1027 75 10000 4.6 220 06:24 17.03.2020
1244 Clouds 5 1027 86 10000 4.1 210 05:18 17.03.2020
1245 Clouds 4 1026 81 10000 1 0 03:27 17.03.2020
1246 Clouds 4 1026 82 10000 1.5 170 01:50 17.03.2020
1247 Clouds 4 1025 86 10000 1.5 160 01:30 17.03.2020
1248 Clouds 4 1025 86 10000 2.1 200 00:52 17.03.2020
1249 Clouds 4 1025 81 10000 2.1 190 23:53 16.03.2020
1250 Clouds 4 1025 86 10000 1 170 23:34 16.03.2020
1251 Clouds 5 1024 86 10000 2.1 160 22:58 16.03.2020
1252 Clouds 5 1024 86 10000 2.1 160 22:37 16.03.2020
1253 Clouds 6 1024 80 10000 1 180 22:19 16.03.2020
1254 Clouds 6 1024 93 10000 1.5 160 21:44 16.03.2020
1255 Clouds 6 1024 86 10000 1 0 21:25 16.03.2020
1256 Clouds 7 1024 75 10000 0.5 0 20:58 16.03.2020
1257 Clouds 7 1024 75 10000 0.5 0 20:39 16.03.2020
1258 Clouds 8 1023 81 10000 0.5 0 20:20 16.03.2020
1259 Clouds 10 1023 61 10000 1.5 150 19:46 16.03.2020
1260 Clouds 10 1023 61 10000 1.5 150 19:24 16.03.2020
1261 Clouds 12 1022 57 10000 1.5 120 18:59 16.03.2020
1262 Clouds 13 1022 47 10000 2.1 110 18:39 16.03.2020
1263 Clouds 14 1022 44 10000 3.1 50 18:19 16.03.2020
1264 Clouds 15 1022 38 10000 2.6 20 17:46 16.03.2020
1265 Clear 16 1022 36 10000 3.1 40 17:25 16.03.2020
1266 Clear 16 1022 36 10000 3.6 20 16:57 16.03.2020
1267 Clear 17 1022 36 10000 3.6 20 16:39 16.03.2020
1268 Clear 17 1022 36 10000 3.6 10 16:20 16.03.2020
1269 Clear 17 1021 38 10000 3.1 20 15:43 16.03.2020
1270 Clear 17 1021 38 10000 3.6 20 15:23 16.03.2020
1271 Clear 17 1021 46 10000 3.1 50 14:48 16.03.2020
1272 Clear 17 1021 36 10000 1.5 0 14:23 16.03.2020
1273 Clear 16 1021 36 10000 2.6 320 13:51 16.03.2020
1274 Clear 16 1021 38 10000 2.6 0 13:29 16.03.2020
1275 Clear 15 1021 41 10000 3.1 340 12:58 16.03.2020
1276 Clear 15 1021 41 10000 3.1 340 12:39 16.03.2020
1277 Clear 15 1021 38 10000 1.5 10 12:20 16.03.2020
1278 Clear 15 1021 38 10000 1.5 10 12:20 16.03.2020
1279 Clear 15 1021 38 10000 0.5 0 11:44 16.03.2020
1280 Clear 12 1021 49 10000 0.5 0 11:26 16.03.2020
1281 Clear 11 1021 49 10000 0.5 0 10:45 16.03.2020
1282 Clear 10 1021 43 10000 1.5 210 10:25 16.03.2020
1283 Clear 10 1020 46 10000 1.5 230 09:59 16.03.2020
1284 Clear 10 1020 46 10000 1.5 230 09:40 16.03.2020
1285 Clear 7 1020 65 10000 1.5 220 09:20 16.03.2020
1286 Clear 5 1019 75 10000 2.6 210 08:43 16.03.2020
1287 Clouds 2 1019 73 10000 2.6 240 08:23 16.03.2020
1288 Clouds 0 1019 86 10000 4.1 230 07:44 16.03.2020
1289 Clouds 0 1018 80 10000 2.6 230 07:21 16.03.2020
1290 Clouds -1 1018 74 10000 1.5 180 06:46 16.03.2020
1291 Clouds 0 1018 71 10000 2.6 210 06:23 16.03.2020
1292 Clouds 0 1017 71 10000 2.6 210 04:53 16.03.2020
1293 Clouds 1 1016 80 10000 1.5 200 01:49 16.03.2020
1294 Clouds 2 1016 86 10000 2.1 220 00:49 16.03.2020
1295 Clouds 2 1016 86 10000 2.1 220 00:30 16.03.2020
1296 Clouds 2 1016 86 10000 1 160 23:42 15.03.2020
1297 Clear 3 1016 80 10000 2.6 100 23:20 15.03.2020
1298 Clear 3 1016 70 10000 1 130 22:42 15.03.2020
1299 Clear 4 1016 86 10000 2.54 187 22:22 15.03.2020
1300 Clear 4 1016 86 10000 2.54 187 21:55 15.03.2020
1301 Clear 5 1016 70 10000 1 0 21:37 15.03.2020
1302 Clear 5 1016 75 10000 0.5 0 21:18 15.03.2020
1303 Clear 6 1016 75 10000 2.54 187 20:42 15.03.2020
1304 Clear 6 1016 74 10000 1.5 110 20:20 15.03.2020
1305 Clear 7 1016 74 10000 1.5 110 19:56 15.03.2020
1306 Clear 8 1016 74 10000 1.5 120 19:38 15.03.2020
1307 Clear 8 1016 74 10000 3.1 110 19:19 15.03.2020
1308 Clear 9 1016 74 10000 3.1 110 18:55 15.03.2020
1309 Clear 10 1016 53 10000 2.1 80 18:36 15.03.2020
1310 Clear 11 1016 74 10000 2.6 40 18:18 15.03.2020
1311 Clear 12 1016 37 10000 1 0 17:40 15.03.2020
1312 Clear 13 1016 33 10000 1 0 17:21 15.03.2020
1313 Clear 13 1016 35 10000 1 0 16:58 15.03.2020
1314 Clear 13 1016 35 10000 1 0 16:38 15.03.2020
1315 Clear 13 1016 35 10000 1 0 16:19 15.03.2020
1316 Clear 13 1016 37 10000 1.5 0 15:45 15.03.2020
1317 Clear 13 1016 37 10000 1.5 0 15:27 15.03.2020
1318 Clear 13 1017 37 10000 1.5 0 14:57 15.03.2020
1319 Clear 13 1017 37 10000 1.5 0 14:38 15.03.2020
1320 Clear 12 1017 40 10000 2.1 0 14:18 15.03.2020
1321 Clear 12 1017 40 10000 2.1 0 14:18 15.03.2020
1322 Clear 12 1017 43 10000 2.6 80 13:54 15.03.2020
1323 Clear 12 1017 43 10000 2.6 80 13:36 15.03.2020
1324 Clouds 11 1017 40 10000 3.1 90 13:18 15.03.2020
1325 Clouds 11 1017 40 10000 3.1 90 13:18 15.03.2020
1326 Clouds 10 1018 43 10000 4.6 80 12:39 15.03.2020
1327 Clouds 10 1018 46 10000 4.1 70 12:21 15.03.2020
1328 Clouds 9 1019 45 10000 4.1 70 11:43 15.03.2020
1329 Clouds 8 1019 49 10000 4.1 80 11:24 15.03.2020
1330 Clouds 7 1019 56 10000 4.6 80 10:58 15.03.2020
1331 Clouds 7 1019 56 10000 4.6 80 10:39 15.03.2020
1332 Clouds 7 1020 60 10000 3.6 90 10:21 15.03.2020
1333 Clouds 6 1021 64 10000 6.7 100 09:57 15.03.2020
1334 Clouds 4 1020 56 10000 3.6 90 09:36 15.03.2020
1335 Clouds 4 1020 56 10000 3.1 90 09:18 15.03.2020
1336 Clouds 2 1021 56 10000 2.1 100 08:41 15.03.2020
1337 Clear 1 1021 86 10000 1.5 30 08:19 15.03.2020
1338 Clear 0 1021 92 10000 1 20 07:48 15.03.2020
1339 Clear -1 1021 100 4800 1.73 110 07:22 15.03.2020
1340 Clear -1 1021 92 9000 1.73 110 06:44 15.03.2020
1341 Clear -1 1023 87 10000 3.1 80 05:48 15.03.2020
1342 Clear -1 1021 92 10000 1.5 100 04:57 15.03.2020
1343 Clear -1 1021 92 10000 1.5 100 04:38 15.03.2020
1344 Clear -1 1022 100 10000 1.5 110 04:20 15.03.2020
1345 Clear 0 1022 92 10000 1.5 150 03:19 15.03.2020
1346 Clouds 0 1022 86 10000 1.5 170 02:23 15.03.2020
1347 Clouds 1 1022 100 10000 2.1 170 00:59 15.03.2020
1348 Clouds 1 1022 100 10000 2.1 170 00:40 15.03.2020
1349 Clouds 1 1022 88 10000 1.5 140 00:19 15.03.2020
1350 Clouds 2 1022 88 10000 1 0 23:40 14.03.2020
1351 Clouds 2 1022 82 10000 0.5 0 23:20 14.03.2020
1352 Clouds 2 1022 82 10000 1 0 22:56 14.03.2020
1353 Clouds 2 1022 82 10000 1 0 22:38 14.03.2020
1354 Clouds 2 1022 86 10000 1 0 22:20 14.03.2020
1355 Clouds 3 1022 86 10000 1 0 21:55 14.03.2020
1356 Clouds 3 1022 82 10000 1.48 143 21:36 14.03.2020
1357 Clouds 3 1022 82 10000 1.48 143 21:36 14.03.2020
1358 Clouds 4 1022 74 10000 1.5 160 21:18 14.03.2020
1359 Clouds 4 1022 74 10000 1.5 160 20:58 14.03.2020
1360 Clouds 4 1022 80 10000 0.5 0 20:39 14.03.2020
1361 Rain 5 1022 60 10000 1.5 70 20:18 14.03.2020
1362 Rain 6 1022 56 10000 1.5 10 19:42 14.03.2020
1363 Clouds 6 1021 56 10000 2.6 360 19:24 14.03.2020
1364 Clouds 7 1021 56 10000 3.6 10 18:41 14.03.2020
1365 Rain 7 1021 56 10000 3.6 20 18:22 14.03.2020
1366 Rain 8 1020 52 10000 3.6 30 17:55 14.03.2020
1367 Clouds 8 1021 52 10000 3.1 50 17:37 14.03.2020
1368 Clouds 8 1020 45 10000 3.6 30 17:19 14.03.2020
1369 Clouds 9 1020 45 10000 3.6 20 16:40 14.03.2020
1370 Clouds 9 1020 45 10000 3.6 30 16:22 14.03.2020
1371 Clouds 9 1020 45 10000 4.1 20 15:54 14.03.2020
1372 Rain 9 1020 49 10000 4.1 30 15:26 14.03.2020
1373 Rain 9 1020 49 10000 4.6 20 14:55 14.03.2020
1374 Rain 9 1020 49 10000 4.6 20 14:36 14.03.2020
1375 Clouds 9 1020 49 10000 4.1 20 14:18 14.03.2020
1376 Clouds 9 1020 49 10000 4.1 10 13:42 14.03.2020
1377 Clouds 9 1020 52 10000 5.1 30 13:23 14.03.2020
1378 Clouds 9 1020 52 10000 4.1 30 12:47 14.03.2020
1379 Clouds 9 1020 49 10000 3.1 30 12:27 14.03.2020
1380 Clouds 8 1020 52 10000 2.6 70 11:59 14.03.2020
1381 Clouds 8 1020 52 10000 2.6 70 11:39 14.03.2020
1382 Clouds 8 1020 56 10000 3.6 30 11:20 14.03.2020
1383 Clouds 7 1020 60 10000 4.1 60 10:46 14.03.2020
1384 Clouds 7 1020 64 10000 4.1 40 10:27 14.03.2020
1385 Clouds 5 1020 64 10000 0.5 0 09:58 14.03.2020
1386 Clouds 4 1020 64 10000 0.5 0 09:39 14.03.2020
1387 Clouds 3 1020 64 10000 2.42 91 09:20 14.03.2020
1388 Clouds 2 1020 86 10000 2.42 91 08:45 14.03.2020
1389 Clouds 2 1020 86 10000 2.42 91 08:45 14.03.2020
1390 Clouds 0 1020 86 10000 1.27 76 08:23 14.03.2020
1391 Clouds -1 1020 100 10000 0.5 190 07:39 14.03.2020
1392 Clouds -1 1020 92 10000 1 160 07:21 14.03.2020
1393 Clouds -1 1020 92 10000 1 190 06:41 14.03.2020
1394 Clouds -1 1020 92 10000 1.5 160 05:58 14.03.2020
1395 Clouds -1 1020 92 10000 1.5 170 04:53 14.03.2020
1396 Clouds 0 1020 92 10000 0.5 0 03:34 14.03.2020
1397 Clouds 0 1021 86 10000 1 0 02:43 14.03.2020
1398 Clouds 0 1021 86 10000 1.5 150 01:42 14.03.2020
1399 Clouds 1 1021 87 10000 3.6 150 00:23 14.03.2020
1400 Clouds 2 1021 86 10000 1.5 160 23:42 13.03.2020
1401 Clear 2 1021 80 10000 1 0 23:23 13.03.2020
1402 Clear 3 1021 86 10000 1 250 22:44 13.03.2020
1403 Clear 3 1021 84 10000 1 0 22:22 13.03.2020
1404 Clear 3 1021 86 10000 1 0 21:41 13.03.2020
1405 Clear 4 1021 80 10000 1 0 21:19 13.03.2020
1406 Clear 5 1021 74 10000 2.1 260 20:42 13.03.2020
1407 Clouds 5 1020 65 10000 2.6 250 20:23 13.03.2020
1408 Clouds 5 1020 65 10000 2.6 250 19:58 13.03.2020
1409 Clouds 6 1020 60 10000 2.1 300 19:39 13.03.2020
1410 Clouds 6 1020 65 10000 3.1 210 19:19 13.03.2020
1411 Clouds 7 1020 56 10000 4.1 230 18:44 13.03.2020
1412 Clouds 8 1020 49 10000 5.7 240 18:23 13.03.2020
1413 Clouds 9 1019 52 10000 5.1 240 17:43 13.03.2020
1414 Clouds 10 1019 52 10000 5.1 240 17:22 13.03.2020
1415 Clouds 10 1020 49 10000 6.7 250 16:59 13.03.2020
1416 Clouds 10 1020 49 10000 6.7 250 16:39 13.03.2020
1417 Clouds 10 1019 49 10000 7.2 220 16:21 13.03.2020
1418 Clouds 10 1020 52 10000 6.7 220 15:46 13.03.2020
1419 Clouds 10 1019 46 10000 7.2 230 15:24 13.03.2020
1420 Clouds 10 1019 46 10000 7.2 230 14:59 13.03.2020
1421 Clouds 10 1019 39 10000 7.7 240 14:40 13.03.2020
1422 Clouds 10 1020 60 10000 6.7 230 14:22 13.03.2020
1423 Clouds 10 1020 60 10000 6.7 230 13:55 13.03.2020
1424 Clouds 10 1020 45 10000 7.2 250 13:37 13.03.2020
1425 Clouds 9 1020 52 10000 6.7 240 13:18 13.03.2020
1426 Clouds 9 1020 61 10000 9.3 240 12:39 13.03.2020
1427 Clouds 8 1020 60 10000 6.2 260 12:21 13.03.2020
1428 Clouds 8 1020 75 10000 5.7 240 11:57 13.03.2020
1429 Clouds 7 1020 75 10000 5.7 240 11:37 13.03.2020
1430 Clouds 7 1020 81 10000 4.6 240 11:19 13.03.2020
1431 Clouds 6 1020 86 10000 4.1 230 10:47 13.03.2020
1432 Clouds 6 1020 86 10000 4.1 230 10:26 13.03.2020
1433 Rain 5 1020 93 10000 4.1 220 09:57 13.03.2020
1434 Rain 5 1020 60 10000 5.7 270 09:38 13.03.2020
1435 Rain 5 1020 86 7000 4.1 290 09:20 13.03.2020
1436 Rain 5 1019 93 6000 6.2 320 08:44 13.03.2020
1437 Drizzle 5 1018 93 10000 6.2 220 08:22 13.03.2020
1438 Clouds 5 1018 86 10000 5.1 210 07:47 13.03.2020
1439 Clouds 5 1018 86 10000 5.1 220 07:28 13.03.2020
1440 Rain 6 1017 86 10000 5.7 210 06:47 13.03.2020
1441 Rain 6 1017 86 10000 3.6 220 06:28 13.03.2020
1442 Rain 6 1017 81 10000 4.1 240 05:53 13.03.2020
1443 Rain 6 1017 75 10000 4.6 260 05:20 13.03.2020
1444 Rain 6 1017 81 10000 4.6 250 04:37 13.03.2020
1445 Rain 6 1017 93 10000 5.1 220 03:31 13.03.2020
1446 Rain 7 1016 87 10000 5.1 280 01:46 13.03.2020
1447 Rain 8 1016 87 8000 6.7 300 01:19 13.03.2020
1448 Rain 8 1015 87 10000 4.6 320 00:53 13.03.2020
1449 Rain 9 1015 81 10000 3.1 300 00:24 13.03.2020
1450 Rain 9 1015 87 10000 2.1 320 23:50 12.03.2020
1451 Rain 10 1015 87 10000 1.5 240 23:27 12.03.2020
1452 Rain 10 1015 87 10000 1 0 22:56 12.03.2020
1453 Rain 10 1015 87 10000 1 0 22:38 12.03.2020
1454 Rain 10 1015 87 10000 2.6 320 22:20 12.03.2020
1455 Rain 10 1015 87 10000 3.1 330 21:44 12.03.2020
1456 Rain 10 1015 76 10000 4.1 320 21:26 12.03.2020
1457 Clouds 11 1014 81 10000 5.1 320 20:57 12.03.2020
1458 Rain 11 1014 62 10000 5.7 240 20:37 12.03.2020
1459 Rain 11 1014 62 10000 5.7 240 20:37 12.03.2020
1460 Rain 12 1014 62 10000 6.2 230 20:18 12.03.2020
1461 Rain 13 1014 62 10000 6.7 230 19:40 12.03.2020
1462 Rain 13 1014 66 10000 5.7 220 19:20 12.03.2020
1463 Clouds 13 1014 66 10000 5.7 220 18:44 12.03.2020
1464 Clouds 14 1013 66 10000 7.7 230 18:24 12.03.2020
1465 Clouds 14 1013 62 10000 6.7 240 17:57 12.03.2020
1466 Clouds 14 1013 62 10000 6.7 240 17:38 12.03.2020
1467 Clouds 15 1013 62 10000 7.7 250 17:19 12.03.2020
1468 Clouds 15 1014 62 10000 8.7 240 16:55 12.03.2020
1469 Clouds 15 1014 62 10000 8.7 240 16:37 12.03.2020
1470 Clouds 15 1013 58 10000 9.3 240 16:18 12.03.2020
1471 Clouds 16 1014 58 10000 10.8 250 15:45 12.03.2020
1472 Clouds 16 1014 58 10000 10.8 250 15:26 12.03.2020
1473 Clouds 16 1014 59 10000 10.8 250 14:41 12.03.2020
1474 Clouds 16 1014 59 10000 10.8 250 14:23 12.03.2020
1475 Clouds 16 1015 58 10000 11.8 250 13:57 12.03.2020
1476 Clouds 15 1015 58 10000 11.8 250 13:36 12.03.2020
1477 Clouds 15 1015 55 10000 11.8 250 13:18 12.03.2020
1478 Clouds 15 1015 58 10000 10.3 250 12:41 12.03.2020
1479 Clouds 15 1015 58 10000 8.7 260 12:22 12.03.2020
1480 Clouds 15 1015 58 10000 10.3 250 11:57 12.03.2020
1481 Clouds 15 1015 58 10000 10.3 250 11:57 12.03.2020
1482 Clouds 15 1016 62 10000 10.3 240 11:38 12.03.2020
1483 Clouds 14 1016 62 10000 10.3 240 11:20 12.03.2020
1484 Clouds 14 1016 58 10000 7.7 240 10:58 12.03.2020
1485 Clouds 14 1016 58 10000 7.7 240 10:40 12.03.2020
1486 Clouds 13 1016 62 10000 7.7 240 10:22 12.03.2020
1487 Clouds 13 1015 66 10000 7.2 240 09:46 12.03.2020
1488 Clouds 12 1015 66 10000 5.7 240 09:27 12.03.2020
1489 Clouds 12 1015 66 10000 5.7 230 08:45 12.03.2020
1490 Clouds 11 1015 66 10000 5.1 230 08:20 12.03.2020
1491 Clouds 11 1015 66 10000 5.1 230 07:59 12.03.2020
1492 Clouds 9 1015 76 10000 4.6 220 07:41 12.03.2020
1493 Clouds 9 1015 75 10000 4.6 230 07:21 12.03.2020
1494 Clouds 9 1015 75 10000 4.6 230 07:21 12.03.2020
1495 Clouds 9 1015 81 10000 4.1 230 05:57 12.03.2020
1496 Clouds 8 1015 87 10000 5.1 220 05:27 12.03.2020
1497 Clear 9 1017 81 10000 3.1 230 02:43 12.03.2020
1498 Clouds 9 1017 81 10000 5.1 240 01:39 12.03.2020
1499 Clouds 9 1017 87 10000 4.6 230 01:20 12.03.2020
1500 Clouds 9 1018 81 10000 4.6 230 00:41 12.03.2020
1501 Clouds 10 1018 76 10000 4.1 230 23:56 11.03.2020
1502 Clouds 10 1018 71 10000 3.6 220 23:27 11.03.2020
1503 Clouds 10 1018 71 10000 4.1 210 22:55 11.03.2020
1504 Clouds 10 1018 71 10000 4.1 210 22:37 11.03.2020
1505 Clouds 11 1019 81 10000 3.6 220 22:18 11.03.2020
1506 Clouds 11 1019 81 10000 4.1 220 21:56 11.03.2020
1507 Clouds 11 1019 81 10000 4.1 220 21:37 11.03.2020
1508 Clouds 11 1019 81 10000 3.6 210 21:19 11.03.2020
1509 Clouds 11 1018 76 10000 3.1 250 20:55 11.03.2020
1510 Clouds 11 1019 81 10000 3.6 210 20:55 11.03.2020
1511 Rain 11 1018 76 10000 3.1 250 20:36 11.03.2020
1512 Rain 11 1019 76 10000 3.1 220 20:18 11.03.2020
1513 Rain 12 1018 76 10000 4.1 240 19:42 11.03.2020
1514 Rain 13 1019 71 10000 3.1 220 19:23 11.03.2020
1515 Rain 13 1018 66 10000 4.6 230 18:56 11.03.2020
1516 Rain 13 1018 66 10000 4.6 230 18:37 11.03.2020
1517 Rain 14 1018 66 10000 5.7 240 18:18 11.03.2020
1518 Clouds 14 1018 62 10000 6.2 240 17:54 11.03.2020
1519 Clouds 14 1018 62 10000 7.2 240 17:36 11.03.2020
1520 Clouds 15 1018 62 10000 7.2 240 17:18 11.03.2020
1521 Clouds 15 1018 62 10000 8.2 240 16:41 11.03.2020
1522 Clouds 15 1018 62 10000 8.7 240 16:19 11.03.2020
1523 Clouds 15 1018 67 10000 9.3 240 15:43 11.03.2020
1524 Clouds 15 1018 67 10000 8.7 240 15:23 11.03.2020
1525 Clouds 15 1018 67 10000 8.7 240 15:23 11.03.2020
1526 Clouds 15 1018 67 10000 9.8 240 14:46 11.03.2020
1527 Clouds 15 1018 67 10000 9.8 240 14:25 11.03.2020
1528 Clouds 14 1018 66 10000 10.3 240 13:59 11.03.2020
1529 Clouds 14 1017 67 10000 8.7 260 13:40 11.03.2020
1530 Clouds 14 1018 66 10000 7.7 250 13:22 11.03.2020
1531 Clouds 14 1019 66 10000 9.3 250 12:56 11.03.2020
1532 Clouds 14 1019 66 10000 9.3 250 12:38 11.03.2020
1533 Clouds 14 1018 67 10000 9.3 240 12:19 11.03.2020
1534 Clouds 13 1018 66 10000 7.2 260 11:41 11.03.2020
1535 Clouds 13 1018 71 10000 11.3 240 11:20 11.03.2020
1536 Clouds 13 1018 71 10000 10.8 250 10:47 11.03.2020
1537 Clouds 12 1018 71 10000 11.3 230 10:21 11.03.2020
1538 Clouds 12 1018 71 10000 11.3 230 09:59 11.03.2020
1539 Clouds 12 1018 76 10000 8.7 230 09:40 11.03.2020
1540 Clouds 11 1018 76 10000 7.7 240 09:21 11.03.2020
1541 Clouds 11 1018 76 10000 8.7 250 08:43 11.03.2020
1542 Clouds 11 1017 81 10000 9.8 240 08:25 11.03.2020
1543 Clouds 10 1017 81 10000 9.3 240 07:47 11.03.2020
1544 Clouds 10 1017 81 10000 10.8 240 07:21 11.03.2020
1545 Rain 10 1017 81 10000 8.7 240 06:50 11.03.2020
1546 Rain 10 1017 81 10000 8.7 240 06:31 11.03.2020
1547 Rain 10 1016 81 10000 10.3 240 05:32 11.03.2020
1548 Rain 10 1015 81 10000 10.8 240 03:26 11.03.2020
1549 Rain 10 1016 81 10000 9.8 240 03:26 11.03.2020
1550 Rain 10 1016 81 10000 9.8 240 03:26 11.03.2020
1551 Rain 10 1016 76 10000 10.8 240 01:54 11.03.2020
1552 Rain 9 1016 76 10000 9.3 240 01:24 11.03.2020
1553 Rain 9 1016 81 10000 9.3 240 00:44 11.03.2020
1554 Rain 9 1016 81 10000 10.8 240 23:50 10.03.2020
1555 Rain 9 1016 81 10000 9.3 240 23:28 10.03.2020
1556 Rain 9 1015 81 10000 9.8 230 22:58 10.03.2020
1557 Rain 8 1015 81 10000 9.8 230 22:38 10.03.2020
1558 Rain 8 1015 87 10000 10.3 230 22:19 10.03.2020
1559 Rain 8 1015 87 10000 10.3 230 22:19 10.03.2020
1560 Rain 8 1015 87 10000 9.8 240 21:56 10.03.2020
1561 Rain 7 1015 87 10000 9.8 240 21:38 10.03.2020
1562 Rain 8 1015 87 10000 9.8 240 21:38 10.03.2020
1563 Rain 7 1015 93 10000 8.7 230 21:19 10.03.2020
1564 Rain 7 1015 93 10000 8.7 230 20:56 10.03.2020
1565 Rain 7 1015 87 10000 8.7 230 20:38 10.03.2020
1566 Rain 7 1014 87 10000 9.3 230 20:18 10.03.2020
1567 Rain 6 1014 93 8000 8.2 230 19:55 10.03.2020
1568 Rain 6 1014 93 8000 8.2 230 19:36 10.03.2020
1569 Rain 6 1014 93 8000 8.2 230 19:18 10.03.2020
1570 Rain 6 1014 87 9000 8.7 220 18:42 10.03.2020
1571 Rain 6 1014 87 8000 8.7 230 18:23 10.03.2020
1572 Rain 6 1014 93 8000 8.7 230 17:56 10.03.2020
1573 Rain 6 1014 93 8000 8.7 230 17:38 10.03.2020
1574 Rain 6 1013 93 8000 8.2 230 17:20 10.03.2020
1575 Rain 6 1013 93 8000 8.2 230 16:38 10.03.2020
1576 Rain 6 1013 93 8000 8.2 230 16:38 10.03.2020
1577 Rain 5 1013 93 8000 8.7 230 16:18 10.03.2020
1578 Rain 5 1013 93 8000 8.7 230 15:55 10.03.2020
1579 Rain 5 1013 93 8000 9.3 230 15:36 10.03.2020
1580 Rain 5 1013 93 8000 8.2 230 15:18 10.03.2020
1581 Rain 5 1013 86 8000 8.2 220 14:40 10.03.2020
1582 Rain 4 1014 93 8000 7.7 220 14:19 10.03.2020
1583 Rain 4 1014 86 10000 8.2 220 13:57 10.03.2020
1584 Rain 4 1014 93 8000 4.6 190 13:37 10.03.2020
1585 Rain 4 1014 93 8000 5.1 180 13:19 10.03.2020
1586 Rain 4 1015 93 8000 5.7 190 12:39 10.03.2020
1587 Rain 4 1015 93 8000 5.1 190 12:19 10.03.2020
1588 Rain 4 1015 86 8000 6.2 190 11:43 10.03.2020
1589 Rain 4 1016 80 10000 9.3 210 11:25 10.03.2020
1590 Rain 4 1015 74 10000 8.7 220 10:59 10.03.2020
1591 Rain 4 1015 74 10000 8.7 220 10:41 10.03.2020
1592 Rain 4 1015 74 10000 8.7 220 10:41 10.03.2020
1593 Rain 4 1016 69 10000 8.7 230 10:22 10.03.2020
1594 Rain 4 1016 69 10000 8.7 230 09:57 10.03.2020
1595 Clouds 4 1016 65 10000 7.7 230 09:39 10.03.2020
1596 Clouds 4 1016 69 10000 4.6 230 09:18 10.03.2020
1597 Clouds 4 1016 69 10000 4.6 220 08:46 10.03.2020
1598 Clouds 4 1016 69 10000 4.6 220 08:28 10.03.2020
1599 Clouds 3 1016 69 10000 6.2 220 07:50 10.03.2020
1600 Clouds 3 1016 69 10000 6.2 220 07:31 10.03.2020
1601 Clouds 3 1017 90 10000 4.6 220 06:45 10.03.2020
1602 Clouds 2 1017 90 10000 5.1 220 06:27 10.03.2020
1603 Clouds 2 1017 74 10000 4.6 230 05:41 10.03.2020
1604 Clouds 2 1017 94 10000 5.1 220 04:40 10.03.2020
1605 Clouds 2 1018 94 10000 4.6 220 03:41 10.03.2020
1606 Clouds 2 1018 94 10000 5.1 230 02:26 10.03.2020
1607 Clouds 2 1019 95 10000 4.1 220 01:25 10.03.2020
1608 Clouds 3 1019 95 10000 2.6 200 00:42 10.03.2020
1609 Clouds 3 1019 86 10000 4.6 230 00:23 10.03.2020
1610 Clouds 3 1019 86 10000 4.6 240 23:41 09.03.2020
1611 Rain 4 1019 86 10000 4.1 230 23:21 09.03.2020
1612 Rain 4 1019 86 10000 4.1 230 22:43 09.03.2020
1613 Rain 4 1018 93 10000 4.1 220 22:22 09.03.2020
1614 Rain 4 1018 93 10000 4.1 220 21:59 09.03.2020
1615 Rain 4 1019 93 10000 3.6 230 21:40 09.03.2020
1616 Rain 4 1018 93 10000 5.1 260 21:21 09.03.2020
1617 Rain 4 1018 93 10000 5.1 260 20:56 09.03.2020
1618 Rain 4 1018 86 10000 6.2 250 20:38 09.03.2020
1619 Rain 5 1018 80 10000 5.7 250 20:20 09.03.2020
1620 Rain 5 1018 86 8000 5.7 230 19:45 09.03.2020
1621 Rain 6 1017 86 10000 3.6 220 19:25 09.03.2020
1622 Rain 6 1017 86 10000 3.6 220 18:58 09.03.2020
1623 Rain 6 1017 86 10000 3.1 220 18:38 09.03.2020
1624 Rain 6 1016 80 10000 3.1 230 18:20 09.03.2020
1625 Rain 6 1016 80 10000 3.1 230 17:58 09.03.2020
1626 Rain 7 1016 81 10000 3.6 240 17:38 09.03.2020
1627 Rain 7 1016 86 10000 3.1 250 17:20 09.03.2020
1628 Rain 7 1015 81 10000 5.1 240 16:58 09.03.2020
1629 Rain 7 1015 81 10000 5.1 240 16:40 09.03.2020
1630 Rain 7 1015 81 10000 5.1 240 16:40 09.03.2020
1631 Clouds 7 1015 81 10000 4.1 270 16:22 09.03.2020
1632 Clouds 7 1015 81 10000 4.1 270 16:22 09.03.2020
1633 Rain 7 1015 86 10000 6.7 250 15:58 09.03.2020
1634 Rain 7 1015 75 10000 4.6 290 15:39 09.03.2020
1635 Rain 7 1015 75 10000 4.6 290 15:20 09.03.2020
1636 Rain 7 1014 75 10000 3.6 280 14:55 09.03.2020
1637 Rain 7 1014 75 10000 3.6 280 14:37 09.03.2020
1638 Rain 7 1015 81 10000 7.2 250 14:18 09.03.2020
1639 Clouds 7 1015 81 10000 5.7 280 13:55 09.03.2020
1640 Rain 7 1015 87 10000 5.1 280 13:37 09.03.2020
1641 Rain 6 1015 87 10000 5.1 280 13:18 09.03.2020
1642 Rain 6 1015 75 10000 5.7 250 12:43 09.03.2020
1643 Rain 6 1014 86 10000 6.2 280 12:22 09.03.2020
1644 Drizzle 6 1014 86 10000 5.7 270 11:55 09.03.2020
1645 -273 0 0 0 0 0 11:37 09.03.2020
1646 Rain 6 1014 86 10000 6.2 250 11:19 09.03.2020
1647 Rain 6 1014 86 10000 8.2 250 10:55 09.03.2020
1648 Drizzle 6 1014 86 10000 6.2 260 10:36 09.03.2020
1649 Rain 6 1013 93 10000 5.7 270 10:18 09.03.2020
1650 Rain 6 1012 93 10000 4.1 230 09:39 09.03.2020
1651 Rain 6 1012 93 10000 4.1 230 09:39 09.03.2020
1652 Rain 6 1012 93 10000 4.1 230 09:21 09.03.2020
1653 Rain 5 1012 86 10000 4.1 220 08:44 09.03.2020
1654 Rain 5 1012 86 10000 4.6 220 08:26 09.03.2020
1655 Rain 4 1012 80 10000 5.1 210 07:42 09.03.2020
1656 Rain 4 1012 93 10000 4.6 220 07:22 09.03.2020
1657 Rain 4 1012 93 10000 4.6 220 07:22 09.03.2020
1658 Rain 4 1011 86 10000 4.6 190 06:46 09.03.2020
1659 Rain 4 1012 93 10000 3.6 220 06:28 09.03.2020
1660 Rain 4 1012 93 10000 5.1 230 05:58 09.03.2020
1661 Rain 4 1012 86 10000 3.1 190 05:40 09.03.2020
1662 Clouds 4 1012 80 10000 6.7 250 04:46 09.03.2020
1663 Clouds 3 1012 70 10000 4.6 270 04:23 09.03.2020
1664 Clouds 3 1012 69 10000 4.1 220 03:46 09.03.2020
1665 Clouds 2 1013 74 10000 2.1 220 02:37 09.03.2020
1666 Clouds 2 1013 60 10000 3.6 180 00:42 09.03.2020
1667 Clouds 2 1013 80 10000 1.5 210 00:24 09.03.2020
1668 Clouds 2 1013 86 10000 2.1 200 23:55 08.03.2020
1669 Clouds 3 1013 80 10000 1.5 140 23:29 08.03.2020
1670 Clouds 3 1014 80 10000 1.5 150 22:59 08.03.2020
1671 Clouds 3 1014 74 10000 2.6 160 22:40 08.03.2020
1672 Clouds 3 1014 74 10000 2.6 160 22:22 08.03.2020
1673 Clouds 3 1014 64 10000 1.5 80 21:59 08.03.2020
1674 Clouds 4 1014 86 10000 1.5 160 21:40 08.03.2020
1675 Clouds 4 1015 68 10000 1 0 21:20 08.03.2020
1676 Clouds 4 1015 74 10000 2.1 140 20:56 08.03.2020
1677 Clouds 4 1015 56 10000 1.5 340 20:37 08.03.2020
1678 Clouds 5 1015 56 10000 1.5 340 20:19 08.03.2020
1679 Clouds 5 1015 74 10000 2.1 150 20:19 08.03.2020
1680 Clouds 5 1015 74 10000 2.1 150 19:40 08.03.2020
1681 Clouds 5 1015 64 10000 2.1 150 19:19 08.03.2020
1682 Clouds 6 1015 65 10000 1.5 130 18:55 08.03.2020
1683 Clouds 7 1015 56 10000 1 210 18:37 08.03.2020
1684 Clouds 8 1016 39 10000 1.5 250 18:18 08.03.2020
1685 Clouds 9 1016 39 10000 2.6 210 17:39 08.03.2020
1686 Clouds 9 1016 39 10000 2.6 210 17:21 08.03.2020
1687 Clouds 9 1016 39 10000 2.6 210 16:58 08.03.2020
1688 Clouds 9 1016 39 10000 2.6 210 16:40 08.03.2020
1689 Clouds 10 1017 43 10000 2.6 220 16:21 08.03.2020
1690 Clouds 10 1017 42 10000 3.1 210 15:41 08.03.2020
1691 Clouds 10 1018 36 10000 4.1 260 15:22 08.03.2020
1692 Clouds 9 1018 42 10000 4.1 220 14:57 08.03.2020
1693 Clouds 9 1018 39 0 5.1 280 14:37 08.03.2020
1694 Clouds 9 1019 42 10000 4.6 240 14:19 08.03.2020
1695 Clouds 9 1019 39 10000 4.1 260 13:41 08.03.2020
1696 Clear 8 1019 45 10000 3.6 250 13:20 08.03.2020
1697 Clear 8 1020 48 10000 3.6 240 12:56 08.03.2020
1698 Clear 8 1020 48 10000 3.6 240 12:36 08.03.2020
1699 Clear 8 1020 48 10000 3.6 260 12:18 08.03.2020
1700 Clear 7 1020 56 8000 4.6 220 11:41 08.03.2020
1701 Clear 6 1021 56 10000 4.1 210 11:21 08.03.2020
1702 Clear 6 1021 60 10000 5.1 250 10:57 08.03.2020
1703 Clear 5 1021 60 10000 5.1 250 10:39 08.03.2020
1704 Clear 4 1022 65 10000 3.6 240 10:20 08.03.2020
1705 Clear 3 1022 74 10000 1.5 210 09:38 08.03.2020
1706 Clear 2 1021 80 10000 2.1 200 09:20 08.03.2020
1707 Clear 1 1021 86 10000 2.1 200 08:43 08.03.2020
1708 Clear 0 1021 85 10000 0.5 0 08:21 08.03.2020
1709 Clear -2 1021 86 10000 2.6 180 07:49 08.03.2020
1710 Clear -2 1021 92 10000 1.5 150 07:28 08.03.2020
1711 Clear -2 1022 100 10000 1.5 220 06:45 08.03.2020
1712 Clear -2 1022 100 10000 1.5 220 06:27 08.03.2020
1713 Clear -2 1022 92 10000 1.5 210 05:43 08.03.2020
1714 Clouds -2 1021 92 10000 3.1 220 03:52 08.03.2020
1715 Clouds -1 1022 92 10000 2.6 220 02:59 08.03.2020
1716 Clouds 0 1023 94 10000 2.6 240 01:38 08.03.2020
1717 Clouds 0 1023 86 10000 2.6 220 01:19 08.03.2020
1718 Clouds 1 1023 92 10000 3.1 230 00:32 08.03.2020
1719 Clouds 1 1023 96 10000 3.6 200 23:59 07.03.2020
1720 Clouds 1 1023 96 10000 3.6 200 23:41 07.03.2020
1721 Snow 1 1023 86 10000 3.6 200 23:19 07.03.2020
1722 Snow 1 1023 97 10000 4.1 220 22:38 07.03.2020
1723 Snow 1 1023 97 10000 4.1 220 22:19 07.03.2020
1724 Snow 1 1023 97 10000 3.6 220 21:45 07.03.2020
1725 Snow 2 1022 97 10000 4.1 230 21:24 07.03.2020
1726 Snow 2 1022 93 10000 3.6 230 20:41 07.03.2020
1727 Snow 2 1022 93 10000 3.6 230 20:22 07.03.2020
1728 Snow 3 1021 93 10000 3.1 220 19:55 07.03.2020
1729 Snow 3 1021 86 10000 3.6 220 19:37 07.03.2020
1730 Clouds 3 1021 93 10000 3.6 230 19:18 07.03.2020
1731 Clouds 3 1021 93 10000 3.6 230 18:40 07.03.2020
1732 Rain 3 1020 93 10000 4.1 220 18:21 07.03.2020
1733 Snow 4 1020 93 10000 5.1 220 17:43 07.03.2020
1734 Snow 4 1020 86 10000 3.6 240 17:21 07.03.2020
1735 Snow 4 1019 86 10000 3.6 250 16:59 07.03.2020
1736 Snow 4 1019 69 10000 4.1 280 16:41 07.03.2020
1737 Snow 4 1019 93 10000 5.1 250 16:22 07.03.2020
1738 Snow 4 1018 73 10000 5.1 250 15:57 07.03.2020
1739 Snow 4 1019 86 10000 3.1 260 15:39 07.03.2020
1740 Snow 4 1018 73 10000 6.2 270 15:20 07.03.2020
1741 Clouds 4 1018 75 10000 5.1 330 14:56 07.03.2020
1742 Snow 5 1018 73 9000 3.1 240 14:37 07.03.2020
1743 Clouds 5 1018 70 10000 5.7 310 14:19 07.03.2020
1744 Clouds 5 1018 80 10000 6.2 300 13:40 07.03.2020
1745 Rain 5 1017 80 10000 5.1 250 13:20 07.03.2020
1746 Snow 4 1018 86 6000 5.7 260 12:43 07.03.2020
1747 Snow 4 1017 86 10000 6.2 260 12:21 07.03.2020
1748 Clouds 4 1017 86 10000 5.7 270 11:58 07.03.2020
1749 Clouds 4 1017 86 10000 5.7 270 11:39 07.03.2020
1750 Clouds 4 1017 96 10000 5.7 260 11:21 07.03.2020
1751 Snow 4 1017 96 10000 5.7 240 10:42 07.03.2020
1752 Clouds 4 1016 96 10000 4.1 260 10:21 07.03.2020
1753 Snow 3 1016 96 10000 5.1 260 09:58 07.03.2020
1754 Snow 3 1016 96 10000 5.1 260 09:39 07.03.2020
1755 Snow 3 1015 96 10000 5.1 260 09:19 07.03.2020
1756 Snow 3 1014 92 10000 4.6 260 08:44 07.03.2020
1757 Snow 3 1014 90 10000 4.6 260 08:22 07.03.2020
1758 Snow 3 1013 90 10000 4.6 260 07:59 07.03.2020
1759 Snow 3 1013 90 10000 4.6 260 07:41 07.03.2020
1760 Snow 3 1013 90 10000 4.6 270 07:20 07.03.2020
1761 Clouds 3 1012 90 10000 4.6 260 06:38 07.03.2020
1762 Clouds 3 1012 90 10000 4.6 260 05:57 07.03.2020
1763 Snow 3 1010 86 10000 6.2 260 05:35 07.03.2020
1764 Rain 3 1009 86 10000 6.7 250 03:35 07.03.2020
1765 Rain 3 1009 93 10000 7.2 250 02:42 07.03.2020
1766 Snow 3 1009 86 10000 6.2 240 01:51 07.03.2020
1767 Clouds 3 1008 93 10000 4.6 220 00:43 07.03.2020
1768 Snow 3 1008 86 10000 6.2 250 00:23 07.03.2020
1769 Snow 3 1007 86 10000 6.7 240 23:58 06.03.2020
1770 Rain 3 1007 93 10000 4.6 230 23:38 06.03.2020
1771 Snow 3 1007 86 10000 6.7 240 23:38 06.03.2020
1772 Snow 3 1007 86 10000 7.2 250 23:20 06.03.2020
1773 Clouds 3 1007 93 10000 6.2 230 22:44 06.03.2020
1774 Snow 3 1006 86 10000 7.7 250 22:19 06.03.2020
1775 Snow 3 1006 86 10000 7.7 250 21:47 06.03.2020
1776 Snow 4 1005 86 10000 7.7 240 21:20 06.03.2020
1777 Drizzle 4 1005 95 10000 7.7 230 20:44 06.03.2020
1778 Clouds 4 1004 84 10000 10.3 240 20:23 06.03.2020
1779 Clouds 4 1003 85 10000 8.7 240 19:57 06.03.2020
1780 Clouds 4 1003 85 10000 8.7 230 19:39 06.03.2020
1781 Clouds 4 1003 85 10000 10.3 240 19:20 06.03.2020
1782 Clouds 5 1002 85 10000 9.8 240 18:42 06.03.2020
1783 Clouds 5 1001 85 10000 8.7 230 18:20 06.03.2020
1784 Clouds 5 1001 85 10000 8.2 230 17:56 06.03.2020
1785 Clouds 5 1001 85 10000 8.2 230 17:38 06.03.2020
1786 Clouds 6 1000 61 10000 9.8 240 17:20 06.03.2020
1787 Drizzle 6 999 86 10000 7.2 260 16:54 06.03.2020
1788 Clouds 6 999 60 10000 9.8 240 16:36 06.03.2020
1789 Clouds 7 999 60 10000 9.8 240 16:18 06.03.2020
1790 Clouds 6 999 60 10000 9.3 240 15:42 06.03.2020
1791 Clouds 7 999 60 10000 10.3 250 15:22 06.03.2020
1792 Clouds 7 998 65 10000 9.8 220 14:41 06.03.2020
1793 Clouds 7 998 60 10000 11.8 250 14:23 06.03.2020
1794 Clouds 7 998 60 10000 11.8 250 14:23 06.03.2020
1795 Rain 7 998 60 10000 11.3 240 13:57 06.03.2020
1796 Rain 7 998 60 10000 11.3 240 13:39 06.03.2020
1797 Clouds 7 998 57 10000 11.3 240 13:19 06.03.2020
1798 Clouds 7 998 60 10000 11.8 240 12:54 06.03.2020
1799 Rain 7 996 65 10000 9.3 240 12:36 06.03.2020
1800 Clouds 7 997 60 10000 11.8 250 12:18 06.03.2020
1801 Clouds 7 997 57 10000 12.9 250 11:42 06.03.2020
1802 Clouds 7 996 60 10000 11.8 240 11:21 06.03.2020
1803 Clouds 7 996 68 10000 11.8 240 10:57 06.03.2020
1804 Clouds 7 996 68 10000 11.3 230 10:36 06.03.2020
1805 Clouds 7 996 68 10000 10.3 240 10:18 06.03.2020
1806 Clouds 7 996 68 10000 10.3 240 10:18 06.03.2020
1807 Clouds 7 995 68 10000 11.3 220 09:42 06.03.2020
1808 Clouds 7 995 68 10000 10.8 240 09:24 06.03.2020
1809 Clouds 7 995 70 10000 8.2 240 08:57 06.03.2020
1810 Clouds 6 994 68 10000 11.8 230 08:38 06.03.2020
1811 Clouds 6 994 70 10000 8.7 230 08:20 06.03.2020
1812 Clouds 6 994 85 10000 10.3 240 07:47 06.03.2020
1813 Clouds 6 994 85 10000 11.3 240 07:25 06.03.2020
1814 Clouds 6 993 85 10000 10.8 240 06:51 06.03.2020
1815 Clouds 6 993 70 10000 7.7 220 06:32 06.03.2020
1816 Clouds 6 993 70 10000 8.2 220 05:39 06.03.2020
1817 Clouds 6 993 70 10000 10.8 240 05:20 06.03.2020
1818 Clouds 6 993 70 10000 7.2 230 04:44 06.03.2020
1819 Rain 6 992 86 10000 2.6 180 01:56 06.03.2020
1820 Clouds 6 992 70 10000 5.1 180 01:38 06.03.2020
1821 Rain 5 992 86 10000 2.6 150 01:18 06.03.2020
1822 Rain 6 992 86 10000 2.6 170 00:32 06.03.2020
1823 Clouds 6 992 81 10000 3.1 200 23:47 05.03.2020
1824 Rain 6 993 87 10000 4.6 200 23:29 05.03.2020
1825 Rain 6 993 81 10000 6.2 210 22:57 05.03.2020
1826 Rain 6 994 93 10000 3.6 190 22:38 05.03.2020
1827 Rain 6 994 93 10000 3.6 190 22:20 05.03.2020
1828 Rain 6 994 86 10000 4.1 200 21:56 05.03.2020
1829 Rain 6 993 81 10000 6.2 210 21:38 05.03.2020
1830 Rain 5 994 93 10000 2.1 230 21:20 05.03.2020
1831 Rain 5 992 93 10000 1 0 20:57 05.03.2020
1832 Rain 5 993 93 10000 2.1 230 20:38 05.03.2020
1833 Rain 5 992 93 10000 3.1 130 20:19 05.03.2020
1834 Rain 5 993 93 8000 3.6 130 19:56 05.03.2020
1835 Rain 5 993 93 7000 3.1 110 19:37 05.03.2020
1836 Rain 5 993 93 7000 3.1 110 19:18 05.03.2020
1837 Rain 5 993 93 6000 4.1 110 18:39 05.03.2020
1838 Rain 6 994 93 7000 3.1 110 18:20 05.03.2020
1839 Rain 6 995 86 8000 4.1 150 17:59 05.03.2020
1840 Rain 6 995 86 8000 4.1 150 17:40 05.03.2020
1841 Rain 6 995 93 8000 3.6 130 17:22 05.03.2020
1842 Rain 6 995 87 8000 2.6 110 16:55 05.03.2020
1843 Rain 7 995 93 6000 2.1 100 16:37 05.03.2020
1844 Rain 7 997 70 9000 4.6 160 16:19 05.03.2020
1845 Rain 7 997 70 9000 4.6 160 15:44 05.03.2020
1846 Rain 8 997 72 10000 3.1 130 15:22 05.03.2020
1847 Clouds 8 997 72 10000 3.6 120 14:58 05.03.2020
1848 Clouds 8 997 72 10000 3.6 120 14:39 05.03.2020
1849 Clouds 8 998 63 10000 4.6 130 14:21 05.03.2020
1850 Clouds 8 999 63 10000 3.6 130 13:56 05.03.2020
1851 Clouds 8 1000 63 10000 3.6 110 13:37 05.03.2020
1852 Clouds 8 1000 57 10000 3.6 110 13:19 05.03.2020
1853 Clouds 8 1000 57 10000 3.1 130 12:41 05.03.2020
1854 Clouds 7 1001 61 10000 2.6 130 12:20 05.03.2020
1855 Clouds 7 1001 57 10000 2.6 150 11:57 05.03.2020
1856 Rain 7 1002 70 10000 2.6 130 11:37 05.03.2020
1857 Clouds 6 1002 70 10000 2.6 130 11:19 05.03.2020
1858 Clouds 5 1002 67 10000 3.1 130 10:57 05.03.2020
1859 Clouds 5 1002 67 10000 3.1 130 10:57 05.03.2020
1860 Clouds 5 1002 67 10000 3.1 130 10:39 05.03.2020
1861 Clouds 4 1003 67 10000 2.6 140 10:21 05.03.2020
1862 Rain 3 1003 74 10000 3.6 130 09:46 05.03.2020
1863 Clouds 3 1004 80 10000 2.6 140 09:28 05.03.2020
1864 Clouds 2 1004 74 10000 3.6 140 08:59 05.03.2020
1865 Clouds 2 1004 67 10000 2.6 130 08:41 05.03.2020
1866 Clouds 1 1005 86 10000 3.6 140 08:21 05.03.2020
1867 Snow 1 1006 80 10000 3.6 200 07:41 05.03.2020
1868 Snow 1 1006 80 10000 3.6 200 07:19 05.03.2020
1869 Snow 0 1006 86 10000 2.6 160 06:43 05.03.2020
1870 Clouds 0 1006 59 10000 4.1 220 06:19 05.03.2020
1871 Snow 0 1006 80 10000 2.6 200 05:33 05.03.2020
1872 Clouds -1 1007 69 10000 1 0 04:23 05.03.2020
1873 Clouds -1 1007 69 10000 1 0 04:23 05.03.2020
1874 Clouds -1 1007 70 10000 1.5 160 03:58 05.03.2020
1875 Clouds -1 1009 86 10000 1 170 02:32 05.03.2020
1876 Clouds -1 1010 79 10000 1.5 150 01:26 05.03.2020
1877 Clouds -1 1010 86 10000 1.5 160 00:49 05.03.2020
1878 Clouds -1 1011 86 10000 0.5 0 23:57 04.03.2020
1879 Clouds -1 1010 86 10000 0.5 0 23:39 04.03.2020
1880 Clouds -1 1011 86 10000 2.6 140 23:21 04.03.2020
1881 Clouds 0 1011 79 10000 3.6 150 22:56 04.03.2020
1882 Clouds 0 1012 79 9000 1.67 187 22:37 04.03.2020
1883 Clouds 1 1012 74 10000 3.6 160 22:18 04.03.2020
1884 Clouds 1 1012 74 10000 3.6 160 21:55 04.03.2020
1885 Clouds 1 1012 79 10000 3.1 150 21:37 04.03.2020
1886 Clouds 1 1012 79 10000 3.1 150 21:18 04.03.2020
1887 Clouds 2 1012 74 10000 1 190 20:40 04.03.2020
1888 Snow 3 1012 74 10000 2.1 180 20:21 04.03.2020
1889 Snow 3 1012 80 10000 2.1 190 19:57 04.03.2020
1890 Clouds 4 1012 69 10000 2.1 190 19:38 04.03.2020
1891 Snow 4 1012 74 10000 2.1 170 19:20 04.03.2020
1892 Snow 4 1012 56 10000 1.5 200 18:42 04.03.2020
1893 Snow 5 1012 60 10000 2.6 220 18:23 04.03.2020
1894 Snow 5 1012 56 10000 2.6 230 17:59 04.03.2020
1895 Rain 6 1012 48 10000 1 220 17:39 04.03.2020
1896 Snow 6 1012 52 10000 4.6 240 17:20 04.03.2020
1897 Snow 6 1012 52 10000 4.6 240 16:56 04.03.2020
1898 Clouds 6 1012 48 10000 2.6 270 16:37 04.03.2020
1899 Clouds 6 1012 48 10000 5.1 240 16:19 04.03.2020
1900 Clouds 6 1012 52 10000 4.6 250 15:45 04.03.2020
1901 Clouds 7 1012 52 10000 5.1 240 15:26 04.03.2020
1902 Clouds 7 1012 52 10000 5.1 240 15:26 04.03.2020
1903 Clouds 6 1013 56 10000 5.1 240 14:59 04.03.2020
1904 Clouds 6 1012 48 10000 5.1 230 14:40 04.03.2020
1905 Clouds 6 1013 52 10000 6.7 250 14:20 04.03.2020
1906 Clouds 6 1013 48 10000 4.6 260 13:58 04.03.2020
1907 Clouds 6 1013 52 10000 5.1 240 13:39 04.03.2020
1908 Clouds 6 1013 52 10000 6.2 250 13:21 04.03.2020
1909 Clouds 6 1013 52 10000 5.1 250 12:56 04.03.2020
1910 Clouds 6 1013 52 10000 5.1 250 12:56 04.03.2020
1911 Clouds 6 1013 52 10000 5.7 230 12:37 04.03.2020
1912 Clouds 6 1013 52 10000 5.1 230 12:19 04.03.2020
1913 Clouds 5 1014 60 10000 4.6 250 11:42 04.03.2020
1914 Clouds 5 1014 60 10000 4.6 250 11:42 04.03.2020
1915 Clouds 5 1014 60 10000 4.6 250 11:24 04.03.2020
1916 Clouds 4 1014 64 10000 5.1 250 10:59 04.03.2020
1917 Snow 4 1014 74 10000 3.6 230 10:41 04.03.2020
1918 Snow 4 1014 74 10000 3.6 230 10:22 04.03.2020
1919 Snow 3 1014 69 10000 4.6 240 09:44 04.03.2020
1920 Clouds 3 1014 80 10000 3.6 220 09:22 04.03.2020
1921 Clouds 2 1014 80 10000 3.6 230 08:59 04.03.2020
1922 Clouds 1 1014 80 10000 3.6 230 08:40 04.03.2020
1923 Clouds 1 1013 80 10000 3.6 230 08:22 04.03.2020
1924 Clouds 0 1013 87 10000 3.1 240 07:44 04.03.2020
1925 Clouds 0 1013 92 10000 3.6 240 07:25 04.03.2020
1926 Clouds 0 1012 87 10000 4.1 240 06:49 04.03.2020
1927 Clouds 0 1012 87 10000 3.6 230 06:26 04.03.2020
1928 Clouds 0 1012 87 10000 3.6 220 05:55 04.03.2020
1929 -273 0 0 0 0 0 05:00 04.03.2020
1930 Clouds 0 1011 81 10000 4.1 220 04:59 04.03.2020
1931 Clouds 0 1011 81 10000 4.1 220 04:59 04.03.2020
1932 Clouds 0 1011 92 10000 3.1 230 03:50 04.03.2020
1933 Clouds 0 1010 92 10000 3.1 230 03:31 04.03.2020
1934 Clouds -1 1010 92 10000 3.1 220 02:58 04.03.2020
1935 Clouds -1 1010 92 10000 2.1 210 02:25 04.03.2020
1936 Clouds -1 1010 92 10000 1.5 190 01:56 04.03.2020
1937 Clouds -1 1010 100 10000 1 0 01:31 04.03.2020
1938 Clouds 0 1009 92 10000 2.1 220 00:41 04.03.2020
1939 Clouds 0 1009 92 10000 2.1 210 00:21 04.03.2020
1940 Clouds 1 1008 87 10000 1 200 23:42 03.03.2020
1941 Snow 1 1008 86 10000 1 200 23:23 03.03.2020
1942 Snow 1 1008 86 10000 1.5 130 22:56 03.03.2020
1943 Clouds 1 1008 86 10000 2.1 200 22:37 03.03.2020
1944 Snow 2 1008 86 10000 1.5 200 22:18 03.03.2020
1945 Snow 2 1008 86 10000 2.6 160 21:43 03.03.2020
1946 Snow 2 1008 86 10000 1.5 170 21:22 03.03.2020
1947 Snow 2 1007 86 10000 1.5 220 20:58 03.03.2020
1948 Snow 2 1007 86 10000 1 150 20:39 03.03.2020
1949 Snow 2 1007 86 10000 1.5 220 20:39 03.03.2020
1950 Rain 2 1007 86 10000 1 150 20:19 03.03.2020
1951 Rain 3 1006 86 10000 3.1 140 19:56 03.03.2020
1952 Rain 3 1006 86 10000 3.1 140 19:56 03.03.2020
1953 Rain 3 1006 74 10000 2.6 190 19:37 03.03.2020
1954 Clouds 3 1006 64 10000 2.6 260 19:37 03.03.2020
1955 Rain 3 1006 74 10000 2.6 190 19:37 03.03.2020
1956 Clouds 3 1006 64 10000 2.6 260 19:18 03.03.2020
1957 Rain 3 1006 64 10000 2.6 280 18:57 03.03.2020
1958 Rain 4 1006 64 10000 2.6 280 18:57 03.03.2020
1959 Snow 4 1006 64 10000 3.1 260 18:39 03.03.2020
1960 Rain 4 1005 64 10000 2.6 270 18:19 03.03.2020
1961 Snow 5 1004 60 10000 3.1 270 17:55 03.03.2020
1962 Rain 5 1004 60 10000 2.1 240 17:36 03.03.2020
1963 Clouds 5 1004 56 10000 5.1 260 17:18 03.03.2020
1964 Clouds 5 1004 56 10000 5.1 260 16:55 03.03.2020
1965 Clouds 5 1003 60 10000 4.1 240 16:36 03.03.2020
1966 Clouds 5 1003 60 10000 4.1 240 16:18 03.03.2020
1967 Clouds 5 1003 60 10000 4.1 240 16:18 03.03.2020
1968 Clouds 5 1004 56 10000 4.1 240 15:43 03.03.2020
1969 Rain 5 1004 64 10000 3.6 250 15:21 03.03.2020
1970 Clouds 6 1003 52 10000 4.6 280 14:55 03.03.2020
1971 Clouds 5 1003 60 10000 5.1 280 14:37 03.03.2020
1972 Clouds 5 1003 60 10000 5.1 280 14:18 03.03.2020
1973 Snow 5 1004 60 10000 4.6 250 13:42 03.03.2020
1974 Clouds 5 1004 64 10000 7.2 250 13:24 03.03.2020
1975 Clouds 5 1004 64 10000 7.7 260 12:55 03.03.2020
1976 Clouds 5 1004 64 10000 5.7 240 12:37 03.03.2020
1977 Clouds 5 1003 64 10000 6.7 270 12:18 03.03.2020
1978 Clouds 4 1003 74 10000 6.7 260 11:55 03.03.2020
1979 Clouds 4 1003 74 10000 7.2 270 11:36 03.03.2020
1980 Clouds 4 1003 74 10000 7.2 270 11:18 03.03.2020
1981 Clouds 4 1003 74 10000 6.7 260 10:54 03.03.2020
1982 Clouds 3 1003 89 10000 7.7 250 10:36 03.03.2020
1983 Clouds 3 1003 89 10000 7.7 250 10:18 03.03.2020
1984 Rain 3 1003 86 10000 7.7 260 09:41 03.03.2020
1985 Rain 2 1002 89 5000 8.2 260 09:20 03.03.2020
1986 Rain 2 1002 80 10000 7.2 250 08:42 03.03.2020
1987 Rain 3 1001 91 3000 7.7 260 08:22 03.03.2020
1988 Rain 3 1000 93 9000 8.2 250 07:56 03.03.2020
1989 Rain 3 1001 96 10000 7.2 260 07:38 03.03.2020
1990 Rain 3 1000 93 10000 9.3 250 07:18 03.03.2020
1991 Rain 3 999 93 10000 8.2 250 06:40 03.03.2020
1992 Rain 3 998 93 10000 8.7 250 06:21 03.03.2020
1993 Rain 3 998 93 10000 6.7 230 05:43 03.03.2020
1994 Rain 4 997 93 10000 7.7 240 04:54 03.03.2020
1995 Rain 5 995 86 10000 6.2 240 02:38 03.03.2020
1996 Rain 5 994 86 10000 5.7 240 01:32 03.03.2020
1997 Rain 5 994 80 10000 7.7 240 00:42 03.03.2020
1998 Rain 6 993 80 10000 7.7 240 00:23 03.03.2020
1999 Rain 6 993 86 10000 7.2 230 23:51 02.03.2020
2000 Rain 6 992 86 10000 7.7 240 23:23 02.03.2020
2001 Clouds 6 992 86 10000 7.2 250 22:58 02.03.2020
2002 Rain 6 992 86 10000 5.1 210 22:39 02.03.2020
2003 Clouds 6 992 87 10000 7.2 250 22:20 02.03.2020
2004 Clouds 7 991 81 10000 5.7 250 21:58 02.03.2020
2005 Clouds 6 990 75 10000 3.6 260 21:39 02.03.2020
2006 Clouds 6 990 75 10000 3.6 260 21:20 02.03.2020
2007 Clouds 7 988 70 10000 3.1 280 20:57 02.03.2020
2008 Clouds 7 988 70 10000 3.1 280 20:57 02.03.2020
2009 Clouds 7 988 70 10000 2.1 340 20:38 02.03.2020
2010 Clouds 7 988 70 10000 2.1 340 20:19 02.03.2020
2011 Clouds 7 988 70 10000 2.1 330 19:55 02.03.2020
2012 Clouds 7 988 70 10000 2.1 330 19:55 02.03.2020
2013 Clouds 7 988 75 10000 3.1 340 19:37 02.03.2020
2014 Clouds 7 987 70 10000 3.1 70 19:18 02.03.2020
2015 Clouds 7 987 70 10000 3.1 70 18:44 02.03.2020
2016 Clouds 7 987 70 10000 3.1 80 18:19 02.03.2020
2017 Clouds 7 987 70 10000 3.1 80 18:19 02.03.2020
2018 Clouds 8 987 65 10000 3.6 70 17:58 02.03.2020
2019 Clouds 8 987 70 10000 4.1 50 17:40 02.03.2020
2020 Clouds 8 987 61 10000 4.6 80 17:21 02.03.2020
2021 Clouds 8 987 61 10000 5.1 90 16:55 02.03.2020
2022 Clouds 8 988 61 10000 5.7 80 16:37 02.03.2020
2023 Clouds 8 988 61 10000 5.7 80 16:19 02.03.2020
2024 Clouds 9 989 57 10000 5.1 90 15:43 02.03.2020
2025 Clouds 9 989 57 10000 5.1 90 15:20 02.03.2020
2026 Clouds 9 989 61 10000 6.2 80 14:54 02.03.2020
2027 Clouds 9 990 61 10000 5.1 90 14:36 02.03.2020
2028 Clouds 9 990 61 10000 5.1 90 14:18 02.03.2020
2029 Clouds 8 990 63 10000 6.2 80 13:39 02.03.2020
2030 Clouds 8 992 64 10000 6.7 90 13:19 02.03.2020
2031 Clouds 9 992 64 10000 5.7 100 12:54 02.03.2020
2032 Clouds 9 991 64 10000 7.2 80 12:36 02.03.2020
2033 Clouds 8 993 64 10000 6.7 90 12:18 02.03.2020
2034 Clouds 8 994 64 10000 6.7 80 11:38 02.03.2020
2035 Clouds 8 994 71 10000 6.7 100 11:19 02.03.2020
2036 Clouds 8 995 71 10000 5.7 80 10:55 02.03.2020
2037 Clouds 8 995 65 10000 4.6 100 10:36 02.03.2020
2038 Clouds 7 995 65 10000 4.6 100 10:18 02.03.2020
2039 Clouds 6 996 71 10000 4.1 100 09:45 02.03.2020
2040 Clouds 5 997 75 10000 2.1 120 09:26 02.03.2020
2041 Clouds 3 997 71 10000 2.1 110 08:47 02.03.2020
2042 Clouds 2 997 86 10000 3.1 120 08:22 02.03.2020
2043 Clouds 1 997 92 10000 3.1 110 07:47 02.03.2020
2044 Clouds 1 998 91 10000 3.1 150 07:28 02.03.2020
2045 Clouds 1 998 91 10000 2.6 140 06:50 02.03.2020
2046 Clouds 2 999 86 10000 1.5 240 05:59 02.03.2020
2047 Clouds 3 999 82 10000 2.6 240 05:23 02.03.2020
2048 Clouds 4 999 82 10000 7.2 240 03:25 02.03.2020
2049 Clouds 4 999 82 10000 8.2 240 02:55 02.03.2020
2050 Rain 5 999 86 10000 9.3 240 02:29 02.03.2020
2051 Rain 5 999 75 10000 8.7 250 01:36 02.03.2020
2052 Snow 5 999 75 10000 9.3 240 01:18 02.03.2020
2053 Snow 5 999 86 10000 7.2 230 00:22 02.03.2020
2054 Rain 4 999 86 10000 5.7 240 23:42 01.03.2020
2055 Rain 5 999 86 10000 5.7 240 23:22 01.03.2020
2056 Rain 5 1000 80 10000 13.4 240 22:45 01.03.2020
2057 Clouds 5 996 80 10000 3.1 160 22:21 01.03.2020
2058 Clouds 6 996 75 10000 2.6 130 21:59 01.03.2020
2059 Clouds 6 996 75 10000 2.6 130 21:40 01.03.2020
2060 Clouds 6 996 75 10000 4.1 140 21:22 01.03.2020
2061 Clouds 6 997 75 10000 2.6 120 20:55 01.03.2020
2062 Clouds 6 997 75 9000 3.1 160 20:37 01.03.2020
2063 Clouds 7 997 70 10000 2.1 130 20:19 01.03.2020
2064 Clouds 7 997 70 10000 2.1 130 19:41 01.03.2020
2065 Clouds 7 997 70 10000 2.1 130 19:22 01.03.2020
2066 Clouds 7 998 70 10000 3.6 100 18:58 01.03.2020
2067 Clouds 8 997 82 10000 1.5 130 18:39 01.03.2020
2068 Clouds 9 998 46 10000 1 30 18:19 01.03.2020
2069 Clouds 10 998 43 10000 2.57 107 17:55 01.03.2020
2070 Clouds 11 998 82 10000 1 0 17:37 01.03.2020
2071 Clouds 11 998 64 10000 1 0 17:19 01.03.2020
2072 Clouds 11 999 64 10000 2.1 260 16:55 01.03.2020
2073 Clouds 12 999 64 10000 4.1 270 16:36 01.03.2020
2074 Clouds 12 999 64 10000 4.1 270 16:18 01.03.2020
2075 Clouds 12 999 46 10000 2.1 200 15:55 01.03.2020
2076 Clouds 12 999 37 10000 5.1 230 15:37 01.03.2020
2077 Clouds 12 1000 46 10000 4.1 200 15:18 01.03.2020
2078 Clouds 12 1000 50 10000 3.1 190 14:55 01.03.2020
2079 Clouds 12 1000 53 10000 3.6 210 14:36 01.03.2020
2080 Clouds 11 1001 53 10000 4.1 170 14:18 01.03.2020
2081 Clouds 11 1001 53 10000 4.1 170 13:44 01.03.2020
2082 Clouds 11 1001 57 10000 4.6 200 13:21 01.03.2020
2083 Clouds 11 1002 61 10000 3.6 210 12:59 01.03.2020
2084 Clouds 11 1002 61 10000 3.6 210 12:41 01.03.2020
2085 Clouds 10 1002 61 10000 4.6 220 12:20 01.03.2020
2086 Rain 10 1003 70 10000 5.1 220 11:42 01.03.2020
2087 Rain 9 1003 75 10000 6.2 220 11:24 01.03.2020
2088 Rain 9 1003 75 10000 6.2 220 11:24 01.03.2020
2089 Rain 8 1003 70 10000 6.2 210 10:57 01.03.2020
2090 Rain 8 1003 70 9000 7.2 220 10:38 01.03.2020
2091 Rain 7 1004 70 10000 5.1 210 10:20 01.03.2020
2092 Rain 6 1004 75 10000 4.6 220 09:55 01.03.2020
2093 Rain 6 1004 75 10000 6.2 210 09:37 01.03.2020
2094 Rain 6 1004 75 10000 6.2 210 09:18 01.03.2020
2095 Rain 5 1003 75 10000 5.7 190 08:41 01.03.2020
2096 Rain 5 1004 80 10000 4.6 200 08:20 01.03.2020
2097 Rain 5 1004 86 10000 5.1 220 07:42 01.03.2020
2098 Rain 5 1004 86 10000 3.6 190 07:24 01.03.2020
2099 Rain 5 1004 86 10000 3.6 190 07:24 01.03.2020
2100 Rain 5 1004 86 10000 4.6 180 06:57 01.03.2020
2101 Rain 5 1004 86 10000 4.6 200 06:37 01.03.2020
2102 Rain 5 1004 86 10000 5.1 220 04:27 01.03.2020
2103 Rain 5 1004 86 10000 6.2 220 02:55 01.03.2020
2104 Rain 5 1005 80 10000 8.7 240 01:53 01.03.2020
2105 Rain 6 1005 86 10000 8.7 260 01:31 01.03.2020
2106 Clouds 6 1004 75 10000 11.3 250 00:45 01.03.2020
2107 Rain 6 1004 75 10000 10.8 260 00:22 01.03.2020
2108 Rain 7 1003 81 10000 7.7 260 23:54 29.02.2020
2109 Rain 7 1003 70 10000 5.7 240 23:33 29.02.2020
2110 Rain 7 1003 70 10000 5.1 260 22:45 29.02.2020
2111 Rain 8 1003 61 10000 6.7 260 22:26 29.02.2020
2112 Rain 8 1002 46 10000 6.2 260 21:47 29.02.2020
2113 Rain 9 1001 46 10000 5.7 260 21:26 29.02.2020
2114 Rain 9 1001 61 10000 2.6 250 20:58 29.02.2020
2115 Rain 9 1001 61 10000 2.6 250 20:40 29.02.2020
2116 Clouds 9 1000 76 10000 3.6 220 20:19 29.02.2020
2117 Clouds 9 999 49 10000 3.6 210 19:41 29.02.2020
2118 Clouds 9 999 76 10000 4.1 170 19:22 29.02.2020
2119 Clouds 9 999 70 10000 2.1 150 18:59 29.02.2020
2120 Clouds 9 999 76 10000 3.6 190 18:39 29.02.2020
2121 Clouds 10 999 61 10000 2.1 160 18:19 29.02.2020
2122 Clouds 11 999 50 10000 1 0 17:55 29.02.2020
2123 Clouds 11 998 76 10000 3.6 200 17:37 29.02.2020
2124 Clouds 12 999 46 10000 2.1 200 17:18 29.02.2020
2125 Clouds 12 999 81 10000 4.1 210 16:43 29.02.2020
2126 Clouds 12 1000 46 10000 3.6 270 16:19 29.02.2020
2127 Clouds 12 1000 47 10000 5.7 290 15:56 29.02.2020
2128 Clouds 13 1000 81 10000 5.7 240 15:36 29.02.2020
2129 Clouds 13 1000 81 10000 5.7 240 15:18 29.02.2020
2130 Clouds 13 1000 81 10000 5.7 260 14:39 29.02.2020
2131 Clouds 13 999 41 10000 5.7 140 14:21 29.02.2020
2132 Clouds 13 999 41 10000 4.6 140 13:45 29.02.2020
2133 Clouds 12 1000 66 10000 3.1 170 13:26 29.02.2020
2134 Clouds 12 1001 43 10000 4.1 140 12:57 29.02.2020
2135 Clouds 12 1002 66 10000 4.1 140 12:38 29.02.2020
2136 Clouds 11 1002 66 10000 4.1 140 12:20 29.02.2020
2137 Clouds 10 1002 50 10000 4.1 150 11:45 29.02.2020
2138 Clouds 9 1003 68 10000 3.1 130 11:26 29.02.2020
2139 Clouds 8 1003 46 10000 3.6 150 10:51 29.02.2020
2140 Clouds 7 1004 52 10000 4.6 140 10:31 29.02.2020
2141 Clouds 7 1004 52 10000 4.6 140 10:31 29.02.2020
2142 Clouds 7 1005 68 10000 2.1 130 09:56 29.02.2020
2143 Clouds 6 1005 68 10000 3.1 160 09:38 29.02.2020
2144 Clouds 5 1005 68 10000 3.1 160 09:18 29.02.2020
2145 Clouds 4 1005 70 10000 2.6 170 08:40 29.02.2020
2146 Clouds 3 1006 75 10000 2.6 180 08:21 29.02.2020
2147 Clouds 3 1006 69 10000 3.1 170 07:52 29.02.2020
2148 Clouds 3 1007 60 10000 3.6 200 07:25 29.02.2020
2149 Clouds 3 1007 69 10000 4.1 170 06:55 29.02.2020
2150 Clouds 3 1007 64 10000 3.6 180 06:29 29.02.2020
2151 Clouds 2 1008 69 10000 1.5 220 05:52 29.02.2020
2152 Clouds 3 1008 64 10000 1.5 190 05:32 29.02.2020
2153 Clouds 2 1009 64 10000 3.1 150 04:18 29.02.2020
2154 Clouds 2 1010 64 10000 4.1 150 03:24 29.02.2020
2155 Clouds 2 1011 64 10000 1 0 02:59 29.02.2020
2156 Clouds 2 1011 74 10000 2.6 120 02:26 29.02.2020
2157 Clouds 2 1013 59 10000 2.1 230 00:52 29.02.2020
2158 Clouds 2 1013 59 10000 2.6 160 00:28 29.02.2020
2159 Clouds 2 1013 59 10000 2.6 180 23:42 28.02.2020
2160 Clouds 1 1013 59 10000 2.6 180 23:24 28.02.2020
2161 Clouds 1 1014 59 10000 3.6 170 22:43 28.02.2020
2162 Clouds 1 1015 69 10000 3.6 150 22:23 28.02.2020
2163 Clouds 1 1015 59 10000 4.1 140 21:56 28.02.2020
2164 Clouds 1 1014 80 10000 2.1 150 21:38 28.02.2020
2165 Clouds 1 1015 80 10000 2.1 140 21:20 28.02.2020
2166 Clouds 0 1015 80 10000 2.6 160 20:39 28.02.2020
2167 Clouds 1 1016 74 10000 2.1 130 20:21 28.02.2020
2168 Clouds 1 1017 85 10000 2.1 140 19:57 28.02.2020
2169 Clouds 1 1016 85 10000 2.6 120 19:39 28.02.2020
2170 Clouds 1 1017 80 10000 1.5 130 19:20 28.02.2020
2171 Clouds 2 1018 51 10000 1.5 200 18:55 28.02.2020
2172 Clouds 2 1017 55 10000 1.5 160 18:37 28.02.2020
2173 Clouds 3 1018 51 10000 1.5 160 18:19 28.02.2020
2174 Clouds 4 1018 44 10000 3.1 200 17:40 28.02.2020
2175 Clouds 5 1018 51 10000 3.6 230 17:22 28.02.2020
2176 Clouds 5 1018 48 10000 5.1 230 16:46 28.02.2020
2177 Clouds 5 1019 55 10000 5.1 240 16:20 28.02.2020
2178 Clouds 5 1019 52 10000 6.2 250 15:58 28.02.2020
2179 Clouds 5 1018 51 10000 4.1 230 15:40 28.02.2020
2180 Clouds 5 1019 59 10000 5.1 250 15:20 28.02.2020
2181 Clouds 5 1019 59 10000 5.1 250 15:20 28.02.2020
2182 Clouds 5 1019 59 10000 4.6 240 14:57 28.02.2020
2183 Clouds 4 1019 59 10000 4.6 240 14:39 28.02.2020
2184 Clouds 4 1020 69 10000 5.1 250 14:18 28.02.2020
2185 Clouds 4 1020 69 10000 5.1 250 13:54 28.02.2020
2186 Clouds 4 1020 64 10000 5.7 260 13:36 28.02.2020
2187 Clouds 4 1020 64 10000 5.7 260 13:18 28.02.2020
2188 Rain 3 1020 69 10000 5.7 270 12:41 28.02.2020
2189 Rain 3 1020 69 10000 5.7 270 12:22 28.02.2020
2190 Rain 3 1020 69 10000 5.1 260 11:42 28.02.2020
2191 Rain 3 1020 69 10000 8.2 270 11:24 28.02.2020
2192 Rain 2 1019 74 10000 7.2 260 10:58 28.02.2020
2193 Rain 2 1019 74 10000 7.2 260 10:39 28.02.2020
2194 Rain 2 1019 74 10000 7.2 260 10:39 28.02.2020
2195 Rain 2 1019 82 10000 7.2 260 10:20 28.02.2020
2196 Rain 1 1019 74 10000 4.6 250 09:46 28.02.2020
2197 Clouds 1 1018 82 10000 7.2 270 09:21 28.02.2020
2198 Clouds 1 1018 82 10000 6.7 270 08:57 28.02.2020
2199 Clouds 0 1017 83 10000 7.7 260 08:37 28.02.2020
2200 Clouds 0 1017 91 10000 7.7 260 08:18 28.02.2020
2201 Clouds 0 1017 91 10000 5.7 240 07:40 28.02.2020
2202 Snow 0 1016 91 9000 6.7 260 07:20 28.02.2020
2203 Snow 0 1016 91 8000 3.6 250 06:45 28.02.2020
2204 Snow 0 1014 91 10000 8.2 270 06:19 28.02.2020
2205 Snow 0 1012 95 10000 8.7 280 04:45 28.02.2020
2206 Snow 0 1011 95 2000 7.2 270 04:18 28.02.2020
2207 Snow 1 1009 95 3800 6.7 270 02:46 28.02.2020
2208 Snow 1 1010 95 3000 6.7 260 02:46 28.02.2020
2209 Snow 1 1008 89 2200 7.2 270 02:25 28.02.2020
2210 Snow 1 1005 89 2300 9.8 270 00:48 28.02.2020
2211 Rain 1 1004 89 2400 11.3 260 00:26 28.02.2020
2212 Rain 1 1002 89 2700 13.4 260 23:42 27.02.2020
2213 Rain 1 1000 86 6000 14.4 260 23:19 27.02.2020
2214 Rain 2 999 80 10000 16.5 250 22:43 27.02.2020
2215 Rain 3 997 69 10000 18.5 250 22:25 27.02.2020
2216 Rain 3 995 74 10000 14.4 250 21:58 27.02.2020
2217 Rain 3 997 69 10000 15.9 240 21:39 27.02.2020
2218 Rain 3 993 69 10000 14.9 250 21:19 27.02.2020
2219 Rain 3 992 86 10000 14.9 240 20:56 27.02.2020
2220 Rain 3 992 86 10000 14.9 240 20:38 27.02.2020
2221 Rain 2 991 86 10000 8.2 210 20:20 27.02.2020
2222 Rain 1 991 100 10000 5.7 170 19:54 27.02.2020
2223 Rain 1 990 86 4000 10.3 210 19:36 27.02.2020
2224 Snow 1 991 84 10000 4.1 160 19:18 27.02.2020
2225 Snow 0 993 84 2000 4.6 140 18:40 27.02.2020
2226 Snow 0 993 84 2000 4.6 140 18:22 27.02.2020
2227 Snow 1 993 84 1700 5.7 140 17:58 27.02.2020
2228 Snow 1 993 84 1700 5.7 140 17:39 27.02.2020
2229 Snow 1 995 65 2000 4.1 130 17:19 27.02.2020
2230 Snow 2 996 65 3600 3.1 160 16:56 27.02.2020
2231 Snow 2 996 69 3500 5.7 180 16:37 27.02.2020
2232 Clouds 3 996 64 8000 5.7 130 16:18 27.02.2020
2233 Rain 4 997 48 10000 5.1 180 15:56 27.02.2020
2234 Clouds 5 998 44 10000 1.5 130 15:36 27.02.2020
2235 Clouds 5 998 44 10000 1.5 130 15:18 27.02.2020
2236 Clouds 5 998 44 10000 1.5 130 15:18 27.02.2020
2237 Rain 5 998 44 10000 3.1 120 14:42 27.02.2020
2238 Rain 6 1000 44 10000 3.1 130 14:23 27.02.2020
2239 Rain 6 1001 51 10000 3.6 150 13:57 27.02.2020
2240 Clouds 5 1003 51 10000 3.1 190 13:39 27.02.2020
2241 Clouds 5 1000 44 10000 4.6 190 13:39 27.02.2020
2242 Rain 5 1003 51 10000 3.1 190 13:20 27.02.2020
2243 Rain 5 1004 55 10000 4.1 210 12:45 27.02.2020
2244 Rain 5 1003 44 10000 5.1 200 12:45 27.02.2020
2245 Rain 5 1005 55 10000 5.7 210 12:23 27.02.2020
2246 Rain 5 1006 55 10000 6.2 230 11:58 27.02.2020
2247 Rain 4 1005 55 10000 5.7 200 11:38 27.02.2020
2248 Rain 4 1006 64 10000 4.6 200 11:20 27.02.2020
2249 Rain 3 1008 74 10000 6.7 210 10:43 27.02.2020
2250 Rain 3 1008 74 10000 6.7 210 10:22 27.02.2020
2251 Clouds 2 1008 74 10000 5.7 200 09:47 27.02.2020
2252 Snow 2 1009 66 5000 7.2 210 09:29 27.02.2020
2253 Snow 1 1009 66 10000 5.1 220 08:57 27.02.2020
2254 Snow 1 1009 66 10000 4.1 220 08:38 27.02.2020
2255 Snow 1 1009 66 10000 4.1 220 08:38 27.02.2020
2256 Snow 1 1009 87 10000 4.1 220 08:18 27.02.2020
2257 Snow 0 1009 87 10000 4.1 220 07:43 27.02.2020
2258 Snow 0 1009 87 10000 5.7 230 07:24 27.02.2020
2259 Snow 0 1009 87 10000 4.6 240 06:42 27.02.2020
2260 Snow 0 1009 91 10000 6.2 230 05:27 27.02.2020
2261 Snow 0 1009 91 10000 7.2 230 03:33 27.02.2020
2262 Clouds 0 1009 85 10000 7.2 240 02:20 27.02.2020
2263 Snow 0 1008 86 10000 6.7 250 00:44 27.02.2020
2264 Snow 0 1008 86 10000 8.2 250 00:24 27.02.2020
2265 Snow 1 1008 86 10000 7.7 250 23:39 26.02.2020
2266 Snow 1 1008 91 10000 6.7 250 23:19 26.02.2020
2267 Snow 0 1008 91 6000 5.7 260 22:56 26.02.2020
2268 Snow 1 1008 91 10000 7.2 230 22:38 26.02.2020
2269 Snow 1 1007 91 3700 7.7 240 22:19 26.02.2020
2270 Snow 1 1007 91 10000 8.7 250 21:55 26.02.2020
2271 Snow 1 1007 91 4000 5.7 230 21:36 26.02.2020
2272 Snow 1 1006 91 10000 8.7 240 21:18 26.02.2020
2273 Snow 1 1006 91 10000 7.7 250 20:54 26.02.2020
2274 Clouds 1 1006 87 10000 8.2 250 20:36 26.02.2020
2275 Clouds 1 1006 82 10000 8.2 250 20:18 26.02.2020
2276 Clouds 1 1006 82 10000 5.7 230 19:44 26.02.2020
2277 Clouds 1 1004 82 10000 8.2 230 19:20 26.02.2020
2278 Clouds 1 1004 82 10000 7.2 230 18:58 26.02.2020
2279 Clouds 1 1004 80 10000 6.7 230 18:39 26.02.2020
2280 Snow 1 1004 74 10000 7.2 240 18:21 26.02.2020
2281 Snow 2 1003 74 10000 7.2 250 17:42 26.02.2020
2282 Snow 2 1003 74 10000 7.2 250 17:23 26.02.2020
2283 Rain 2 1003 74 10000 8.7 250 16:57 26.02.2020
2284 Snow 2 1003 69 8000 5.7 230 16:39 26.02.2020
2285 Clouds 2 1002 80 10000 9.3 250 16:21 26.02.2020
2286 Rain 2 1002 72 10000 8.2 250 15:47 26.02.2020
2287 Rain 1 1002 92 800 8.2 270 15:29 26.02.2020
2288 Rain 2 1001 86 8000 9.3 240 14:59 26.02.2020
2289 Rain 2 1001 86 8000 9.3 240 14:40 26.02.2020
2290 Rain 3 1000 62 7000 10.8 250 14:21 26.02.2020
2291 Rain 4 999 52 10000 11.3 260 13:43 26.02.2020
2292 Clouds 4 1000 64 10000 10.3 250 13:22 26.02.2020
2293 Snow 5 1000 64 2000 10.3 240 12:42 26.02.2020
2294 Clouds 5 999 55 10000 9.8 250 12:22 26.02.2020
2295 Clouds 5 999 55 10000 8.2 250 11:59 26.02.2020
2296 Clouds 5 999 55 10000 8.2 230 11:40 26.02.2020
2297 Clouds 5 999 59 10000 8.7 260 11:21 26.02.2020
2298 Clouds 4 999 59 10000 10.8 250 10:43 26.02.2020
2299 Clouds 4 999 59 10000 10.8 250 10:24 26.02.2020
2300 Clouds 4 999 64 10000 11.3 240 09:59 26.02.2020
2301 Clouds 4 999 64 10000 8.2 220 09:40 26.02.2020
2302 Clouds 3 1000 74 10000 8.7 240 09:21 26.02.2020
2303 Clouds 3 1000 69 10000 8.7 250 08:54 26.02.2020
2304 Clouds 2 1000 69 10000 7.2 220 08:36 26.02.2020
2305 Clouds 2 1000 74 10000 8.7 240 08:18 26.02.2020
2306 Clouds 2 1000 74 10000 7.7 230 07:41 26.02.2020
2307 Clouds 2 999 80 10000 8.7 240 07:23 26.02.2020
2308 Snow 2 999 74 10000 8.2 240 06:49 26.02.2020
2309 Snow 2 999 80 10000 8.7 240 06:31 26.02.2020
2310 Snow 2 998 78 10000 9.3 260 05:48 26.02.2020
2311 Rain 3 998 79 10000 11.8 260 05:19 26.02.2020
2312 Rain 4 997 79 10000 7.7 230 03:57 26.02.2020
2313 Rain 5 999 80 10000 6.2 210 02:20 26.02.2020
2314 Rain 5 1000 80 10000 7.7 220 01:40 26.02.2020
2315 Rain 6 1000 75 10000 8.2 220 00:48 26.02.2020
2316 Rain 6 1000 70 10000 6.2 240 00:22 26.02.2020
2317 Rain 6 1000 70 10000 6.2 240 00:22 26.02.2020
2318 Rain 6 1000 75 10000 5.7 230 23:45 25.02.2020
2319 Rain 6 1000 75 10000 5.7 240 23:26 25.02.2020
2320 Rain 6 1000 70 10000 7.2 230 22:59 25.02.2020
2321 Clouds 7 1000 70 10000 4.1 220 22:41 25.02.2020
2322 Rain 7 1001 70 10000 7.7 230 22:19 25.02.2020
2323 Rain 7 1001 70 10000 9.3 240 21:55 25.02.2020
2324 Rain 7 1001 75 10000 6.7 220 21:36 25.02.2020
2325 Rain 7 1001 75 10000 6.7 220 21:18 25.02.2020
2326 Rain 7 1001 81 10000 6.2 220 20:54 25.02.2020
2327 Rain 7 1002 75 10000 7.2 230 20:36 25.02.2020
2328 Clouds 7 1002 75 10000 7.2 230 20:18 25.02.2020
2329 Clouds 7 1002 75 10000 8.7 230 19:40 25.02.2020
2330 Rain 7 1003 75 10000 8.2 230 19:19 25.02.2020
2331 Rain 7 1003 75 10000 9.8 240 18:42 25.02.2020
2332 Rain 8 1003 81 10000 8.2 240 18:22 25.02.2020
2333 Rain 8 1003 81 10000 9.8 240 17:59 25.02.2020
2334 Rain 8 1003 81 10000 9.8 240 17:38 25.02.2020
2335 Rain 9 1003 75 10000 11.8 250 17:20 25.02.2020
2336 Clouds 9 1003 66 10000 9.3 240 16:59 25.02.2020
2337 Rain 9 1002 71 10000 6.2 270 16:41 25.02.2020
2338 Clouds 9 1003 66 10000 11.3 250 16:22 25.02.2020
2339 Clouds 9 1003 61 10000 12.3 260 15:59 25.02.2020
2340 Clouds 9 1003 61 10000 12.3 260 15:41 25.02.2020
2341 Clouds 10 1003 61 10000 11.3 250 15:20 25.02.2020
2342 Clouds 10 1003 57 10000 10.8 250 14:58 25.02.2020
2343 Rain 10 1004 66 10000 9.3 240 14:38 25.02.2020
2344 Clouds 11 1004 53 10000 9.8 250 14:18 25.02.2020
2345 Clouds 11 1004 50 10000 9.8 250 13:56 25.02.2020
2346 Clouds 11 1005 50 10000 7.7 240 13:38 25.02.2020
2347 Clouds 11 1005 50 10000 7.7 240 13:20 25.02.2020
2348 Clouds 11 1005 53 10000 11.3 250 12:42 25.02.2020
2349 Clouds 11 1005 50 10000 6.7 240 12:23 25.02.2020
2350 Clouds 11 1005 46 10000 8.2 240 11:59 25.02.2020
2351 Clouds 11 1005 43 10000 8.2 230 11:41 25.02.2020
2352 Clouds 10 1006 65 10000 8.2 250 11:20 25.02.2020
2353 Clouds 10 1006 53 10000 7.2 240 10:59 25.02.2020
2354 Clouds 10 1006 61 10000 5.1 240 10:41 25.02.2020
2355 Clouds 9 1006 61 10000 5.1 240 10:22 25.02.2020
2356 Clouds 9 1006 61 10000 5.7 250 09:42 25.02.2020
2357 Clouds 9 1007 61 10000 5.7 250 09:23 25.02.2020
2358 Clouds 9 1007 61 10000 5.7 250 09:23 25.02.2020
2359 Clouds 8 1007 61 10000 6.2 250 08:56 25.02.2020
2360 Clouds 8 1007 42 10000 7.2 220 08:38 25.02.2020
2361 Clouds 7 1007 61 10000 6.7 240 08:20 25.02.2020
2362 Clouds 6 1007 45 10000 7.2 220 07:48 25.02.2020
2363 Clouds 6 1007 57 10000 7.7 230 07:20 25.02.2020
2364 Clouds 6 1007 61 10000 7.7 230 06:41 25.02.2020
2365 Clouds 7 1007 57 10000 5.7 220 05:41 25.02.2020
2366 Clear 7 1008 80 10000 3.6 210 03:54 25.02.2020
2367 Clouds 7 1009 57 10000 3.6 210 02:32 25.02.2020
2368 Clear 9 1011 57 10000 8.7 240 00:57 25.02.2020
2369 Clear 9 1011 62 10000 8.7 240 00:30 25.02.2020
2370 Clear 9 1011 62 10000 7.2 240 23:47 24.02.2020
2371 Clear 9 1011 71 10000 6.7 230 23:28 24.02.2020
2372 Clear 9 1012 71 10000 6.2 240 22:56 24.02.2020
2373 Clear 9 1012 76 10000 4.6 210 22:36 24.02.2020
2374 Clear 8 1012 81 10000 6.2 230 22:18 24.02.2020
2375 Clear 7 1012 87 10000 5.1 220 21:54 24.02.2020
2376 Clear 7 1012 87 10000 5.1 220 21:36 24.02.2020
2377 Clear 7 1013 93 10000 5.1 220 21:18 24.02.2020
2378 Clear 7 1013 93 10000 5.1 220 20:41 24.02.2020
2379 Clouds 7 1013 93 7000 3.6 210 20:20 24.02.2020
2380 Clouds 7 1013 93 2500 2.1 170 19:59 24.02.2020
2381 Clouds 7 1013 93 2500 2.1 170 19:41 24.02.2020
2382 Clouds 7 1013 100 1900 3.6 160 19:22 24.02.2020
2383 Clouds 7 1013 100 1900 3.6 160 19:22 24.02.2020
2384 Clouds 7 1014 100 2500 2.1 160 18:59 24.02.2020
2385 Clouds 8 1014 100 2500 2.1 160 18:41 24.02.2020
2386 Clouds 8 1014 93 10000 3.1 160 18:22 24.02.2020
2387 Clouds 9 1014 87 10000 2.6 170 17:54 24.02.2020
2388 Clouds 9 1014 66 10000 5.1 220 17:36 24.02.2020
2389 Clouds 10 1015 87 10000 2.6 140 17:18 24.02.2020
2390 Clouds 10 1015 81 10000 2.1 150 16:54 24.02.2020
2391 Clouds 10 1016 87 10000 1 0 16:36 24.02.2020
2392 Clouds 10 1016 87 10000 1 0 16:18 24.02.2020
2393 Clouds 10 1017 87 10000 3.1 200 15:54 24.02.2020
2394 Clouds 9 1017 93 10000 2.6 180 15:36 24.02.2020
2395 Clouds 9 1017 93 10000 2.6 180 15:18 24.02.2020
2396 Drizzle 7 1019 93 9000 3.1 180 14:40 24.02.2020
2397 Drizzle 7 1019 93 9000 3.1 180 14:22 24.02.2020
2398 Drizzle 6 1020 100 4100 4.6 160 13:58 24.02.2020
2399 Drizzle 6 1020 100 4100 4.6 160 13:58 24.02.2020
2400 Drizzle 6 1020 93 7000 3.6 140 13:39 24.02.2020
2401 Rain 6 1021 93 3000 4.6 160 13:21 24.02.2020
2402 Drizzle 6 1022 93 4500 3.1 130 12:57 24.02.2020
2403 Drizzle 6 1021 93 3500 4.1 140 12:39 24.02.2020
2404 Drizzle 5 1023 93 5000 3.1 120 12:21 24.02.2020
2405 Drizzle 5 1023 93 3500 4.1 130 11:46 24.02.2020
2406 Drizzle 5 1024 93 4000 2.6 130 11:28 24.02.2020
2407 Drizzle 4 1024 100 4000 2.1 130 10:48 24.02.2020
2408 Drizzle 4 1024 100 4000 2.1 130 10:30 24.02.2020
2409 Rain 4 1025 93 4500 3.1 110 09:55 24.02.2020
2410 Drizzle 4 1024 93 3000 1.5 90 09:37 24.02.2020
2411 Rain 3 1025 93 4000 2.1 110 09:18 24.02.2020
2412 Rain 3 1025 100 6000 1.5 60 08:48 24.02.2020
2413 Rain 3 1025 100 5000 1.5 10 08:28 24.02.2020
2414 Rain 3 1025 100 5000 1.5 360 07:48 24.02.2020
2415 Rain 3 1025 93 7000 2.6 330 07:30 24.02.2020
2416 Rain 3 1025 93 6000 3.1 300 06:48 24.02.2020
2417 Rain 3 1025 93 7000 2.6 330 06:22 24.02.2020
2418 Rain 4 1024 93 10000 4.6 360 05:33 24.02.2020
2419 Rain 4 1024 93 6000 6.2 350 04:49 24.02.2020
2420 Rain 7 1021 76 10000 8.2 260 02:57 24.02.2020
2421 Rain 10 1021 87 10000 9.8 260 01:52 24.02.2020
2422 Rain 11 1021 81 10000 9.3 260 01:28 24.02.2020
2423 Rain 11 1020 71 10000 10.3 270 00:38 24.02.2020
2424 Rain 11 1020 71 10000 10.3 270 00:19 24.02.2020
2425 Rain 11 1020 76 10000 9.8 250 23:42 23.02.2020
2426 Clouds 12 1019 54 10000 14.4 250 23:23 23.02.2020
2427 Clouds 13 1018 54 10000 13.9 250 22:58 23.02.2020
2428 Clouds 13 1018 54 10000 13.9 250 22:40 23.02.2020
2429 Clouds 13 1018 50 10000 15.4 250 22:21 23.02.2020
2430 Clouds 13 1018 50 10000 13.9 250 21:46 23.02.2020
2431 Clouds 14 1018 47 10000 14.4 250 21:21 23.02.2020
2432 Clouds 14 1018 47 10000 14.4 250 21:21 23.02.2020
2433 Clouds 14 1018 47 10000 14.9 250 20:59 23.02.2020
2434 Clouds 14 1018 47 10000 14.9 250 20:40 23.02.2020
2435 Clouds 15 1018 47 10000 13.9 250 20:22 23.02.2020
2436 Clouds 15 1018 47 10000 13.4 250 19:59 23.02.2020
2437 Clouds 15 1018 47 10000 13.4 250 19:41 23.02.2020
2438 Clouds 14 1018 47 10000 13.9 240 19:20 23.02.2020
2439 Clouds 14 1018 51 10000 14.9 250 18:59 23.02.2020
2440 Clouds 14 1018 51 10000 14.9 240 18:40 23.02.2020
2441 Clouds 14 1018 51 10000 14.9 240 18:20 23.02.2020
2442 Clouds 14 1017 51 10000 13.4 250 17:58 23.02.2020
2443 Clouds 14 1017 51 10000 12.9 250 17:39 23.02.2020
2444 Clouds 14 1017 51 10000 12.9 250 17:21 23.02.2020
2445 Clouds 14 1018 51 10000 12.3 250 16:56 23.02.2020
2446 Clouds 14 1018 54 10000 13.4 250 16:36 23.02.2020
2447 Clouds 14 1018 54 10000 13.4 250 16:18 23.02.2020
2448 Clouds 14 1018 50 10000 11.3 230 15:40 23.02.2020
2449 Clouds 14 1018 51 10000 13.4 250 15:22 23.02.2020
2450 Clouds 14 1019 54 10000 11.8 250 14:59 23.02.2020
2451 Clouds 14 1018 47 10000 11.3 230 14:41 23.02.2020
2452 Clouds 14 1019 50 10000 9.8 240 14:23 23.02.2020
2453 Clouds 13 1019 50 10000 12.3 240 13:59 23.02.2020
2454 Clouds 13 1020 47 10000 11.3 240 13:41 23.02.2020
2455 Clouds 13 1020 47 10000 11.3 240 13:22 23.02.2020
2456 Clouds 13 1021 43 10000 11.3 240 12:59 23.02.2020
2457 Clouds 13 1021 43 10000 11.3 240 12:38 23.02.2020
2458 Clouds 12 1021 43 10000 12.9 230 12:19 23.02.2020
2459 Clouds 11 1021 43 10000 11.3 220 11:38 23.02.2020
2460 Rain 10 1022 50 10000 7.7 240 11:20 23.02.2020
2461 Rain 10 1022 50 10000 7.7 240 11:20 23.02.2020
2462 Rain 10 1023 57 10000 6.2 240 10:57 23.02.2020
2463 Rain 9 1023 71 10000 8.2 220 10:39 23.02.2020
2464 Rain 9 1023 65 10000 6.2 220 10:21 23.02.2020
2465 Rain 8 1024 65 10000 5.7 220 09:56 23.02.2020
2466 Rain 8 1023 65 10000 5.7 210 09:37 23.02.2020
2467 Rain 7 1024 70 10000 6.2 230 09:18 23.02.2020
2468 Rain 7 1024 70 10000 7.7 210 08:44 23.02.2020
2469 Rain 7 1025 75 10000 8.2 230 08:25 23.02.2020
2470 Rain 6 1025 75 10000 8.7 230 07:45 23.02.2020
2471 Rain 6 1026 70 10000 11.8 230 07:27 23.02.2020
2472 Rain 7 1026 71 10000 12.3 240 06:24 23.02.2020
2473 Clouds 8 1026 49 10000 11.8 250 05:19 23.02.2020
2474 Clouds 8 1026 46 10000 8.7 250 04:23 23.02.2020
2475 Clouds 7 1026 65 10000 2.1 270 02:49 23.02.2020
2476 Clouds 8 1027 43 10000 5.7 270 01:42 23.02.2020
2477 Rain 9 1027 43 10000 5.7 270 01:20 23.02.2020
2478 Rain 9 1027 37 10000 4.6 260 00:44 23.02.2020
2479 Rain 9 1026 40 10000 6.2 260 00:22 23.02.2020
2480 Rain 10 1026 39 10000 5.7 230 23:43 22.02.2020
2481 Clouds 11 1026 34 10000 8.7 250 23:24 22.02.2020
2482 Clouds 11 1026 37 10000 7.2 230 22:45 22.02.2020
2483 Clouds 11 1026 34 10000 8.7 240 22:20 22.02.2020
2484 Clouds 11 1026 34 10000 8.2 240 21:55 22.02.2020
2485 Clouds 11 1026 40 10000 7.2 220 21:37 22.02.2020
2486 Clouds 11 1026 34 10000 7.2 250 21:18 22.02.2020
2487 Clouds 11 1026 32 10000 8.2 240 20:41 22.02.2020
2488 Clouds 11 1026 32 10000 8.2 240 20:22 22.02.2020
2489 Clouds 11 1026 34 10000 7.7 240 19:43 22.02.2020
2490 Clouds 11 1026 34 10000 6.7 250 19:25 22.02.2020
2491 Clouds 11 1025 34 10000 6.2 250 18:59 22.02.2020
2492 Clouds 11 1025 40 10000 5.7 230 18:39 22.02.2020
2493 Clouds 12 1025 30 10000 5.7 260 18:20 22.02.2020
2494 Clouds 12 1025 30 10000 6.7 250 17:55 22.02.2020
2495 Clouds 13 1025 28 10000 6.2 240 17:37 22.02.2020
2496 Clouds 12 1025 40 10000 4.1 240 17:37 22.02.2020
2497 Clouds 13 1025 28 10000 6.2 240 17:37 22.02.2020
2498 Clouds 13 1025 28 10000 6.2 240 17:19 22.02.2020
2499 Clouds 13 1025 28 10000 7.7 240 16:55 22.02.2020
2500 Clouds 14 1025 26 10000 6.7 240 16:37 22.02.2020
2501 Clouds 14 1025 26 10000 6.7 240 16:19 22.02.2020
2502 Clouds 15 1025 23 10000 6.7 240 15:42 22.02.2020
2503 Clouds 14 1025 24 10000 7.7 220 15:22 22.02.2020
2504 Clouds 14 1026 30 10000 7.2 210 14:43 22.02.2020
2505 Clouds 14 1026 28 10000 6.2 230 14:23 22.02.2020
2506 Clouds 13 1027 28 10000 6.7 240 13:57 22.02.2020
2507 Clouds 13 1027 32 10000 8.7 220 13:39 22.02.2020
2508 Clouds 13 1027 40 10000 6.7 250 13:18 22.02.2020
2509 Clouds 12 1028 34 10000 5.1 250 12:42 22.02.2020
2510 Clouds 12 1028 34 10000 4.6 250 12:23 22.02.2020
2511 Clouds 11 1028 40 10000 4.1 250 11:47 22.02.2020
2512 Clouds 10 1028 42 10000 5.1 240 11:28 22.02.2020
2513 Clouds 9 1028 49 10000 5.1 240 10:57 22.02.2020
2514 Clouds 8 1028 49 10000 6.7 240 10:39 22.02.2020
2515 Clouds 7 1028 48 10000 4.1 220 10:19 22.02.2020
2516 Clouds 7 1027 52 10000 5.1 230 09:57 22.02.2020
2517 Clouds 6 1027 52 10000 5.1 230 09:38 22.02.2020
2518 Clouds 5 1027 74 10000 3.6 220 09:20 22.02.2020
2519 Clouds 2 1028 80 10000 4.1 210 08:47 22.02.2020
2520 Clouds 1 1027 86 10000 4.1 220 08:28 22.02.2020
2521 Clouds 0 1027 86 10000 4.6 210 07:49 22.02.2020
2522 Clouds 0 1028 86 10000 4.1 220 07:20 22.02.2020
2523 Clouds 0 1028 86 10000 3.6 200 06:47 22.02.2020
2524 Clouds 1 1028 86 10000 2.1 210 06:29 22.02.2020
2525 Clouds 2 1028 77 10000 2.1 180 04:33 22.02.2020
2526 Clouds 2 1028 77 10000 2.1 180 04:33 22.02.2020
2527 Clouds 3 1029 69 10000 0.5 0 03:24 22.02.2020
2528 Clouds 4 1029 69 10000 2.6 190 02:31 22.02.2020
2529 Clouds 4 1029 60 10000 2.6 220 01:46 22.02.2020
2530 Clouds 4 1029 60 10000 3.1 230 01:25 22.02.2020
2531 Clouds 3 1029 69 10000 4.1 220 00:45 22.02.2020
2532 Clouds 4 1029 64 10000 2.6 220 00:26 22.02.2020
2533 Clouds 4 1029 69 10000 2.1 220 23:47 21.02.2020
2534 Clouds 4 1029 69 10000 2.1 230 23:23 21.02.2020
2535 Clouds 4 1029 60 10000 2.1 230 22:56 21.02.2020
2536 Clouds 4 1029 60 10000 2.6 220 22:38 21.02.2020
2537 Clouds 4 1029 60 10000 2.6 220 22:18 21.02.2020
2538 Clouds 4 1029 60 10000 2.6 230 21:42 21.02.2020
2539 Clouds 4 1029 60 10000 3.1 210 21:24 21.02.2020
2540 Clouds 4 1029 60 10000 3.1 210 21:24 21.02.2020
2541 Clouds 4 1029 60 10000 2.6 220 20:50 21.02.2020
2542 Clouds 4 1029 55 10000 2.6 230 20:31 21.02.2020
2543 Clouds 4 1029 55 10000 2.1 240 19:59 21.02.2020
2544 Clouds 4 1029 44 10000 2.6 270 19:38 21.02.2020
2545 Clouds 4 1029 44 10000 2.6 270 19:18 21.02.2020
2546 Clouds 4 1029 48 10000 2.6 250 18:40 21.02.2020
2547 Clouds 5 1028 48 10000 2.6 250 18:22 21.02.2020
2548 Clouds 6 1028 45 10000 3.6 240 17:42 21.02.2020
2549 Clouds 6 1028 48 10000 5.7 250 17:24 21.02.2020
2550 Clear 7 1028 42 10000 5.7 260 16:59 21.02.2020
2551 Clouds 7 1028 39 10000 5.7 240 16:41 21.02.2020
2552 Clouds 7 1029 42 10000 6.2 260 16:21 21.02.2020
2553 Clouds 7 1028 45 10000 5.1 270 15:57 21.02.2020
2554 Clouds 8 1028 42 10000 7.7 250 15:38 21.02.2020
2555 Clouds 8 1028 42 10000 7.7 250 15:18 21.02.2020
2556 Clouds 8 1028 42 10000 6.7 250 14:42 21.02.2020
2557 Clouds 7 1028 42 10000 7.2 240 14:20 21.02.2020
2558 Rain 7 1029 45 10000 6.2 240 13:45 21.02.2020
2559 Rain 7 1029 48 10000 6.7 260 13:24 21.02.2020
2560 Clouds 7 1029 52 10000 6.7 250 12:56 21.02.2020
2561 Clouds 6 1029 52 10000 5.1 230 12:37 21.02.2020
2562 Clouds 6 1029 60 10000 7.7 250 12:19 21.02.2020
2563 Clouds 6 1029 55 10000 6.7 270 11:43 21.02.2020
2564 Clouds 5 1029 55 10000 6.7 270 11:23 21.02.2020
2565 Clouds 5 1029 60 10000 6.2 280 10:59 21.02.2020
2566 Clouds 5 1029 60 10000 6.2 280 10:41 21.02.2020
2567 Clouds 4 1029 64 10000 6.7 280 10:19 21.02.2020
2568 Clouds 4 1028 64 10000 6.7 280 09:58 21.02.2020
2569 Clouds 4 1028 64 10000 6.7 280 09:38 21.02.2020
2570 Clouds 4 1028 64 10000 5.7 260 09:20 21.02.2020
2571 Clouds 3 1027 69 10000 5.7 250 08:54 21.02.2020
2572 Clouds 3 1027 69 10000 6.2 250 08:36 21.02.2020
2573 Snow 2 1026 69 10000 5.1 250 08:18 21.02.2020
2574 Clouds 2 1027 69 10000 5.1 240 07:41 21.02.2020
2575 Snow 2 1026 74 10000 5.1 250 07:20 21.02.2020
2576 Snow 2 1025 69 10000 6.7 260 06:55 21.02.2020
2577 Snow 3 1025 74 10000 5.7 270 06:31 21.02.2020
2578 Snow 3 1024 69 10000 6.7 280 05:55 21.02.2020
2579 Snow 3 1023 69 10000 8.2 290 05:30 21.02.2020
2580 Snow 4 1021 79 10000 8.2 260 04:25 21.02.2020
2581 Rain 5 1021 80 7000 12.3 260 03:46 21.02.2020
2582 Rain 7 1019 75 10000 11.3 240 02:58 21.02.2020
2583 Clear 6 1018 65 10000 9.8 250 01:32 21.02.2020
2584 Clear 6 1018 65 10000 9.3 250 00:54 21.02.2020
2585 Clouds 5 1018 82 10000 10.3 230 00:36 21.02.2020
2586 Clear 4 1018 82 10000 8.2 240 00:18 21.02.2020
2587 Clouds 3 1018 60 10000 7.2 230 23:41 20.02.2020
2588 Clear 2 1018 80 10000 3.6 240 23:22 20.02.2020
2589 Clear 2 1017 83 10000 2.6 170 22:42 20.02.2020
2590 Clear 2 1017 83 10000 2.6 170 22:23 20.02.2020
2591 Clear 2 1017 86 10000 1.5 170 21:58 20.02.2020
2592 Clear 2 1018 83 10000 2.1 210 21:39 20.02.2020
2593 Clouds 2 1017 80 10000 3.6 180 21:39 20.02.2020
2594 Clear 2 1018 83 10000 2.1 210 21:20 20.02.2020
2595 Clear 2 1018 83 10000 1 190 20:57 20.02.2020
2596 Clear 3 1018 83 10000 1 200 20:39 20.02.2020
2597 Clouds 3 1018 78 10000 1 200 20:20 20.02.2020
2598 Clouds 4 1018 80 10000 2.1 170 19:59 20.02.2020
2599 Clouds 4 1018 69 10000 3.1 170 19:41 20.02.2020
2600 Clouds 4 1019 75 10000 2.1 130 19:23 20.02.2020
2601 Clouds 5 1018 78 10000 1.5 220 18:55 20.02.2020
2602 Clouds 6 1018 78 10000 1.5 200 18:37 20.02.2020
2603 Clouds 7 1018 78 10000 2.1 240 18:18 20.02.2020
2604 Clouds 8 1019 65 10000 2.1 110 17:39 20.02.2020
2605 Clouds 9 1019 65 10000 2.1 110 17:20 20.02.2020
2606 Clouds 9 1019 57 10000 2.6 250 16:58 20.02.2020
2607 Clouds 9 1019 57 10000 3.1 240 16:39 20.02.2020
2608 Clouds 9 1019 57 10000 3.1 240 16:19 20.02.2020
2609 Clouds 9 1020 67 10000 4.1 250 15:57 20.02.2020
2610 Clouds 10 1020 57 10000 3.6 240 15:39 20.02.2020
2611 Clouds 10 1020 57 10000 3.6 240 15:20 20.02.2020
2612 Clouds 9 1020 67 10000 4.1 240 14:54 20.02.2020
2613 Clouds 9 1020 67 10000 4.1 240 14:36 20.02.2020
2614 Clouds 9 1021 60 10000 4.6 230 14:18 20.02.2020
2615 Clouds 9 1021 61 10000 3.6 270 13:42 20.02.2020
2616 Clouds 8 1022 57 10000 4.1 250 13:19 20.02.2020
2617 Clouds 8 1022 56 10000 5.1 240 12:43 20.02.2020
2618 Clouds 7 1022 57 10000 3.6 230 12:22 20.02.2020
2619 Clouds 7 1022 56 10000 4.6 210 11:59 20.02.2020
2620 Clouds 7 1022 56 10000 4.6 210 11:41 20.02.2020
2621 Clouds 7 1022 56 10000 4.6 210 11:41 20.02.2020
2622 Rain 6 1023 60 10000 4.1 230 11:22 20.02.2020
2623 Rain 6 1023 65 10000 3.6 220 10:57 20.02.2020
2624 Clouds 6 1022 60 10000 5.1 230 10:38 20.02.2020
2625 Clouds 5 1023 65 10000 2.6 220 10:20 20.02.2020
2626 Clouds 4 1023 69 10000 1.5 210 09:45 20.02.2020
2627 Clouds 4 1023 74 10000 2.6 220 09:25 20.02.2020
2628 Clouds 3 1023 69 10000 3.6 220 08:59 20.02.2020
2629 Clouds 3 1023 69 10000 3.6 220 08:38 20.02.2020
2630 Clouds 2 1023 74 10000 4.1 220 08:20 20.02.2020
2631 Clouds 2 1023 74 10000 4.6 220 07:45 20.02.2020
2632 Clouds 2 1023 74 10000 3.6 220 07:23 20.02.2020
2633 Clouds 2 1023 74 10000 3.1 210 06:53 20.02.2020
2634 Clouds 2 1023 74 10000 3.1 230 06:26 20.02.2020
2635 Clouds 1 1023 74 10000 3.1 180 05:46 20.02.2020
2636 Clouds 1 1023 80 10000 3.1 220 04:55 20.02.2020
2637 Clouds 1 1023 80 10000 4.1 220 04:19 20.02.2020
2638 Clouds 1 1024 86 10000 3.1 210 03:30 20.02.2020
2639 Clouds 1 1025 80 10000 3.1 210 02:26 20.02.2020
2640 Clear 1 1025 86 10000 3.6 210 01:18 20.02.2020
2641 Clear 1 1025 80 10000 3.6 220 00:34 20.02.2020
2642 Clear 1 1025 80 10000 3.6 230 23:52 19.02.2020
2643 Clear 2 1025 86 10000 3.6 220 23:23 19.02.2020
2644 Clear 2 1025 74 10000 4.1 220 22:55 19.02.2020
2645 Clear 2 1025 80 10000 4.1 230 22:37 19.02.2020
2646 Clear 2 1025 80 10000 4.1 230 22:18 19.02.2020
2647 Clear 2 1025 74 10000 3.6 230 21:55 19.02.2020
2648 Clouds 2 1025 69 10000 3.6 230 21:37 19.02.2020
2649 Clear 2 1025 74 10000 5.1 240 21:18 19.02.2020
2650 Clear 2 1025 74 10000 3.6 240 20:55 19.02.2020
2651 Clouds 2 1025 69 10000 5.1 240 20:36 19.02.2020
2652 Snow 2 1024 86 10000 2.1 230 20:18 19.02.2020
2653 Snow 3 1024 86 10000 2.1 230 19:55 19.02.2020
2654 Snow 3 1024 86 10000 2.6 270 19:36 19.02.2020
2655 Snow 3 1024 86 10000 2.6 270 19:18 19.02.2020
2656 Snow 3 1023 86 10000 3.6 250 18:56 19.02.2020
2657 Rain 3 1023 80 10000 5.7 260 18:37 19.02.2020
2658 Rain 3 1022 74 10000 2.1 290 18:19 19.02.2020
2659 Rain 3 1022 74 10000 2.1 290 17:42 19.02.2020
2660 Clouds 4 1022 74 10000 3.6 280 17:19 19.02.2020
2661 Clouds 4 1022 74 10000 6.2 280 16:44 19.02.2020
2662 Clouds 4 1022 74 10000 6.7 270 16:20 19.02.2020
2663 Clouds 4 1021 74 10000 7.2 270 15:59 19.02.2020
2664 Rain 3 1021 74 10000 7.7 290 15:39 19.02.2020
2665 Rain 3 1021 74 10000 7.7 290 15:20 19.02.2020
2666 Rain 3 1020 74 10000 10.3 280 14:55 19.02.2020
2667 Rain 3 1019 60 10000 7.2 280 14:37 19.02.2020
2668 Rain 3 1019 60 10000 7.2 280 14:18 19.02.2020
2669 Clouds 5 1020 56 8000 8.7 260 13:41 19.02.2020
2670 Clouds 5 1019 66 10000 10.3 250 13:21 19.02.2020
2671 Clouds 5 1019 66 10000 11.8 250 12:42 19.02.2020
2672 Clouds 5 1019 70 2500 12.3 280 12:19 19.02.2020
2673 Rain 5 1018 80 10000 10.8 240 11:59 19.02.2020
2674 Clouds 5 1019 80 10000 9.8 230 11:38 19.02.2020
2675 Rain 5 1018 69 10000 11.8 230 11:20 19.02.2020
2676 Rain 5 1018 69 10000 12.3 240 10:58 19.02.2020
2677 Clouds 6 1018 60 10000 10.3 230 10:38 19.02.2020
2678 Clouds 6 1018 60 10000 10.3 230 10:20 19.02.2020
2679 Clouds 6 1019 65 10000 8.2 230 09:58 19.02.2020
2680 Clouds 5 1019 60 10000 9.8 220 09:37 19.02.2020
2681 Clouds 5 1019 60 10000 9.8 220 09:19 19.02.2020
2682 Clouds 5 1019 60 10000 9.8 220 09:19 19.02.2020
2683 Clouds 5 1019 60 10000 7.7 230 08:45 19.02.2020
2684 Clouds 5 1019 64 10000 8.7 240 08:24 19.02.2020
2685 Clouds 4 1019 56 10000 8.2 230 07:44 19.02.2020
2686 Clouds 4 1019 56 10000 7.2 220 07:26 19.02.2020
2687 Clouds 4 1019 55 10000 6.2 220 06:57 19.02.2020
2688 Clouds 4 1020 55 10000 5.7 220 06:31 19.02.2020
2689 Clouds 4 1021 60 10000 5.7 220 04:25 19.02.2020
2690 Clouds 4 1022 69 10000 4.1 210 03:20 19.02.2020
2691 Clouds 3 1023 69 10000 4.1 210 02:32 19.02.2020
2692 Clouds 4 1024 74 10000 4.6 210 01:25 19.02.2020
2693 Clouds 3 1024 74 10000 4.1 210 00:51 19.02.2020
2694 Clouds 3 1025 74 10000 4.6 220 00:32 19.02.2020
2695 Clouds 3 1025 69 10000 4.1 210 23:57 18.02.2020
2696 Clouds 4 1025 64 10000 4.6 200 23:39 18.02.2020
2697 Clear 4 1026 69 10000 3.6 210 23:19 18.02.2020
2698 Clear 4 1026 74 10000 3.6 220 22:45 18.02.2020
2699 Clear 4 1026 74 10000 3.6 210 22:20 18.02.2020
2700 Clear 4 1026 74 10000 4.1 210 21:59 18.02.2020
2701 Clear 4 1026 69 10000 3.6 210 21:38 18.02.2020
2702 Clear 4 1026 69 10000 3.6 210 21:19 18.02.2020
2703 Clear 4 1026 64 10000 4.1 250 20:58 18.02.2020
2704 Clear 3 1026 69 10000 3.6 250 20:39 18.02.2020
2705 Clouds 4 1026 69 10000 3.6 250 20:20 18.02.2020
2706 Clouds 4 1026 69 10000 3.6 250 19:56 18.02.2020
2707 Clouds 4 1026 64 10000 2.6 200 19:38 18.02.2020
2708 Clouds 5 1026 69 10000 2.1 230 19:18 18.02.2020
2709 Clouds 5 1026 56 10000 3.6 270 18:42 18.02.2020
2710 Clouds 6 1026 60 10000 5.1 250 18:21 18.02.2020
2711 Clouds 6 1026 56 10000 6.7 260 17:57 18.02.2020
2712 Clouds 7 1026 56 10000 5.1 270 17:38 18.02.2020
2713 Clouds 7 1026 56 10000 5.1 270 17:19 18.02.2020
2714 Clouds 7 1026 48 10000 6.2 230 16:40 18.02.2020
2715 Clouds 8 1026 52 10000 5.7 270 16:21 18.02.2020
2716 Clouds 8 1026 52 10000 7.2 260 15:54 18.02.2020
2717 Clouds 8 1027 52 10000 5.7 250 15:36 18.02.2020
2718 Clouds 8 1027 52 10000 5.7 250 15:18 18.02.2020
2719 Clouds 8 1027 52 10000 6.2 260 14:54 18.02.2020
2720 Clouds 8 1026 48 10000 8.2 230 14:36 18.02.2020
2721 Rain 8 1027 56 10000 8.2 270 14:18 18.02.2020
2722 Clouds 8 1027 52 10000 9.3 250 13:41 18.02.2020
2723 Clouds 8 1027 52 10000 9.3 250 13:21 18.02.2020
2724 Clouds 7 1027 56 10000 8.2 250 12:44 18.02.2020
2725 Clouds 8 1027 56 10000 9.8 240 12:25 18.02.2020
2726 Clouds 7 1028 52 10000 8.2 240 11:59 18.02.2020
2727 Clouds 7 1027 48 10000 8.2 230 11:41 18.02.2020
2728 Clouds 7 1027 56 10000 8.7 240 11:22 18.02.2020
2729 Clouds 7 1027 56 10000 9.8 250 10:44 18.02.2020
2730 Clouds 6 1027 52 10000 8.2 250 10:24 18.02.2020
2731 Clouds 6 1027 60 10000 7.7 240 09:57 18.02.2020
2732 Clouds 6 1027 65 10000 6.7 220 09:39 18.02.2020
2733 Clouds 6 1027 65 10000 8.2 240 09:20 18.02.2020
2734 Clouds 6 1027 65 10000 8.2 240 09:20 18.02.2020
2735 Clouds 5 1027 65 10000 7.7 230 08:58 18.02.2020
2736 Clouds 5 1027 68 10000 5.1 220 08:39 18.02.2020
2737 Clouds 5 1026 65 10000 8.7 240 08:19 18.02.2020
2738 Clouds 5 1026 65 10000 8.2 240 07:51 18.02.2020
2739 Clouds 5 1026 65 10000 9.3 240 07:26 18.02.2020
2740 Clouds 5 1026 65 10000 9.3 230 06:55 18.02.2020
2741 Clouds 5 1026 80 10000 6.7 230 06:29 18.02.2020
2742 Clouds 5 1025 80 10000 6.7 260 05:53 18.02.2020
2743 Rain 5 1026 80 10000 5.7 230 05:22 18.02.2020
2744 Rain 5 1025 80 10000 7.7 240 03:55 18.02.2020
2745 Rain 6 1024 70 10000 7.7 240 02:58 18.02.2020
2746 Clouds 6 1023 75 10000 7.7 220 01:45 18.02.2020
2747 Rain 6 1023 75 10000 6.2 240 00:44 18.02.2020
2748 Rain 6 1023 75 10000 8.7 250 00:19 18.02.2020
2749 Rain 7 1023 75 10000 8.7 240 23:44 17.02.2020
2750 Rain 7 1022 75 10000 8.2 240 23:25 17.02.2020
2751 Rain 7 1022 75 10000 7.7 240 22:59 17.02.2020
2752 Rain 7 1022 87 10000 8.2 220 22:40 17.02.2020
2753 Rain 7 1022 81 10000 8.7 240 22:20 17.02.2020
2754 Rain 7 1021 75 10000 8.7 230 21:41 17.02.2020
2755 Rain 7 1021 75 10000 7.2 240 21:20 17.02.2020
2756 Rain 7 1020 81 10000 9.3 240 20:59 17.02.2020
2757 Rain 7 1020 81 10000 9.3 240 20:39 17.02.2020
2758 Rain 7 1020 87 10000 6.2 240 20:20 17.02.2020
2759 Rain 8 1020 81 10000 8.2 240 19:56 17.02.2020
2760 Rain 8 1020 81 10000 6.7 230 19:38 17.02.2020
2761 Rain 8 1020 75 10000 9.3 250 19:19 17.02.2020
2762 Rain 8 1020 81 10000 8.7 240 18:37 17.02.2020
2763 Rain 8 1020 87 10000 4.6 240 18:19 17.02.2020
2764 Rain 8 1020 87 10000 4.6 280 17:57 17.02.2020
2765 Rain 8 1019 87 10000 5.1 320 17:36 17.02.2020
2766 Rain 9 1019 87 10000 5.1 320 17:18 17.02.2020
2767 Rain 9 1019 76 10000 5.7 330 17:18 17.02.2020
2768 Rain 9 1019 76 10000 5.7 330 16:54 17.02.2020
2769 Clouds 10 1018 62 10000 4.1 290 16:36 17.02.2020
2770 Clouds 11 1018 62 10000 4.1 290 16:18 17.02.2020
2771 Clouds 11 1018 58 10000 5.1 290 15:41 17.02.2020
2772 Clouds 12 1017 58 10000 4.1 300 15:23 17.02.2020
2773 Clouds 12 1017 54 10000 3.1 280 14:46 17.02.2020
2774 Clouds 13 1017 50 10000 3.6 250 14:28 17.02.2020
2775 Clouds 13 1017 54 10000 1.5 230 13:59 17.02.2020
2776 Clouds 13 1017 54 10000 1.5 230 13:40 17.02.2020
2777 Clouds 13 1017 58 10000 1 0 13:20 17.02.2020
2778 Clouds 13 1018 58 10000 1.5 140 12:56 17.02.2020
2779 Clouds 13 1018 62 10000 2.1 130 12:37 17.02.2020
2780 Clouds 12 1018 62 10000 2.1 130 12:19 17.02.2020
2781 Clouds 12 1018 62 10000 2.6 50 11:43 17.02.2020
2782 Clouds 12 1018 62 10000 2.6 50 11:25 17.02.2020
2783 Clouds 12 1018 66 10000 3.1 40 10:56 17.02.2020
2784 Clouds 11 1018 71 10000 3.6 30 10:38 17.02.2020
2785 Clouds 11 1018 71 10000 3.6 30 10:20 17.02.2020
2786 Clouds 10 1018 66 10000 3.1 20 09:56 17.02.2020
2787 Clouds 10 1018 61 10000 3.1 10 09:37 17.02.2020
2788 Clouds 10 1018 61 10000 4.1 340 09:18 17.02.2020
2789 Clouds 9 1018 65 10000 2.6 40 08:42 17.02.2020
2790 Clouds 9 1017 57 10000 4.1 240 08:23 17.02.2020
2791 Clouds 10 1017 54 10000 6.2 240 07:59 17.02.2020
2792 Clouds 10 1017 57 10000 2.6 210 07:38 17.02.2020
2793 Clouds 10 1017 58 10000 7.7 250 07:19 17.02.2020
2794 Clouds 11 1017 50 10000 4.1 200 06:42 17.02.2020
2795 Clouds 10 1017 50 10000 7.7 240 06:24 17.02.2020
2796 Clouds 10 1017 46 10000 5.7 210 05:40 17.02.2020
2797 Clouds 10 1017 37 10000 7.2 250 04:26 17.02.2020
2798 Clouds 10 1016 35 10000 7.2 220 02:59 17.02.2020
2799 Clouds 9 1016 40 10000 5.1 220 01:23 17.02.2020
2800 Clouds 9 1015 30 10000 6.2 220 00:39 17.02.2020
2801 Clouds 9 1016 40 10000 5.7 210 00:39 17.02.2020
2802 Clouds 9 1016 40 10000 5.1 210 00:19 17.02.2020
2803 Clouds 10 1016 40 10000 5.1 210 23:52 16.02.2020
2804 Clouds 9 1016 43 10000 5.7 210 23:27 16.02.2020
2805 Clouds 9 1016 56 10000 3.6 200 22:56 16.02.2020
2806 Clouds 9 1015 35 10000 5.7 200 22:38 16.02.2020
2807 Clouds 9 1016 56 10000 3.6 180 22:20 16.02.2020
2808 Clouds 9 1016 46 10000 4.1 170 21:55 16.02.2020
2809 Clouds 9 1015 34 10000 4.6 200 21:37 16.02.2020
2810 Clouds 8 1016 46 10000 5.1 220 21:18 16.02.2020
2811 Clouds 8 1016 56 10000 3.1 220 20:56 16.02.2020
2812 Clouds 9 1016 56 10000 3.1 210 20:38 16.02.2020
2813 Clouds 9 1016 54 10000 3.1 210 20:19 16.02.2020
2814 Clouds 10 1016 54 10000 3.6 210 19:56 16.02.2020
2815 Clouds 10 1016 30 10000 4.1 190 19:37 16.02.2020
2816 Clouds 10 1016 54 10000 2.6 210 19:18 16.02.2020
2817 Clouds 10 1016 54 10000 1 0 18:42 16.02.2020
2818 Clouds 10 1016 54 10000 4.1 160 18:42 16.02.2020
2819 Clouds 12 1016 37 10000 1 0 18:23 16.02.2020
2820 Clouds 13 1016 43 10000 2.1 230 17:46 16.02.2020
2821 Clouds 13 1016 43 10000 3.1 170 17:21 16.02.2020
2822 Clouds 14 1016 33 10000 4.6 140 16:59 16.02.2020
2823 Clouds 14 1016 33 10000 4.6 140 16:39 16.02.2020
2824 Clouds 14 1016 33 10000 4.6 140 16:21 16.02.2020
2825 Clouds 14 1016 33 10000 4.6 140 16:21 16.02.2020
2826 Clouds 14 1017 41 10000 5.1 150 15:59 16.02.2020
2827 Clouds 14 1017 41 10000 5.1 150 15:40 16.02.2020
2828 Clouds 14 1017 41 10000 3.6 150 15:21 16.02.2020
2829 Clouds 14 1018 55 10000 3.1 130 14:41 16.02.2020
2830 Clouds 14 1018 46 10000 3.1 130 14:23 16.02.2020
2831 Clouds 14 1019 36 10000 2.6 120 13:54 16.02.2020
2832 Clouds 14 1018 33 10000 4.1 160 13:36 16.02.2020
2833 Clouds 13 1020 26 10000 2.1 220 13:18 16.02.2020
2834 Clouds 14 1020 26 10000 2.1 220 12:39 16.02.2020
2835 Clouds 13 1020 46 10000 1.5 170 12:19 16.02.2020
2836 Clouds 12 1020 46 10000 1.5 220 11:40 16.02.2020
2837 Clouds 9 1020 37 10000 1 0 11:20 16.02.2020
2838 Clouds 8 1020 43 10000 2.1 160 10:58 16.02.2020
2839 Clouds 8 1020 43 10000 2.1 160 10:40 16.02.2020
2840 Clouds 6 1020 52 10000 1.5 190 10:21 16.02.2020
2841 Clouds 6 1020 52 10000 1.5 190 10:21 16.02.2020
2842 Clouds 6 1020 52 10000 1.5 190 10:21 16.02.2020
2843 Clouds 6 1020 52 10000 2.6 210 09:59 16.02.2020
2844 Clouds 5 1020 60 10000 3.6 230 09:38 16.02.2020
2845 Clouds 5 1020 60 10000 3.6 230 09:20 16.02.2020
2846 Clouds 5 1020 52 10000 2.6 150 08:56 16.02.2020
2847 Clouds 5 1020 52 10000 2.6 150 08:37 16.02.2020
2848 Clouds 3 1020 52 10000 2.1 140 08:18 16.02.2020
2849 Clouds 2 1020 52 10000 1 0 07:41 16.02.2020
2850 Clouds 2 1020 55 10000 1 0 06:54 16.02.2020
2851 Clouds 1 1020 64 10000 1.5 140 06:29 16.02.2020
2852 Clouds 2 1020 52 10000 3.1 180 04:37 16.02.2020
2853 Clouds 2 1021 69 10000 1 0 03:22 16.02.2020
2854 Clouds 3 1022 64 10000 1.5 0 01:58 16.02.2020
2855 Clouds 2 1022 64 10000 1.5 0 01:39 16.02.2020
2856 Clouds 2 1022 64 10000 1.5 0 01:20 16.02.2020
2857 Clouds 2 1022 52 10000 3.1 140 00:51 16.02.2020
2858 Clouds 1 1022 64 10000 1 0 00:27 16.02.2020
2859 Clouds 2 1021 74 10000 1 0 23:44 15.02.2020
2860 Clear 1 1021 74 10000 2.1 180 23:25 15.02.2020
2861 Clear 1 1022 74 10000 2.6 190 22:59 15.02.2020
2862 Clear 1 1022 74 10000 2.6 190 22:40 15.02.2020
2863 Clear 2 1022 71 10000 2.1 160 22:21 15.02.2020
2864 Clear 2 1022 71 10000 2.1 210 21:58 15.02.2020
2865 Clear 2 1022 64 10000 4.1 180 21:39 15.02.2020
2866 Clear 3 1022 74 10000 1.5 160 21:20 15.02.2020
2867 Clear 3 1022 69 10000 2.6 190 20:39 15.02.2020
2868 Clouds 4 1022 69 10000 2.1 180 20:21 15.02.2020
2869 Clouds 4 1022 70 10000 2.1 150 19:44 15.02.2020
2870 Clouds 5 1022 70 10000 0.5 0 19:22 15.02.2020
2871 Clouds 6 1022 70 10000 1 0 18:45 15.02.2020
2872 Clouds 7 1022 70 10000 1.5 150 18:25 15.02.2020
2873 Clouds 8 1022 70 10000 2.6 120 18:00 15.02.2020
2874 Clouds 8 1021 70 10000 2.6 140 17:41 15.02.2020
2875 Clouds 10 1022 57 10000 2.6 120 17:22 15.02.2020
2876 Clouds 10 1022 53 10000 1.5 130 16:58 15.02.2020
2877 Clouds 10 1023 60 10000 1.5 170 16:39 15.02.2020
2878 Clouds 10 1023 60 10000 1.5 170 16:19 15.02.2020
2879 Clouds 10 1022 50 10000 4.1 170 15:42 15.02.2020
2880 Clouds 10 1023 60 10000 2.1 210 15:23 15.02.2020
2881 Clouds 10 1024 60 10000 2.6 210 14:45 15.02.2020
2882 Clouds 10 1024 60 10000 2.6 210 14:45 15.02.2020
2883 Clouds 10 1024 53 10000 3.1 260 14:23 15.02.2020
2884 Clouds 9 1024 53 10000 3.1 240 13:57 15.02.2020
2885 Clouds 9 1024 53 10000 3.1 220 13:39 15.02.2020
2886 Clouds 9 1024 54 10000 3.1 220 13:20 15.02.2020
2887 Clouds 8 1024 54 10000 2.6 210 12:44 15.02.2020
2888 Clouds 7 1025 54 10000 2.1 230 12:26 15.02.2020
2889 Clouds 7 1024 65 10000 1 0 11:55 15.02.2020
2890 Clouds 6 1025 54 9000 1.5 320 11:36 15.02.2020
2891 Clouds 5 1024 70 10000 0.5 0 11:18 15.02.2020
2892 Clouds 4 1024 86 10000 0.87 158 10:46 15.02.2020
2893 Clouds 3 1024 93 10000 0.5 0 10:27 15.02.2020
2894 Clouds 3 1024 93 10000 0.5 0 10:27 15.02.2020
2895 Clouds 1 1024 69 10000 0.87 158 09:45 15.02.2020
2896 Clouds 1 1024 69 10000 0.5 0 09:25 15.02.2020
2897 Clouds 0 1024 100 1500 0.5 0 08:59 15.02.2020
2898 Clouds 0 1024 100 10000 1 20 08:41 15.02.2020
2899 Clouds -1 1024 100 10000 1 20 08:22 15.02.2020
2900 Clouds -1 1025 82 500 1.5 90 07:44 15.02.2020
2901 Clouds 0 1024 82 10000 2.6 150 07:25 15.02.2020
2902 Clouds 0 1024 82 10000 2.6 150 07:25 15.02.2020
2903 Clouds -1 1024 92 10000 1.5 132 06:40 15.02.2020
2904 Clouds 0 1024 82 10000 3.1 150 06:21 15.02.2020
2905 Clouds 0 1025 86 10000 2.6 150 04:57 15.02.2020
2906 Clouds 0 1026 86 10000 3.1 160 04:31 15.02.2020
2907 Clouds 1 1026 86 10000 3.1 150 03:21 15.02.2020
2908 Clouds 1 1027 86 10000 1.5 130 02:41 15.02.2020
2909 Clouds 1 1027 87 10000 1.5 140 02:19 15.02.2020
2910 Fog 2 1027 87 10000 2.1 200 01:38 15.02.2020
2911 Clouds 3 1027 87 10000 1.5 210 00:38 15.02.2020
2912 Clouds 3 1027 87 10000 2.6 220 00:18 15.02.2020
2913 Clouds 4 1027 93 10000 2.1 210 23:39 14.02.2020
2914 Clouds 4 1027 93 10000 3.6 220 23:18 14.02.2020
2915 Clouds 4 1027 86 10000 2.6 220 22:43 14.02.2020
2916 Clouds 5 1027 93 10000 3.1 210 22:23 14.02.2020
2917 Clouds 4 1027 86 10000 3.1 220 21:52 14.02.2020
2918 Clouds 5 1027 86 10000 2.6 190 21:34 14.02.2020
2919 Clouds 5 1026 86 10000 3.6 220 20:59 14.02.2020
2920 Clouds 5 1026 86 10000 3.6 220 20:40 14.02.2020
2921 Clouds 5 1026 80 10000 3.1 240 20:19 14.02.2020
2922 Clouds 6 1026 80 10000 3.6 240 19:54 14.02.2020
2923 Clouds 6 1025 86 10000 3.1 230 19:36 14.02.2020
2924 Clouds 6 1025 86 10000 3.1 230 19:18 14.02.2020
2925 Clouds 6 1025 86 10000 3.1 230 18:54 14.02.2020
2926 Rain 6 1024 75 10000 3.1 270 18:36 14.02.2020
2927 Rain 6 1024 75 10000 3.1 270 18:18 14.02.2020
2928 Rain 6 1024 70 10000 3.6 240 17:40 14.02.2020
2929 Rain 6 1023 75 10000 3.6 240 17:18 14.02.2020
2930 Rain 6 1023 86 10000 3.1 260 16:43 14.02.2020
2931 Rain 7 1023 75 10000 6.2 240 16:24 14.02.2020
2932 Clouds 7 1023 70 10000 6.7 240 15:58 14.02.2020
2933 Clouds 7 1023 70 10000 6.7 240 15:40 14.02.2020
2934 Rain 7 1022 75 10000 6.2 250 15:21 14.02.2020
2935 Clouds 7 1022 65 10000 7.2 250 14:59 14.02.2020
2936 Rain 7 1022 85 10000 6.7 240 14:41 14.02.2020
2937 Clouds 7 1022 65 10000 7.2 270 14:22 14.02.2020
2938 Clouds 7 1022 65 10000 6.7 260 13:57 14.02.2020
2939 Clouds 7 1022 75 10000 6.2 260 13:39 14.02.2020
2940 Clouds 7 1022 75 10000 6.2 260 13:20 14.02.2020
2941 Rain 6 1022 75 10000 6.7 250 12:57 14.02.2020
2942 Rain 6 1022 75 10000 6.7 250 12:57 14.02.2020
2943 Rain 6 1022 69 10000 6.2 240 12:38 14.02.2020
2944 Rain 6 1022 75 9000 7.2 250 12:20 14.02.2020
2945 Clouds 6 1021 70 10000 6.2 260 11:57 14.02.2020
2946 Clouds 6 1021 70 10000 6.2 260 11:57 14.02.2020
2947 Clouds 6 1022 70 10000 6.7 240 11:39 14.02.2020
2948 Clouds 6 1021 75 10000 6.2 260 11:19 14.02.2020
2949 Clouds 6 1020 80 10000 7.2 250 10:43 14.02.2020
2950 Clouds 6 1020 80 10000 7.2 250 10:23 14.02.2020
2951 Clouds 5 1019 80 10000 6.7 240 09:56 14.02.2020
2952 Clouds 5 1018 86 10000 7.2 250 09:37 14.02.2020
2953 Clouds 5 1018 86 10000 7.2 250 09:19 14.02.2020
2954 Clouds 5 1018 86 10000 7.7 240 08:40 14.02.2020
2955 Rain 5 1017 86 10000 6.2 240 08:22 14.02.2020
2956 Rain 4 1016 86 10000 5.7 250 07:51 14.02.2020
2957 Rain 5 1015 86 10000 6.7 240 07:33 14.02.2020
2958 Rain 5 1015 86 10000 7.7 250 06:55 14.02.2020
2959 Rain 5 1014 86 10000 8.7 240 06:23 14.02.2020
2960 Rain 5 1013 86 10000 8.2 250 05:44 14.02.2020
2961 Rain 5 1011 86 10000 9.3 240 04:22 14.02.2020
2962 Rain 5 1011 80 10000 8.7 240 03:28 14.02.2020
2963 Rain 5 1010 80 10000 10.8 230 02:20 14.02.2020
2964 Rain 5 1009 80 10000 7.2 240 01:25 14.02.2020
2965 Rain 5 1009 86 10000 10.3 230 00:42 14.02.2020
2966 Rain 5 1009 86 10000 10.3 230 00:42 14.02.2020
2967 Rain 5 1008 80 10000 9.3 230 00:42 14.02.2020
2968 Rain 5 1008 80 10000 9.3 230 00:21 14.02.2020
2969 Rain 5 1008 80 10000 7.7 230 23:43 13.02.2020
2970 Rain 5 1008 80 10000 6.7 210 23:20 13.02.2020
2971 Rain 5 1008 86 10000 7.2 210 22:43 13.02.2020
2972 Rain 5 1008 86 10000 9.8 220 22:20 13.02.2020
2973 Rain 4 1008 93 10000 8.2 220 21:59 13.02.2020
2974 Rain 4 1009 86 6000 10.3 240 21:40 13.02.2020
2975 Rain 5 1009 86 6000 10.3 240 21:22 13.02.2020
2976 Rain 5 1009 93 5000 10.8 260 20:56 13.02.2020
2977 Rain 5 1008 80 10000 12.3 220 20:38 13.02.2020
2978 Rain 6 1007 75 7000 9.3 270 20:20 13.02.2020
2979 Rain 7 1004 79 10000 3.1 180 19:55 13.02.2020
2980 Rain 7 1005 70 10000 2.1 200 19:36 13.02.2020
2981 Rain 7 1005 70 10000 2.1 200 19:36 13.02.2020
2982 Clouds 7 1007 75 10000 11.8 240 19:36 13.02.2020
2983 Rain 7 1005 70 10000 2.1 200 19:18 13.02.2020
2984 Clouds 7 1004 65 10000 2.6 170 18:43 13.02.2020
2985 Clouds 7 1004 60 10000 1.5 90 18:24 13.02.2020
2986 Rain 7 1005 56 10000 1.5 240 17:59 13.02.2020
2987 Rain 7 1005 56 10000 1.5 240 17:40 13.02.2020
2988 Clouds 8 1006 49 10000 2.6 160 17:20 13.02.2020
2989 Clouds 8 1006 49 10000 2.1 260 16:58 13.02.2020
2990 Clouds 8 1006 42 10000 3.6 170 16:38 13.02.2020
2991 Clouds 8 1006 39 10000 3.1 150 16:38 13.02.2020
2992 Clouds 9 1006 39 10000 3.1 150 16:19 13.02.2020
2993 Clouds 8 1006 39 10000 3.1 150 16:19 13.02.2020
2994 Clouds 9 1007 37 10000 3.6 140 15:56 13.02.2020
2995 Clouds 9 1007 42 10000 3.6 140 15:38 13.02.2020
2996 Clouds 9 1007 42 10000 3.6 140 15:19 13.02.2020
2997 Clouds 9 1008 39 10000 4.6 140 14:57 13.02.2020
2998 Clouds 8 1007 39 10000 4.6 160 14:38 13.02.2020
2999 Clouds 8 1010 34 10000 3.1 190 14:20 13.02.2020
3000 Clouds 8 1011 36 10000 2.6 170 13:48 13.02.2020
3001 Clouds 8 1011 36 10000 3.6 160 13:19 13.02.2020
3002 Clouds 8 1012 42 10000 3.1 130 12:56 13.02.2020
3003 Clouds 7 1012 42 10000 3.1 160 12:38 13.02.2020
3004 Clouds 7 1012 42 10000 3.1 160 12:38 13.02.2020
3005 Clouds 7 1012 42 10000 3.1 160 12:38 13.02.2020
3006 Clouds 6 1013 45 10000 3.1 140 12:19 13.02.2020
3007 Clouds 5 1013 56 10000 4.6 120 11:45 13.02.2020
3008 Clouds 5 1014 52 10000 3.6 120 11:20 13.02.2020
3009 Clouds 4 1014 55 10000 3.1 130 10:56 13.02.2020
3010 Clouds 3 1015 59 10000 3.1 140 10:38 13.02.2020
3011 Clouds 3 1014 64 10000 2.6 120 10:38 13.02.2020
3012 Clouds 3 1015 59 10000 3.1 140 10:20 13.02.2020
3013 Clouds 1 1015 74 10000 3.6 130 09:41 13.02.2020
3014 Clouds 0 1016 74 10000 3.1 140 09:22 13.02.2020
3015 Clouds 0 1016 59 10000 3.6 140 08:45 13.02.2020
3016 Clouds -1 1017 92 10000 2.6 140 08:19 13.02.2020
3017 Clouds -1 1017 92 10000 1.5 150 07:43 13.02.2020
3018 Clouds -1 1017 86 10000 1.5 130 07:22 13.02.2020
3019 Clouds -1 1017 80 10000 2.6 160 06:52 13.02.2020
3020 Clouds -1 1017 86 10000 2.1 170 06:33 13.02.2020
3021 Clouds -1 1018 76 10000 2.1 170 05:50 13.02.2020
3022 Clouds 1 1019 78 10000 2.1 200 04:45 13.02.2020
3023 Clouds 1 1019 74 10000 2.6 200 04:18 13.02.2020
3024 Clouds 1 1020 69 10000 3.1 200 03:41 13.02.2020
3025 Clouds 1 1020 86 10000 2.1 180 02:58 13.02.2020
3026 Snow 2 1021 80 10000 2.6 220 02:20 13.02.2020
3027 Snow 2 1021 74 10000 3.6 250 01:54 13.02.2020
3028 Snow 2 1021 80 10000 5.1 250 01:25 13.02.2020
3029 Rain 2 1021 86 10000 3.6 260 00:28 13.02.2020
3030 Rain 2 1021 91 10000 3.6 290 23:57 12.02.2020
3031 Rain 2 1020 64 10000 3.6 260 23:37 12.02.2020
3032 Snow 3 1020 64 10000 5.7 240 23:18 12.02.2020
3033 Snow 3 1020 64 10000 5.7 240 22:41 12.02.2020
3034 Snow 3 1020 69 10000 6.2 220 22:23 12.02.2020
3035 Snow 3 1020 69 10000 5.7 220 21:56 12.02.2020
3036 Snow 3 1020 88 3000 7.2 250 21:37 12.02.2020
3037 Snow 3 1020 69 10000 5.7 210 21:37 12.02.2020
3038 Snow 3 1020 69 10000 5.7 210 21:18 12.02.2020
3039 Snow 3 1020 69 10000 6.2 220 20:55 12.02.2020
3040 Snow 3 1020 69 10000 7.2 230 20:36 12.02.2020
3041 Snow 3 1020 69 10000 7.2 230 20:18 12.02.2020
3042 Clouds 3 1020 69 10000 7.7 240 19:43 12.02.2020
3043 Clouds 4 1019 64 10000 10.3 250 19:22 12.02.2020
3044 Clouds 4 1019 64 10000 8.7 240 18:54 12.02.2020
3045 Rain 3 1018 74 10000 7.7 240 18:36 12.02.2020
3046 Clouds 4 1019 60 10000 10.3 240 18:18 12.02.2020
3047 Rain 4 1018 60 10000 6.7 240 17:41 12.02.2020
3048 Rain 4 1018 69 10000 8.7 230 17:19 12.02.2020
3049 Rain 4 1018 74 10000 6.7 220 16:57 12.02.2020
3050 Clouds 4 1018 74 10000 6.2 230 16:37 12.02.2020
3051 Rain 4 1018 69 10000 8.2 230 16:18 12.02.2020
3052 Rain 4 1017 60 7000 6.2 290 15:40 12.02.2020
3053 Rain 4 1018 64 10000 8.7 240 15:20 12.02.2020
3054 Clouds 4 1018 64 10000 8.7 250 14:54 12.02.2020
3055 Rain 4 1018 74 10000 8.2 230 14:36 12.02.2020
3056 Rain 5 1018 74 10000 8.2 230 14:18 12.02.2020
3057 Rain 4 1018 69 10000 8.7 240 13:55 12.02.2020
3058 Snow 5 1018 69 10000 8.7 240 13:37 12.02.2020
3059 Snow 5 1018 69 10000 8.7 240 13:18 12.02.2020
3060 Clouds 5 1018 64 10000 9.3 240 12:55 12.02.2020
3061 Clouds 5 1018 64 10000 10.3 240 12:36 12.02.2020
3062 Clouds 5 1018 64 10000 10.3 240 12:18 12.02.2020
3063 Clouds 4 1018 64 10000 10.8 230 11:42 12.02.2020
3064 Clouds 4 1018 64 10000 10.8 230 11:21 12.02.2020
3065 Clouds 4 1018 69 10000 9.8 230 10:59 12.02.2020
3066 Clouds 3 1018 74 10000 8.2 230 10:41 12.02.2020
3067 Clouds 3 1018 74 10000 8.2 230 10:21 12.02.2020
3068 Clouds 3 1018 74 10000 8.2 230 09:57 12.02.2020
3069 Clouds 3 1018 74 10000 6.7 230 09:39 12.02.2020
3070 Clouds 2 1018 74 10000 6.7 230 09:19 12.02.2020
3071 Clouds 2 1017 74 10000 7.7 240 08:55 12.02.2020
3072 Clouds 2 1017 74 10000 6.7 230 08:37 12.02.2020
3073 Clouds 2 1017 74 10000 6.7 240 08:19 12.02.2020
3074 Clouds 2 1017 74 10000 7.7 240 07:43 12.02.2020
3075 Clouds 2 1016 74 10000 7.2 240 07:22 12.02.2020
3076 Snow 1 1016 80 10000 5.7 240 06:52 12.02.2020
3077 Snow 1 1016 80 10000 5.1 230 06:20 12.02.2020
3078 Clouds 2 1016 69 10000 5.7 240 05:36 12.02.2020
3079 Snow 2 1016 74 10000 7.7 260 04:57 12.02.2020
3080 Snow 2 1016 74 10000 8.2 240 04:39 12.02.2020
3081 Snow 2 1016 74 10000 7.7 250 03:33 12.02.2020
3082 Snow 2 1016 80 10000 7.2 250 02:58 12.02.2020
3083 Snow 2 1016 86 10000 6.7 260 02:29 12.02.2020
3084 Clouds 2 1016 74 10000 6.2 240 01:50 12.02.2020
3085 Clouds 2 1015 69 10000 9.3 250 00:45 12.02.2020
3086 Snow 2 1014 80 10000 8.7 260 00:26 12.02.2020
3087 Rain 2 1014 74 10000 9.3 260 23:56 11.02.2020
3088 Rain 2 1014 74 10000 9.8 260 23:38 11.02.2020
3089 Rain 2 1014 74 10000 9.8 260 23:20 11.02.2020
3090 Clouds 2 1014 74 10000 9.8 240 22:55 11.02.2020
3091 Clouds 3 1013 69 10000 8.2 230 22:37 11.02.2020
3092 Clouds 3 1013 69 10000 8.2 230 22:18 11.02.2020
3093 Clouds 3 1013 74 10000 8.7 230 21:55 11.02.2020
3094 Clouds 3 1013 74 10000 8.7 230 21:37 11.02.2020
3095 Clouds 3 1013 74 10000 7.7 230 21:18 11.02.2020
3096 Clouds 3 1013 74 10000 7.7 230 20:54 11.02.2020
3097 Clouds 3 1013 80 10000 7.2 230 20:36 11.02.2020
3098 Snow 3 1013 80 10000 7.2 230 20:18 11.02.2020
3099 Clouds 3 1013 74 10000 7.2 230 19:42 11.02.2020
3100 Snow 3 1013 80 10000 8.2 230 19:24 11.02.2020
3101 Snow 3 1012 80 10000 7.7 240 18:57 11.02.2020
3102 Snow 3 1012 80 10000 7.7 240 18:39 11.02.2020
3103 Rain 3 1011 85 10000 6.7 240 18:20 11.02.2020
3104 Rain 4 1011 85 10000 8.2 230 17:55 11.02.2020
3105 Clouds 4 1011 85 10000 6.7 240 17:36 11.02.2020
3106 Clouds 4 1011 91 10000 6.7 240 17:18 11.02.2020
3107 Clouds 4 1010 91 10000 8.2 250 16:57 11.02.2020
3108 Clouds 4 1011 91 10000 7.7 230 16:37 11.02.2020
3109 Rain 5 1010 86 10000 7.7 250 16:19 11.02.2020
3110 Rain 4 1010 86 10000 7.2 260 15:45 11.02.2020
3111 Rain 4 1010 93 10000 5.7 260 15:26 11.02.2020
3112 Rain 4 1010 91 5000 5.1 280 14:57 11.02.2020
3113 Rain 4 1010 93 6000 5.7 280 14:38 11.02.2020
3114 Rain 3 1010 93 6000 5.7 280 14:18 11.02.2020
3115 Rain 4 1010 93 10000 8.7 250 13:42 11.02.2020
3116 Rain 4 1009 79 10000 13.4 260 13:22 11.02.2020
3117 Rain 4 1010 79 4500 7.7 310 12:59 11.02.2020
3118 Rain 5 1011 69 10000 10.8 240 12:40 11.02.2020
3119 Rain 5 1011 69 10000 10.8 240 12:21 11.02.2020
3120 Rain 5 1011 79 10000 7.2 260 11:55 11.02.2020
3121 Rain 4 1011 79 10000 9.8 230 11:36 11.02.2020
3122 Rain 3 1011 69 2500 17.5 270 11:18 11.02.2020
3123 Rain 3 1011 79 900 8.7 270 10:39 11.02.2020
3124 Rain 3 1011 79 900 8.7 270 10:20 11.02.2020
3125 Rain 3 1009 79 2000 10.8 270 09:57 11.02.2020
3126 Rain 3 1009 79 10000 8.7 250 09:39 11.02.2020
3127 Rain 3 1009 79 10000 8.7 250 09:20 11.02.2020
3128 Rain 3 1009 79 10000 8.7 260 08:48 11.02.2020
3129 Clouds 3 1009 79 10000 9.8 250 08:25 11.02.2020
3130 Rain 3 1009 74 10000 9.3 250 07:51 11.02.2020
3131 Snow 3 1009 74 10000 10.8 250 07:32 11.02.2020
3132 Snow 4 1008 74 10000 9.3 250 06:57 11.02.2020
3133 Rain 3 1009 74 10000 8.7 230 06:38 11.02.2020
3134 Rain 3 1008 86 10000 8.7 230 06:20 11.02.2020
3135 Rain 3 1007 74 10000 7.7 260 05:39 11.02.2020
3136 Rain 3 1007 90 10000 7.7 260 05:19 11.02.2020
3137 Rain 2 1004 90 3700 12.9 280 03:32 11.02.2020
3138 Rain 3 1004 93 8000 11.8 270 02:37 11.02.2020
3139 Rain 8 1002 70 10000 14.4 240 01:52 11.02.2020
3140 Rain 7 1003 75 10000 12.9 240 01:30 11.02.2020
3141 Rain 8 1003 61 10000 13.9 250 00:23 11.02.2020
3142 Rain 8 1003 61 10000 11.8 240 23:47 10.02.2020
3143 Rain 8 1003 65 10000 8.7 220 23:29 10.02.2020
3144 Rain 7 1004 75 10000 9.8 230 22:57 10.02.2020
3145 Clouds 7 1003 65 10000 12.9 230 22:37 10.02.2020
3146 Rain 7 1004 80 10000 8.7 220 22:19 10.02.2020
3147 Clouds 7 1004 70 10000 8.2 210 21:41 10.02.2020
3148 Rain 7 1005 65 10000 7.2 220 21:23 10.02.2020
3149 Rain 7 1006 87 10000 5.7 210 20:56 10.02.2020
3150 Clouds 7 1006 56 10000 6.7 210 20:38 10.02.2020
3151 Clouds 7 1006 56 10000 6.7 210 20:38 10.02.2020
3152 Clouds 7 1007 77 10000 7.2 220 20:19 10.02.2020
3153 Clouds 7 1008 56 10000 8.2 230 19:58 10.02.2020
3154 Clouds 7 1009 52 10000 7.7 240 19:37 10.02.2020
3155 Clouds 7 1009 52 10000 7.7 240 19:18 10.02.2020
3156 Clouds 7 1009 49 10000 8.2 250 18:58 10.02.2020
3157 Clouds 7 1009 49 10000 8.2 250 18:58 10.02.2020
3158 Clouds 7 1009 49 10000 8.2 250 18:39 10.02.2020
3159 Clouds 7 1009 49 10000 8.7 250 18:20 10.02.2020
3160 Clouds 7 1009 49 10000 8.7 240 17:56 10.02.2020
3161 Clouds 8 1009 49 10000 6.7 240 17:37 10.02.2020
3162 Clouds 8 1009 49 10000 6.7 240 17:19 10.02.2020
3163 Clouds 8 1010 49 10000 8.2 250 16:58 10.02.2020
3164 Clouds 9 1010 52 10000 9.8 250 16:38 10.02.2020
3165 Clouds 9 1010 52 10000 9.8 250 16:18 10.02.2020
3166 Clouds 9 1010 45 10000 10.3 240 15:42 10.02.2020
3167 Clouds 9 1009 57 10000 12.3 260 15:23 10.02.2020
3168 Clouds 9 1009 57 10000 12.9 260 14:59 10.02.2020
3169 Clouds 9 1009 57 10000 12.9 260 14:41 10.02.2020
3170 Rain 8 1009 65 10000 12.3 260 14:20 10.02.2020
3171 Rain 8 1009 65 10000 12.3 260 14:20 10.02.2020
3172 Rain 8 1008 61 10000 12.9 270 13:57 10.02.2020
3173 Clouds 8 1008 65 10000 8.7 270 13:39 10.02.2020
3174 Clouds 8 1008 65 10000 8.7 270 13:21 10.02.2020
3175 Rain 8 1008 61 10000 11.8 270 12:48 10.02.2020
3176 Rain 8 1007 75 10000 10.3 290 12:26 10.02.2020
3177 Rain 8 1006 81 10000 9.8 260 11:56 10.02.2020
3178 Rain 8 1005 53 10000 13.9 260 11:38 10.02.2020
3179 Rain 8 1005 53 10000 13.9 260 11:38 10.02.2020
3180 Rain 8 1006 87 7000 10.8 260 11:19 10.02.2020
3181 Rain 8 1005 93 3100 13.4 280 10:46 10.02.2020
3182 Rain 9 1002 54 10000 19.5 250 10:27 10.02.2020
3183 Rain 11 1003 70 2000 15.9 260 09:47 10.02.2020
3184 Rain 11 1003 70 2000 15.9 260 09:47 10.02.2020
3185 Rain 11 1002 76 10000 15.9 250 09:26 10.02.2020
3186 Rain 11 1002 76 10000 15.9 250 09:26 10.02.2020
3187 Rain 11 1002 76 10000 15.9 250 09:26 10.02.2020
3188 Rain 11 1002 66 10000 12.9 250 08:57 10.02.2020
3189 Rain 12 1001 54 10000 15.4 250 08:37 10.02.2020
3190 Rain 13 1001 54 10000 15.4 250 08:18 10.02.2020
3191 Rain 13 1001 54 10000 16.5 240 07:49 10.02.2020
3192 Clouds 14 1001 54 10000 13.9 250 07:27 10.02.2020
3193 Clouds 14 1001 50 10000 13.9 240 06:20 10.02.2020
3194 Clouds 12 1003 44 10000 13.4 240 04:42 10.02.2020
3195 Clouds 12 1004 47 10000 8.7 220 03:34 10.02.2020
3196 Clouds 11 1004 59 10000 9.8 220 02:55 10.02.2020
3197 Clouds 9 1006 45 10000 3.6 210 01:59 10.02.2020
3198 Clouds 9 1007 32 10000 6.7 210 00:52 10.02.2020
3199 Clouds 9 1007 34 10000 6.2 210 00:31 10.02.2020
3200 Clouds 8 1009 48 10000 4.1 220 23:58 09.02.2020
3201 Clouds 7 1010 60 10000 3.6 210 23:39 09.02.2020
3202 Clouds 7 1010 60 10000 3.6 210 23:21 09.02.2020
3203 Clouds 7 1010 45 10000 6.7 210 22:41 09.02.2020
3204 Clouds 7 1011 60 10000 2.6 220 22:21 09.02.2020
3205 Clouds 7 1011 52 10000 2.1 170 21:45 09.02.2020
3206 Clouds 6 1012 48 10000 1 0 21:25 09.02.2020
3207 Clouds 7 1012 45 10000 3.1 180 20:59 09.02.2020
3208 Clouds 7 1012 39 10000 4.6 190 20:41 09.02.2020
3209 Clouds 6 1012 45 10000 3.6 190 20:19 09.02.2020
3210 Clouds 6 1013 48 10000 4.1 190 19:54 09.02.2020
3211 Clouds 7 1014 45 10000 4.6 200 19:36 09.02.2020
3212 Clouds 7 1015 39 10000 5.7 190 19:18 09.02.2020
3213 Clouds 8 1014 39 10000 4.1 200 18:41 09.02.2020
3214 Clouds 8 1015 45 10000 4.6 170 18:23 09.02.2020
3215 Clouds 9 1015 36 10000 4.6 170 17:43 09.02.2020
3216 Clear 10 1016 42 10000 4.1 150 17:23 09.02.2020
3217 Clear 11 1016 37 10000 3.6 170 16:59 09.02.2020
3218 Clouds 11 1015 27 10000 7.7 180 16:40 09.02.2020
3219 Clear 12 1017 32 10000 3.1 200 16:21 09.02.2020
3220 -273 0 0 0 0 0 15:57 09.02.2020
3221 Clear 12 1018 28 10000 3.6 200 15:39 09.02.2020
3222 Clear 12 1018 28 10000 3.6 200 15:20 09.02.2020
3223 Clear 12 1019 32 10000 2.6 230 14:56 09.02.2020
3224 Clear 12 1019 34 10000 4.1 220 14:36 09.02.2020
3225 Clouds 12 1019 34 10000 4.1 220 14:18 09.02.2020
3226 Clouds 11 1021 37 10000 4.6 210 13:42 09.02.2020
3227 Clouds 11 1021 37 10000 4.6 210 13:23 09.02.2020
3228 Clouds 11 1022 34 10000 5.7 220 12:54 09.02.2020
3229 Clouds 10 1022 43 10000 6.2 210 12:36 09.02.2020
3230 Clouds 10 1022 43 10000 6.2 210 12:18 09.02.2020
3231 Clouds 9 1022 42 10000 5.7 200 11:39 09.02.2020
3232 Clouds 8 1023 52 10000 4.1 210 11:19 09.02.2020
3233 Clouds 6 1023 60 10000 4.6 220 10:54 09.02.2020
3234 Clouds 5 1023 60 10000 4.6 220 10:36 09.02.2020
3235 Clouds 4 1023 60 10000 4.6 220 10:18 09.02.2020
3236 Clouds 2 1023 74 10000 4.6 220 09:39 09.02.2020
3237 Clouds 1 1023 74 10000 4.6 220 09:20 09.02.2020
3238 Fog 0 1024 92 1000 0.5 0 08:42 09.02.2020
3239 Clouds -1 1023 69 10000 4.1 180 08:23 09.02.2020
3240 Clouds -1 1024 69 10000 3.6 200 07:54 09.02.2020
3241 Clouds -1 1024 69 10000 4.6 200 07:34 09.02.2020
3242 Clouds -1 1024 69 10000 4.6 200 07:34 09.02.2020
3243 Clouds -1 1024 69 10000 4.1 210 06:42 09.02.2020
3244 Clouds -1 1024 69 10000 4.6 220 05:56 09.02.2020
3245 Clouds -1 1024 74 10000 5.1 220 05:34 09.02.2020
3246 Clouds -1 1024 86 10000 4.1 210 04:52 09.02.2020
3247 Clouds -2 1024 86 10000 1.5 170 03:30 09.02.2020
3248 Clouds -2 1024 92 10000 1 0 02:43 09.02.2020
3249 Clouds -2 1024 92 10000 3.1 210 01:45 09.02.2020
3250 Clouds -2 1024 92 10000 3.1 210 01:27 09.02.2020
3251 Clouds -2 1024 86 10000 1.5 200 00:40 09.02.2020
3252 Clouds -2 1024 80 10000 2.6 200 00:18 09.02.2020
3253 Clouds -1 1024 83 10000 2.1 210 23:42 08.02.2020
3254 Clouds -1 1024 82 10000 1.5 160 23:19 08.02.2020
3255 Clouds -1 1024 86 10000 1.5 190 22:41 08.02.2020
3256 Clouds -1 1024 82 10000 2.1 170 22:21 08.02.2020
3257 Clouds -1 1024 82 10000 1 170 21:58 08.02.2020
3258 Clouds 0 1024 82 10000 2.6 180 21:39 08.02.2020
3259 Clouds 0 1024 92 10000 1.5 170 21:19 08.02.2020
3260 Clouds 0 1024 86 10000 1 0 20:55 08.02.2020
3261 Clouds 0 1024 86 10000 1 0 20:55 08.02.2020
3262 Clouds 0 1024 86 10000 0.5 200 20:37 08.02.2020
3263 Clouds 1 1024 68 10000 1.5 140 20:18 08.02.2020
3264 Clouds 1 1024 92 10000 1.5 160 20:18 08.02.2020
3265 Clouds 1 1024 92 10000 1.5 160 19:54 08.02.2020
3266 Clouds 2 1024 68 10000 1.5 150 19:36 08.02.2020
3267 Clouds 2 1024 68 10000 1.5 150 19:18 08.02.2020
3268 Clouds 2 1023 80 10000 1.5 150 18:42 08.02.2020
3269 Clouds 3 1023 74 10000 1 0 18:22 08.02.2020
3270 Clouds 4 1023 60 10000 1.5 100 17:43 08.02.2020
3271 Clouds 6 1023 56 10000 1.5 40 17:21 08.02.2020
3272 Clouds 7 1023 52 10000 2.1 40 16:58 08.02.2020
3273 Clouds 7 1023 45 10000 0.5 0 16:38 08.02.2020
3274 Clouds 7 1023 58 10000 2.1 30 16:20 08.02.2020
3275 Clouds 8 1023 42 9000 1.5 0 15:42 08.02.2020
3276 Clouds 9 1023 49 10000 2.1 360 15:19 08.02.2020
3277 Clouds 9 1023 49 10000 2.6 260 14:58 08.02.2020
3278 Clouds 8 1023 46 10000 1.5 280 14:39 08.02.2020
3279 Clear 9 1023 46 10000 1.5 280 14:18 08.02.2020
3280 Clear 8 1024 45 10000 1 0 13:43 08.02.2020
3281 Clear 8 1024 49 10000 2.1 190 13:23 08.02.2020
3282 Clear 8 1024 49 10000 2.1 190 13:23 08.02.2020
3283 Clear 7 1024 49 10000 2.6 250 12:55 08.02.2020
3284 Clear 7 1024 48 10000 2.6 240 12:37 08.02.2020
3285 Clear 7 1024 48 10000 2.6 240 12:37 08.02.2020
3286 Clear 6 1024 48 10000 2.6 240 12:19 08.02.2020
3287 Clear 6 1024 48 10000 2.6 240 12:19 08.02.2020
3288 Clear 6 1025 56 10000 2.6 210 11:41 08.02.2020
3289 Clear 5 1025 69 10000 1.5 220 11:21 08.02.2020
3290 Clear 3 1024 54 10000 1 0 10:55 08.02.2020
3291 Mist 2 1025 92 5000 1.5 210 10:37 08.02.2020
3292 Clear 1 1024 86 10000 0.5 0 10:19 08.02.2020
3293 Rain -1 1024 92 10000 1.5 160 09:46 08.02.2020
3294 Clear -2 1024 92 10000 1.25 209 09:23 08.02.2020
3295 Clear -4 1024 92 10000 0.5 0 08:41 08.02.2020
3296 Clear -4 1024 92 10000 1 190 08:41 08.02.2020
3297 Clear -5 1024 92 10000 1 190 08:22 08.02.2020
3298 Clear -5 1024 92 9000 1.5 190 07:53 08.02.2020
3299 Clear -5 1023 92 7000 3.1 220 07:33 08.02.2020
3300 Clear -5 1023 92 8000 2.6 230 06:54 08.02.2020
3301 Clear -4 1023 92 10000 1.5 220 06:21 08.02.2020
3302 Clear -5 1023 92 9000 1 200 05:34 08.02.2020
3303 Clear -4 1023 92 8000 1.5 170 04:54 08.02.2020
3304 Clear -4 1023 100 7000 1.5 160 04:24 08.02.2020
3305 Fog -4 1023 92 6000 2.6 180 03:38 08.02.2020
3306 Clear -4 1024 92 6000 1.5 170 02:29 08.02.2020
3307 Clear -3 1024 100 7000 2.1 190 01:34 08.02.2020
3308 Clear -3 1024 92 5000 1 0 00:54 08.02.2020
3309 Clear -3 1024 92 4700 0.5 170 00:25 08.02.2020
3310 Clear -3 1024 92 6000 0.5 0 23:59 07.02.2020
3311 Fog -2 1024 92 7000 0.5 310 23:39 07.02.2020
3312 Clear -2 1024 92 9000 0.92 120 23:20 07.02.2020
3313 Clear -2 1024 79 10000 1 0 22:55 07.02.2020
3314 Fog -2 1024 92 10000 0.92 120 22:37 07.02.2020
3315 Clear -2 1024 86 10000 0.5 0 22:18 07.02.2020
3316 Clear -1 1024 86 10000 1.5 80 21:41 07.02.2020
3317 Clear -1 1024 86 10000 1.5 80 21:21 07.02.2020
3318 Clear -1 1025 80 10000 1.5 90 20:40 07.02.2020
3319 Clear 0 1024 80 10000 2.1 80 20:22 07.02.2020
3320 Clear 0 1025 86 10000 2.1 80 19:56 07.02.2020
3321 Clear 0 1025 79 10000 1 80 19:37 07.02.2020
3322 Clear 0 1025 79 10000 1 80 19:19 07.02.2020
3323 Clear 1 1025 79 10000 1.5 70 18:46 07.02.2020
3324 Clear 1 1025 74 10000 4.1 50 18:26 07.02.2020
3325 Clear 2 1025 69 10000 3.6 50 17:57 07.02.2020
3326 Clear 2 1025 74 10000 4.1 40 17:39 07.02.2020
3327 Clear 3 1025 74 10000 4.1 40 17:21 07.02.2020
3328 Clear 4 1025 69 10000 4.1 50 16:52 07.02.2020
3329 Clear 4 1025 64 10000 4.6 40 16:25 07.02.2020
3330 Clear 4 1025 56 10000 4.1 50 15:56 07.02.2020
3331 Clear 4 1025 56 10000 4.1 40 15:38 07.02.2020
3332 Clear 4 1025 56 10000 3.6 40 15:20 07.02.2020
3333 Clear 4 1025 56 10000 4.1 40 15:20 07.02.2020
3334 Clear 4 1025 59 10000 4.6 40 14:42 07.02.2020
3335 Clear 4 1025 55 10000 4.1 50 14:24 07.02.2020
3336 Clear 4 1026 55 10000 4.1 30 13:58 07.02.2020
3337 Clear 4 1026 55 10000 2.6 0 13:39 07.02.2020
3338 Clear 4 1026 55 10000 2.6 0 13:39 07.02.2020
3339 Clear 4 1026 55 10000 2.6 0 13:20 07.02.2020
3340 Clear 4 1027 55 10000 3.1 100 12:55 07.02.2020
3341 Clear 3 1027 55 10000 3.1 80 12:36 07.02.2020
3342 Clear 3 1027 55 10000 3.1 80 12:18 07.02.2020
3343 Clear 3 1027 59 10000 3.1 80 11:41 07.02.2020
3344 Clear 2 1027 69 10000 3.1 80 11:20 07.02.2020
3345 Clear 0 1027 53 10000 2.1 60 10:42 07.02.2020
3346 Clear -1 1028 74 10000 2.1 40 10:24 07.02.2020
3347 Clear -2 1028 86 10000 1 0 09:56 07.02.2020
3348 Clear -2 1028 86 10000 1.8 72 09:37 07.02.2020
3349 Clear -3 1028 86 10000 1.8 72 09:19 07.02.2020
3350 Clear -4 1028 92 10000 1.8 72 08:42 07.02.2020
3351 Clear -6 1028 92 10000 1 90 08:21 07.02.2020
3352 Clear -6 1028 92 10000 1.5 160 07:45 07.02.2020
3353 Clear -5 1028 92 10000 1 0 07:26 07.02.2020
3354 Clear -5 1028 92 10000 1.21 81 06:46 07.02.2020
3355 Clear -5 1028 92 10000 1.5 190 06:26 07.02.2020
3356 Clear -5 1028 92 10000 1 200 05:45 07.02.2020
3357 Mist -5 1029 100 1300 0.5 190 04:42 07.02.2020
3358 Clear -4 1029 92 10000 1 170 02:51 07.02.2020
3359 Clouds -4 1028 92 10000 1 180 01:42 07.02.2020
3360 Clouds -3 1028 86 10000 0.95 49 00:48 07.02.2020
3361 Clouds -3 1028 85 10000 2.6 220 00:20 07.02.2020
3362 Clouds -3 1028 79 10000 2.1 190 23:37 06.02.2020
3363 Clouds -3 1028 86 10000 1.5 200 23:19 06.02.2020
3364 Clouds -3 1028 86 10000 1.5 200 22:44 06.02.2020
3365 Clouds -2 1029 79 10000 0.5 200 22:25 06.02.2020
3366 Clouds -2 1028 86 10000 1.5 180 21:55 06.02.2020
3367 Clouds -2 1029 85 10000 1.5 180 21:36 06.02.2020
3368 Clouds -2 1029 79 10000 1 0 21:18 06.02.2020
3369 Clouds -2 1029 79 10000 1 0 20:54 06.02.2020
3370 Clouds -1 1029 79 10000 2.1 180 20:36 06.02.2020
3371 Clear -1 1029 86 10000 0.56 93 20:18 06.02.2020
3372 Clear -1 1029 86 10000 0.56 93 19:55 06.02.2020
3373 Clouds -1 1029 68 10000 2.1 180 19:36 06.02.2020
3374 Clear 0 1029 80 10000 2.6 170 19:18 06.02.2020
3375 Clouds 1 1029 56 10000 0.5 0 18:40 06.02.2020
3376 Clear 1 1029 51 10000 2.1 20 18:22 06.02.2020
3377 Clear 2 1029 47 10000 2.6 360 17:57 06.02.2020
3378 Clear 3 1029 38 10000 0.5 0 17:38 06.02.2020
3379 Clear 4 1029 38 10000 0.5 0 17:19 06.02.2020
3380 Clear 5 1028 38 10000 0.5 0 16:42 06.02.2020
3381 Clear 5 1028 38 10000 0.5 0 16:23 06.02.2020
3382 Clouds 5 1029 32 10000 0.5 10 15:43 06.02.2020
3383 Clear 5 1029 41 10000 1.5 170 15:23 06.02.2020
3384 Clear 5 1029 41 10000 1 0 14:57 06.02.2020
3385 Clear 5 1029 30 10000 1 260 14:39 06.02.2020
3386 Clouds 5 1030 44 10000 1 0 14:20 06.02.2020
3387 Clouds 4 1030 51 10000 1 0 13:42 06.02.2020
3388 Clear 4 1030 51 10000 1 0 13:24 06.02.2020
3389 Clear 4 1031 59 10000 1 0 12:45 06.02.2020
3390 Rain 4 1031 64 10000 1.5 250 12:20 06.02.2020
3391 Rain 3 1031 69 10000 2.6 220 11:58 06.02.2020
3392 Clouds 3 1031 55 10000 3.1 190 11:40 06.02.2020
3393 Rain 2 1031 53 10000 1.5 240 11:21 06.02.2020
3394 Snow 1 1031 80 10000 2.1 210 10:58 06.02.2020
3395 Snow 1 1031 80 10000 2.1 210 10:39 06.02.2020
3396 Clouds 0 1031 79 10000 2.1 210 10:21 06.02.2020
3397 Clouds -1 1031 79 10000 2.1 220 09:57 06.02.2020
3398 Clouds -2 1031 85 10000 1 0 09:38 06.02.2020
3399 Clouds -3 1031 85 10000 1 0 09:19 06.02.2020
3400 Clouds -3 1031 92 10000 3.1 170 08:43 06.02.2020
3401 Clouds -5 1031 92 10000 1 210 08:22 06.02.2020
3402 Clear -5 1031 85 10000 1.5 210 07:52 06.02.2020
3403 Clear -4 1031 92 10000 1.5 190 07:29 06.02.2020
3404 Clear -4 1032 86 10000 3.1 220 06:47 06.02.2020
3405 Clear -4 1032 92 10000 3.1 210 06:19 06.02.2020
3406 Clear -4 1032 92 10000 3.1 250 05:24 06.02.2020
3407 Clear -4 1033 92 10000 3.1 210 03:47 06.02.2020
3408 Clear -4 1033 85 10000 2.1 260 02:58 06.02.2020
3409 Clear -3 1034 86 10000 2.1 260 01:55 06.02.2020
3410 Clear -3 1034 86 10000 2.6 200 01:24 06.02.2020
3411 Clear -3 1035 79 10000 1 210 00:29 06.02.2020
3412 Clear -3 1035 86 10000 1 0 23:57 05.02.2020
3413 Clear -3 1035 86 10000 2.1 270 23:39 05.02.2020
3414 Clear -3 1035 86 10000 2.1 270 23:20 05.02.2020
3415 Clear -2 1035 80 10000 3.6 240 22:41 05.02.2020
3416 Clear -2 1035 80 10000 3.6 240 22:23 05.02.2020
3417 Clear -2 1034 86 10000 3.1 190 21:58 05.02.2020
3418 Clear -2 1034 86 10000 3.1 190 21:40 05.02.2020
3419 Clear -2 1035 93 10000 3.6 260 21:22 05.02.2020
3420 Clouds -2 1035 93 10000 4.1 250 20:54 05.02.2020
3421 Clouds -2 1035 79 10000 3.6 180 20:36 05.02.2020
3422 Clouds -1 1035 92 10000 3.6 260 20:18 05.02.2020
3423 Snow -1 1034 79 10000 2.1 210 19:54 05.02.2020
3424 Snow 0 1034 74 10000 1.5 210 19:36 05.02.2020
3425 Snow 0 1034 74 10000 1.5 210 19:18 05.02.2020
3426 Snow 0 1034 92 10000 2.1 270 18:42 05.02.2020
3427 Clouds 1 1033 92 10000 2.1 280 18:20 05.02.2020
3428 Clouds 2 1033 64 10000 1 320 17:40 05.02.2020
3429 Clouds 2 1033 55 10000 3.6 320 17:20 05.02.2020
3430 Clouds 2 1032 69 10000 3.6 290 16:59 05.02.2020
3431 Clouds 2 1032 64 10000 3.6 280 16:41 05.02.2020
3432 Clouds 2 1032 64 10000 3.6 280 16:23 05.02.2020
3433 Clouds 2 1032 69 10000 4.6 290 15:57 05.02.2020
3434 Clouds 2 1031 69 10000 4.6 290 15:38 05.02.2020
3435 Clouds 2 1031 69 10000 4.6 290 15:18 05.02.2020
3436 Rain 2 1031 74 10000 4.1 310 14:42 05.02.2020
3437 Clouds 2 1031 69 10000 4.1 320 14:23 05.02.2020
3438 Clouds 2 1030 69 10000 4.6 320 13:57 05.02.2020
3439 Snow 2 1031 59 8000 4.1 330 13:38 05.02.2020
3440 Clouds 2 1030 74 10000 5.1 320 13:19 05.02.2020
3441 Clouds 2 1030 59 10000 5.7 330 12:42 05.02.2020
3442 Clouds 2 1029 74 10000 5.7 330 12:22 05.02.2020
3443 Clouds 2 1029 74 10000 6.2 330 11:54 05.02.2020
3444 Clouds 2 1028 74 10000 6.2 320 11:36 05.02.2020
3445 Clouds 2 1028 74 10000 6.2 320 11:18 05.02.2020
3446 Rain 2 1029 69 10000 5.7 330 10:42 05.02.2020
3447 Rain 2 1028 80 10000 5.1 310 10:23 05.02.2020
3448 Rain 2 1028 80 10000 5.1 310 10:23 05.02.2020
3449 Clouds 2 1027 80 10000 5.7 300 09:44 05.02.2020
3450 Clouds 1 1027 80 10000 5.7 300 09:23 05.02.2020
3451 Clouds 1 1026 80 10000 5.1 300 08:59 05.02.2020
3452 Clouds 1 1025 86 10000 6.2 290 08:41 05.02.2020
3453 Clouds 1 1025 89 10000 6.2 290 08:22 05.02.2020
3454 Rain 1 1025 80 10000 6.2 290 07:45 05.02.2020
3455 Rain 1 1025 80 10000 6.7 300 07:26 05.02.2020
3456 Snow 1 1024 86 10000 7.2 290 06:43 05.02.2020
3457 Snow 1 1023 86 10000 5.1 280 06:23 05.02.2020
3458 Snow 1 1023 86 10000 5.1 280 05:49 05.02.2020
3459 Snow 1 1022 86 10000 5.1 270 05:18 05.02.2020
3460 Snow 1 1022 86 10000 6.2 280 04:45 05.02.2020
3461 Snow 1 1021 86 10000 6.2 300 03:36 05.02.2020
3462 Snow 1 1020 93 4300 5.7 290 02:24 05.02.2020
3463 Snow 1 1020 96 10000 5.7 280 01:36 05.02.2020
3464 Snow 1 1019 86 10000 5.1 270 00:42 05.02.2020
3465 Snow 1 1019 86 10000 5.1 270 23:57 04.02.2020
3466 Snow 1 1019 96 10000 6.2 260 23:37 04.02.2020
3467 Snow 1 1019 91 10000 6.2 260 23:18 04.02.2020
3468 Snow 1 1019 86 10000 5.1 260 22:42 04.02.2020
3469 Snow 1 1019 86 10000 5.1 260 22:22 04.02.2020
3470 Snow 1 1018 86 10000 5.1 270 21:59 04.02.2020
3471 Snow 1 1018 86 10000 5.1 270 21:59 04.02.2020
3472 Clouds 1 1019 80 10000 4.1 230 21:41 04.02.2020
3473 Snow 2 1018 86 10000 5.1 260 21:19 04.02.2020
3474 Snow 1 1018 86 10000 5.1 260 21:19 04.02.2020
3475 Snow 1 1017 86 10000 5.1 290 20:59 04.02.2020
3476 Clouds 1 1018 86 10000 4.6 260 20:39 04.02.2020
3477 Snow 1 1017 86 10000 5.7 270 20:20 04.02.2020
3478 Snow 1 1017 86 10000 5.7 270 20:20 04.02.2020
3479 Snow 1 1017 86 10000 5.7 270 20:20 04.02.2020
3480 Snow 1 1017 97 10000 5.1 280 19:57 04.02.2020
3481 Clouds 2 1017 80 10000 4.6 270 19:39 04.02.2020
3482 Snow 2 1016 97 10000 4.1 280 19:21 04.02.2020
3483 Snow 1 1016 97 5000 6.7 280 18:55 04.02.2020
3484 Clouds 1 1015 80 10000 4.6 260 18:36 04.02.2020
3485 Clouds 1 1015 80 10000 4.6 260 18:36 04.02.2020
3486 Clouds 1 1015 80 10000 4.6 260 18:18 04.02.2020
3487 Rain 2 1014 97 10000 3.1 270 17:42 04.02.2020
3488 Rain 2 1013 76 10000 4.6 270 17:21 04.02.2020
3489 Rain 2 1013 76 10000 4.6 270 16:55 04.02.2020
3490 Rain 2 1013 86 10000 6.7 280 16:36 04.02.2020
3491 Clouds 2 1013 86 10000 6.7 280 16:18 04.02.2020
3492 Snow 2 1013 76 8000 8.7 280 15:55 04.02.2020
3493 Rain 3 1013 76 10000 5.1 250 15:37 04.02.2020
3494 Rain 3 1013 76 10000 5.1 250 15:18 04.02.2020
3495 Snow 3 1014 74 200 7.2 290 14:42 04.02.2020
3496 Clouds 3 1012 69 10000 6.2 280 14:23 04.02.2020
3497 Rain 3 1012 69 10000 7.2 280 13:57 04.02.2020
3498 Rain 3 1012 74 10000 6.2 290 13:39 04.02.2020
3499 Rain 3 1012 74 10000 6.2 290 13:19 04.02.2020
3500 Rain 3 1012 74 10000 6.2 290 12:44 04.02.2020
3501 Rain 3 1012 74 10000 6.2 290 12:25 04.02.2020
3502 Clouds 3 1012 76 10000 6.2 280 11:58 04.02.2020
3503 Clouds 3 1012 76 10000 6.2 280 11:39 04.02.2020
3504 Clouds 3 1012 81 10000 5.7 280 11:21 04.02.2020
3505 Clouds 3 1012 93 10000 5.7 270 10:55 04.02.2020
3506 Rain 3 1012 93 10000 6.2 270 10:36 04.02.2020
3507 Rain 3 1012 93 10000 6.2 270 10:36 04.02.2020
3508 Rain 3 1012 93 10000 6.2 270 10:18 04.02.2020
3509 Snow 3 1012 80 5000 9.3 290 09:40 04.02.2020
3510 Snow 3 1012 80 5000 9.3 290 09:22 04.02.2020
3511 Rain 3 1012 86 10000 8.7 260 08:50 04.02.2020
3512 Rain 3 1012 81 2500 11.8 290 08:29 04.02.2020
3513 Rain 3 1012 81 2500 11.8 290 08:29 04.02.2020
3514 Clouds 3 1011 86 10000 9.3 260 07:59 04.02.2020
3515 Rain 4 1009 93 10000 10.8 270 07:39 04.02.2020
3516 Rain 4 1009 93 10000 10.8 270 07:21 04.02.2020
3517 Rain 5 1004 86 10000 11.3 290 06:43 04.02.2020
3518 Rain 6 1001 81 6000 15.4 260 05:50 04.02.2020
3519 Rain 10 999 62 10000 13.4 250 05:28 04.02.2020
3520 Clouds 12 1001 50 10000 11.3 250 03:51 04.02.2020
3521 Clouds 12 1002 50 10000 8.7 240 03:31 04.02.2020
3522 Clouds 12 1003 50 10000 10.3 230 02:53 04.02.2020
3523 Clouds 11 1004 50 10000 11.3 240 02:31 04.02.2020
3524 Rain 10 1005 54 10000 11.8 240 01:53 04.02.2020
3525 Rain 10 1006 62 10000 8.7 230 01:35 04.02.2020
3526 Rain 8 1007 81 10000 5.7 210 00:44 04.02.2020
3527 Rain 7 1009 93 10000 2.6 280 00:21 04.02.2020
3528 Rain 7 1009 81 10000 6.2 220 23:40 03.02.2020
3529 Rain 6 1011 93 10000 4.1 170 23:20 03.02.2020
3530 Rain 6 1012 93 10000 2.6 160 22:39 03.02.2020
3531 Rain 6 1014 93 10000 3.6 140 22:20 03.02.2020
3532 Rain 6 1014 93 10000 3.6 140 21:56 03.02.2020
3533 Rain 6 1015 93 10000 4.1 160 21:37 03.02.2020
3534 Rain 6 1015 93 10000 4.1 160 21:18 03.02.2020
3535 Rain 6 1015 93 10000 0.5 290 20:42 03.02.2020
3536 Rain 6 1016 93 10000 2.6 220 20:19 03.02.2020
3537 Rain 6 1017 93 8000 4.1 230 19:58 03.02.2020
3538 Rain 6 1017 93 8000 4.1 230 19:58 03.02.2020
3539 Rain 6 1016 93 10000 3.6 220 19:40 03.02.2020
3540 Rain 6 1018 93 5000 4.1 230 19:20 03.02.2020
3541 Rain 6 1018 93 8000 6.2 220 18:56 03.02.2020
3542 Rain 6 1017 93 10000 3.6 210 18:38 03.02.2020
3543 Rain 6 1018 93 8000 5.7 220 18:19 03.02.2020
3544 Rain 6 1018 93 9000 5.7 220 17:40 03.02.2020
3545 Rain 6 1018 87 9000 7.2 250 17:20 03.02.2020
3546 Rain 6 1018 93 9000 5.7 260 16:59 03.02.2020
3547 Rain 6 1018 81 10000 6.7 250 16:39 03.02.2020
3548 Rain 6 1018 93 9000 4.1 220 16:21 03.02.2020
3549 Rain 6 1018 93 9000 3.6 250 15:56 03.02.2020
3550 Rain 6 1018 87 9000 4.1 300 15:37 03.02.2020
3551 Rain 6 1018 87 9000 4.1 300 15:19 03.02.2020
3552 Rain 6 1018 93 8000 3.1 280 14:43 03.02.2020
3553 Rain 7 1018 100 9000 4.1 220 14:25 03.02.2020
3554 Rain 7 1018 100 9000 3.6 230 13:58 03.02.2020
3555 Rain 7 1018 100 9000 3.6 230 13:40 03.02.2020
3556 Rain 7 1018 93 9000 3.6 250 13:19 03.02.2020
3557 Rain 7 1018 93 9000 4.1 250 12:56 03.02.2020
3558 Rain 7 1018 87 10000 3.1 250 12:37 03.02.2020
3559 Rain 7 1018 87 10000 3.1 250 12:37 03.02.2020
3560 Rain 7 1018 93 10000 3.6 250 12:19 03.02.2020
3561 Rain 7 1018 87 10000 3.6 250 11:39 03.02.2020
3562 Rain 7 1018 93 9000 4.1 270 11:20 03.02.2020
3563 Rain 7 1018 93 9000 4.1 270 11:20 03.02.2020
3564 Rain 7 1018 100 10000 4.6 360 10:58 03.02.2020
3565 Rain 7 1017 87 10000 4.6 290 10:39 03.02.2020
3566 Rain 7 1017 87 10000 4.6 290 10:20 03.02.2020
3567 Rain 7 1017 87 8000 3.6 290 09:42 03.02.2020
3568 Rain 7 1017 93 9000 3.6 330 09:21 03.02.2020
3569 Rain 7 1016 93 6000 3.6 310 08:41 03.02.2020
3570 Rain 7 1016 93 6000 3.6 310 08:23 03.02.2020
3571 Rain 7 1015 93 5000 4.6 310 07:58 03.02.2020
3572 Rain 7 1015 93 8000 3.1 260 07:39 03.02.2020
3573 Rain 7 1015 93 5000 3.6 300 07:20 03.02.2020
3574 Rain 7 1015 93 6000 3.6 290 06:47 03.02.2020
3575 Rain 7 1015 93 6000 3.6 270 06:27 03.02.2020
3576 Rain 7 1015 93 6000 3.6 260 05:36 03.02.2020
3577 Rain 7 1015 93 3100 1.5 0 04:59 03.02.2020
3578 Rain 7 1014 100 4900 1 0 02:58 03.02.2020
3579 Rain 7 1014 93 6000 2.1 240 02:34 03.02.2020
3580 Rain 8 1015 100 8000 2.1 240 01:41 03.02.2020
3581 Rain 8 1015 93 8000 4.1 270 00:46 03.02.2020
3582 Rain 9 1015 93 10000 5.1 280 00:23 03.02.2020
3583 Rain 10 1015 93 8000 6.2 280 23:38 02.02.2020
3584 Rain 10 1014 93 10000 8.2 240 23:20 02.02.2020
3585 Rain 11 1014 93 10000 7.7 240 22:57 02.02.2020
3586 Rain 11 1014 93 10000 5.7 250 22:38 02.02.2020
3587 Rain 11 1014 93 10000 5.7 250 22:19 02.02.2020
3588 Rain 11 1014 93 10000 7.7 250 21:55 02.02.2020
3589 Rain 11 1014 87 10000 7.2 250 21:37 02.02.2020
3590 Rain 11 1014 87 10000 7.2 250 21:19 02.02.2020
3591 Rain 11 1014 87 10000 8.7 250 20:55 02.02.2020
3592 Rain 11 1014 81 10000 7.7 250 20:37 02.02.2020
3593 Rain 12 1014 81 10000 7.7 250 20:19 02.02.2020
3594 Rain 12 1014 81 10000 10.3 240 19:55 02.02.2020
3595 Clouds 12 1014 93 10000 7.7 230 19:37 02.02.2020
3596 Rain 12 1014 81 10000 10.8 250 19:18 02.02.2020
3597 Rain 12 1012 76 10000 11.8 240 18:39 02.02.2020
3598 Rain 12 1012 76 10000 11.8 240 18:21 02.02.2020
3599 Rain 12 1012 76 10000 11.8 240 17:58 02.02.2020
3600 Rain 12 1012 76 10000 12.3 250 17:38 02.02.2020
3601 Rain 12 1012 76 10000 12.3 250 17:19 02.02.2020
3602 Rain 12 1011 76 10000 11.3 240 16:59 02.02.2020
3603 Rain 12 1012 76 10000 12.3 240 16:39 02.02.2020
3604 Rain 12 1012 76 10000 12.3 240 16:19 02.02.2020
3605 Rain 12 1011 71 10000 12.3 240 15:59 02.02.2020
3606 Rain 12 1011 71 10000 12.3 240 15:40 02.02.2020
3607 Rain 12 1011 71 10000 10.8 240 15:20 02.02.2020
3608 Clouds 11 1011 66 10000 10.8 230 14:58 02.02.2020
3609 Clouds 11 1011 66 10000 10.8 230 14:40 02.02.2020
3610 Drizzle 11 1010 87 3700 5.7 240 14:18 02.02.2020
3611 Rain 10 1012 76 10000 8.7 230 13:55 02.02.2020
3612 Rain 10 1013 76 10000 8.7 220 13:37 02.02.2020
3613 Rain 10 1013 76 10000 8.7 220 13:19 02.02.2020
3614 Rain 10 1013 76 10000 6.7 220 12:45 02.02.2020
3615 Rain 10 1014 76 10000 6.7 230 12:23 02.02.2020
3616 Rain 10 1014 76 10000 5.7 230 11:59 02.02.2020
3617 Rain 10 1015 76 10000 5.7 230 11:41 02.02.2020
3618 Clouds 10 1015 76 10000 5.7 230 11:19 02.02.2020
3619 Clouds 9 1015 81 10000 7.2 230 10:56 02.02.2020
3620 Clouds 9 1015 81 10000 5.1 210 10:37 02.02.2020
3621 Clouds 9 1015 81 10000 7.2 230 10:19 02.02.2020
3622 Clouds 9 1015 76 10000 6.7 230 09:56 02.02.2020
3623 Clouds 9 1015 81 8000 5.7 220 09:38 02.02.2020
3624 Clouds 9 1016 81 10000 5.7 240 09:19 02.02.2020
3625 Clouds 8 1016 81 10000 5.7 250 08:43 02.02.2020
3626 Rain 8 1016 81 10000 5.7 250 08:24 02.02.2020
3627 Rain 8 1016 81 10000 5.7 250 08:24 02.02.2020
3628 Rain 8 1016 76 10000 7.7 240 07:47 02.02.2020
3629 Rain 8 1016 76 10000 6.7 240 07:28 02.02.2020
3630 Rain 8 1016 76 10000 7.2 240 06:44 02.02.2020
3631 Rain 8 1016 76 10000 8.7 250 06:26 02.02.2020
3632 Rain 8 1016 76 10000 9.8 250 05:47 02.02.2020
3633 Rain 8 1016 76 10000 9.8 250 04:47 02.02.2020
3634 Rain 8 1015 71 10000 10.3 250 03:26 02.02.2020
3635 Rain 9 1014 71 10000 9.8 240 02:33 02.02.2020
3636 Rain 10 1014 71 10000 9.8 240 01:54 02.02.2020
3637 Rain 10 1014 71 10000 9.8 240 01:54 02.02.2020
3638 Rain 10 1015 71 10000 11.3 250 01:23 02.02.2020
3639 Rain 10 1014 71 10000 11.8 240 00:44 02.02.2020
3640 Rain 10 1014 76 10000 10.3 240 00:22 02.02.2020
3641 Rain 9 1014 81 10000 8.2 230 23:47 01.02.2020
3642 Rain 9 1013 87 10000 5.7 240 23:23 01.02.2020
3643 Rain 9 1013 87 10000 6.7 260 22:59 01.02.2020
3644 Rain 9 1013 87 10000 9.8 260 22:41 01.02.2020
3645 Rain 9 1013 87 10000 9.8 260 22:18 01.02.2020
3646 Rain 10 1012 81 10000 7.7 230 21:39 01.02.2020
3647 Rain 10 1012 81 10000 7.7 230 21:18 01.02.2020
3648 Rain 10 1012 87 10000 8.2 230 20:41 01.02.2020
3649 Rain 10 1012 81 10000 9.8 240 20:20 01.02.2020
3650 Rain 11 1011 76 10000 7.7 240 19:57 01.02.2020
3651 Rain 11 1011 76 10000 7.7 240 19:39 01.02.2020
3652 Rain 10 1011 81 10000 7.2 230 19:20 01.02.2020
3653 Rain 11 1011 71 10000 7.7 240 18:58 01.02.2020
3654 Rain 11 1010 81 5000 6.7 240 18:40 01.02.2020
3655 Rain 11 1010 81 5000 6.7 240 18:40 01.02.2020
3656 Rain 11 1010 71 10000 7.2 250 18:22 01.02.2020
3657 Rain 11 1011 71 10000 9.3 240 17:58 01.02.2020
3658 Rain 11 1010 81 6000 5.1 220 17:40 01.02.2020
3659 Clouds 12 1010 66 10000 9.8 240 17:20 01.02.2020
3660 Clouds 12 1010 62 10000 9.8 240 16:57 01.02.2020
3661 Clouds 13 1010 76 7000 7.2 220 16:38 01.02.2020
3662 Clouds 13 1010 62 10000 9.8 240 16:20 01.02.2020
3663 Clouds 14 1010 58 10000 10.8 250 15:42 01.02.2020
3664 Clouds 14 1010 58 10000 10.8 250 15:24 01.02.2020
3665 Clouds 14 1010 54 10000 7.2 230 14:58 01.02.2020
3666 Clouds 14 1010 58 10000 8.7 220 14:39 01.02.2020
3667 Clouds 15 1010 54 10000 8.7 250 14:20 01.02.2020
3668 Clouds 14 1010 51 10000 7.7 250 13:43 01.02.2020
3669 Clouds 14 1010 54 10000 7.2 250 13:20 01.02.2020
3670 Clouds 14 1011 58 10000 4.1 240 12:44 01.02.2020
3671 Clouds 13 1011 58 10000 4.1 220 12:25 01.02.2020
3672 Clouds 13 1011 62 10000 4.1 230 11:56 01.02.2020
3673 Clouds 13 1011 62 8000 5.1 240 11:37 01.02.2020
3674 Clouds 12 1011 62 10000 4.1 220 11:18 01.02.2020
3675 Clouds 11 1011 71 10000 4.1 220 10:55 01.02.2020
3676 Clouds 10 1011 76 10000 4.1 210 10:37 01.02.2020
3677 Clouds 10 1011 76 10000 4.1 210 10:19 01.02.2020
3678 Clouds 9 1011 71 10000 4.1 190 09:41 01.02.2020
3679 Clouds 8 1012 76 10000 4.6 200 09:41 01.02.2020
3680 Clouds 8 1012 76 10000 4.6 200 09:23 01.02.2020
3681 Clouds 7 1012 81 10000 3.6 200 08:59 01.02.2020
3682 Clouds 7 1011 81 10000 4.6 200 08:38 01.02.2020
3683 Clear 6 1012 93 10000 1.5 210 07:47 01.02.2020
3684 Clear 6 1012 86 10000 2.1 200 07:25 01.02.2020
3685 Clear 6 1012 86 10000 2.1 200 07:25 01.02.2020
3686 Clear 6 1012 86 10000 2.1 200 07:25 01.02.2020
3687 Clear 6 1013 93 10000 4.1 210 06:54 01.02.2020
3688 Clear 7 1013 87 10000 2.6 220 06:31 01.02.2020
3689 Clear 7 1013 87 10000 3.1 240 05:51 01.02.2020
3690 Clear 8 1014 81 10000 4.6 210 03:43 01.02.2020
3691 Clear 8 1014 93 10000 4.6 210 03:20 01.02.2020
3692 Clear 8 1015 87 10000 4.6 240 02:44 01.02.2020
3693 Clouds 8 1015 93 10000 4.6 210 02:25 01.02.2020
3694 Clouds 9 1015 87 10000 5.1 220 01:50 01.02.2020
3695 Clouds 9 1015 87 10000 5.1 210 01:30 01.02.2020
3696 Clouds 9 1016 87 10000 4.1 200 00:29 01.02.2020
3697 Clouds 9 1016 87 10000 4.1 220 23:43 31.01.2020
3698 Clouds 9 1016 93 10000 4.6 210 23:20 31.01.2020
3699 Clouds 9 1016 93 10000 4.1 210 22:59 31.01.2020
3700 Clouds 10 1016 93 10000 4.1 220 22:40 31.01.2020
3701 -273 0 0 0 0 0 22:21 31.01.2020
3702 Clouds 9 1016 93 10000 4.1 220 21:56 31.01.2020
3703 Clouds 9 1016 76 10000 3.6 210 21:38 31.01.2020
3704 Clouds 9 1016 87 10000 4.1 220 21:19 31.01.2020
3705 Clouds 10 1016 87 10000 4.1 240 20:56 31.01.2020
3706 Clouds 10 1016 76 10000 3.6 220 20:37 31.01.2020
3707 Clouds 10 1016 81 10000 5.1 250 20:19 31.01.2020
3708 Clouds 10 1016 81 10000 5.1 250 19:56 31.01.2020
3709 Clouds 10 1016 76 10000 4.6 240 19:37 31.01.2020
3710 Clouds 10 1016 81 10000 5.7 250 19:18 31.01.2020
3711 Clouds 11 1016 76 10000 4.1 230 18:42 31.01.2020
3712 Clouds 11 1016 76 10000 6.7 240 18:23 31.01.2020
3713 Clouds 12 1016 71 10000 8.2 260 17:55 31.01.2020
3714 Clouds 12 1016 71 10000 7.7 260 17:36 31.01.2020
3715 Clouds 12 1016 71 10000 7.7 260 17:18 31.01.2020
3716 Clouds 12 1015 71 10000 8.2 250 16:55 31.01.2020
3717 Clouds 13 1015 71 10000 6.7 240 16:37 31.01.2020
3718 Clouds 13 1015 76 10000 6.7 260 16:18 31.01.2020
3719 Clouds 13 1015 76 10000 6.7 240 15:41 31.01.2020
3720 Clouds 13 1015 76 10000 8.2 250 15:21 31.01.2020
3721 Clouds 13 1015 76 10000 9.3 250 14:58 31.01.2020
3722 Clouds 13 1015 76 10000 9.3 250 14:39 31.01.2020
3723 Clouds 13 1015 76 10000 11.8 240 14:20 31.01.2020
3724 Clouds 13 1015 76 10000 8.7 230 13:43 31.01.2020
3725 Clouds 13 1015 71 10000 11.3 250 13:25 31.01.2020
3726 Clouds 13 1015 76 10000 9.8 230 12:45 31.01.2020
3727 Clouds 13 1015 71 10000 7.2 260 12:26 31.01.2020
3728 Clouds 13 1015 71 10000 8.7 260 11:56 31.01.2020
3729 Clouds 12 1015 76 10000 9.3 250 11:38 31.01.2020
3730 Clouds 12 1015 76 10000 9.3 250 11:20 31.01.2020
3731 Clouds 12 1015 76 10000 8.7 250 10:57 31.01.2020
3732 Clouds 12 1014 81 10000 9.8 240 10:37 31.01.2020
3733 Clouds 12 1014 76 10000 10.8 230 10:19 31.01.2020
3734 Clouds 11 1014 76 10000 10.3 230 09:42 31.01.2020
3735 Clouds 11 1014 76 10000 10.3 230 09:22 31.01.2020
3736 Clouds 11 1013 76 10000 10.8 230 08:59 31.01.2020
3737 Clouds 11 1012 81 10000 6.2 250 08:41 31.01.2020
3738 Clouds 11 1013 81 10000 11.3 230 08:22 31.01.2020
3739 Rain 11 1013 76 10000 10.3 240 07:51 31.01.2020
3740 Clouds 10 1013 76 10000 9.8 240 07:19 31.01.2020
3741 Clouds 10 1012 87 10000 10.3 230 06:38 31.01.2020
3742 Clouds 10 1012 81 10000 9.3 240 05:57 31.01.2020
3743 Clouds 10 1012 81 10000 9.8 240 05:33 31.01.2020
3744 Rain 10 1011 81 10000 9.8 240 04:41 31.01.2020
3745 Rain 10 1012 81 10000 10.8 230 04:41 31.01.2020
3746 Rain 9 1011 81 10000 9.8 240 02:55 31.01.2020
3747 Rain 8 1011 81 10000 9.8 240 01:32 31.01.2020
3748 Rain 7 1011 81 10000 9.3 240 00:42 31.01.2020
3749 Rain 7 1011 81 10000 7.2 230 00:23 31.01.2020
3750 Rain 6 1011 87 8000 6.2 220 23:44 30.01.2020
3751 Rain 6 1012 87 10000 5.7 210 23:23 30.01.2020
3752 Rain 6 1012 87 10000 5.7 200 22:56 30.01.2020
3753 Rain 5 1012 86 10000 5.7 210 22:36 30.01.2020
3754 Rain 5 1012 86 10000 5.7 210 22:18 30.01.2020
3755 Rain 6 1012 86 10000 5.7 220 21:43 30.01.2020
3756 Rain 6 1012 82 10000 5.7 210 21:19 30.01.2020
3757 Rain 6 1012 82 10000 3.6 210 20:59 30.01.2020
3758 Clouds 6 1012 52 10000 8.2 230 20:38 30.01.2020
3759 Clouds 5 1012 77 10000 2.6 170 20:20 30.01.2020
3760 Clouds 5 1012 77 10000 2.6 170 19:55 30.01.2020
3761 Clouds 5 1012 77 10000 3.1 170 19:36 30.01.2020
3762 Clouds 5 1012 77 10000 3.1 170 19:18 30.01.2020
3763 Clouds 5 1013 69 10000 1.5 210 18:39 30.01.2020
3764 Clouds 5 1013 69 10000 1.5 210 18:20 30.01.2020
3765 Clouds 6 1013 65 10000 3.6 210 17:55 30.01.2020
3766 Clouds 7 1013 60 10000 3.1 220 17:36 30.01.2020
3767 Clouds 7 1013 60 10000 3.1 220 17:18 30.01.2020
3768 Clouds 7 1013 71 10000 2.6 220 16:56 30.01.2020
3769 Clouds 8 1013 71 10000 3.1 220 16:37 30.01.2020
3770 Clouds 8 1013 71 10000 3.1 220 16:18 30.01.2020
3771 Clouds 8 1013 52 10000 3.1 230 15:42 30.01.2020
3772 Clouds 9 1013 39 10000 4.6 240 15:19 30.01.2020
3773 Clouds 9 1014 49 10000 3.6 230 14:46 30.01.2020
3774 Clouds 9 1014 71 10000 4.6 220 14:26 30.01.2020
3775 Clouds 9 1014 71 10000 4.6 220 14:26 30.01.2020
3776 Clouds 9 1015 62 10000 4.1 230 13:54 30.01.2020
3777 Clouds 9 1014 52 10000 5.1 240 13:36 30.01.2020
3778 Clouds 9 1015 60 10000 4.1 240 13:18 30.01.2020
3779 Clouds 8 1016 60 10000 4.6 230 12:41 30.01.2020
3780 Clouds 8 1016 60 10000 4.6 230 12:22 30.01.2020
3781 Clouds 8 1016 65 10000 5.7 230 11:56 30.01.2020
3782 Clouds 7 1016 56 10000 6.2 230 11:38 30.01.2020
3783 Clouds 6 1016 78 10000 4.6 240 11:19 30.01.2020
3784 Clouds 6 1016 70 10000 4.1 230 10:42 30.01.2020
3785 Clouds 5 1017 75 10000 4.1 220 10:22 30.01.2020
3786 Clouds 4 1017 78 10000 4.6 220 09:48 30.01.2020
3787 Clouds 4 1017 78 10000 5.7 220 09:30 30.01.2020
3788 Clouds 3 1017 78 10000 3.6 210 08:59 30.01.2020
3789 Clouds 3 1017 78 10000 3.6 210 08:41 30.01.2020
3790 Clouds 2 1017 86 10000 4.1 210 08:20 30.01.2020
3791 Rain 2 1017 86 10000 3.1 220 07:49 30.01.2020
3792 Rain 2 1017 94 10000 3.6 220 07:29 30.01.2020
3793 Clouds 2 1017 94 10000 3.1 200 06:47 30.01.2020
3794 Clouds 2 1017 93 10000 4.1 220 06:29 30.01.2020
3795 Clouds 3 1017 86 10000 4.1 220 05:47 30.01.2020
3796 Snow 2 1017 86 10000 4.6 210 05:24 30.01.2020
3797 Rain 2 1018 86 10000 4.6 220 03:55 30.01.2020
3798 Rain 2 1018 93 10000 4.1 220 03:37 30.01.2020
3799 Clouds 2 1018 86 10000 4.6 230 02:47 30.01.2020
3800 Rain 2 1018 90 10000 5.1 250 00:53 30.01.2020
3801 Rain 2 1017 90 10000 4.6 260 00:21 30.01.2020
3802 Snow 2 1017 90 10000 5.1 260 23:47 29.01.2020
3803 Snow 2 1017 74 10000 6.2 270 23:22 29.01.2020
3804 Rain 2 1016 92 10000 5.7 270 22:58 29.01.2020
3805 Rain 2 1016 92 10000 5.1 240 22:39 29.01.2020
3806 Rain 2 1016 92 10000 6.7 270 22:19 29.01.2020
3807 Snow 2 1016 92 10000 6.7 260 21:58 29.01.2020
3808 Rain 2 1016 92 10000 6.7 260 21:39 29.01.2020
3809 Rain 2 1015 92 10000 4.6 260 21:39 29.01.2020
3810 Rain 2 1015 80 10000 5.1 250 21:39 29.01.2020
3811 Rain 2 1015 92 9000 3.6 270 21:19 29.01.2020
3812 Rain 2 1015 92 9000 3.6 270 20:58 29.01.2020
3813 Rain 2 1015 74 10000 5.1 250 20:39 29.01.2020
3814 Rain 2 1014 94 10000 5.1 270 20:21 29.01.2020
3815 Rain 2 1013 93 10000 3.1 270 19:57 29.01.2020
3816 Rain 2 1014 94 10000 4.6 280 19:37 29.01.2020
3817 Rain 2 1012 94 10000 5.7 250 19:19 29.01.2020
3818 Rain 2 1012 94 10000 5.7 250 18:54 29.01.2020
3819 Rain 3 1012 93 10000 7.2 240 18:36 29.01.2020
3820 Rain 3 1012 93 10000 7.2 240 18:18 29.01.2020
3821 Rain 3 1011 94 10000 5.1 240 17:40 29.01.2020
3822 Rain 3 1011 78 10000 5.1 240 17:22 29.01.2020
3823 Rain 3 1011 78 10000 5.1 240 17:22 29.01.2020
3824 Rain 3 1011 78 8000 7.2 250 16:43 29.01.2020
3825 Rain 3 1010 78 9000 8.7 240 16:23 29.01.2020
3826 Rain 3 1010 74 10000 7.7 240 15:59 29.01.2020
3827 Rain 3 1010 74 10000 7.7 240 15:38 29.01.2020
3828 Clouds 4 1010 74 10000 6.7 240 15:20 29.01.2020
3829 Clouds 4 1010 74 10000 6.7 240 15:20 29.01.2020
3830 Rain 4 1010 74 10000 5.1 260 14:45 29.01.2020
3831 Clouds 4 1010 74 10000 7.7 250 14:22 29.01.2020
3832 Clouds 4 1010 69 10000 8.7 260 13:57 29.01.2020
3833 Clouds 4 1010 69 10000 8.7 250 13:39 29.01.2020
3834 Clouds 4 1010 69 10000 8.7 250 13:20 29.01.2020
3835 Clouds 4 1010 69 10000 7.7 250 12:56 29.01.2020
3836 Rain 4 1011 69 10000 8.2 250 12:37 29.01.2020
3837 Rain 3 1011 69 10000 8.2 250 12:19 29.01.2020
3838 Rain 3 1011 69 10000 7.2 250 11:45 29.01.2020
3839 Rain 3 1011 80 10000 4.6 240 11:24 29.01.2020
3840 Rain 2 1010 86 10000 5.1 270 10:54 29.01.2020
3841 Rain 2 1010 74 10000 4.6 250 10:36 29.01.2020
3842 Rain 2 1010 74 10000 4.6 250 10:18 29.01.2020
3843 Clouds 2 1010 74 10000 5.7 270 09:40 29.01.2020
3844 Rain 2 1010 74 10000 5.7 270 09:21 29.01.2020
3845 Clouds 2 1010 74 10000 7.7 250 08:57 29.01.2020
3846 Rain 2 1010 80 10000 4.6 220 08:39 29.01.2020
3847 Rain 2 1009 74 10000 9.3 250 08:20 29.01.2020
3848 Rain 2 1009 80 10000 7.2 230 07:44 29.01.2020
3849 Rain 2 1008 86 9000 6.2 240 07:24 29.01.2020
3850 Rain 2 1008 86 8000 8.2 250 06:55 29.01.2020
3851 Rain 2 1007 80 10000 7.2 230 06:37 29.01.2020
3852 Rain 2 1007 80 10000 7.7 260 06:18 29.01.2020
3853 Rain 1 1006 86 10000 7.2 240 05:44 29.01.2020
3854 Snow 2 1006 84 10000 7.7 250 05:25 29.01.2020
3855 Rain 1 1004 97 5000 2.6 280 04:37 29.01.2020
3856 Clouds 1 1003 97 10000 4.6 200 02:50 29.01.2020
3857 Snow 1 1003 89 6000 4.6 190 02:18 29.01.2020
3858 Clouds 1 1005 86 10000 4.1 220 00:43 29.01.2020
3859 Clouds 1 1006 80 10000 5.1 230 00:25 29.01.2020
3860 Clouds 1 1006 80 10000 6.2 230 23:58 28.01.2020
3861 Clouds 1 1006 86 10000 7.7 230 23:37 28.01.2020
3862 Snow 1 1006 86 10000 7.7 230 23:18 28.01.2020
3863 Snow 1 1006 74 10000 8.2 260 22:40 28.01.2020
3864 Snow 2 1006 74 10000 8.2 260 22:21 28.01.2020
3865 Snow 2 1006 81 10000 6.7 270 21:54 28.01.2020
3866 Snow 2 1006 81 7000 6.2 250 21:36 28.01.2020
3867 Snow 2 1006 81 7000 6.2 250 21:18 28.01.2020
3868 Snow 2 1005 80 10000 6.7 230 20:42 28.01.2020
3869 Snow 2 1005 79 10000 6.7 230 20:23 28.01.2020
3870 Rain 2 1005 79 10000 9.3 220 19:55 28.01.2020
3871 Clouds 2 1004 74 10000 7.7 220 19:36 28.01.2020
3872 Clouds 2 1004 74 10000 7.7 220 19:18 28.01.2020
3873 Clouds 2 1004 74 10000 6.2 230 18:41 28.01.2020
3874 Clouds 2 1004 74 10000 6.2 230 18:22 28.01.2020
3875 Clouds 2 1004 74 10000 7.2 240 17:59 28.01.2020
3876 Clouds 2 1003 64 10000 6.2 240 17:39 28.01.2020
3877 Rain 3 1003 64 10000 12.9 240 17:21 28.01.2020
3878 Rain 3 1003 60 10000 10.3 240 16:57 28.01.2020
3879 Clouds 4 1003 74 10000 7.2 240 16:39 28.01.2020
3880 Clouds 4 1002 60 10000 10.8 230 16:21 28.01.2020
3881 Clouds 4 1002 60 10000 13.4 230 15:45 28.01.2020
3882 Clouds 5 1002 65 10000 11.3 240 15:19 28.01.2020
3883 Clouds 5 1002 75 10000 11.8 240 14:58 28.01.2020
3884 Snow 5 1001 80 1500 7.7 280 14:39 28.01.2020
3885 Rain 4 1002 91 10000 10.3 230 14:18 28.01.2020
3886 Rain 4 1002 91 10000 11.3 230 13:41 28.01.2020
3887 Rain 4 1002 86 10000 11.8 230 13:23 28.01.2020
3888 Rain 4 1002 86 10000 10.8 230 12:44 28.01.2020
3889 Rain 5 1002 75 10000 10.8 240 12:24 28.01.2020
3890 Rain 5 1000 86 10000 5.7 220 11:58 28.01.2020
3891 Rain 6 1001 93 8000 6.7 250 11:40 28.01.2020
3892 Clouds 6 1001 80 10000 7.2 250 11:21 28.01.2020
3893 Rain 6 1001 80 10000 8.7 210 10:43 28.01.2020
3894 Rain 6 1001 80 10000 7.2 230 10:24 28.01.2020
3895 Rain 5 1001 75 10000 8.2 210 09:59 28.01.2020
3896 Clouds 5 1001 75 10000 8.2 210 09:39 28.01.2020
3897 Rain 5 1001 75 10000 5.1 200 09:20 28.01.2020
3898 Rain 5 1001 86 10000 4.6 220 08:44 28.01.2020
3899 Clouds 5 1002 75 10000 6.7 210 08:25 28.01.2020
3900 Clouds 5 1002 75 10000 4.6 190 07:53 28.01.2020
3901 Clouds 4 1002 80 10000 5.7 210 07:31 28.01.2020
3902 Clouds 5 1002 86 10000 4.1 190 06:47 28.01.2020
3903 Rain 5 1003 80 10000 5.7 220 06:24 28.01.2020
3904 Rain 4 1004 86 10000 3.1 210 05:38 28.01.2020
3905 Clouds 4 1004 86 10000 3.1 210 05:20 28.01.2020
3906 Clouds 4 1003 80 10000 3.1 150 03:47 28.01.2020
3907 Clouds 4 1005 80 10000 3.1 180 02:46 28.01.2020
3908 Clouds 4 1005 80 10000 3.1 180 02:46 28.01.2020
3909 Clouds 4 1005 75 10000 2.1 220 02:25 28.01.2020
3910 Clouds 4 1005 75 10000 2.6 180 01:55 28.01.2020
3911 Clouds 5 1006 75 10000 3.1 190 01:22 28.01.2020
3912 Clouds 5 1007 80 10000 4.1 230 00:45 28.01.2020
3913 Clouds 5 1007 80 10000 5.1 220 00:22 28.01.2020
3914 Clouds 4 1007 86 10000 3.6 230 23:44 27.01.2020
3915 Clouds 4 1007 93 10000 1 220 23:20 27.01.2020
3916 Clouds 4 1007 80 10000 1 0 22:45 27.01.2020
3917 Clouds 4 1008 86 10000 1 0 22:20 27.01.2020
3918 Clouds 4 1008 86 10000 1 0 22:20 27.01.2020
3919 Clouds 4 1008 86 10000 1 0 22:20 27.01.2020
3920 Clouds 4 1008 86 10000 1 0 22:20 27.01.2020
3921 Clouds 4 1008 86 10000 1.5 170 21:58 27.01.2020
3922 Clouds 4 1009 75 10000 2.1 250 21:39 27.01.2020
3923 Clouds 5 1009 75 10000 2.1 250 21:19 27.01.2020
3924 Clouds 5 1009 86 10000 2.6 160 20:57 27.01.2020
3925 Clouds 5 1009 70 10000 3.6 180 20:38 27.01.2020
3926 Clouds 5 1009 80 10000 3.1 150 20:19 27.01.2020
3927 Clouds 5 1010 86 10000 3.1 160 19:57 27.01.2020
3928 Clouds 5 1009 70 10000 2.6 170 19:38 27.01.2020
3929 Clouds 5 1010 80 10000 1.5 200 19:20 27.01.2020
3930 Clouds 5 1010 80 10000 0.5 0 18:40 27.01.2020
3931 Clouds 5 1010 80 10000 0.5 0 18:40 27.01.2020
3932 Clouds 5 1010 80 10000 0.5 0 18:21 27.01.2020
3933 Clouds 5 1011 75 10000 0.5 0 17:58 27.01.2020
3934 Clouds 6 1010 80 10000 0.5 0 17:39 27.01.2020
3935 Clouds 6 1010 80 10000 0.5 0 17:39 27.01.2020
3936 Clouds 7 1011 65 10000 1 130 17:19 27.01.2020
3937 Clouds 8 1011 65 10000 1 130 16:56 27.01.2020
3938 Clouds 9 1012 57 10000 1.5 130 16:37 27.01.2020
3939 Clouds 9 1012 57 10000 1.5 130 16:19 27.01.2020
3940 Clouds 9 1012 53 10000 0.5 0 15:54 27.01.2020
3941 Clouds 9 1012 57 10000 1.5 190 15:36 27.01.2020
3942 Clouds 9 1012 57 10000 1.5 190 15:18 27.01.2020
3943 Clouds 10 1013 57 10000 2.1 200 14:40 27.01.2020
3944 Clouds 10 1013 57 10000 2.6 220 14:21 27.01.2020
3945 Clouds 9 1013 61 10000 3.6 250 13:54 27.01.2020
3946 Clouds 9 1014 65 10000 4.6 240 13:36 27.01.2020
3947 Clouds 9 1014 65 10000 4.6 240 13:18 27.01.2020
3948 Clouds 9 1015 65 10000 4.1 220 12:42 27.01.2020
3949 Clouds 8 1015 65 10000 4.1 220 12:22 27.01.2020
3950 Clouds 8 1016 70 10000 4.1 200 11:55 27.01.2020
3951 Clouds 8 1016 75 10000 4.1 210 11:36 27.01.2020
3952 Clouds 7 1016 75 10000 4.1 210 11:18 27.01.2020
3953 Mist 5 1016 86 3000 2.54 210 10:42 27.01.2020
3954 Clouds 5 1016 81 10000 3.1 210 10:23 27.01.2020
3955 Clouds 4 1017 80 10000 4.6 220 09:40 27.01.2020
3956 Clouds 3 1017 80 10000 4.6 220 09:19 27.01.2020
3957 Rain 2 1017 86 10000 3.6 210 08:59 27.01.2020
3958 Rain 2 1017 86 10000 3.6 230 08:40 27.01.2020
3959 Rain 2 1017 86 10000 3.6 230 08:19 27.01.2020
3960 Clouds 2 1017 86 10000 3.1 200 07:52 27.01.2020
3961 Clouds 2 1017 93 10000 3.1 210 07:33 27.01.2020
3962 Clouds 2 1017 93 10000 2.6 200 06:51 27.01.2020
3963 Rain 2 1017 86 10000 2.6 170 05:59 27.01.2020
3964 Clouds 2 1017 93 10000 3.1 200 05:18 27.01.2020
3965 Clouds 2 1018 86 10000 3.1 220 03:43 27.01.2020
3966 Rain 1 1018 87 10000 4.1 220 02:32 27.01.2020
3967 Rain 1 1018 87 10000 2.1 220 01:29 27.01.2020
3968 Clouds 0 1018 85 10000 1 0 00:43 27.01.2020
3969 Clouds 0 1018 85 10000 1 0 00:23 27.01.2020
3970 Clouds 1 1018 85 10000 1.5 200 23:59 26.01.2020
3971 Clouds 0 1018 85 10000 1.5 200 23:59 26.01.2020
3972 Clouds 0 1018 85 10000 1.5 200 23:41 26.01.2020
3973 Fog 0 1018 100 500 0.5 180 23:41 26.01.2020
3974 Fog 0 1018 100 500 0.5 180 23:41 26.01.2020
3975 Clouds 0 1018 85 10000 1.5 200 23:18 26.01.2020
3976 Clouds 0 1018 85 10000 1 0 22:54 26.01.2020
3977 Clouds 0 1018 85 10000 3.1 220 22:36 26.01.2020
3978 Clouds 0 1018 85 10000 3.1 220 22:18 26.01.2020
3979 Clouds 0 1018 85 10000 2.1 200 21:55 26.01.2020
3980 Clouds 1 1018 85 10000 1.5 230 21:36 26.01.2020
3981 Clouds 1 1018 85 10000 1.5 230 21:18 26.01.2020
3982 Clouds 1 1018 85 10000 2.1 150 20:55 26.01.2020
3983 Clouds 1 1018 85 10000 1.5 180 20:36 26.01.2020
3984 Clouds 1 1018 82 10000 1.5 180 20:18 26.01.2020
3985 Clouds 2 1018 82 10000 1.5 150 19:41 26.01.2020
3986 Clouds 2 1018 82 10000 1.5 150 19:21 26.01.2020
3987 Clouds 2 1018 93 10000 1 210 18:59 26.01.2020
3988 Clouds 3 1017 86 10000 0.5 210 18:40 26.01.2020
3989 Clouds 3 1017 86 10000 0.5 210 18:22 26.01.2020
3990 Clouds 4 1017 86 10000 2.1 160 17:58 26.01.2020
3991 Clouds 4 1017 75 10000 1.62 219 17:38 26.01.2020
3992 Clouds 5 1017 80 10000 1.5 150 17:19 26.01.2020
3993 Clouds 6 1017 75 10000 1 180 16:58 26.01.2020
3994 Clouds 6 1018 70 10000 1 150 16:39 26.01.2020
3995 Clouds 6 1018 70 10000 1 150 16:20 26.01.2020
3996 Clouds 6 1017 70 10000 1.5 160 15:57 26.01.2020
3997 Clouds 7 1017 70 10000 1.5 160 15:39 26.01.2020
3998 Clouds 7 1018 61 10000 1.5 0 15:18 26.01.2020
3999 Clouds 7 1018 61 10000 1.5 0 14:40 26.01.2020
4000 Clouds 7 1018 65 10000 1.5 190 14:20 26.01.2020
4001 Clouds 6 1018 65 10000 1.5 190 13:55 26.01.2020
4002 Clouds 6 1018 65 10000 1.5 190 13:37 26.01.2020
4003 Clouds 6 1018 64 10000 2.1 210 13:18 26.01.2020
4004 Clouds 6 1019 75 8000 2.1 170 12:41 26.01.2020
4005 Clouds 6 1019 75 8000 2.1 170 12:23 26.01.2020
4006 Mist 5 1020 64 3800 1 0 11:57 26.01.2020
4007 Clouds 5 1019 86 10000 2.6 170 11:39 26.01.2020
4008 Clouds 4 1019 86 10000 2.6 170 11:19 26.01.2020
4009 Clouds 3 1019 93 10000 1.5 220 10:58 26.01.2020
4010 Clouds 2 1019 93 10000 1.5 220 10:38 26.01.2020
4011 Clouds 2 1019 93 10000 1.5 220 10:38 26.01.2020
4012 Clouds 2 1019 93 10000 1.5 220 10:20 26.01.2020
4013 Clouds 1 1019 73 10000 1.5 210 09:58 26.01.2020
4014 Clouds 1 1019 73 10000 2.6 210 09:40 26.01.2020
4015 Clouds 1 1019 73 10000 2.6 210 09:21 26.01.2020
4016 Clouds 0 1019 73 10000 1 180 08:44 26.01.2020
4017 Clouds 0 1019 85 10000 3.1 220 08:23 26.01.2020
4018 Clouds 0 1019 100 10000 2.6 220 07:58 26.01.2020
4019 Clouds 0 1019 100 10000 1.5 210 07:40 26.01.2020
4020 Clouds 0 1019 100 10000 1.5 210 07:21 26.01.2020
4021 Clouds 0 1019 100 10000 1.5 200 06:31 26.01.2020
4022 Clouds 0 1018 86 10000 2.1 220 05:32 26.01.2020
4023 Clouds 0 1019 100 10000 1 0 04:52 26.01.2020
4024 Clouds 0 1019 100 10000 1 0 02:59 26.01.2020
4025 Clouds 0 1019 100 10000 1 130 01:59 26.01.2020
4026 Clouds 0 1019 100 8000 1 140 01:38 26.01.2020
4027 Clouds 0 1019 100 10000 1 0 01:19 26.01.2020
4028 Clouds 0 1019 89 7000 1.5 200 00:39 26.01.2020
4029 Clouds 0 1020 100 10000 1 0 00:20 26.01.2020
4030 Clouds 0 1020 100 10000 1 0 00:20 26.01.2020
4031 Clouds 0 1020 89 9000 1 220 23:38 25.01.2020
4032 Clouds 1 1020 92 9000 2.6 170 23:19 25.01.2020
4033 Clouds 0 1020 92 9000 2.6 170 22:43 25.01.2020
4034 Clouds 1 1021 88 0 0.9 183 22:20 25.01.2020
4035 Clouds 1 1020 89 10000 0.9 183 21:59 25.01.2020
4036 Clouds 1 1020 89 10000 0.9 183 21:41 25.01.2020
4037 Clouds 0 1023 89 0 0.9 183 21:22 25.01.2020
4038 Clouds 1 1020 89 10000 1 170 20:54 25.01.2020
4039 Clouds 2 1020 89 10000 1 170 20:36 25.01.2020
4040 Clouds 0 1023 87 0 0.75 155 20:18 25.01.2020
4041 Clouds 2 1020 80 0 0.75 155 19:41 25.01.2020
4042 Clouds 2 1020 80 0 0.75 155 19:19 25.01.2020
4043 Clouds 2 1020 83 0 0.72 132 18:56 25.01.2020
4044 Clouds 2 1020 87 10000 1 160 18:38 25.01.2020
4045 Clouds 2 1020 87 10000 1 160 18:20 25.01.2020
4046 Clouds 3 1020 86 10000 1.5 170 17:39 25.01.2020
4047 Clouds 4 1020 86 10000 1.5 170 17:19 25.01.2020
4048 Clouds 4 1020 86 10000 1.5 170 17:19 25.01.2020
4049 Clouds 4 1021 78 0 0.79 31 16:56 25.01.2020
4050 Clouds 5 1020 86 10000 1.5 170 16:38 25.01.2020
4051 Clouds 5 1020 80 10000 1.5 170 16:19 25.01.2020
4052 Clouds 6 1020 75 10000 1 210 15:46 25.01.2020
4053 Clouds 6 1020 75 10000 1 210 15:25 25.01.2020
4054 Clouds 6 1020 75 10000 1 210 14:57 25.01.2020
4055 Clouds 6 1021 77 10000 1 210 14:39 25.01.2020
4056 Clouds 6 1021 58 10000 1 210 14:18 25.01.2020
4057 Clouds 5 1021 78 0 0.75 255 13:41 25.01.2020
4058 Clouds 5 1021 82 0 0.58 279 13:22 25.01.2020
4059 Clouds 5 1021 82 0 0.58 279 13:22 25.01.2020
4060 Clouds 4 1022 86 10000 1 0 12:45 25.01.2020
4061 Clouds 4 1022 86 10000 1 0 12:25 25.01.2020
4062 Clouds 3 1022 86 10000 1 0 11:45 25.01.2020
4063 Clouds 2 1022 93 10000 2.1 210 11:22 25.01.2020
4064 Clouds 2 1022 93 10000 2.1 210 11:22 25.01.2020
4065 Clouds 2 1022 93 10000 2.1 210 11:22 25.01.2020
4066 Clouds 2 1022 67 10000 1.5 210 10:59 25.01.2020
4067 Rain 1 1022 100 10000 1.5 170 10:40 25.01.2020
4068 Rain 0 1022 100 10000 1.5 170 10:20 25.01.2020
4069 Fog -1 1022 100 1700 1.63 214 09:41 25.01.2020
4070 Clouds -1 1021 100 10000 1.5 190 09:22 25.01.2020
4071 Clouds -2 1021 100 10000 1.5 160 08:47 25.01.2020
4072 Clouds -2 1021 92 10000 2.1 230 08:28 25.01.2020
4073 Clouds -3 1021 100 10000 2.6 210 07:50 25.01.2020
4074 Clouds -3 1021 92 10000 1.5 190 06:54 25.01.2020
4075 Clouds -3 1021 100 10000 1.5 220 06:28 25.01.2020
4076 Clouds -3 1020 100 10000 1.5 180 05:48 25.01.2020
4077 Clouds -3 1020 100 10000 1.5 210 05:23 25.01.2020
4078 Clouds -3 1021 100 10000 2.1 210 03:53 25.01.2020
4079 Clouds -2 1021 100 10000 1 0 03:22 25.01.2020
4080 Clouds -2 1021 100 10000 1.5 210 02:23 25.01.2020
4081 Clouds -2 1021 100 9000 2.1 210 01:53 25.01.2020
4082 Clouds -2 1021 100 10000 2.1 180 00:52 25.01.2020
4083 Clouds -2 1022 92 10000 2.1 220 00:26 25.01.2020
4084 Clouds -2 1022 92 10000 2.1 220 00:26 25.01.2020
4085 Clouds -2 1022 92 10000 2.1 210 23:59 24.01.2020
4086 Clouds -2 1022 100 10000 2.6 190 23:41 24.01.2020
4087 Clouds -2 1022 100 10000 1.5 180 23:22 24.01.2020
4088 Fog -1 1022 100 10000 0.5 0 22:46 24.01.2020
4089 Fog -1 1022 100 10000 0.5 0 22:46 24.01.2020
4090 Clouds -1 1022 79 10000 1.5 170 22:25 24.01.2020
4091 Clouds -1 1022 92 10000 2.1 160 21:57 24.01.2020
4092 Clouds -1 1022 79 10000 2.1 180 21:38 24.01.2020
4093 Clouds -1 1022 79 10000 2.1 180 21:18 24.01.2020
4094 Clouds -1 1022 79 10000 2.1 180 21:18 24.01.2020
4095 Clouds -1 1022 100 9000 1.5 160 20:42 24.01.2020
4096 Clouds -1 1022 100 9000 1.5 160 20:21 24.01.2020
4097 Clouds 0 1022 79 4800 2.1 160 19:58 24.01.2020
4098 Clouds 0 1022 79 4800 2.1 160 19:39 24.01.2020
4099 Clouds 0 1022 79 10000 1 170 19:21 24.01.2020
4100 Clouds 0 1022 79 10000 2.1 160 18:44 24.01.2020
4101 Clouds 1 1022 93 10000 1.5 140 18:25 24.01.2020
4102 Clouds 1 1022 86 10000 0.7 210 17:59 24.01.2020
4103 Clouds 1 1021 80 10000 0.5 140 17:41 24.01.2020
4104 Clouds 3 1021 86 10000 1 0 17:20 24.01.2020
4105 Clouds 4 1021 70 10000 1 0 16:40 24.01.2020
4106 Clouds 5 1022 61 10000 2.1 260 16:21 24.01.2020
4107 Clouds 5 1022 61 10000 2.1 240 15:56 24.01.2020
4108 Clouds 5 1022 67 10000 1.5 170 15:38 24.01.2020
4109 Clouds 6 1022 57 10000 2.1 220 15:19 24.01.2020
4110 Clouds 6 1022 61 10000 2.1 210 14:41 24.01.2020
4111 Clouds 6 1022 67 10000 2.6 220 14:41 24.01.2020
4112 Clear 6 1022 45 10000 2.6 220 14:23 24.01.2020
4113 Clear 6 1022 45 10000 2.6 220 14:23 24.01.2020
4114 Clear 5 1023 61 10000 1.5 210 13:57 24.01.2020
4115 Clouds 5 1024 74 8000 0.5 280 13:39 24.01.2020
4116 Clear 4 1023 45 10000 1.5 230 13:19 24.01.2020
4117 Clear 3 1023 69 10000 2.1 200 12:41 24.01.2020
4118 Clear 2 1024 74 10000 1.5 230 12:18 24.01.2020
4119 Clear 1 1024 45 10000 1.5 150 11:43 24.01.2020
4120 Clear 0 1024 49 10000 1 0 11:19 24.01.2020
4121 Clear -1 1024 86 9000 1.5 160 10:43 24.01.2020
4122 Clear -2 1024 92 10000 1 0 10:22 24.01.2020
4123 Clear -2 1024 92 10000 1 210 09:57 24.01.2020
4124 Clear -3 1024 92 10000 1 170 09:39 24.01.2020
4125 Clear -3 1024 92 10000 1 170 09:20 24.01.2020
4126 Clear -3 1024 92 8000 1.5 160 08:40 24.01.2020
4127 Clear -4 1024 92 8000 1.5 160 08:20 24.01.2020
4128 Clear -3 1024 100 9000 1 0 07:51 24.01.2020
4129 Clear -3 1023 92 9000 1.5 170 07:32 24.01.2020
4130 Clear -3 1023 92 8000 2.1 160 06:48 24.01.2020
4131 Clear -3 1023 92 3700 1.5 190 06:29 24.01.2020
4132 Clear -3 1023 100 4900 2.1 200 05:58 24.01.2020
4133 Clear -3 1024 100 6000 3.1 220 04:57 24.01.2020
4134 Clear -2 1024 92 4700 3.1 220 02:53 24.01.2020
4135 Clear -2 1025 100 3500 3.1 210 02:26 24.01.2020
4136 Clear -2 1025 100 3400 3.6 210 01:46 24.01.2020
4137 Clear -2 1025 100 4400 3.6 210 01:28 24.01.2020
4138 Clear -2 1025 92 4400 2.1 200 00:26 24.01.2020
4139 Clear -2 1025 92 4500 2.1 170 23:51 23.01.2020
4140 Clear -2 1025 92 5000 1.5 180 23:31 23.01.2020
4141 Clear -2 1025 92 6000 1.5 150 22:59 23.01.2020
4142 Clear -2 1025 92 6000 1.5 150 22:39 23.01.2020
4143 Clear -2 1025 92 6000 1 330 22:19 23.01.2020
4144 Clear -2 1025 92 6000 0.36 268 21:58 23.01.2020
4145 Clouds -2 1025 92 6000 2.1 160 21:39 23.01.2020
4146 Clear -2 1025 92 6000 1 0 21:21 23.01.2020
4147 Clear -2 1025 100 6000 1.5 200 20:59 23.01.2020
4148 Clear -2 1025 100 6000 1.5 200 20:39 23.01.2020
4149 Clouds -1 1025 92 6000 1.5 180 20:20 23.01.2020
4150 Clouds -2 1025 92 6000 2.1 130 19:56 23.01.2020
4151 Clouds -2 1025 92 6000 2.6 120 19:38 23.01.2020
4152 Clouds -1 1025 92 6000 2.6 120 19:20 23.01.2020
4153 Mist -1 1025 92 5000 3.1 100 18:56 23.01.2020
4154 Clouds -1 1025 92 6000 2.6 60 18:37 23.01.2020
4155 Mist -1 1025 92 5000 2.1 110 18:19 23.01.2020
4156 Mist -1 1025 92 5000 2.6 70 17:43 23.01.2020
4157 Clouds -1 1026 92 6000 2.6 110 17:20 23.01.2020
4158 Clouds -1 1026 92 6000 2.6 60 16:58 23.01.2020
4159 Mist -1 1026 92 4500 3.1 60 16:38 23.01.2020
4160 Clouds 0 1026 100 6000 2.6 80 16:19 23.01.2020
4161 Clouds 0 1026 100 7000 3.1 60 15:57 23.01.2020
4162 Mist -1 1026 92 4500 4.1 50 15:38 23.01.2020
4163 Clouds -1 1027 100 7000 2.6 60 15:19 23.01.2020
4164 Clouds -1 1027 100 7000 2.1 90 14:57 23.01.2020
4165 Mist -1 1027 100 5000 3.1 60 14:39 23.01.2020
4166 Mist -1 1027 100 5000 3.1 60 14:21 23.01.2020
4167 Mist -1 1028 100 5000 3.6 70 13:46 23.01.2020
4168 Mist -1 1029 100 4000 3.1 70 13:21 23.01.2020
4169 Mist -1 1029 100 3500 2.6 90 12:57 23.01.2020
4170 Mist -1 1029 100 3500 2.6 90 12:39 23.01.2020
4171 Mist -1 1029 92 3000 4.1 60 12:21 23.01.2020
4172 Mist -1 1030 92 2000 3.1 80 11:54 23.01.2020
4173 Mist -2 1030 100 2000 3.1 80 11:36 23.01.2020
4174 Mist -2 1030 100 2000 3.1 80 11:18 23.01.2020
4175 Mist -3 1032 86 4000 2.6 120 10:41 23.01.2020
4176 Mist -3 1030 100 1500 3.1 60 10:19 23.01.2020
4177 Mist -3 1030 100 1500 3.1 60 10:19 23.01.2020
4178 Mist -3 1030 92 2000 3.6 60 09:41 23.01.2020
4179 Mist -3 1031 100 1300 3.6 60 09:23 23.01.2020
4180 Mist -3 1031 100 1500 3.1 60 08:57 23.01.2020
4181 Mist -3 1031 92 2000 3.6 100 08:38 23.01.2020
4182 Mist -3 1031 92 2000 3.6 100 08:20 23.01.2020
4183 Mist -3 1031 92 2500 3.1 80 07:42 23.01.2020
4184 Mist -3 1031 92 2500 2.1 80 07:24 23.01.2020
4185 Clear -3 1031 92 3800 3.1 100 06:46 23.01.2020
4186 Clear -3 1031 92 4300 2.6 50 06:19 23.01.2020
4187 Clear -3 1032 100 4900 0.5 0 04:58 23.01.2020
4188 Clear -3 1032 100 5000 2.1 50 04:22 23.01.2020
4189 Clear -3 1033 92 4400 1.5 90 02:31 23.01.2020
4190 Clear -3 1033 92 5000 2.6 80 00:58 23.01.2020
4191 Clear -3 1033 92 4000 3.1 40 00:27 23.01.2020
4192 Clear -3 1033 100 2600 2.6 50 23:47 22.01.2020
4193 Clear -3 1033 100 1100 3.1 30 23:29 22.01.2020
4194 Clouds -3 1033 100 750 3.6 20 22:58 22.01.2020
4195 Clouds -3 1033 92 800 1.5 360 22:39 22.01.2020
4196 Clouds -3 1033 92 800 1.5 360 22:21 22.01.2020
4197 Clear -3 1033 92 650 1.5 110 21:40 22.01.2020
4198 Clear -3 1033 92 900 1 0 21:22 22.01.2020
4199 Clear -3 1033 92 1000 1 0 20:57 22.01.2020
4200 Clear -3 1035 92 5000 1.22 9 20:37 22.01.2020
4201 Mist -3 1033 92 1800 1.5 250 20:19 22.01.2020
4202 Mist -3 1032 92 3000 1.5 210 19:56 22.01.2020
4203 Fog -3 1032 92 800 2.1 170 19:37 22.01.2020
4204 Mist -3 1032 92 1500 3.1 170 19:18 22.01.2020
4205 Mist -3 1032 92 1500 1 0 18:56 22.01.2020
4206 Fog -2 1032 100 900 1.5 130 18:38 22.01.2020
4207 Mist -3 1032 92 2500 2.6 20 18:19 22.01.2020
4208 Mist -3 1032 92 2500 2.6 20 18:19 22.01.2020
4209 Mist -3 1032 92 1500 1.5 130 17:54 22.01.2020
4210 Mist -3 1032 100 1500 1 0 17:36 22.01.2020
4211 Mist -2 1032 100 1500 1 0 17:18 22.01.2020
4212 Mist -2 1032 92 3900 2.6 50 16:42 22.01.2020
4213 Mist -2 1032 92 4300 2.1 20 16:22 22.01.2020
4214 Mist -2 1032 100 4000 2.6 10 15:58 22.01.2020
4215 Mist -1 1032 100 1000 1 0 15:39 22.01.2020
4216 Mist -1 1031 100 4500 1 0 15:21 22.01.2020
4217 Mist -1 1031 100 4000 1 0 14:54 22.01.2020
4218 Fog -1 1032 100 700 1.5 280 14:36 22.01.2020
4219 Mist -1 1032 100 4000 1 0 14:36 22.01.2020
4220 Mist -1 1032 100 4000 1 0 14:18 22.01.2020
4221 Mist -2 1032 100 3500 1 0 13:54 22.01.2020
4222 Fog -2 1032 100 800 1.5 240 13:36 22.01.2020
4223 Mist -2 1032 100 3500 0.5 0 13:18 22.01.2020
4224 Mist -2 1033 100 3000 1 0 12:54 22.01.2020
4225 Fog -2 1033 100 700 0.5 270 12:36 22.01.2020
4226 Mist -2 1033 92 3000 1.5 320 12:18 22.01.2020
4227 Mist -2 1033 92 4500 2.1 220 11:54 22.01.2020
4228 Mist -3 1033 92 3900 2.6 190 11:36 22.01.2020
4229 Mist -3 1033 92 3900 2.6 190 11:18 22.01.2020
4230 Fog -3 1033 100 600 1.5 190 10:41 22.01.2020
4231 Fog -3 1033 100 550 2.1 110 10:19 22.01.2020
4232 Fog -3 1033 92 400 1 0 09:43 22.01.2020
4233 Fog -3 1033 100 500 2.6 20 09:24 22.01.2020
4234 Fog -3 1033 92 500 0.5 0 08:57 22.01.2020
4235 Fog -4 1033 92 200 1 300 08:39 22.01.2020
4236 Fog -4 1032 92 550 1 0 08:20 22.01.2020
4237 Fog -3 1033 92 550 0.5 0 07:47 22.01.2020
4238 Fog -4 1032 92 650 1.5 220 07:29 22.01.2020
4239 Clouds -3 1032 92 800 2.1 240 06:50 22.01.2020
4240 Clouds -3 1032 100 1100 1.5 210 06:26 22.01.2020
4241 Clouds -3 1033 100 800 1 0 05:33 22.01.2020
4242 Clouds -3 1033 100 700 1.5 190 04:18 22.01.2020
4243 Clouds -3 1034 100 650 1 0 03:22 22.01.2020
4244 Fog -3 1035 100 200 1 0 01:44 22.01.2020
4245 Clear -3 1035 92 1100 1.5 140 00:44 22.01.2020
4246 Clear -3 1035 92 1200 0.5 0 00:26 22.01.2020
4247 Clear -3 1035 92 4300 1 0 23:39 21.01.2020
4248 Clear -3 1035 92 4300 1 0 23:21 21.01.2020
4249 Clear -3 1035 92 5000 1.5 100 22:59 21.01.2020
4250 Clear -2 1035 92 5000 1.5 100 22:39 21.01.2020
4251 Clear -2 1036 92 6000 2.1 100 22:20 21.01.2020
4252 Clear -3 1036 92 6000 2.1 80 21:56 21.01.2020
4253 Mist -2 1036 92 3000 2.1 80 21:38 21.01.2020
4254 Clear -2 1036 92 7000 2.6 50 21:19 21.01.2020
4255 Clear -2 1036 92 6000 2.1 40 20:56 21.01.2020
4256 Clear -2 1036 100 6000 2.1 30 20:37 21.01.2020
4257 Clear -2 1036 100 6000 2.1 30 20:18 21.01.2020
4258 Clear -2 1036 100 6000 3.1 30 19:56 21.01.2020
4259 Mist -2 1036 92 5000 3.1 50 19:37 21.01.2020
4260 Mist -2 1036 92 4500 3.1 20 19:19 21.01.2020
4261 Clouds -2 1037 92 7000 2.6 20 18:55 21.01.2020
4262 Clear -2 1036 92 7000 2.6 20 18:37 21.01.2020
4263 Clear -2 1036 92 7000 2.6 20 18:18 21.01.2020
4264 Clear -2 1036 92 7000 3.1 30 17:44 21.01.2020
4265 Clear -1 1037 86 8000 2.6 20 17:20 21.01.2020
4266 Clear -1 1037 86 10000 3.1 30 16:58 21.01.2020
4267 Clear -1 1037 75 10000 2.1 20 16:37 21.01.2020
4268 Clear -1 1037 75 10000 2.1 20 16:19 21.01.2020
4269 Clear -1 1038 74 10000 1.5 10 15:42 21.01.2020
4270 Clear 0 1038 74 10000 1.5 10 15:22 21.01.2020
4271 Clear -1 1038 74 8000 1 0 14:59 21.01.2020
4272 Clear -1 1038 74 8000 1 0 14:38 21.01.2020
4273 Clouds 0 1038 57 8000 1 0 14:20 21.01.2020
4274 Rain 0 1038 57 8000 0.5 0 13:40 21.01.2020
4275 Rain -1 1039 55 8000 1.6 45 13:19 21.01.2020
4276 Clouds -1 1039 92 7000 0.5 0 12:45 21.01.2020
4277 Clouds -1 1039 92 9000 1 0 12:27 21.01.2020
4278 Clouds -1 1040 92 8000 1.5 80 11:58 21.01.2020
4279 Rain -1 1040 92 7000 1.5 70 11:40 21.01.2020
4280 Clouds -1 1040 92 7000 1.5 70 11:21 21.01.2020
4281 Rain -1 1040 92 8000 1.5 40 10:57 21.01.2020
4282 Clouds -1 1040 86 8000 2.1 120 10:39 21.01.2020
4283 Clouds -2 1040 92 8000 1 0 10:20 21.01.2020
4284 Clouds -2 1040 92 10000 1 0 09:42 21.01.2020
4285 Clouds -2 1040 92 10000 1 0 09:22 21.01.2020
4286 Clouds -2 1040 92 10000 1 0 08:50 21.01.2020
4287 Clouds -2 1039 92 10000 1 0 08:32 21.01.2020
4288 Clouds -3 1039 92 9000 1.5 130 08:00 21.01.2020
4289 Clouds -2 1039 92 10000 2.1 100 07:40 21.01.2020
4290 Clouds -2 1039 92 10000 2.1 150 07:22 21.01.2020
4291 Clear -2 1039 92 10000 2.6 120 06:49 21.01.2020
4292 Clear -2 1039 92 10000 2.6 100 06:29 21.01.2020
4293 Mist -2 1038 100 2000 1.5 100 05:43 21.01.2020
4294 Clear -2 1040 86 10000 3.1 70 04:41 21.01.2020
4295 Clear -1 1040 92 8000 3.1 60 02:57 21.01.2020
4296 Clouds -1 1040 92 8000 2.6 60 02:19 21.01.2020
4297 Clouds -1 1040 92 8000 3.1 80 01:26 21.01.2020
4298 Clouds -1 1040 100 8000 4.1 50 00:38 21.01.2020
4299 Clouds -1 1040 92 7000 4.1 90 23:59 20.01.2020
4300 Clouds -2 1041 92 9000 3.1 40 23:41 20.01.2020
4301 Clouds -1 1040 92 7000 4.6 80 23:19 20.01.2020
4302 Clouds -1 1040 92 8000 5.1 90 22:59 20.01.2020
4303 Clouds -1 1041 92 8000 5.1 80 22:39 20.01.2020
4304 Clouds -1 1041 92 8000 5.1 80 22:21 20.01.2020
4305 Clouds -1 1041 92 9000 4.1 80 21:58 20.01.2020
4306 Clouds -1 1041 92 9000 4.1 80 21:38 20.01.2020
4307 Clouds -1 1043 92 10000 2.1 30 21:19 20.01.2020
4308 Clouds -1 1041 100 10000 2.6 80 20:57 20.01.2020
4309 Clouds 0 1044 97 10000 2.1 60 20:38 20.01.2020
4310 Clouds 0 1041 92 10000 3.6 80 20:19 20.01.2020
4311 Clouds 0 1041 92 10000 3.6 80 20:19 20.01.2020
4312 Clouds 0 1042 92 10000 3.6 70 19:57 20.01.2020
4313 Clouds 0 1042 86 10000 3.1 60 19:38 20.01.2020
4314 Clouds 0 1042 92 10000 3.1 80 19:19 20.01.2020
4315 Clouds 0 1044 92 10000 3.1 80 18:45 20.01.2020
4316 Clouds 0 1042 92 10000 2.6 70 18:24 20.01.2020
4317 Clouds 0 1042 92 10000 3.1 70 17:59 20.01.2020
4318 Clouds 0 1042 86 10000 3.6 60 17:38 20.01.2020
4319 Clouds 1 1042 81 10000 4.1 80 17:18 20.01.2020
4320 Clouds 1 1042 81 10000 4.1 80 16:45 20.01.2020
4321 Clouds 1 1042 81 10000 4.6 80 16:25 20.01.2020
4322 Clouds 1 1042 81 10000 3.6 80 15:59 20.01.2020
4323 Clouds 2 1042 81 10000 5.1 60 15:40 20.01.2020
4324 Clouds 2 1042 81 10000 4.6 80 15:21 20.01.2020
4325 Clouds 1 1042 81 10000 4.1 90 14:56 20.01.2020
4326 Clouds 1 1042 81 10000 3.6 70 14:37 20.01.2020
4327 Clouds 1 1042 81 10000 3.6 70 14:37 20.01.2020
4328 Clouds 1 1042 79 10000 3.6 70 14:19 20.01.2020
4329 Clouds 1 1042 79 9000 3.6 70 13:42 20.01.2020
4330 Clouds 1 1043 81 8000 4.1 60 13:24 20.01.2020
4331 Rain 1 1043 100 8000 3.6 60 12:58 20.01.2020
4332 Rain 1 1043 81 8000 4.1 40 12:40 20.01.2020
4333 Rain 1 1043 100 8000 2.1 130 12:21 20.01.2020
4334 Clouds 1 1043 100 7000 3.1 80 11:55 20.01.2020
4335 Clouds 1 1043 100 7000 3.1 80 11:36 20.01.2020
4336 Clouds 0 1043 100 7000 3.1 80 11:18 20.01.2020
4337 Mist 0 1043 100 3000 2.1 80 10:41 20.01.2020
4338 Mist 0 1043 100 3500 1.5 90 10:20 20.01.2020
4339 Mist -1 1043 100 1000 1.5 80 09:42 20.01.2020
4340 Mist -1 1043 92 5000 1 60 09:24 20.01.2020
4341 Clouds -1 1042 100 6000 1 110 08:55 20.01.2020
4342 Clouds -1 1042 100 7000 0.5 160 08:34 20.01.2020
4343 Clouds -2 1042 100 7000 1 0 07:56 20.01.2020
4344 Mist -2 1042 100 2500 0.5 60 07:38 20.01.2020
4345 Clouds -1 1042 92 7000 1 0 07:19 20.01.2020
4346 Clouds -1 1041 92 7000 1 290 06:42 20.01.2020
4347 Clouds -2 1041 100 6000 0.5 0 06:21 20.01.2020
4348 Mist -1 1041 92 2000 1 60 05:38 20.01.2020
4349 Snow -1 1041 100 4100 2.1 150 05:19 20.01.2020
4350 Snow -1 1041 100 4600 1 0 03:55 20.01.2020
4351 Clouds -1 1040 100 7000 1.5 180 01:58 20.01.2020
4352 Clouds -1 1040 100 8000 1 240 01:39 20.01.2020
4353 Clouds -1 1040 100 8000 1 240 01:18 20.01.2020
4354 Clouds -1 1040 100 8000 1 0 00:42 20.01.2020
4355 Clouds -1 1040 100 10000 0.5 0 00:20 20.01.2020
4356 Clouds -1 1039 92 10000 1.5 180 23:38 19.01.2020
4357 Snow -1 1040 92 1500 1 240 23:19 19.01.2020
4358 Clouds -1 1039 100 10000 1 190 22:56 19.01.2020
4359 Snow -1 1039 100 8000 1.5 230 22:37 19.01.2020
4360 Clouds -1 1039 92 10000 2.1 170 22:19 19.01.2020
4361 Clouds -1 1039 92 10000 1 240 21:56 19.01.2020
4362 Fog -1 1039 92 8000 1 230 21:38 19.01.2020
4363 Clouds -2 1038 92 4900 1.5 210 21:19 19.01.2020
4364 Clouds -2 1038 92 10000 2.1 220 20:56 19.01.2020
4365 Clouds -1 1038 92 750 1.5 180 20:38 19.01.2020
4366 Snow -1 1038 92 750 1.5 180 20:19 19.01.2020
4367 Snow -1 1038 92 10000 1 0 19:55 19.01.2020
4368 Snow -1 1037 88 10000 1.5 260 19:37 19.01.2020
4369 Snow -1 1037 88 10000 1.5 260 19:19 19.01.2020
4370 Clouds -1 1037 80 10000 1.5 280 18:55 19.01.2020
4371 Fog -1 1037 100 8000 1 60 18:37 19.01.2020
4372 Clouds 0 1037 80 10000 1 290 18:37 19.01.2020
4373 Clouds 0 1037 80 10000 1 290 18:19 19.01.2020
4374 Snow 0 1036 80 10000 1 260 17:57 19.01.2020
4375 Clouds 0 1036 88 10000 1.5 320 17:39 19.01.2020
4376 Clouds 0 1036 80 10000 1.5 270 17:20 19.01.2020
4377 Snow 1 1035 100 2100 1.5 100 16:57 19.01.2020
4378 Rain 1 1034 92 1000 4.1 20 16:38 19.01.2020
4379 Rain 1 1034 86 10000 2.1 310 16:19 19.01.2020
4380 Rain 2 1034 86 10000 2.1 310 15:57 19.01.2020
4381 Rain 2 1033 84 10000 1.5 350 15:37 19.01.2020
4382 Rain 2 1033 84 10000 1.5 350 15:19 19.01.2020
4383 Rain 2 1033 86 10000 1 360 14:57 19.01.2020
4384 Rain 2 1033 86 8000 2.6 330 14:38 19.01.2020
4385 Rain 2 1033 86 8000 2.6 330 14:18 19.01.2020
4386 Rain 2 1033 86 8000 2.6 330 14:18 19.01.2020
4387 Rain 2 1033 80 10000 1.5 310 13:56 19.01.2020
4388 Rain 2 1033 80 10000 1.5 290 13:37 19.01.2020
4389 Rain 2 1033 86 10000 1.5 280 13:19 19.01.2020
4390 Rain 2 1033 79 10000 1.5 280 12:55 19.01.2020
4391 Rain 2 1033 80 10000 1.5 310 12:36 19.01.2020
4392 Rain 1 1033 79 6000 2.6 280 12:18 19.01.2020
4393 Rain 1 1032 79 10000 3.1 290 11:42 19.01.2020
4394 Rain 1 1032 94 10000 3.1 290 11:20 19.01.2020
4395 Snow 1 1032 94 10000 2.6 310 10:56 19.01.2020
4396 Rain 1 1033 94 5000 4.1 310 10:38 19.01.2020
4397 Snow 1 1031 94 7000 1.32 308 10:19 19.01.2020
4398 Snow 0 1031 100 6000 0.5 0 09:55 19.01.2020
4399 Snow 0 1031 100 6000 0.5 0 09:55 19.01.2020
4400 Snow 0 1031 100 6000 0.5 0 09:55 19.01.2020
4401 Snow 0 1031 100 6000 0.5 0 09:55 19.01.2020
4402 Snow 0 1030 92 5000 0.5 0 09:37 19.01.2020
4403 Snow 0 1030 92 5000 0.5 0 09:18 19.01.2020
4404 Snow 0 1030 100 3600 0.5 0 08:48 19.01.2020
4405 Snow 0 1030 100 7000 2.1 260 08:28 19.01.2020
4406 Snow 0 1029 100 6000 2.6 240 07:42 19.01.2020
4407 Snow 0 1029 92 3700 1.5 220 07:22 19.01.2020
4408 Snow 0 1029 100 5000 1 0 06:54 19.01.2020
4409 Snow 0 1029 100 6000 1 280 06:21 19.01.2020
4410 Snow 0 1027 98 10000 1.5 220 02:47 19.01.2020
4411 Snow 1 1027 97 10000 1 250 02:24 19.01.2020
4412 Clouds 1 1027 97 2000 1.5 320 01:28 19.01.2020
4413 Snow 1 1027 97 10000 1.5 270 00:54 19.01.2020
4414 Snow 1 1027 97 4200 1.5 310 00:31 19.01.2020
4415 Snow 1 1027 97 4200 1.5 310 23:59 18.01.2020
4416 Snow 1 1027 97 4700 0.5 170 23:41 18.01.2020
4417 Snow 1 1026 97 10000 2.1 230 23:23 18.01.2020
4418 Snow 1 1026 97 10000 2.1 230 23:23 18.01.2020
4419 Snow 1 1027 97 10000 1 0 22:56 18.01.2020
4420 Snow 1 1027 97 10000 1.5 220 22:38 18.01.2020
4421 Snow 1 1027 97 10000 1.5 220 22:20 18.01.2020
4422 Snow 1 1027 97 10000 2.6 210 21:57 18.01.2020
4423 Snow 1 1027 97 9000 1.5 160 21:38 18.01.2020
4424 Snow 1 1027 97 10000 1.5 280 21:20 18.01.2020
4425 Snow 1 1027 97 10000 3.1 250 20:55 18.01.2020
4426 Snow 1 1026 96 10000 3.6 220 20:36 18.01.2020
4427 Snow 1 1026 92 10000 3.1 230 20:18 18.01.2020
4428 Snow 1 1026 92 10000 3.1 220 19:42 18.01.2020
4429 Snow 1 1026 92 10000 3.1 220 19:24 18.01.2020
4430 Snow 1 1026 93 10000 2.1 190 18:43 18.01.2020
4431 Snow 1 1026 93 10000 2.1 190 18:43 18.01.2020
4432 Snow 2 1026 93 10000 3.1 240 18:24 18.01.2020
4433 Snow 2 1026 93 10000 3.1 240 17:57 18.01.2020
4434 Snow 2 1026 93 10000 3.1 240 17:39 18.01.2020
4435 Snow 2 1025 93 10000 2.6 180 17:20 18.01.2020
4436 Snow 3 1025 93 10000 2.6 170 16:56 18.01.2020
4437 Clouds 3 1025 93 10000 2.1 180 16:37 18.01.2020
4438 Clouds 3 1025 93 10000 2.1 180 16:19 18.01.2020
4439 Clouds 4 1025 86 10000 2.6 200 15:43 18.01.2020
4440 Snow 4 1025 86 10000 2.1 200 15:24 18.01.2020
4441 Clouds 4 1026 93 10000 2.6 230 14:59 18.01.2020
4442 Snow 4 1025 80 10000 2.6 220 14:40 18.01.2020
4443 Clouds 4 1026 93 10000 2.6 220 14:19 18.01.2020
4444 Rain 4 1026 93 10000 2.6 220 13:55 18.01.2020
4445 Rain 3 1026 96 10000 3.1 230 13:36 18.01.2020
4446 Rain 3 1026 95 10000 3.1 230 13:18 18.01.2020
4447 Rain 3 1026 95 10000 3.1 230 13:18 18.01.2020
4448 Rain 3 1026 95 3000 4.6 230 12:40 18.01.2020
4449 Snow 3 1026 95 1200 4.6 250 12:21 18.01.2020
4450 Rain 3 1026 93 2500 3.6 320 11:56 18.01.2020
4451 Rain 3 1026 86 10000 4.1 220 11:37 18.01.2020
4452 Clouds 3 1026 86 10000 3.6 210 11:18 18.01.2020
4453 Rain 3 1026 93 10000 4.1 210 10:41 18.01.2020
4454 Rain 3 1026 93 10000 4.1 210 10:20 18.01.2020
4455 Rain 3 1026 93 10000 4.1 210 10:20 18.01.2020
4456 Rain 3 1026 93 10000 3.6 220 09:50 18.01.2020
4457 Rain 3 1026 93 10000 4.1 220 09:32 18.01.2020
4458 Rain 3 1026 93 10000 3.1 220 08:59 18.01.2020
4459 Rain 3 1026 93 10000 3.1 220 08:41 18.01.2020
4460 Rain 3 1026 100 8000 4.1 240 08:20 18.01.2020
4461 Rain 3 1026 93 10000 4.1 220 07:52 18.01.2020
4462 Rain 3 1025 100 10000 4.1 220 07:34 18.01.2020
4463 Rain 3 1025 100 10000 4.1 220 06:48 18.01.2020
4464 Rain 4 1024 100 10000 3.6 210 06:19 18.01.2020
4465 Rain 4 1024 93 7000 6.2 260 05:31 18.01.2020
4466 Rain 4 1023 93 10000 3.6 230 03:46 18.01.2020
4467 Rain 5 1022 86 8000 4.6 250 02:21 18.01.2020
4468 Rain 5 1022 86 10000 4.1 250 01:36 18.01.2020
4469 Rain 5 1021 93 7000 3.6 230 00:39 18.01.2020
4470 Rain 5 1021 86 10000 4.1 250 00:19 18.01.2020
4471 Rain 5 1021 81 10000 3.6 250 23:56 17.01.2020
4472 Rain 5 1021 86 8000 3.1 230 23:38 17.01.2020
4473 Clouds 5 1021 81 10000 5.1 250 23:18 17.01.2020
4474 Clouds 5 1021 81 10000 5.1 250 22:40 17.01.2020
4475 Clouds 6 1021 75 10000 4.6 250 22:19 17.01.2020
4476 Clouds 6 1021 75 10000 4.6 250 22:19 17.01.2020
4477 Clouds 5 1021 70 10000 5.1 260 21:54 17.01.2020
4478 Clouds 6 1020 65 10000 5.7 250 21:36 17.01.2020
4479 Clouds 6 1020 65 10000 5.7 250 21:18 17.01.2020
4480 Clouds 5 1020 65 10000 4.1 240 20:41 17.01.2020
4481 Clouds 5 1020 74 10000 3.6 250 20:21 17.01.2020
4482 Clouds 5 1020 78 10000 3.6 250 20:21 17.01.2020
4483 Clouds 5 1020 70 10000 3.6 230 19:58 17.01.2020
4484 Clouds 4 1020 74 10000 3.1 230 19:38 17.01.2020
4485 Clouds 5 1019 74 10000 3.1 210 19:20 17.01.2020
4486 Clouds 5 1019 74 10000 2.1 200 18:58 17.01.2020
4487 Clouds 5 1019 74 10000 2.1 200 18:58 17.01.2020
4488 Clouds 5 1019 70 10000 3.1 210 18:39 17.01.2020
4489 Clouds 5 1019 70 10000 3.1 210 18:21 17.01.2020
4490 Clouds 6 1019 56 10000 2.1 200 17:40 17.01.2020
4491 Clouds 7 1019 52 10000 2.6 250 17:21 17.01.2020
4492 Clouds 7 1019 69 10000 3.6 250 16:57 17.01.2020
4493 Clouds 7 1019 57 10000 3.6 250 16:38 17.01.2020
4494 Clouds 8 1019 57 10000 3.6 250 16:19 17.01.2020
4495 Clouds 9 1019 69 10000 4.6 250 15:45 17.01.2020
4496 Clouds 10 1019 69 10000 5.1 270 15:26 17.01.2020
4497 Clear 10 1019 50 10000 6.2 250 14:45 17.01.2020
4498 Clouds 10 1019 50 10000 4.6 250 14:27 17.01.2020
4499 Clouds 10 1020 50 10000 5.7 240 13:58 17.01.2020
4500 Clouds 10 1020 53 10000 6.2 240 13:38 17.01.2020
4501 Clouds 9 1020 53 10000 6.2 240 13:19 17.01.2020
4502 Clouds 9 1020 57 10000 6.2 230 12:44 17.01.2020
4503 Clouds 8 1021 57 10000 4.1 220 12:22 17.01.2020
4504 Clouds 7 1021 57 10000 4.6 230 11:40 17.01.2020
4505 Clouds 5 1021 70 10000 4.1 220 11:19 17.01.2020
4506 Clouds 4 1021 70 10000 4.6 220 10:44 17.01.2020
4507 Clouds 3 1021 80 10000 4.6 220 10:23 17.01.2020
4508 Rain 2 1021 57 10000 5.1 220 09:59 17.01.2020
4509 Clouds 1 1021 80 10000 5.7 220 09:41 17.01.2020
4510 Clouds 0 1021 80 10000 5.7 220 09:20 17.01.2020
4511 Clouds 0 1021 80 10000 5.7 220 09:20 17.01.2020
4512 Clouds 0 1021 80 10000 5.1 220 08:46 17.01.2020
4513 Clear -1 1021 80 10000 6.2 220 08:25 17.01.2020
4514 Clouds -1 1021 80 10000 6.2 220 08:25 17.01.2020
4515 Clear -1 1021 78 10000 5.1 220 07:56 17.01.2020
4516 Clear -1 1021 78 10000 5.1 220 07:56 17.01.2020
4517 Clear -2 1021 92 10000 4.6 210 07:36 17.01.2020
4518 Clear -2 1021 92 10000 4.6 210 07:18 17.01.2020
4519 Clear -2 1021 100 10000 2.1 180 06:41 17.01.2020
4520 Clear -2 1021 100 9000 2.6 210 05:59 17.01.2020
4521 Fog -3 1022 100 10000 1 190 03:44 17.01.2020
4522 Fog -2 1022 92 8000 2.6 180 02:55 17.01.2020
4523 Fog -2 1023 100 300 0.5 160 02:28 17.01.2020
4524 Fog -2 1023 92 8000 2.1 170 01:32 17.01.2020
4525 Fog -1 1023 92 10000 0.5 190 00:58 17.01.2020
4526 Fog -1 1023 92 10000 0.5 190 00:29 17.01.2020
4527 Clear 0 1024 100 10000 2.1 40 23:56 16.01.2020
4528 Clear 1 1024 100 10000 2.1 40 23:38 16.01.2020
4529 Clear 0 1024 100 10000 2.1 40 23:19 16.01.2020
4530 Clear 1 1024 86 10000 1.5 50 22:40 16.01.2020
4531 Clear 1 1025 93 10000 0.5 0 22:21 16.01.2020
4532 Clear 1 1025 91 10000 1 0 21:57 16.01.2020
4533 Clear 1 1025 91 10000 1 30 21:37 16.01.2020
4534 Clear 1 1025 91 10000 1.5 80 21:19 16.01.2020
4535 Clear 1 1025 86 10000 0.5 0 20:56 16.01.2020
4536 Clear 2 1025 86 10000 0.5 0 20:38 16.01.2020
4537 Clouds 3 1026 75 10000 2.6 60 20:19 16.01.2020
4538 Clouds 3 1026 75 10000 2.6 60 19:56 16.01.2020
4539 Clouds 3 1026 91 10000 2.6 40 19:37 16.01.2020
4540 Clouds 4 1026 80 10000 2.1 20 19:19 16.01.2020
4541 Clouds 3 1026 80 10000 2.1 20 19:19 16.01.2020
4542 Clouds 4 1026 75 10000 2.1 80 18:55 16.01.2020
4543 Clouds 5 1026 75 10000 3.1 90 18:37 16.01.2020
4544 Clouds 5 1026 70 10000 3.1 90 18:18 16.01.2020
4545 Clouds 5 1026 70 10000 3.1 90 17:42 16.01.2020
4546 Clouds 7 1026 65 10000 2.6 80 17:23 16.01.2020
4547 Clouds 8 1026 61 10000 3.6 80 16:57 16.01.2020
4548 Clouds 8 1026 57 10000 5.1 70 16:39 16.01.2020
4549 Clouds 9 1026 57 10000 5.1 70 16:19 16.01.2020
4550 Clouds 9 1026 53 10000 4.6 70 15:44 16.01.2020
4551 Clouds 10 1026 53 10000 4.6 70 15:24 16.01.2020
4552 Clouds 10 1027 53 10000 4.1 50 14:59 16.01.2020
4553 Clouds 10 1026 57 10000 4.1 60 14:41 16.01.2020
4554 Clouds 10 1027 53 10000 4.1 10 14:22 16.01.2020
4555 Clouds 10 1027 46 10000 4.6 20 13:45 16.01.2020
4556 Clouds 10 1028 46 10000 4.1 30 13:26 16.01.2020
4557 Clouds 10 1028 70 10000 2.6 50 12:57 16.01.2020
4558 Clouds 10 1028 53 10000 2.6 40 12:38 16.01.2020
4559 Clouds 10 1028 70 10000 2.6 90 12:20 16.01.2020
4560 Clouds 9 1029 70 10000 1.5 150 11:41 16.01.2020
4561 Clouds 9 1029 70 10000 1.5 150 11:41 16.01.2020
4562 Clouds 7 1029 80 10000 1.5 150 11:23 16.01.2020
4563 Clouds 6 1029 80 10000 0.79 114 10:55 16.01.2020
4564 Clouds 6 1029 80 10000 0.79 114 10:55 16.01.2020
4565 Clouds 5 1029 75 10000 1 120 10:37 16.01.2020
4566 Clouds 5 1029 80 10000 0.79 114 10:19 16.01.2020
4567 Clouds 4 1029 70 10000 0.5 220 09:43 16.01.2020
4568 Clouds 4 1029 80 10000 1 220 09:24 16.01.2020
4569 Clouds 3 1029 80 10000 2.6 210 08:58 16.01.2020
4570 Clouds 4 1029 77 10000 1 190 08:40 16.01.2020
4571 Clouds 4 1029 76 10000 1 190 08:19 16.01.2020
4572 Clouds 4 1028 76 10000 1.5 220 07:42 16.01.2020
4573 Clouds 4 1028 60 10000 3.1 160 07:24 16.01.2020
4574 Rain 4 1028 76 10000 2.6 150 06:54 16.01.2020
4575 Rain 4 1028 60 10000 2.1 140 06:34 16.01.2020
4576 Rain 4 1028 75 10000 2.6 210 05:51 16.01.2020
4577 Rain 4 1028 75 10000 3.6 220 04:51 16.01.2020
4578 Rain 3 1028 75 10000 3.6 210 04:21 16.01.2020
4579 Rain 4 1027 75 10000 3.6 210 03:27 16.01.2020
4580 Clear 3 1027 76 10000 4.6 210 02:21 16.01.2020
4581 Clear 3 1026 68 10000 6.2 220 00:44 16.01.2020
4582 Clear 3 1026 68 10000 6.2 220 00:23 16.01.2020
4583 Clouds 3 1025 60 10000 4.1 190 23:45 15.01.2020
4584 Clear 2 1026 65 10000 4.6 220 23:22 15.01.2020
4585 Clear 2 1025 65 10000 3.6 220 22:57 15.01.2020
4586 Clear 2 1025 65 10000 4.1 210 22:39 15.01.2020
4587 Clear 2 1025 65 10000 4.1 210 22:18 15.01.2020
4588 Clear 2 1025 69 10000 3.1 220 21:56 15.01.2020
4589 Clouds 2 1024 64 10000 3.1 190 21:37 15.01.2020
4590 Clear 3 1024 60 10000 5.1 200 21:19 15.01.2020
4591 Clear 3 1024 60 10000 4.1 210 20:56 15.01.2020
4592 Clear 3 1023 60 10000 3.6 190 20:38 15.01.2020
4593 Clear 3 1023 60 10000 3.6 190 20:19 15.01.2020
4594 Clear 2 1023 64 10000 3.6 230 19:54 15.01.2020
4595 Clear 3 1023 60 10000 4.1 240 19:36 15.01.2020
4596 Clear 3 1023 60 10000 4.1 240 19:18 15.01.2020
4597 Clear 3 1023 60 10000 4.1 240 19:18 15.01.2020
4598 Clear 3 1022 56 10000 4.1 240 18:56 15.01.2020
4599 Clear 4 1022 52 10000 5.1 230 18:37 15.01.2020
4600 Clear 4 1022 52 10000 5.1 230 18:19 15.01.2020
4601 Clear 4 1022 52 10000 5.1 230 18:19 15.01.2020
4602 Clear 4 1022 52 10000 5.1 230 18:19 15.01.2020
4603 Clear 4 1021 52 10000 4.1 240 17:55 15.01.2020
4604 Clouds 5 1021 56 10000 3.6 210 17:37 15.01.2020
4605 Clear 6 1020 56 10000 3.1 230 17:18 15.01.2020
4606 Clouds 7 1020 46 10000 4.1 220 16:40 15.01.2020
4607 Clear 8 1020 46 10000 2.6 220 16:22 15.01.2020
4608 Clear 8 1019 40 10000 2.6 210 15:57 15.01.2020
4609 Clouds 8 1020 43 10000 4.1 230 15:39 15.01.2020
4610 Clear 8 1019 34 10000 2.6 200 15:19 15.01.2020
4611 Clear 8 1019 34 10000 2.6 200 14:43 15.01.2020
4612 Clear 8 1019 34 10000 2.1 200 14:20 15.01.2020
4613 Clouds 8 1019 43 10000 2.6 220 13:46 15.01.2020
4614 Clear 7 1019 37 10000 1.5 220 13:27 15.01.2020
4615 Clear 7 1019 42 10000 2.1 210 12:59 15.01.2020
4616 Clear 9 1019 42 10000 2.1 210 12:40 15.01.2020
4617 Clear 8 1019 42 10000 2.6 210 12:20 15.01.2020
4618 Clear 7 1020 48 10000 1 230 11:58 15.01.2020
4619 Clouds 6 1019 45 10000 3.1 200 11:37 15.01.2020
4620 Clear 4 1020 55 10000 2.6 220 11:19 15.01.2020
4621 Clouds 2 1020 52 10000 2.6 190 10:46 15.01.2020
4622 Clear 1 1019 74 10000 1 180 10:27 15.01.2020
4623 Clear 0 1019 49 10000 1 160 09:54 15.01.2020
4624 Clouds -1 1020 64 10000 3.6 180 09:36 15.01.2020
4625 Clear -1 1019 74 10000 2.1 190 09:18 15.01.2020
4626 Clouds -2 1019 74 10000 3.1 180 08:41 15.01.2020
4627 Clouds -3 1019 79 10000 3.1 210 08:23 15.01.2020
4628 Clouds -2 1019 79 10000 3.1 240 07:53 15.01.2020
4629 Clouds -2 1019 74 10000 2.1 160 07:32 15.01.2020
4630 Clouds -2 1019 79 10000 1.5 190 06:47 15.01.2020
4631 Clouds -2 1019 79 10000 1.5 170 06:23 15.01.2020
4632 Clouds -1 1019 46 10000 1.5 200 04:45 15.01.2020
4633 Clouds -1 1019 86 10000 1.5 200 02:40 15.01.2020
4634 Clouds 0 1019 64 10000 1.5 200 01:43 15.01.2020
4635 Clouds 0 1019 45 10000 2.6 160 01:20 15.01.2020
4636 Clouds 1 1019 69 10000 2.6 170 00:37 15.01.2020
4637 Clouds 1 1019 55 10000 2.6 190 00:19 15.01.2020
4638 Clouds 2 1019 55 10000 2.6 190 23:46 14.01.2020
4639 Clouds 2 1019 64 10000 1.5 190 23:24 14.01.2020
4640 Clouds 2 1019 74 10000 2.6 160 22:54 14.01.2020
4641 Clouds 2 1019 69 10000 2.1 170 22:36 14.01.2020
4642 Clouds 2 1019 69 10000 2.1 170 22:18 14.01.2020
4643 Clouds 2 1019 69 10000 2.6 170 21:55 14.01.2020
4644 Clouds 2 1019 48 10000 3.6 180 21:37 14.01.2020
4645 Clouds 2 1019 59 10000 1.5 230 21:19 14.01.2020
4646 Clouds 2 1019 59 10000 1.5 230 20:42 14.01.2020
4647 -273 0 0 0 0 0 20:22 14.01.2020
4648 Clouds 3 1019 59 10000 2.1 170 19:57 14.01.2020
4649 Clouds 3 1019 48 10000 2.1 150 19:38 14.01.2020
4650 Clouds 3 1019 48 10000 2.1 150 19:38 14.01.2020
4651 Clouds 4 1019 48 10000 2.1 150 19:20 14.01.2020
4652 Clouds 3 1019 52 10000 1 0 18:59 14.01.2020
4653 Clouds 3 1019 52 10000 1 0 18:40 14.01.2020
4654 Clouds 5 1018 45 10000 2.6 180 18:19 14.01.2020
4655 Clouds 5 1018 45 10000 2.6 180 18:19 14.01.2020
4656 Clouds 5 1018 45 10000 2.6 180 17:39 14.01.2020
4657 Clouds 6 1018 39 10000 3.6 240 17:20 14.01.2020
4658 Clouds 7 1018 42 10000 4.1 230 16:59 14.01.2020
4659 Clouds 7 1018 42 10000 4.1 210 16:41 14.01.2020
4660 Clouds 8 1018 37 10000 3.6 220 16:21 14.01.2020
4661 Clouds 8 1018 37 10000 2.6 220 15:56 14.01.2020
4662 Clouds 8 1018 37 10000 2.1 220 15:38 14.01.2020
4663 Clouds 8 1018 37 10000 2.1 220 15:18 14.01.2020
4664 Clouds 9 1018 37 10000 2.1 220 15:18 14.01.2020
4665 Clouds 8 1017 32 10000 4.1 220 14:43 14.01.2020
4666 Clouds 8 1017 34 10000 3.1 220 14:20 14.01.2020
4667 Clouds 8 1018 37 10000 3.6 220 13:55 14.01.2020
4668 Clouds 8 1017 37 10000 4.1 200 13:37 14.01.2020
4669 Clouds 8 1018 37 10000 2.6 210 13:18 14.01.2020
4670 Clouds 7 1018 56 10000 1.28 233 12:41 14.01.2020
4671 Clouds 7 1018 45 10000 3.1 210 12:20 14.01.2020
4672 Clouds 6 1018 52 10000 2.1 220 11:43 14.01.2020
4673 Clouds 4 1018 64 10000 3.1 220 11:25 14.01.2020
4674 Clouds 3 1018 64 10000 3.1 220 10:59 14.01.2020
4675 Clouds 2 1018 64 10000 3.1 220 10:40 14.01.2020
4676 Clouds 1 1018 74 10000 2.1 210 10:20 14.01.2020
4677 Clouds 0 1017 69 10000 2.6 220 09:58 14.01.2020
4678 Clouds -1 1017 59 10000 3.6 190 09:40 14.01.2020
4679 Clouds -1 1017 37 10000 0.5 0 09:21 14.01.2020
4680 Clouds -2 1017 86 10000 1 0 08:48 14.01.2020
4681 Clouds -2 1017 86 10000 3.1 220 08:25 14.01.2020
4682 Clouds -2 1017 86 10000 3.1 220 07:56 14.01.2020
4683 Clouds -2 1016 86 10000 4.1 230 07:34 14.01.2020
4684 Clouds -2 1016 86 10000 4.1 230 07:34 14.01.2020
4685 Clouds -2 1016 74 10000 1 0 06:57 14.01.2020
4686 Clouds -2 1016 74 10000 4.6 180 06:39 14.01.2020
4687 Clouds -2 1016 74 10000 4.6 180 06:39 14.01.2020
4688 Clouds -2 1016 64 10000 2.1 170 05:28 14.01.2020
4689 Clouds -2 1017 47 10000 2.6 170 04:22 14.01.2020
4690 Clouds -2 1017 79 10000 2.6 200 03:35 14.01.2020
4691 Clouds -2 1017 79 10000 1.5 200 02:26 14.01.2020
4692 Clouds -2 1018 79 10000 2.1 210 01:18 14.01.2020
4693 Clouds -1 1017 86 10000 2.1 210 00:39 14.01.2020
4694 Clouds -1 1017 86 10000 2.1 210 00:21 14.01.2020
4695 Fog -1 1018 100 10000 2.2 177 23:38 13.01.2020
4696 Clear -1 1018 57 10000 2.1 170 23:18 13.01.2020
4697 Clear -1 1018 57 10000 2.6 160 22:54 13.01.2020
4698 Clear 0 1018 86 10000 3.1 210 22:36 13.01.2020
4699 Clear 0 1018 86 10000 3.1 210 22:18 13.01.2020
4700 Clear 0 1019 57 10000 1 0 21:54 13.01.2020
4701 Clear 0 1019 57 10000 1 0 21:54 13.01.2020
4702 Clear 0 1019 80 10000 1.5 220 21:36 13.01.2020
4703 Clear 0 1019 80 10000 1.5 220 21:18 13.01.2020
4704 Clear 1 1019 57 10000 2.1 220 20:42 13.01.2020
4705 Clouds 1 1019 64 10000 0.5 0 20:23 13.01.2020
4706 Clouds 1 1019 64 10000 2.1 170 19:59 13.01.2020
4707 Clouds 2 1019 69 10000 1.5 160 19:41 13.01.2020
4708 Clouds 2 1019 69 10000 1.5 160 19:20 13.01.2020
4709 Clouds 2 1020 64 10000 3.1 160 18:58 13.01.2020
4710 Clouds 2 1020 64 10000 3.1 160 18:58 13.01.2020
4711 Clouds 2 1020 74 10000 2.1 160 18:38 13.01.2020
4712 Clouds 3 1020 74 10000 2.1 160 18:19 13.01.2020
4713 Clouds 2 1020 74 10000 2.1 160 18:19 13.01.2020
4714 Clouds 3 1020 74 10000 1.5 170 17:58 13.01.2020
4715 Clouds 3 1019 64 10000 3.1 140 17:38 13.01.2020
4716 Clouds 4 1020 64 10000 1.5 150 17:20 13.01.2020
4717 Clouds 5 1020 60 10000 1.5 130 16:42 13.01.2020
4718 Clouds 5 1020 60 10000 1.5 130 16:23 13.01.2020
4719 Clouds 5 1020 57 0 0.26 55 15:59 13.01.2020
4720 Clouds 5 1020 52 10000 1 110 15:41 13.01.2020
4721 Clouds 5 1020 52 10000 1 110 15:21 13.01.2020
4722 Clouds 5 1020 52 10000 1 110 14:54 13.01.2020
4723 Mist 5 1022 86 5000 1 0 14:36 13.01.2020
4724 Mist 5 1022 86 5000 1 0 14:18 13.01.2020
4725 Mist 5 1022 86 5000 1 0 13:40 13.01.2020
4726 Clouds 5 1021 59 0 0.51 179 13:22 13.01.2020
4727 Clouds 5 1021 62 0 0.45 179 12:58 13.01.2020
4728 Clouds 4 1023 64 10000 1 0 12:40 13.01.2020
4729 Clouds 4 1023 64 10000 1 0 12:21 13.01.2020
4730 Clouds 4 1023 64 10000 1 0 11:54 13.01.2020
4731 Clouds 3 1023 74 10000 1.5 170 11:36 13.01.2020
4732 Clouds 2 1023 74 10000 1.5 170 11:18 13.01.2020
4733 Clouds 2 1023 74 10000 1.5 170 11:18 13.01.2020
4734 Clouds 1 1023 86 10000 0.57 124 10:55 13.01.2020
4735 Clouds 1 1023 52 10000 1 190 10:36 13.01.2020
4736 Clouds 1 1023 52 10000 1 190 10:18 13.01.2020
4737 Clouds 1 1023 92 10000 1 0 09:40 13.01.2020
4738 Clouds 1 1024 86 10000 1 0 09:40 13.01.2020
4739 Clouds 0 1024 86 10000 1 0 09:22 13.01.2020
4740 Clouds 0 1024 92 10000 1.5 140 08:42 13.01.2020
4741 Clouds 0 1024 92 10000 1.5 230 08:21 13.01.2020
4742 Clouds 0 1024 86 10000 1 170 07:57 13.01.2020
4743 Clouds -1 1024 92 10000 2.6 160 07:38 13.01.2020
4744 Clouds -1 1024 92 10000 1.5 180 06:55 13.01.2020
4745 Clouds -1 1024 92 10000 1.5 150 06:36 13.01.2020
4746 Clouds -1 1024 92 10000 1.5 150 06:36 13.01.2020
4747 Clouds -1 1025 92 10000 0.5 0 05:36 13.01.2020
4748 Clouds 0 1025 86 10000 1.5 170 04:25 13.01.2020
4749 Clouds 0 1026 92 10000 1.5 190 03:34 13.01.2020
4750 Clouds 0 1026 86 10000 2.1 180 02:49 13.01.2020
4751 Clouds 0 1027 92 10000 0.5 0 02:29 13.01.2020
4752 Clouds 0 1027 92 10000 0.5 0 02:29 13.01.2020
4753 Clouds -1 1026 92 10000 1.5 150 01:33 13.01.2020
4754 Clouds -1 1026 92 10000 1 0 00:44 13.01.2020
4755 Clouds -1 1026 92 10000 1.5 210 00:25 13.01.2020
4756 Clouds -1 1027 86 9000 0.5 0 23:57 12.01.2020
4757 Clouds 0 1027 92 6000 0.5 0 23:38 12.01.2020
4758 Clouds 0 1027 92 6000 0.5 0 23:20 12.01.2020
4759 Clouds -1 1027 92 10000 1.5 210 22:43 12.01.2020
4760 Clouds -1 1027 92 10000 1.5 210 22:24 12.01.2020
4761 Clouds -1 1027 86 10000 1.5 210 21:59 12.01.2020
4762 Clouds -1 1027 86 10000 1.5 210 21:59 12.01.2020
4763 Clouds -1 1027 92 10000 1.5 230 21:40 12.01.2020
4764 Clouds -1 1027 92 10000 1.5 230 21:20 12.01.2020
4765 Clouds -1 1027 66 10000 1.5 200 20:58 12.01.2020
4766 Clouds 0 1027 65 10000 1 0 20:39 12.01.2020
4767 Clouds 0 1027 62 10000 1 0 20:21 12.01.2020
4768 Clouds 0 1027 100 10000 0.5 0 19:56 12.01.2020
4769 Clouds 0 1027 100 10000 0.5 0 19:56 12.01.2020
4770 Clouds 0 1027 100 10000 0.5 0 19:56 12.01.2020
4771 Clouds 0 1026 92 10000 1 180 19:38 12.01.2020
4772 Clouds 0 1027 62 10000 0.5 0 19:38 12.01.2020
4773 Clouds 0 1026 62 10000 0.5 0 19:19 12.01.2020
4774 Clouds 0 1026 62 10000 0.5 0 18:58 12.01.2020
4775 Clouds 0 1026 62 10000 0.5 0 18:40 12.01.2020
4776 Clouds 0 1026 92 10000 0.5 0 18:21 12.01.2020
4777 Clouds 1 1026 86 10000 1 150 17:58 12.01.2020
4778 Clouds 1 1026 86 10000 1 150 17:40 12.01.2020
4779 Clouds 1 1025 57 10000 1 0 17:19 12.01.2020
4780 Clouds 2 1025 57 10000 1 350 16:56 12.01.2020
4781 Clouds 3 1025 57 10000 2.1 210 16:37 12.01.2020
4782 Clouds 3 1025 57 10000 2.1 210 16:19 12.01.2020
4783 Clouds 3 1025 57 10000 2.6 230 15:43 12.01.2020
4784 Clouds 3 1025 60 10000 1.5 250 15:24 12.01.2020
4785 Clouds 4 1025 65 10000 2.1 240 14:57 12.01.2020
4786 Clouds 4 1026 57 10000 2.1 280 14:38 12.01.2020
4787 Clouds 4 1026 49 10000 2.6 220 14:20 12.01.2020
4788 Clouds 4 1026 49 10000 3.1 240 13:55 12.01.2020
4789 Clear 3 1026 47 10000 2.6 200 13:36 12.01.2020
4790 Clear 4 1026 47 10000 2.6 200 13:18 12.01.2020
4791 Clear 3 1026 47 10000 2.6 200 13:18 12.01.2020
4792 Fog 3 1028 100 1000 2.6 240 12:43 12.01.2020
4793 Clear 2 1027 47 10000 3.1 230 12:21 12.01.2020
4794 Clear 2 1027 80 10000 2.6 220 11:59 12.01.2020
4795 Clear 2 1027 80 10000 2.6 220 11:40 12.01.2020
4796 Clear 0 1027 66 10000 2.6 210 11:21 12.01.2020
4797 Clear -1 1027 66 8000 2.6 230 10:43 12.01.2020
4798 Clear -2 1027 92 10000 1.5 220 10:23 12.01.2020
4799 Clear -2 1027 92 10000 1.5 220 09:59 12.01.2020
4800 Clear -2 1027 92 10000 1.5 220 09:41 12.01.2020
4801 Clear -3 1026 92 10000 2.1 190 09:21 12.01.2020
4802 Clear -4 1027 92 10000 2.6 190 08:47 12.01.2020
4803 Clear -5 1026 100 10000 2.1 220 08:22 12.01.2020
4804 Clear -5 1026 92 10000 2.6 220 07:46 12.01.2020
4805 Clear -4 1026 100 10000 3.1 220 07:25 12.01.2020
4806 Clear -4 1027 100 10000 2.6 220 06:54 12.01.2020
4807 Clear -4 1027 100 10000 1 250 06:36 12.01.2020
4808 Clear -4 1027 100 10000 2.1 180 05:52 12.01.2020
4809 Clear -4 1027 100 10000 3.1 220 04:54 12.01.2020
4810 Clear -3 1028 100 8000 1 200 03:35 12.01.2020
4811 Clear -3 1028 100 8000 1.5 200 02:46 12.01.2020
4812 Clouds -3 1028 92 6000 2.1 220 02:24 12.01.2020
4813 Clouds -3 1029 100 4500 0.5 0 01:34 12.01.2020
4814 Clouds -3 1029 100 3600 1 180 00:46 12.01.2020
4815 Clouds -2 1029 100 7000 1 0 00:22 12.01.2020
4816 Clouds -2 1030 100 10000 2.6 160 23:56 11.01.2020
4817 Clouds -2 1030 100 100 1 220 23:38 11.01.2020
4818 Clouds -2 1030 100 1000 0.5 190 23:18 11.01.2020
4819 Clouds -2 1030 100 9000 0.5 0 22:56 11.01.2020
4820 Clouds -2 1030 100 100 1 140 22:37 11.01.2020
4821 Clouds -2 1030 92 1000 0.8 119 22:19 11.01.2020
4822 Clouds -1 1030 100 10000 1 150 21:44 11.01.2020
4823 Clouds 0 1030 92 10000 0.5 0 21:19 11.01.2020
4824 Clouds 0 1030 100 10000 0.8 119 20:57 11.01.2020
4825 Clouds 0 1030 100 10000 0.8 119 20:39 11.01.2020
4826 Clouds 1 1030 91 10000 0.5 0 20:19 11.01.2020
4827 Clouds 1 1030 91 10000 1 0 19:57 11.01.2020
4828 Clouds 1 1031 91 10000 1.5 130 19:38 11.01.2020
4829 Clouds 1 1030 91 10000 1 0 19:38 11.01.2020
4830 Clouds 2 1031 91 10000 1.5 130 19:20 11.01.2020
4831 Clouds 1 1031 91 10000 0.5 150 18:55 11.01.2020
4832 Clouds 2 1031 91 10000 1 0 18:37 11.01.2020
4833 Clouds 2 1031 91 10000 1 0 18:18 11.01.2020
4834 Clouds 3 1031 91 10000 1.5 80 17:57 11.01.2020
4835 Clouds 3 1031 91 10000 1.5 60 17:39 11.01.2020
4836 Clouds 4 1031 80 10000 1.5 60 17:18 11.01.2020
4837 Clouds 4 1031 80 10000 1 100 16:44 11.01.2020
4838 Clouds 5 1031 80 10000 1 90 16:25 11.01.2020
4839 Rain 5 1031 80 10000 2.1 110 15:56 11.01.2020
4840 Rain 5 1031 80 10000 2.1 110 15:56 11.01.2020
4841 Rain 5 1032 80 10000 1.5 50 15:38 11.01.2020
4842 Rain 5 1032 69 10000 0.5 0 15:20 11.01.2020
4843 Clouds 5 1032 69 10000 2.1 20 14:46 11.01.2020
4844 Clouds 5 1032 69 650 1 0 14:25 11.01.2020
4845 Clouds 5 1032 74 100 1.5 330 13:58 11.01.2020
4846 Clouds 5 1032 74 2000 2.1 330 13:38 11.01.2020
4847 Clouds 5 1032 73 2000 2.1 330 13:20 11.01.2020
4848 Clouds 5 1032 73 150 1.5 360 12:56 11.01.2020
4849 Clouds 5 1033 73 10000 1.5 360 12:37 11.01.2020
4850 Clouds 5 1032 69 10000 1 0 12:19 11.01.2020
4851 Clouds 5 1033 73 10000 1.5 220 11:45 11.01.2020
4852 Clouds 4 1033 80 10000 1.5 200 11:24 11.01.2020
4853 Clouds 4 1033 86 10000 2.1 200 10:50 11.01.2020
4854 Clouds 4 1033 86 10000 1 210 10:30 11.01.2020
4855 Clouds 3 1033 86 10000 1.5 240 09:44 11.01.2020
4856 Clouds 3 1032 86 10000 2.1 320 09:21 11.01.2020
4857 Clouds 3 1033 86 10000 1 0 09:21 11.01.2020
4858 Clouds 3 1032 86 10000 2.1 320 09:21 11.01.2020
4859 Clouds 3 1033 86 10000 1 0 09:21 11.01.2020
4860 Clouds 3 1032 86 10000 2.1 320 08:59 11.01.2020
4861 Clouds 3 1033 86 10000 1 260 08:41 11.01.2020
4862 Clouds 3 1032 86 10000 4.1 340 08:20 11.01.2020
4863 Clouds 3 1032 86 10000 3.1 320 07:43 11.01.2020
4864 Clouds 3 1031 86 10000 2.1 250 07:24 11.01.2020
4865 Clouds 4 1031 93 10000 2.6 240 06:45 11.01.2020
4866 Clouds 4 1031 86 10000 3.1 250 05:33 11.01.2020
4867 Clouds 4 1031 80 10000 2.1 250 04:45 11.01.2020
4868 Clouds 4 1030 86 10000 2.6 270 04:27 11.01.2020
4869 Clouds 5 1030 75 10000 3.6 260 02:48 11.01.2020
4870 Rain 5 1029 93 10000 2.6 260 01:51 11.01.2020
4871 Rain 5 1029 93 10000 3.1 260 01:32 11.01.2020
4872 Rain 5 1028 86 10000 3.1 260 00:58 11.01.2020
4873 Rain 5 1028 86 10000 3.1 260 00:58 11.01.2020
4874 Rain 5 1028 86 10000 3.6 290 00:32 11.01.2020
4875 Rain 6 1028 93 8000 5.1 290 23:59 10.01.2020
4876 Rain 6 1028 93 8000 5.1 290 23:39 10.01.2020
4877 Rain 6 1027 81 10000 7.2 250 23:21 10.01.2020
4878 Rain 7 1027 81 10000 7.2 250 22:56 10.01.2020
4879 Rain 7 1028 81 9000 4.6 260 22:38 10.01.2020
4880 Rain 7 1027 75 10000 4.6 250 22:19 10.01.2020
4881 Rain 7 1026 70 10000 5.7 240 21:55 10.01.2020
4882 Rain 7 1027 75 10000 4.6 240 21:36 10.01.2020
4883 Rain 7 1026 70 10000 6.2 240 21:18 10.01.2020
4884 Rain 7 1025 75 10000 5.1 230 20:42 10.01.2020
4885 Clouds 7 1025 70 10000 5.7 220 20:24 10.01.2020
4886 Clouds 8 1025 70 10000 5.7 220 20:24 10.01.2020
4887 Clouds 7 1025 70 10000 6.2 220 19:55 10.01.2020
4888 Clouds 7 1024 70 10000 5.7 230 19:37 10.01.2020
4889 Clouds 7 1024 70 10000 5.7 230 19:19 10.01.2020
4890 Clouds 7 1024 70 10000 4.1 230 18:41 10.01.2020
4891 Clouds 8 1024 70 10000 4.1 220 18:19 10.01.2020
4892 Clouds 8 1023 70 10000 4.6 220 17:57 10.01.2020
4893 Clouds 8 1023 70 10000 4.1 200 17:39 10.01.2020
4894 Clouds 8 1023 70 10000 5.1 220 17:20 10.01.2020
4895 Clouds 8 1022 70 10000 5.7 230 16:56 10.01.2020
4896 Clouds 8 1022 65 10000 5.7 200 16:37 10.01.2020
4897 Clouds 9 1022 65 10000 6.7 240 16:19 10.01.2020
4898 Clouds 9 1022 65 10000 6.7 250 15:56 10.01.2020
4899 Clouds 9 1022 61 10000 7.7 240 15:36 10.01.2020
4900 Clouds 9 1022 61 10000 7.7 240 15:18 10.01.2020
4901 Clouds 10 1021 61 10000 6.7 250 14:55 10.01.2020
4902 Clouds 10 1021 57 10000 7.7 250 14:37 10.01.2020
4903 Clouds 10 1021 57 10000 7.7 250 14:18 10.01.2020
4904 Clouds 10 1021 57 10000 7.2 250 13:43 10.01.2020
4905 Clear 10 1021 53 10000 7.2 260 13:25 10.01.2020
4906 Clear 10 1021 57 10000 8.2 250 12:58 10.01.2020
4907 Clear 10 1021 57 10000 7.7 250 12:39 10.01.2020
4908 Clear 9 1021 57 10000 7.7 250 12:19 10.01.2020
4909 Clear 9 1021 57 10000 7.7 250 12:19 10.01.2020
4910 Clear 9 1021 61 10000 5.1 250 11:56 10.01.2020
4911 Clear 8 1021 61 10000 4.6 240 11:38 10.01.2020
4912 Clear 8 1021 61 10000 4.6 240 11:38 10.01.2020
4913 Clear 8 1021 61 10000 4.6 240 11:38 10.01.2020
4914 Clear 8 1021 61 10000 4.6 240 11:18 10.01.2020
4915 Clear 7 1021 65 10000 4.1 220 10:58 10.01.2020
4916 Clear 7 1020 70 10000 3.6 240 10:36 10.01.2020
4917 Clear 6 1020 70 10000 3.6 240 10:18 10.01.2020
4918 Clouds 5 1020 65 10000 4.6 210 09:43 10.01.2020
4919 Clear 4 1020 75 10000 4.6 220 09:24 10.01.2020
4920 Clouds 4 1019 69 10000 5.1 220 08:43 10.01.2020
4921 Clouds 3 1019 69 10000 5.1 220 08:24 10.01.2020
4922 Clouds 3 1019 69 10000 5.1 220 08:24 10.01.2020
4923 Clouds 3 1019 64 10000 4.6 230 07:58 10.01.2020
4924 Clouds 3 1019 60 10000 3.6 210 07:39 10.01.2020
4925 Clouds 3 1019 60 10000 4.1 210 07:19 10.01.2020
4926 Clouds 3 1019 60 10000 3.6 210 06:27 10.01.2020
4927 Clouds 3 1019 59 10000 3.6 220 05:59 10.01.2020
4928 Clouds 2 1018 52 10000 3.6 200 04:44 10.01.2020
4929 Clouds 1 1017 74 10000 6.2 220 03:31 10.01.2020
4930 Clouds 1 1017 74 10000 6.2 220 03:31 10.01.2020
4931 Clouds 1 1017 80 10000 1.5 190 02:52 10.01.2020
4932 Clouds 1 1017 80 10000 2.1 200 02:19 10.01.2020
4933 Clouds 1 1016 80 10000 3.6 240 01:30 10.01.2020
4934 Clouds 1 1016 69 10000 3.1 240 00:51 10.01.2020
4935 Clouds 1 1016 74 10000 2.6 200 00:33 10.01.2020
4936 Clouds 2 1017 69 10000 2.1 180 23:57 09.01.2020
4937 Clouds 2 1017 69 10000 2.1 180 23:57 09.01.2020
4938 Clouds 2 1017 69 10000 1 0 23:36 09.01.2020
4939 Clouds 2 1017 69 10000 1 0 23:18 09.01.2020
4940 Clouds 2 1017 64 10000 2.6 160 22:56 09.01.2020
4941 Clouds 3 1017 64 10000 2.6 170 22:37 09.01.2020
4942 Clouds 3 1017 64 10000 2.6 170 22:18 09.01.2020
4943 Clouds 3 1018 69 10000 1.5 160 21:55 09.01.2020
4944 Clouds 3 1018 80 10000 4.1 210 21:37 09.01.2020
4945 Clouds 3 1018 80 10000 4.1 210 21:18 09.01.2020
4946 Clouds 3 1018 80 10000 2.1 180 20:55 09.01.2020
4947 Clouds 3 1018 80 10000 2.1 180 20:37 09.01.2020
4948 Clouds 3 1018 80 10000 1.5 200 20:18 09.01.2020
4949 Clouds 3 1018 80 10000 1.5 200 20:18 09.01.2020
4950 Clouds 3 1018 69 10000 1.5 170 19:39 09.01.2020
4951 Clouds 4 1019 74 10000 2.1 150 19:21 09.01.2020
4952 Clouds 4 1019 74 10000 2.6 150 18:57 09.01.2020
4953 Clouds 5 1019 74 10000 2.6 150 18:39 09.01.2020
4954 Clouds 5 1019 80 10000 1 0 18:21 09.01.2020
4955 Clouds 6 1019 75 10000 0.5 0 17:57 09.01.2020
4956 Clouds 6 1019 75 10000 0.5 0 17:39 09.01.2020
4957 Clouds 8 1019 75 10000 1 0 17:18 09.01.2020
4958 Clouds 8 1019 70 10000 1 170 16:42 09.01.2020
4959 Clouds 10 1019 57 10000 1.5 200 16:21 09.01.2020
4960 Clouds 10 1019 53 10000 3.1 220 15:43 09.01.2020
4961 Clouds 11 1019 53 10000 3.1 220 15:25 09.01.2020
4962 Clouds 11 1020 53 10000 2.6 210 14:59 09.01.2020
4963 Clouds 11 1020 53 10000 2.6 210 14:41 09.01.2020
4964 Clouds 11 1020 37 10000 3.6 210 14:19 09.01.2020
4965 Clouds 11 1020 37 10000 3.6 220 13:57 09.01.2020
4966 Clouds 11 1020 37 10000 3.6 220 13:38 09.01.2020
4967 Clouds 11 1021 40 10000 3.6 220 13:19 09.01.2020
4968 Clouds 11 1021 51 10000 2.1 220 12:57 09.01.2020
4969 Clouds 11 1021 51 10000 2.1 220 12:38 09.01.2020
4970 Clouds 10 1021 51 10000 2.6 220 12:18 09.01.2020
4971 Clouds 9 1022 37 10000 2.6 210 11:42 09.01.2020
4972 Clouds 7 1022 56 10000 2.1 190 11:24 09.01.2020
4973 Clouds 6 1023 45 10000 2.1 200 10:59 09.01.2020
4974 Clouds 6 1023 45 10000 2.1 200 10:41 09.01.2020
4975 Clouds 5 1023 45 10000 3.6 180 10:21 09.01.2020
4976 Clouds 4 1023 65 10000 1.5 190 09:49 09.01.2020
4977 Clouds 3 1023 69 10000 2.1 200 09:26 09.01.2020
4978 Clouds 2 1024 74 10000 3.1 200 08:59 09.01.2020
4979 Clouds 2 1024 74 10000 3.1 200 08:40 09.01.2020
4980 Clouds 2 1024 74 10000 1.5 170 08:22 09.01.2020
4981 Clouds 2 1024 74 10000 2.6 210 07:57 09.01.2020
4982 Clouds 2 1024 74 10000 2.6 210 07:38 09.01.2020
4983 Clouds 2 1024 80 10000 2.6 200 07:19 09.01.2020
4984 Clouds 2 1024 74 10000 1.5 170 06:38 09.01.2020
4985 Clouds 2 1024 69 10000 1.5 210 06:18 09.01.2020
4986 Clouds 2 1024 80 10000 1.5 230 05:40 09.01.2020
4987 Clouds 2 1025 74 10000 1.5 220 04:42 09.01.2020
4988 Clouds 2 1025 74 10000 1.5 220 04:42 09.01.2020
4989 Clouds 3 1025 52 10000 1.69 208 03:28 09.01.2020
4990 Clouds 4 1026 56 10000 4.1 150 02:47 09.01.2020
4991 Clouds 4 1027 65 10000 2.1 190 01:56 09.01.2020
4992 Clouds 4 1027 65 10000 2.1 190 01:34 09.01.2020
4993 Clouds 3 1027 53 10000 1.5 160 00:40 09.01.2020
4994 Clouds 4 1027 69 10000 2.1 200 00:20 09.01.2020
4995 Clouds 3 1027 64 10000 1.5 210 23:41 08.01.2020
4996 Clouds 4 1027 65 10000 0.5 0 23:23 08.01.2020
4997 Clouds 3 1027 50 10000 2.1 180 22:58 08.01.2020
4998 Clouds 3 1027 50 10000 2.1 180 22:38 08.01.2020
4999 Clouds 3 1028 50 10000 1.5 170 22:20 08.01.2020
5000 Clouds 3 1028 50 10000 1.5 170 21:57 08.01.2020
5001 Clouds 3 1028 50 10000 1 0 21:38 08.01.2020
5002 Clouds 4 1028 74 10000 1.5 210 21:19 08.01.2020
5003 Clouds 4 1028 74 10000 1.5 210 20:57 08.01.2020
5004 Clouds 4 1027 69 10000 1 160 20:38 08.01.2020
5005 Clouds 4 1028 55 10000 1 190 20:20 08.01.2020
5006 Clouds 4 1028 60 10000 1.5 150 19:56 08.01.2020
5007 Clouds 4 1028 55 10000 1 190 19:56 08.01.2020
5008 Clouds 4 1028 60 10000 1.5 150 19:37 08.01.2020
5009 Clouds 4 1028 60 10000 1.5 150 19:37 08.01.2020
5010 Clouds 4 1028 69 10000 2.1 230 19:18 08.01.2020
5011 Clouds 4 1028 64 10000 0.5 0 18:55 08.01.2020
5012 Clouds 4 1028 64 10000 0.5 0 18:37 08.01.2020
5013 Clouds 3 1028 55 10000 1.5 200 18:18 08.01.2020
5014 Clouds 3 1028 69 10000 1 0 17:47 08.01.2020
5015 Clouds 3 1028 69 10000 1 0 17:24 08.01.2020
5016 Clouds 3 1028 69 10000 1 0 17:24 08.01.2020
5017 Clouds 3 1028 60 10000 1 0 16:57 08.01.2020
5018 Clouds 3 1028 69 10000 1.5 190 16:39 08.01.2020
5019 Clouds 4 1028 80 10000 1 0 16:19 08.01.2020
5020 Clouds 4 1028 80 10000 1 0 15:58 08.01.2020
5021 Clouds 3 1029 54 10000 0.5 340 15:39 08.01.2020
5022 Clouds 3 1028 86 10000 1.5 220 15:19 08.01.2020
5023 Clouds 3 1028 86 10000 1.5 220 14:56 08.01.2020
5024 Clouds 3 1028 86 10000 0.5 0 14:38 08.01.2020
5025 Clouds 3 1028 46 10000 2.6 230 14:19 08.01.2020
5026 Clouds 3 1029 46 10000 1 0 13:39 08.01.2020
5027 Clouds 2 1029 46 10000 2.1 230 13:19 08.01.2020
5028 Clouds 2 1029 74 10000 2.6 150 12:42 08.01.2020
5029 Clouds 2 1029 80 10000 1.5 210 12:19 08.01.2020
5030 Clouds 1 1029 80 10000 1.5 210 11:55 08.01.2020
5031 Clouds 0 1030 46 10000 2.6 210 11:37 08.01.2020
5032 Clouds 0 1031 86 10000 1.5 110 11:19 08.01.2020
5033 Clouds 0 1030 51 10000 1.86 218 10:55 08.01.2020
5034 Clouds 0 1030 51 10000 1.86 218 10:37 08.01.2020
5035 Clouds 0 1029 51 10000 2.1 220 10:18 08.01.2020
5036 Clouds 0 1030 100 10000 1.5 180 09:41 08.01.2020
5037 Clouds 0 1029 51 10000 3.1 160 09:19 08.01.2020
5038 Clouds -1 1029 51 10000 3.1 160 08:56 08.01.2020
5039 Clouds -1 1028 92 10000 1.5 170 08:37 08.01.2020
5040 Clouds -2 1029 92 10000 1.5 220 08:19 08.01.2020
5041 Clouds -2 1029 92 10000 1.5 220 08:19 08.01.2020
5042 Clouds -2 1029 92 10000 1.5 220 07:48 08.01.2020
5043 Clouds -2 1028 100 10000 2.6 180 07:29 08.01.2020
5044 Clouds -2 1028 92 10000 1 0 06:45 08.01.2020
5045 -273 0 0 0 0 0 06:22 08.01.2020
5046 Clouds -3 1028 100 10000 1.5 210 05:41 08.01.2020
5047 Clear -2 1028 100 8000 2.1 180 04:56 08.01.2020
5048 Clear -2 1029 100 6000 2.6 170 04:25 08.01.2020
5049 Clear -1 1029 100 1300 1 0 02:45 08.01.2020
5050 Clear -1 1029 100 6000 2.6 160 02:22 08.01.2020
5051 Clear -1 1029 92 3700 2.6 160 01:48 08.01.2020
5052 Clear 0 1029 91 600 1.5 190 01:23 08.01.2020
5053 Rain 0 1029 91 2700 1.5 180 00:38 08.01.2020
5054 Rain 0 1029 100 7000 1.5 160 00:20 08.01.2020
5055 Clear 1 1030 91 10000 1 0 23:43 07.01.2020
5056 Clouds 1 1030 94 10000 1.5 140 23:20 07.01.2020
5057 Clouds 1 1030 94 9000 1 0 22:40 07.01.2020
5058 Clouds 1 1030 94 10000 1 0 22:20 07.01.2020
5059 Clouds 1 1030 94 10000 1 0 21:57 07.01.2020
5060 Clouds 1 1030 94 10000 2.1 150 21:39 07.01.2020
5061 Clouds 1 1030 94 6000 1 0 21:21 07.01.2020
5062 Clouds 1 1030 94 6000 1 0 20:57 07.01.2020
5063 Clouds 1 1031 100 9000 2.1 150 20:38 07.01.2020
5064 Clouds 2 1031 94 10000 1 140 20:20 07.01.2020
5065 Clouds 2 1031 94 10000 1 190 19:55 07.01.2020
5066 Clouds 2 1031 94 10000 1 190 19:36 07.01.2020
5067 Clouds 2 1031 94 5000 2.1 160 19:18 07.01.2020
5068 Clouds 2 1031 94 9000 2.6 150 18:55 07.01.2020
5069 Clouds 2 1031 94 9000 2.6 150 18:37 07.01.2020
5070 Clouds 3 1030 93 10000 1 0 18:18 07.01.2020
5071 Clouds 3 1030 93 10000 1 180 17:40 07.01.2020
5072 Clouds 3 1030 86 10000 1 170 17:22 07.01.2020
5073 Clouds 3 1030 86 10000 1 170 16:57 07.01.2020
5074 Clouds 3 1030 86 10000 1 180 16:38 07.01.2020
5075 Clouds 3 1030 86 10000 1 180 16:38 07.01.2020
5076 Clouds 3 1030 86 10000 1 180 16:38 07.01.2020
5077 Clouds 4 1030 86 10000 2.1 250 16:19 07.01.2020
5078 Rain 4 1029 86 10000 2.6 260 15:59 07.01.2020
5079 Rain 4 1029 86 10000 2.6 260 15:40 07.01.2020
5080 Rain 4 1029 86 10000 3.1 250 15:22 07.01.2020
5081 Rain 4 1029 86 10000 3.1 250 14:56 07.01.2020
5082 Rain 4 1029 86 10000 3.6 250 14:37 07.01.2020
5083 Rain 4 1029 86 10000 3.6 250 14:19 07.01.2020
5084 Clouds 4 1029 86 10000 4.1 250 13:40 07.01.2020
5085 Clouds 3 1029 93 10000 3.1 260 13:19 07.01.2020
5086 Rain 4 1029 86 10000 3.6 240 12:54 07.01.2020
5087 Rain 4 1029 86 10000 3.6 240 12:36 07.01.2020
5088 Rain 4 1029 86 10000 3.6 250 12:18 07.01.2020
5089 Rain 3 1029 86 10000 3.6 260 11:41 07.01.2020
5090 Clouds 3 1029 93 10000 4.6 230 11:21 07.01.2020
5091 Rain 3 1029 93 10000 6.2 230 10:43 07.01.2020
5092 Rain 2 1028 100 7000 5.1 240 10:24 07.01.2020
5093 Rain 2 1028 93 7000 8.2 260 09:59 07.01.2020
5094 Rain 3 1028 93 7000 8.2 260 09:38 07.01.2020
5095 Rain 2 1027 80 10000 5.1 240 09:20 07.01.2020
5096 Rain 2 1027 90 10000 7.2 250 08:47 07.01.2020
5097 Rain 1 1027 92 10000 7.2 250 08:28 07.01.2020
5098 Clouds 1 1025 69 10000 4.1 240 07:55 07.01.2020
5099 Clouds 0 1025 69 10000 4.1 240 07:35 07.01.2020
5100 Clouds 0 1025 64 10000 2.6 230 06:54 07.01.2020
5101 Clouds -1 1025 64 10000 2.6 230 06:35 07.01.2020
5102 Clouds -2 1025 69 10000 3.6 240 05:58 07.01.2020
5103 Clouds -1 1025 92 9000 3.41 262 05:39 07.01.2020
5104 Clear -2 1024 64 10000 2.6 250 03:44 07.01.2020
5105 Clear -2 1024 70 10000 4.1 220 02:47 07.01.2020
5106 Clear -3 1024 80 10000 4.6 220 01:59 07.01.2020
5107 Clear -3 1024 80 10000 4.6 220 01:36 07.01.2020
5108 Clear -2 1024 65 10000 3.6 230 00:55 07.01.2020
5109 Clear -2 1024 80 10000 4.1 220 00:20 07.01.2020
5110 Clear -2 1024 80 10000 4.1 220 23:56 06.01.2020
5111 Clear -2 1024 79 10000 1.5 190 23:37 06.01.2020
5112 Clear -2 1025 80 10000 1.5 190 23:19 06.01.2020
5113 Clear -2 1025 74 10000 1.5 210 22:44 06.01.2020
5114 Clear -2 1025 74 10000 1.5 210 22:44 06.01.2020
5115 Clear -2 1025 100 8000 1.5 90 22:24 06.01.2020
5116 Clear -2 1025 74 10000 1 0 21:58 06.01.2020
5117 Clear -2 1025 72 10000 1.5 180 21:39 06.01.2020
5118 Clear -2 1025 72 10000 2.6 200 21:20 06.01.2020
5119 Clear -2 1025 72 10000 2.6 200 20:57 06.01.2020
5120 Clear -2 1026 92 6000 2.1 80 20:39 06.01.2020
5121 Clear -2 1025 80 10000 1.5 210 20:20 06.01.2020
5122 Clear -1 1025 66 10000 1 190 19:57 06.01.2020
5123 Clear -1 1025 66 10000 1 190 19:39 06.01.2020
5124 Clear -1 1025 74 10000 1.5 150 19:20 06.01.2020
5125 Clear -1 1025 86 10000 1 150 18:48 06.01.2020
5126 Clear -1 1026 92 10000 1 200 18:25 06.01.2020
5127 Clear 0 1026 66 10000 1.5 230 17:59 06.01.2020
5128 Clear 1 1026 66 10000 1.5 230 17:39 06.01.2020
5129 Clear 1 1026 86 10000 0.5 140 17:19 06.01.2020
5130 Clear 2 1026 74 10000 0.5 100 16:55 06.01.2020
5131 Clear 3 1026 74 10000 0.5 100 16:36 06.01.2020
5132 Clear 3 1026 64 10000 1 0 16:18 06.01.2020
5133 Clear 4 1026 65 10000 1 0 15:42 06.01.2020
5134 Clear 4 1026 60 10000 1.5 190 15:20 06.01.2020
5135 Clear 4 1026 60 10000 1.5 190 14:59 06.01.2020
5136 Clear 4 1027 64 10000 1.5 180 14:41 06.01.2020
5137 Clear 4 1027 64 10000 1.5 180 14:41 06.01.2020
5138 Clear 4 1027 69 10000 1.5 210 14:21 06.01.2020
5139 Clear 4 1027 64 10000 2.1 210 13:58 06.01.2020
5140 Clear 3 1027 64 10000 2.1 210 13:38 06.01.2020
5141 Clear 3 1028 74 10000 2.6 220 13:20 06.01.2020
5142 Clear 3 1028 64 10000 2.6 230 12:44 06.01.2020
5143 Clear 2 1028 74 10000 1 0 12:21 06.01.2020
5144 Clear 1 1029 86 10000 1 0 11:59 06.01.2020
5145 Clear 1 1029 86 10000 1 0 11:41 06.01.2020
5146 Clear 0 1029 63 10000 1 0 11:23 06.01.2020
5147 Clear -1 1029 92 10000 2.1 210 10:58 06.01.2020
5148 Clear -1 1029 92 10000 2.1 210 10:40 06.01.2020
5149 Clear -2 1029 100 10000 3.6 230 10:20 06.01.2020
5150 Clear -3 1029 100 10000 1.5 230 09:39 06.01.2020
5151 Clear -4 1029 92 10000 1.5 170 09:20 06.01.2020
5152 Clear -4 1029 100 10000 0.5 0 08:52 06.01.2020
5153 Clouds -4 1029 100 10000 0.5 0 08:34 06.01.2020
5154 Clouds -4 1029 92 10000 0.5 0 07:57 06.01.2020
5155 Clouds -4 1029 92 10000 0.5 0 07:37 06.01.2020
5156 Clouds -4 1029 92 10000 1 220 06:49 06.01.2020
5157 Clouds -4 1029 92 10000 1 220 06:30 06.01.2020
5158 Clouds -4 1029 100 10000 1 0 05:48 06.01.2020
5159 Clear -3 1029 92 10000 0.5 0 04:58 06.01.2020
5160 Clear -3 1030 92 10000 2.1 140 04:22 06.01.2020
5161 Clear -3 1031 92 10000 1 0 03:26 06.01.2020
5162 Clear -2 1031 100 8000 2.1 120 02:26 06.01.2020
5163 Clear -2 1032 92 5000 1.5 140 01:49 06.01.2020
5164 Clear -2 1032 92 5000 1.5 140 01:29 06.01.2020
5165 Clear -2 1032 100 2000 1 140 00:45 06.01.2020
5166 Clear -2 1033 92 1200 0.5 100 00:26 06.01.2020
5167 Clear -2 1033 92 1200 0.5 100 23:57 05.01.2020
5168 Clear -2 1033 100 5000 1.5 160 23:38 05.01.2020
5169 Clear -1 1033 100 2100 1 90 23:19 05.01.2020
5170 Clear -1 1033 100 7000 1.5 160 22:40 05.01.2020
5171 Clear -1 1033 100 10000 2.6 150 22:20 05.01.2020
5172 Clear -1 1033 100 10000 2.6 150 22:20 05.01.2020
5173 Clear -1 1034 100 7000 1 150 21:57 05.01.2020
5174 Clear -1 1034 100 7000 1 150 21:39 05.01.2020
5175 Clear 0 1034 92 10000 1 220 21:20 05.01.2020
5176 Clouds 0 1035 86 10000 1.5 0 20:56 05.01.2020
5177 Clear 0 1034 100 10000 0.5 150 20:38 05.01.2020
5178 Clouds 1 1034 92 10000 0.5 0 20:19 05.01.2020
5179 Clouds 1 1034 92 10000 1.5 110 19:58 05.01.2020
5180 Clouds 1 1034 92 10000 1.5 110 19:38 05.01.2020
5181 Clouds 1 1034 100 10000 0.47 148 19:20 05.01.2020
5182 Clouds 1 1034 100 10000 0.47 148 19:20 05.01.2020
5183 Clouds 1 1034 90 10000 1 130 18:55 05.01.2020
5184 Clouds 2 1034 90 10000 1 130 18:37 05.01.2020
5185 Clouds 2 1034 100 10000 1 0 18:19 05.01.2020
5186 Clouds 2 1035 86 10000 1.5 270 17:58 05.01.2020
5187 Clouds 2 1034 90 10000 1.5 230 17:39 05.01.2020
5188 Clouds 3 1034 86 10000 1 330 17:20 05.01.2020
5189 Clouds 3 1034 86 10000 1 330 17:20 05.01.2020
5190 Clouds 3 1034 74 10000 1 0 16:56 05.01.2020
5191 Clouds 3 1034 74 10000 1 0 16:56 05.01.2020
5192 Clouds 4 1034 74 10000 1 0 16:38 05.01.2020
5193 Clouds 4 1034 82 10000 0.5 0 16:19 05.01.2020
5194 Clouds 4 1034 82 10000 1.5 300 15:39 05.01.2020
5195 Clouds 4 1034 82 10000 1 0 15:20 05.01.2020
5196 Clouds 4 1034 82 10000 1 0 14:56 05.01.2020
5197 Clouds 4 1034 82 10000 2.1 310 14:38 05.01.2020
5198 Clouds 4 1034 73 10000 1.5 350 14:20 05.01.2020
5199 Clouds 4 1034 86 10000 1.5 340 13:56 05.01.2020
5200 Clouds 4 1034 86 10000 1.5 340 13:38 05.01.2020
5201 Clouds 4 1034 86 10000 2.6 320 13:19 05.01.2020
5202 Snow 4 1034 86 10000 2.6 290 12:56 05.01.2020
5203 Snow 4 1034 86 10000 2.6 290 12:37 05.01.2020
5204 Snow 4 1034 86 10000 2.6 270 12:19 05.01.2020
5205 Snow 3 1034 86 10000 2.1 280 11:44 05.01.2020
5206 Clouds 3 1035 86 10000 3.1 250 11:20 05.01.2020
5207 Clouds 3 1035 86 10000 3.1 250 11:20 05.01.2020
5208 Clouds 3 1035 86 10000 3.1 250 10:59 05.01.2020
5209 Clouds 3 1035 93 10000 3.1 240 10:40 05.01.2020
5210 Clouds 2 1035 92 10000 3.1 240 10:19 05.01.2020
5211 Clouds 2 1035 92 10000 3.1 240 09:42 05.01.2020
5212 Clouds 2 1034 92 10000 4.1 230 09:22 05.01.2020
5213 Clouds 2 1034 92 10000 3.1 230 08:52 05.01.2020
5214 Clouds 2 1034 92 10000 3.1 230 08:32 05.01.2020
5215 Snow 2 1034 97 10000 4.6 230 07:59 05.01.2020
5216 Snow 2 1034 97 10000 4.6 230 07:39 05.01.2020
5217 Snow 2 1034 97 10000 4.6 230 07:39 05.01.2020
5218 Snow 2 1034 97 10000 4.6 240 07:20 05.01.2020
5219 Snow 2 1034 97 10000 4.1 250 06:44 05.01.2020
5220 Snow 2 1033 97 10000 5.1 250 05:38 05.01.2020
5221 Snow 2 1033 94 10000 6.2 260 04:55 05.01.2020
5222 Snow 2 1033 94 10000 6.7 260 04:18 05.01.2020
5223 Snow 2 1033 94 10000 6.7 260 04:18 05.01.2020
5224 Snow 2 1033 94 10000 6.7 260 04:18 05.01.2020
5225 Snow 3 1032 94 10000 6.2 250 03:26 05.01.2020
5226 Snow 3 1032 94 10000 7.7 250 02:32 05.01.2020
5227 Snow 3 1032 96 10000 6.7 250 01:49 05.01.2020
5228 Snow 3 1032 96 10000 7.2 250 01:20 05.01.2020
5229 Snow 3 1032 96 10000 7.2 250 00:57 05.01.2020
5230 Snow 3 1032 96 10000 7.2 250 00:57 05.01.2020
5231 Snow 2 1031 96 10000 8.2 250 00:39 05.01.2020
5232 Snow 2 1031 96 10000 7.7 250 00:19 05.01.2020
5233 Snow 3 1031 96 10000 7.7 250 23:41 04.01.2020
5234 Snow 3 1031 95 10000 8.2 250 23:21 04.01.2020
5235 Rain 3 1031 80 10000 7.2 250 22:59 04.01.2020
5236 Rain 3 1031 80 10000 7.2 250 22:39 04.01.2020
5237 Rain 3 1031 74 10000 7.2 260 22:20 04.01.2020
5238 Snow 3 1031 74 10000 7.7 250 21:56 04.01.2020
5239 Snow 3 1031 74 10000 7.7 250 21:37 04.01.2020
5240 Snow 3 1031 74 10000 7.2 260 21:19 04.01.2020
5241 Snow 3 1031 74 10000 7.7 250 20:55 04.01.2020
5242 Snow 3 1031 74 10000 7.7 250 20:36 04.01.2020
5243 Snow 3 1031 69 10000 6.7 260 20:18 04.01.2020
5244 Snow 3 1031 74 10000 5.1 260 19:41 04.01.2020
5245 Snow 3 1031 74 10000 5.7 260 19:23 04.01.2020
5246 Snow 3 1030 74 10000 6.7 260 18:58 04.01.2020
5247 Snow 3 1030 74 10000 6.7 260 18:39 04.01.2020
5248 Snow 3 1029 74 10000 7.7 250 18:20 04.01.2020
5249 Snow 3 1029 91 10000 7.2 250 17:57 04.01.2020
5250 Snow 3 1029 91 10000 7.2 250 17:39 04.01.2020
5251 Clouds 3 1029 74 10000 7.2 240 17:21 04.01.2020
5252 Clouds 3 1029 81 10000 6.7 240 16:42 04.01.2020
5253 Clouds 3 1029 81 10000 6.7 240 16:24 04.01.2020
5254 Clouds 3 1028 81 10000 5.7 240 15:58 04.01.2020
5255 Clouds 3 1028 81 10000 5.1 240 15:39 04.01.2020
5256 Clouds 3 1029 81 10000 5.7 260 15:19 04.01.2020
5257 Clouds 3 1028 81 10000 4.6 260 14:57 04.01.2020
5258 Clouds 3 1029 81 10000 5.7 260 14:57 04.01.2020
5259 Clouds 3 1028 81 10000 4.6 260 14:39 04.01.2020
5260 Snow 3 1028 82 10000 5.1 250 14:19 04.01.2020
5261 Snow 3 1028 82 10000 4.1 270 13:56 04.01.2020
5262 Snow 3 1028 82 10000 4.1 270 13:37 04.01.2020
5263 Snow 3 1028 86 10000 4.1 270 13:18 04.01.2020
5264 Snow 4 1029 86 10000 4.1 280 12:42 04.01.2020
5265 Snow 4 1029 86 10000 5.1 270 12:20 04.01.2020
5266 Snow 4 1029 93 9000 5.1 290 11:59 04.01.2020
5267 Snow 4 1029 93 9000 5.1 290 11:40 04.01.2020
5268 Snow 4 1029 93 9000 5.1 290 11:40 04.01.2020
5269 Rain 4 1029 93 10000 3.1 270 11:20 04.01.2020
5270 Rain 3 1029 80 10000 5.1 290 10:59 04.01.2020
5271 Rain 3 1029 100 10000 2.6 300 10:38 04.01.2020
5272 Rain 3 1028 100 5000 3.1 310 10:19 04.01.2020
5273 Drizzle 3 1028 100 7000 3.6 310 09:43 04.01.2020
5274 Drizzle 3 1028 100 7000 3.6 310 09:43 04.01.2020
5275 Rain 4 1028 93 3200 4.6 340 09:25 04.01.2020
5276 Rain 4 1027 93 2800 4.6 280 08:49 04.01.2020
5277 Rain 4 1027 93 2800 4.6 280 08:29 04.01.2020
5278 Rain 5 1027 93 3500 4.1 250 07:55 04.01.2020
5279 Rain 5 1027 93 3500 4.1 250 07:55 04.01.2020
5280 Rain 5 1027 93 3500 4.1 250 07:37 04.01.2020
5281 Rain 5 1026 93 10000 5.1 240 06:43 04.01.2020
5282 Rain 5 1026 93 10000 6.2 240 05:57 04.01.2020
5283 Rain 5 1026 93 10000 5.7 240 04:51 04.01.2020
5284 Rain 5 1026 93 10000 5.7 240 04:30 04.01.2020
5285 Rain 6 1026 87 10000 6.7 230 03:29 04.01.2020
5286 Rain 6 1026 93 10000 6.7 230 02:49 04.01.2020
5287 Rain 6 1026 93 10000 6.7 230 02:18 04.01.2020
5288 Rain 6 1026 93 10000 6.7 230 02:18 04.01.2020
5289 Rain 6 1026 87 10000 7.2 230 01:45 04.01.2020
5290 Rain 6 1026 87 10000 7.2 230 01:27 04.01.2020
5291 Rain 6 1026 81 10000 7.7 240 00:29 04.01.2020
5292 Rain 6 1026 81 10000 6.7 230 23:59 03.01.2020
5293 Rain 6 1026 81 10000 6.7 230 23:37 03.01.2020
5294 Clouds 5 1026 86 10000 6.2 220 23:18 03.01.2020
5295 Clouds 5 1026 86 10000 6.7 220 22:40 03.01.2020
5296 Clouds 6 1026 86 10000 6.7 230 22:19 03.01.2020
5297 Clouds 6 1026 86 10000 6.7 230 21:58 03.01.2020
5298 Clouds 6 1026 81 10000 6.2 230 21:38 03.01.2020
5299 Clouds 6 1026 81 10000 6.2 230 21:38 03.01.2020
5300 Clouds 6 1026 81 10000 7.2 240 21:19 03.01.2020
5301 Clouds 6 1026 81 10000 7.2 240 21:19 03.01.2020
5302 Clouds 6 1026 81 10000 7.2 240 20:56 03.01.2020
5303 Clouds 6 1025 81 10000 7.7 240 20:38 03.01.2020
5304 Clouds 6 1025 81 10000 7.7 240 20:18 03.01.2020
5305 Rain 6 1025 81 10000 7.7 240 19:55 03.01.2020
5306 Rain 6 1025 81 10000 7.2 240 19:37 03.01.2020
5307 Rain 6 1025 70 10000 7.7 250 19:18 03.01.2020
5308 Clouds 6 1025 74 10000 7.2 240 18:41 03.01.2020
5309 Clouds 6 1025 74 10000 7.2 240 18:23 03.01.2020
5310 Clouds 6 1024 74 10000 5.1 240 17:55 03.01.2020
5311 Clouds 6 1024 74 10000 5.1 240 17:36 03.01.2020
5312 Clouds 6 1024 74 10000 5.1 240 17:36 03.01.2020
5313 Clouds 5 1024 68 10000 5.7 230 17:18 03.01.2020
5314 Clouds 5 1024 68 10000 7.2 230 16:42 03.01.2020
5315 Clouds 5 1024 68 10000 7.2 240 16:22 03.01.2020
5316 Clouds 5 1024 68 10000 6.7 240 15:44 03.01.2020
5317 Clouds 5 1024 68 10000 6.7 240 15:19 03.01.2020
5318 Clouds 5 1024 68 10000 6.7 240 14:59 03.01.2020
5319 Clouds 6 1024 68 10000 7.2 250 14:38 03.01.2020
5320 Clouds 6 1023 52 10000 4.1 230 14:19 03.01.2020
5321 Clouds 5 1023 52 10000 4.1 250 13:44 03.01.2020
5322 Clouds 5 1023 54 10000 3.6 220 13:24 03.01.2020
5323 Clouds 5 1023 54 10000 3.6 220 12:58 03.01.2020
5324 Clouds 5 1023 54 10000 4.1 220 12:39 03.01.2020
5325 Clouds 4 1024 69 10000 3.6 220 12:21 03.01.2020
5326 Clouds 4 1024 54 10000 3.1 220 11:44 03.01.2020
5327 Clouds 2 1024 55 10000 1 0 11:21 03.01.2020
5328 Clouds 1 1024 55 10000 2.6 220 10:45 03.01.2020
5329 Clouds 0 1024 55 10000 2.6 220 10:26 03.01.2020
5330 Clouds 0 1024 55 10000 1 0 09:58 03.01.2020
5331 Clouds -1 1024 80 10000 1.5 140 09:39 03.01.2020
5332 Clouds -2 1025 92 10000 1.5 190 09:21 03.01.2020
5333 Clouds -2 1025 86 10000 1 0 08:57 03.01.2020
5334 Clouds -2 1025 86 10000 1 0 08:38 03.01.2020
5335 Clouds -2 1025 92 10000 1.5 200 08:19 03.01.2020
5336 Clouds -2 1025 92 10000 2.1 170 07:40 03.01.2020
5337 Clouds -2 1025 92 10000 2.1 170 07:40 03.01.2020
5338 Clouds -2 1025 92 10000 1 0 07:18 03.01.2020
5339 Clouds -2 1025 92 10000 2.1 200 06:50 03.01.2020
5340 Clouds -2 1025 92 10000 2.1 200 06:32 03.01.2020
5341 Clouds -2 1026 58 10000 2.1 200 05:46 03.01.2020
5342 Clouds -3 1026 92 10000 4.6 230 04:24 03.01.2020
5343 Clouds -3 1026 100 10000 4.1 210 02:59 03.01.2020
5344 Clouds -3 1026 92 9000 2.1 210 02:41 03.01.2020
5345 Clouds -3 1026 100 300 2.6 210 01:45 03.01.2020
5346 Clear -3 1027 92 1000 1.5 210 00:56 03.01.2020
5347 Clear -3 1027 92 1000 1.5 210 00:32 03.01.2020
5348 Fog -3 1028 100 200 1.5 200 23:58 02.01.2020
5349 Fog -3 1028 100 200 1 0 23:39 02.01.2020
5350 Fog -3 1028 92 200 1 0 23:19 02.01.2020
5351 Fog -3 1028 92 200 1 0 22:58 02.01.2020
5352 Fog -3 1028 100 200 1 270 22:39 02.01.2020
5353 Clouds -3 1027 92 350 1 10 22:19 02.01.2020
5354 Fog -2 1028 100 200 0.5 0 21:55 02.01.2020
5355 Fog -2 1028 100 200 0.5 0 21:36 02.01.2020
5356 Fog -2 1028 100 200 1 0 21:18 02.01.2020
5357 Fog -2 1028 100 200 1 0 20:54 02.01.2020
5358 Clouds -2 1027 100 350 1 0 20:36 02.01.2020
5359 Clouds -2 1027 92 500 2.1 20 20:18 02.01.2020
5360 Clouds -2 1027 92 600 1 30 19:54 02.01.2020
5361 Clouds -2 1027 92 600 1 30 19:36 02.01.2020
5362 Clouds -2 1027 92 600 1 30 19:36 02.01.2020
5363 Clouds -2 1027 100 4200 0.87 191 19:18 02.01.2020
5364 Clouds -2 1027 92 8000 0.5 0 18:42 02.01.2020
5365 Clouds -1 1027 92 10000 1 110 18:23 02.01.2020
5366 Clouds -1 1027 66 10000 1 130 17:58 02.01.2020
5367 Clouds -1 1027 66 10000 1 130 17:38 02.01.2020
5368 Clear 0 1027 86 10000 0.5 0 17:20 02.01.2020
5369 Clear 0 1027 86 10000 0.5 0 16:58 02.01.2020
5370 Clear 1 1027 80 10000 1.5 40 16:40 02.01.2020
5371 Clear 1 1027 69 10000 2.1 30 16:20 02.01.2020
5372 Clear 1 1027 69 10000 2.1 30 16:20 02.01.2020
5373 Clear 1 1027 69 10000 2.1 30 15:57 02.01.2020
5374 Clear 1 1027 69 10000 2.1 350 15:39 02.01.2020
5375 Clear 2 1027 69 10000 2.1 360 15:20 02.01.2020
5376 Clear 2 1027 65 10000 2.1 280 14:57 02.01.2020
5377 Clear 2 1027 65 10000 2.1 280 14:36 02.01.2020
5378 Clear 2 1027 65 10000 2.1 290 14:36 02.01.2020
5379 Clouds 2 1027 65 10000 2.1 290 14:18 02.01.2020
5380 Clouds 2 1028 80 10000 2.1 280 13:49 02.01.2020
5381 Clouds 2 1028 86 10000 1 0 13:31 02.01.2020
5382 Clouds 2 1029 47 10000 1 0 12:46 02.01.2020
5383 Clouds 1 1029 47 10000 0.5 0 12:26 02.01.2020
5384 Clouds 1 1029 47 10000 0.5 0 11:59 02.01.2020
5385 Clouds 0 1029 47 10000 0.5 0 11:40 02.01.2020
5386 Rain -1 1029 100 10000 1 0 11:20 02.01.2020
5387 Rain -2 1029 92 10000 1.5 210 10:45 02.01.2020
5388 Rain -2 1029 92 10000 1.5 210 10:26 02.01.2020
5389 Clouds -4 1029 100 10000 1 0 09:52 02.01.2020
5390 Clouds -4 1029 100 10000 1 0 09:33 02.01.2020
5391 Clouds -4 1029 92 10000 1.5 250 08:48 02.01.2020
5392 Clouds -5 1029 92 10000 1.5 250 08:27 02.01.2020
5393 Clear -5 1028 92 9000 1.5 240 07:54 02.01.2020
5394 Clear -5 1028 92 5000 1.5 230 07:31 02.01.2020
5395 Clear -5 1028 92 5000 1.5 230 06:57 02.01.2020
5396 Clear -5 1028 92 5000 1.5 230 06:57 02.01.2020
5397 Clear -5 1028 92 3400 1.5 230 06:39 02.01.2020
5398 Clear -5 1028 92 7000 1.5 160 05:37 02.01.2020
5399 Clear -4 1028 100 7000 1 0 04:34 02.01.2020
5400 Clouds -4 1028 92 1000 2.1 200 03:19 02.01.2020
5401 Clouds -5 1028 92 450 2.1 230 02:20 02.01.2020
5402 Clouds -4 1028 92 250 2.6 230 01:47 02.01.2020
5403 Clear -4 1029 92 500 3.1 220 01:19 02.01.2020
5404 Clear -4 1029 92 5000 2.6 220 00:38 02.01.2020
5405 Clear -4 1029 92 4500 1.5 100 00:19 02.01.2020
5406 Clouds -3 1030 100 3400 1.5 170 23:41 01.01.2020
5407 Clear -3 1030 100 750 0.63 121 23:21 01.01.2020
5408 Clear -3 1030 100 350 0.5 0 22:38 01.01.2020
5409 Clear -3 1030 100 500 1.5 50 22:20 01.01.2020
5410 Clear -2 1030 100 500 1.5 50 21:58 01.01.2020
5411 Clear -2 1030 100 2900 1.5 70 21:39 01.01.2020
5412 Clear -2 1030 92 5000 1.5 90 21:20 01.01.2020
5413 Clear -2 1030 92 5000 1.5 90 20:56 01.01.2020
5414 Clear -2 1030 100 4900 2.1 50 20:38 01.01.2020
5415 Clear -2 1030 100 4900 2.1 50 20:38 01.01.2020
5416 Clear -2 1031 100 6000 2.1 50 20:19 01.01.2020
5417 Clear -1 1030 92 6000 1 0 19:56 01.01.2020
5418 Clear -1 1030 92 6000 1 0 19:37 01.01.2020
5419 Clear -1 1031 92 9000 1.5 90 19:19 01.01.2020
5420 Clear -1 1031 92 9000 1.5 90 18:56 01.01.2020
5421 Clear 0 1031 92 10000 1 70 18:37 01.01.2020
5422 Clear 0 1031 92 10000 1.5 60 18:19 01.01.2020
5423 Clear 0 1032 92 10000 1.5 50 17:57 01.01.2020
5424 Clear 1 1031 92 10000 2.1 70 17:39 01.01.2020
5425 Clear 1 1031 80 10000 1 0 17:19 01.01.2020
5426 Clear 1 1031 80 10000 1 0 16:56 01.01.2020
5427 Clear 2 1030 74 10000 2.1 90 16:37 01.01.2020
5428 Clear 3 1030 69 10000 3.1 80 16:19 01.01.2020
5429 Clear 3 1030 69 10000 3.6 80 15:54 01.01.2020
5430 Clear 3 1030 69 10000 3.6 80 15:36 01.01.2020
5431 Clear 4 1030 69 10000 3.6 80 15:18 01.01.2020
5432 Clear 4 1030 69 10000 3.6 80 14:41 01.01.2020
5433 Clear 4 1031 69 10000 3.6 30 14:22 01.01.2020
5434 Clear 4 1032 67 10000 3.6 50 13:57 01.01.2020
5435 Clear 4 1031 69 10000 3.1 70 13:38 01.01.2020
5436 Clear 4 1031 69 10000 2.1 70 13:19 01.01.2020
5437 Clear 3 1032 74 10000 2.6 70 12:57 01.01.2020
5438 Clear 3 1032 74 10000 2.6 70 12:39 01.01.2020
5439 Clear 2 1032 80 10000 3.1 80 12:19 01.01.2020
5440 Clear 2 1032 80 10000 3.6 80 11:56 01.01.2020
5441 Clear 2 1032 80 10000 3.6 80 11:38 01.01.2020
5442 Clear 0 1033 86 9000 2.6 90 11:19 01.01.2020
5443 Clear 0 1033 79 7000 2.6 70 10:54 01.01.2020
5444 Clear 0 1033 79 7000 2.6 70 10:36 01.01.2020
5445 Clear -1 1033 100 6000 1 20 10:18 01.01.2020
5446 Clear -2 1032 92 4100 1.5 10 09:40 01.01.2020
5447 Clear -3 1032 92 3400 1.45 88 09:20 01.01.2020
5448 Clear -3 1032 92 3400 1.45 88 08:57 01.01.2020
5449 Clear -3 1032 100 2900 1 80 08:37 01.01.2020
5450 Clear -3 1032 92 3300 0.5 0 08:19 01.01.2020
5451 Clear -3 1032 92 3300 0.5 0 07:57 01.01.2020
5452 Clear -3 1032 92 3700 1 0 07:38 01.01.2020
5453 Clear -2 1032 100 4500 0.5 0 06:55 01.01.2020
5454 Clear -3 1032 100 4500 0.5 0 06:36 01.01.2020
5455 Clear -2 1032 100 3500 0.5 0 05:48 01.01.2020
5456 Clear -2 1032 92 6000 1 130 04:28 01.01.2020
5457 Clear -2 1032 92 7000 1.5 150 03:39 01.01.2020
5458 Clear -2 1033 100 8000 1 100 03:21 01.01.2020
5459 Clear -2 1033 92 6000 0.5 130 02:42 01.01.2020
5460 Clear -2 1032 92 9000 1 170 02:23 01.01.2020
5461 Clear -2 1032 92 8000 1 0 01:42 01.01.2020
5462 Clear -1 1032 92 10000 1.5 180 01:23 01.01.2020
5463 Clear -2 1033 92 10000 1 170 00:45 01.01.2020
5464 Clear -1 1033 92 10000 1.5 130 00:26 01.01.2020
5465 Clear 0 1033 92 10000 1.5 130 23:58 31.12.2019
5466 Clear 0 1034 77 10000 1 210 23:38 31.12.2019
5467 Clear 0 1034 80 10000 0.93 44 23:18 31.12.2019
5468 Clear 0 1034 80 10000 0.93 44 22:56 31.12.2019
5469 Clear 0 1034 76 10000 1.5 90 22:37 31.12.2019
5470 Clear 0 1034 76 10000 1.5 140 22:18 31.12.2019
5471 Clear 0 1034 86 10000 1 120 21:43 31.12.2019
5472 Clear 0 1034 92 10000 1 120 21:25 31.12.2019
5473 Clear 0 1033 86 10000 1 0 20:57 31.12.2019
5474 Clear 0 1033 86 10000 1 0 20:39 31.12.2019
5475 Clouds 0 1033 92 10000 1.82 210 20:21 31.12.2019
5476 Clouds 0 1033 92 10000 1.82 210 19:58 31.12.2019
5477 Clouds 0 1033 92 10000 1 0 19:40 31.12.2019
5478 Clouds 0 1032 92 10000 2.1 180 19:22 31.12.2019
5479 Clouds 0 1032 86 10000 1.5 190 18:57 31.12.2019
5480 Clouds 0 1032 86 10000 1.5 190 18:57 31.12.2019
5481 Clouds 0 1032 86 10000 1.5 190 18:39 31.12.2019
5482 Clouds 1 1032 92 10000 0.5 150 18:19 31.12.2019
5483 Clouds 1 1032 78 10000 1 0 17:56 31.12.2019
5484 Clouds 2 1032 78 10000 1 0 17:37 31.12.2019
5485 Clouds 3 1032 74 10000 0.5 0 17:19 31.12.2019
5486 Clouds 4 1032 60 10000 1 0 16:56 31.12.2019
5487 Clouds 4 1032 60 10000 1 0 16:37 31.12.2019
5488 Clouds 5 1032 52 10000 2.1 330 16:19 31.12.2019
5489 Clouds 5 1032 52 10000 3.1 300 15:56 31.12.2019
5490 Clouds 5 1032 52 10000 3.1 300 15:38 31.12.2019
5491 Clouds 6 1031 48 10000 2.6 310 15:20 31.12.2019
5492 Clouds 6 1031 48 10000 2.6 310 14:57 31.12.2019
5493 Clouds 6 1031 48 10000 2.6 240 14:37 31.12.2019
5494 Clouds 6 1031 42 10000 3.6 260 14:19 31.12.2019
5495 Clouds 7 1031 39 10000 3.6 260 13:57 31.12.2019
5496 Clouds 7 1031 39 10000 3.6 260 13:39 31.12.2019
5497 Clouds 7 1031 45 10000 4.1 250 13:20 31.12.2019
5498 Clouds 7 1031 45 10000 4.1 250 12:56 31.12.2019
5499 Clouds 7 1031 45 10000 4.1 260 12:56 31.12.2019
5500 Clouds 7 1031 45 10000 4.1 260 12:38 31.12.2019
5501 Clouds 6 1032 49 10000 4.1 280 12:19 31.12.2019
5502 Clouds 6 1032 49 10000 4.1 280 12:19 31.12.2019
5503 Clouds 6 1032 49 10000 4.1 280 12:19 31.12.2019
5504 Clouds 6 1032 52 10000 4.1 240 11:56 31.12.2019
5505 Clouds 5 1032 52 10000 4.1 240 11:38 31.12.2019
5506 Clear 4 1032 56 10000 2.6 240 11:19 31.12.2019
5507 Clear 3 1032 64 10000 2.1 250 10:57 31.12.2019
5508 Clear 4 1031 61 10000 4.1 220 10:57 31.12.2019
5509 Clear 3 1031 61 10000 4.1 220 10:38 31.12.2019
5510 Clear 2 1031 74 10000 2.6 220 10:20 31.12.2019
5511 Clear 2 1031 74 10000 2.6 220 09:58 31.12.2019
5512 Clear 1 1031 74 10000 4.1 210 09:39 31.12.2019
5513 Clear 0 1030 74 10000 3.1 200 09:20 31.12.2019
5514 Clear 0 1030 74 10000 3.1 200 08:57 31.12.2019
5515 Clear 0 1030 61 10000 4.1 220 08:37 31.12.2019
5516 Clouds -1 1030 73 10000 5.1 230 08:19 31.12.2019
5517 Clouds -1 1030 92 10000 4.1 230 07:42 31.12.2019
5518 Clouds -1 1030 92 10000 5.7 210 07:20 31.12.2019
5519 Clouds -1 1030 92 10000 3.1 200 06:49 31.12.2019
5520 Clouds -1 1030 73 10000 3.6 210 05:57 31.12.2019
5521 Clouds -1 1030 76 10000 4.1 210 04:28 31.12.2019
5522 Clouds -1 1030 92 10000 3.1 210 03:28 31.12.2019
5523 Clouds -1 1030 92 10000 3.1 210 02:54 31.12.2019
5524 Clouds -1 1030 76 10000 1.5 220 02:54 31.12.2019
5525 Clear -1 1030 77 10000 3.6 210 02:18 31.12.2019
5526 Clear -1 1030 76 10000 1.5 190 01:42 31.12.2019
5527 Clear -1 1030 86 10000 2.6 210 01:23 31.12.2019
5528 Clear -2 1030 92 10000 2.6 210 00:46 31.12.2019
5529 Clear -2 1030 92 10000 2.6 220 00:22 31.12.2019
5530 Clear -2 1031 100 10000 2.1 260 23:56 30.12.2019
5531 Clear -2 1031 100 10000 2.1 260 23:38 30.12.2019
5532 Clear -2 1030 100 10000 2.1 230 23:20 30.12.2019
5533 Clear -2 1030 100 10000 2.1 230 22:57 30.12.2019
5534 Clear -2 1030 92 10000 1 0 22:38 30.12.2019
5535 Clear -2 1030 92 10000 2.1 230 22:20 30.12.2019
5536 Clear -2 1030 92 10000 2.1 230 21:56 30.12.2019
5537 Clear -2 1030 92 10000 3.1 210 21:38 30.12.2019
5538 Clear -2 1030 92 10000 3.1 210 21:38 30.12.2019
5539 Clear -2 1030 100 10000 2.6 220 21:19 30.12.2019
5540 Clear -2 1030 100 10000 2.6 220 20:56 30.12.2019
5541 Clear -1 1030 100 10000 1 0 20:38 30.12.2019
5542 Clear -1 1030 92 10000 1.5 200 20:20 30.12.2019
5543 Clear -1 1030 92 10000 2.1 130 19:57 30.12.2019
5544 Clear -1 1030 92 10000 2.1 130 19:38 30.12.2019
5545 Clear -1 1030 92 10000 0.5 0 19:19 30.12.2019
5546 Clear -1 1030 92 10000 0.5 0 18:57 30.12.2019
5547 Clear 0 1031 92 10000 0.89 198 18:38 30.12.2019
5548 Clear 0 1031 69 10000 1.5 170 18:20 30.12.2019
5549 Clear 0 1031 69 10000 1.5 170 17:55 30.12.2019
5550 Clear 1 1031 69 10000 0.5 0 17:37 30.12.2019
5551 Clear 1 1031 80 10000 0.5 0 17:18 30.12.2019
5552 Clear 2 1031 80 10000 0.5 0 16:57 30.12.2019
5553 Clear 2 1031 69 10000 2.1 20 16:37 30.12.2019
5554 Clear 2 1031 69 10000 2.1 20 16:37 30.12.2019
5555 Clear 3 1031 64 10000 2.1 30 16:18 30.12.2019
5556 Clear 3 1031 65 10000 1 10 15:55 30.12.2019
5557 Clear 3 1031 65 10000 1 10 15:37 30.12.2019
5558 Clear 4 1031 65 10000 1.5 10 15:18 30.12.2019
5559 Clear 4 1032 60 10000 2.1 30 14:43 30.12.2019
5560 Clear 4 1032 64 10000 2.6 40 14:20 30.12.2019
5561 Clear 4 1032 64 10000 2.6 40 13:58 30.12.2019
5562 Clear 3 1032 69 10000 2.1 20 13:40 30.12.2019
5563 Clear 3 1033 64 10000 1 0 13:21 30.12.2019
5564 Clear 3 1033 64 10000 1 0 12:56 30.12.2019
5565 Clear 2 1033 69 10000 1.5 40 12:37 30.12.2019
5566 Clear 2 1033 74 10000 1 0 12:18 30.12.2019
5567 Clear 1 1033 80 10000 1.14 69 11:42 30.12.2019
5568 Clear 0 1034 74 10000 1.12 113 11:20 30.12.2019
5569 Clear -1 1034 74 10000 1.12 113 10:58 30.12.2019
5570 Clear -2 1034 92 10000 1.12 113 10:40 30.12.2019
5571 Clear -3 1036 86 10000 2.1 50 10:19 30.12.2019
5572 Clear -4 1034 92 10000 0.5 20 09:42 30.12.2019
5573 Clear -5 1034 92 10000 0.5 0 09:20 30.12.2019
5574 Clear -5 1034 92 10000 0.5 0 08:56 30.12.2019
5575 Clear -5 1034 92 10000 1.5 170 08:38 30.12.2019
5576 Clear -6 1034 92 10000 2.1 170 08:18 30.12.2019
5577 Clear -6 1034 92 10000 1.33 122 07:42 30.12.2019
5578 Clear -6 1034 92 10000 1.33 122 07:18 30.12.2019
5579 Clear -6 1034 92 10000 1 140 06:29 30.12.2019
5580 Clear -6 1035 92 10000 1.5 150 04:29 30.12.2019
5581 Clear -6 1035 92 10000 1.23 108 03:47 30.12.2019
5582 Clear -6 1035 92 10000 1.5 150 02:45 30.12.2019
5583 Clear -6 1035 92 10000 1.5 150 02:25 30.12.2019
5584 Clear -5 1035 100 10000 1.37 100 01:27 30.12.2019
5585 Clear -5 1035 100 10000 1.37 100 00:59 30.12.2019
5586 Clear -5 1035 100 10000 1 100 00:39 30.12.2019
5587 Clear -5 1035 92 7000 1.37 100 23:55 29.12.2019
5588 Clear -5 1035 92 7000 1.37 100 23:36 29.12.2019
5589 Clear -4 1036 100 7000 0.5 0 23:18 29.12.2019
5590 Clear -4 1035 100 4300 0.5 20 22:40 29.12.2019
5591 Clear -4 1036 100 7000 1 80 22:21 29.12.2019
5592 Clear -4 1036 92 10000 1 110 21:56 29.12.2019
5593 Clear -4 1036 92 10000 1 110 21:38 29.12.2019
5594 Clear -4 1036 92 9000 1.58 110 21:19 29.12.2019
5595 Clear -4 1036 92 9000 1.58 110 20:55 29.12.2019
5596 Clear -3 1036 100 10000 1.5 110 20:37 29.12.2019
5597 Clouds -3 1036 100 8000 1 70 20:18 29.12.2019
5598 Clouds -3 1036 100 8000 1 70 19:56 29.12.2019
5599 Clouds -3 1036 100 10000 1 0 19:37 29.12.2019
5600 Clouds -3 1036 92 10000 0.5 0 19:19 29.12.2019
5601 Clouds -3 1036 92 10000 0.5 0 18:55 29.12.2019
5602 Clouds -2 1036 92 10000 0.5 0 18:37 29.12.2019
5603 Clouds -2 1036 86 10000 1 90 18:18 29.12.2019
5604 Clouds -2 1036 86 10000 2.1 90 17:56 29.12.2019
5605 Clouds -1 1036 86 10000 2.1 90 17:37 29.12.2019
5606 Clear -1 1036 80 10000 1.5 100 17:19 29.12.2019
5607 Rain 0 1036 66 10000 2.1 60 16:55 29.12.2019
5608 Clear 0 1036 66 10000 2.1 60 16:36 29.12.2019
5609 Clear 1 1036 66 10000 3.1 60 16:18 29.12.2019
5610 Clear 1 1036 69 10000 2.6 50 15:55 29.12.2019
5611 Clear 1 1036 69 10000 2.6 50 15:37 29.12.2019
5612 Clear 1 1035 69 10000 2.1 90 15:18 29.12.2019
5613 Clear 1 1035 69 10000 2.1 90 14:55 29.12.2019
5614 Clear 1 1036 69 10000 2.1 90 14:37 29.12.2019
5615 Clear 1 1036 69 10000 2.6 90 14:18 29.12.2019
5616 Clear 1 1036 69 10000 2.1 40 13:55 29.12.2019
5617 Clear 1 1036 69 10000 2.1 40 13:37 29.12.2019
5618 Clouds 1 1036 55 10000 2.1 40 13:18 29.12.2019
5619 Clouds 0 1036 55 10000 1.5 30 12:41 29.12.2019
5620 Clouds 0 1037 80 10000 2.6 20 12:23 29.12.2019
5621 Clouds -1 1037 80 10000 2.6 70 11:55 29.12.2019
5622 Clouds -1 1037 80 10000 2.6 70 11:37 29.12.2019
5623 Rain -2 1037 86 10000 1.5 60 11:19 29.12.2019
5624 Clear -2 1037 86 10000 1.5 60 10:41 29.12.2019
5625 Clear -3 1037 92 10000 1.64 53 10:22 29.12.2019
5626 Clear -4 1037 92 10000 1 0 09:56 29.12.2019
5627 Clear -5 1037 92 10000 1 0 09:38 29.12.2019
5628 Clear -6 1037 92 9000 0.5 0 09:19 29.12.2019
5629 Clear -6 1037 92 6000 0.5 0 08:46 29.12.2019
5630 Clouds -6 1037 92 5000 1.3 74 08:24 29.12.2019
5631 Clouds -6 1037 92 8000 1.5 10 07:55 29.12.2019
5632 Clouds -6 1037 92 8000 1.5 10 07:28 29.12.2019
5633 Clouds -6 1037 92 6000 1 30 06:55 29.12.2019
5634 Clouds -6 1036 100 6000 1 0 06:25 29.12.2019
5635 Clouds -6 1037 100 10000 1 100 05:51 29.12.2019
5636 Clouds -5 1037 92 7000 1.5 120 04:36 29.12.2019
5637 Clouds -5 1037 92 10000 1 20 03:51 29.12.2019
5638 Clouds -5 1037 92 10000 1 30 03:20 29.12.2019
5639 Clear -5 1039 92 10000 1 40 02:20 29.12.2019
5640 Clear -4 1037 100 10000 1 10 01:31 29.12.2019
5641 Clouds -4 1038 92 10000 0.5 20 01:31 29.12.2019
5642 Clear -4 1038 92 10000 0.5 20 01:31 29.12.2019
5643 Clouds -4 1038 92 10000 0.5 20 00:58 29.12.2019
5644 Clouds -4 1038 92 10000 2.26 99 00:40 29.12.2019
5645 Clouds -4 1038 85 10000 2.1 120 00:21 29.12.2019
5646 Clouds -3 1038 92 10000 1 130 23:42 28.12.2019
5647 Clouds -3 1038 92 10000 1 140 23:18 28.12.2019
5648 Clouds -3 1038 92 10000 0.5 0 22:39 28.12.2019
5649 Clouds -3 1038 100 10000 0.5 0 22:20 28.12.2019
5650 Clouds -2 1038 92 10000 1.5 80 21:58 28.12.2019
5651 Clouds -2 1038 92 10000 1.5 80 21:39 28.12.2019
5652 Clouds -2 1038 92 10000 1 0 21:21 28.12.2019
5653 Clouds -2 1039 79 10000 1 40 20:57 28.12.2019
5654 Clouds -2 1038 92 10000 1.5 50 20:38 28.12.2019
5655 Clear -1 1038 86 10000 1 80 20:20 28.12.2019
5656 Clear -1 1038 86 10000 1 80 19:58 28.12.2019
5657 Clear -1 1039 86 10000 2.1 120 19:39 28.12.2019
5658 Clear -1 1039 80 10000 2.1 90 19:20 28.12.2019
5659 Clear 0 1039 80 10000 2.1 90 18:58 28.12.2019
5660 Clear 0 1039 74 10000 2.1 110 18:40 28.12.2019
5661 Clear 0 1039 80 10000 2.1 60 18:19 28.12.2019
5662 Clear 0 1039 80 10000 2.1 360 17:55 28.12.2019
5663 Clear 0 1039 80 10000 2.1 360 17:36 28.12.2019
5664 Clouds 0 1038 80 10000 3.6 20 17:18 28.12.2019
5665 Clouds 0 1038 80 10000 2.6 30 16:46 28.12.2019
5666 Clouds 0 1038 80 10000 2.6 30 16:26 28.12.2019
5667 Clouds 1 1037 83 10000 3.1 30 15:46 28.12.2019
5668 Clouds 1 1037 69 10000 2.6 30 15:24 28.12.2019
5669 Clouds 1 1037 69 10000 2.6 30 14:59 28.12.2019
5670 Clouds 2 1036 69 10000 3.1 30 14:39 28.12.2019
5671 Clouds 1 1036 69 10000 3.1 20 14:20 28.12.2019
5672 Clouds 2 1037 74 10000 1.5 40 13:56 28.12.2019
5673 Clear 2 1037 74 10000 1.5 40 13:37 28.12.2019
5674 Clear 1 1037 73 10000 2.6 70 13:18 28.12.2019
5675 Clear 1 1037 69 10000 2.6 50 12:43 28.12.2019
5676 Clear 1 1038 80 10000 2.6 40 12:24 28.12.2019
5677 Clear 1 1037 86 10000 1.5 60 11:57 28.12.2019
5678 Clear 1 1037 86 10000 1.5 60 11:38 28.12.2019
5679 Clear 0 1037 84 10000 0.5 0 11:20 28.12.2019
5680 Clear 0 1037 84 10000 0.5 0 10:46 28.12.2019
5681 Clear -1 1037 92 9000 0.5 100 10:22 28.12.2019
5682 Clear -1 1037 92 9000 0.5 100 10:22 28.12.2019
5683 Clear -1 1037 92 9000 0.5 100 10:22 28.12.2019
5684 Clear -1 1037 92 9000 0.5 100 10:22 28.12.2019
5685 Clear -1 1037 92 9000 0.5 100 09:58 28.12.2019
5686 Clear -1 1037 92 7000 0.5 230 09:40 28.12.2019
5687 Clear -1 1037 100 9000 0.5 0 09:20 28.12.2019
5688 Clear -1 1037 100 9000 1.3 76 08:44 28.12.2019
5689 Clouds -1 1036 100 5000 1.5 10 08:26 28.12.2019
5690 Clouds -2 1036 100 5000 1.5 10 07:55 28.12.2019
5691 Clouds -2 1035 100 450 0.5 0 07:32 28.12.2019
5692 Clouds -2 1035 100 250 0.5 0 06:42 28.12.2019
5693 Clouds -2 1035 100 400 1 0 05:19 28.12.2019
5694 Clouds -1 1034 92 10000 1.5 90 03:47 28.12.2019
5695 Clouds 0 1034 96 10000 1 80 02:49 28.12.2019
5696 Clouds 0 1034 95 10000 2.1 40 02:19 28.12.2019
5697 Clouds 0 1034 95 10000 3.1 40 01:50 28.12.2019
5698 Clouds 1 1034 93 10000 3.1 40 01:20 28.12.2019
5699 Clouds 1 1034 93 10000 2.6 70 00:41 28.12.2019
5700 Clouds 1 1033 93 10000 3.1 30 00:23 28.12.2019
5701 Clouds 1 1033 93 8000 3.1 40 23:45 27.12.2019
5702 Snow 1 1033 93 6000 4.1 20 23:21 27.12.2019
5703 Snow 2 1032 93 7000 4.6 20 22:58 27.12.2019
5704 Snow 2 1032 93 7000 4.6 20 22:39 27.12.2019
5705 Snow 2 1032 93 7000 3.6 20 22:21 27.12.2019
5706 Snow 2 1032 93 7000 3.6 20 21:59 27.12.2019
5707 Snow 2 1031 93 8000 3.6 20 21:40 27.12.2019
5708 Snow 2 1031 93 8000 2.1 30 21:22 27.12.2019
5709 Snow 2 1031 93 10000 2.6 10 20:42 27.12.2019
5710 Rain 2 1030 93 10000 4.1 20 20:24 27.12.2019
5711 Snow 2 1030 93 10000 4.1 20 19:57 27.12.2019
5712 Snow 2 1030 93 10000 3.1 20 19:38 27.12.2019
5713 Snow 2 1030 93 10000 3.1 20 19:38 27.12.2019
5714 Snow 3 1029 93 8000 3.6 30 19:19 27.12.2019
5715 Snow 3 1029 93 7000 4.6 30 18:55 27.12.2019
5716 Snow 3 1029 93 7000 4.6 30 18:36 27.12.2019
5717 Snow 3 1028 93 5000 2.1 20 18:18 27.12.2019
5718 Rain 3 1029 86 10000 1 0 17:55 27.12.2019
5719 Rain 3 1028 93 9000 2.6 30 17:36 27.12.2019
5720 Rain 3 1027 93 10000 3.1 20 17:18 27.12.2019
5721 Rain 4 1028 86 10000 2.6 360 16:41 27.12.2019
5722 Rain 4 1026 100 5000 2.6 20 16:22 27.12.2019
5723 Rain 4 1026 100 5000 2.6 20 15:57 27.12.2019
5724 Rain 4 1026 100 6000 3.1 30 15:37 27.12.2019
5725 Rain 4 1025 93 5000 4.1 20 15:19 27.12.2019
5726 Rain 4 1025 93 5000 4.1 20 14:56 27.12.2019
5727 Rain 4 1025 93 6000 4.1 30 14:38 27.12.2019
5728 Rain 4 1024 100 3500 3.1 20 14:19 27.12.2019
5729 Rain 4 1024 93 2300 2.1 310 13:47 27.12.2019
5730 Rain 4 1024 93 2300 2.1 310 13:24 27.12.2019
5731 Rain 5 1023 93 6000 3.6 270 12:56 27.12.2019
5732 Rain 5 1023 93 6000 3.6 270 12:37 27.12.2019
5733 Rain 5 1023 93 6000 3.6 280 12:18 27.12.2019
5734 Rain 5 1023 93 6000 3.6 280 12:18 27.12.2019
5735 Rain 4 1023 93 4000 2.1 300 11:42 27.12.2019
5736 Drizzle 4 1023 93 3000 1.5 290 11:20 27.12.2019
5737 Drizzle 4 1023 93 3000 1.5 300 10:54 27.12.2019
5738 Drizzle 4 1023 93 3000 1.5 300 10:36 27.12.2019
5739 Rain 4 1022 100 4000 1.5 280 10:18 27.12.2019
5740 Rain 4 1022 100 5000 2.1 270 09:40 27.12.2019
5741 Rain 4 1022 100 5000 1.5 240 09:21 27.12.2019
5742 Rain 4 1021 93 8000 2.1 240 08:54 27.12.2019
5743 Rain 4 1021 93 8000 2.1 240 08:34 27.12.2019
5744 Rain 3 1021 93 5000 3.6 230 07:50 27.12.2019
5745 Rain 3 1021 93 10000 4.6 230 07:31 27.12.2019
5746 Rain 3 1021 93 10000 3.1 230 06:36 27.12.2019
5747 Rain 3 1021 93 8000 4.6 230 04:59 27.12.2019
5748 Rain 3 1022 86 10000 2.6 240 03:26 27.12.2019
5749 Clouds 2 1023 93 10000 1.5 190 01:59 27.12.2019
5750 Clouds 2 1022 86 10000 1.5 230 01:37 27.12.2019
5751 Clouds 2 1022 86 10000 3.1 220 01:18 27.12.2019
5752 Clouds 3 1023 86 10000 3.6 230 00:41 27.12.2019
5753 Clouds 3 1023 93 10000 3.6 220 00:23 27.12.2019
5754 Clouds 3 1024 93 10000 3.6 220 23:41 26.12.2019
5755 Clouds 3 1024 93 10000 2.6 220 23:22 26.12.2019
5756 Clouds 3 1024 86 10000 3.1 240 22:47 26.12.2019
5757 Clouds 2 1024 86 10000 4.1 250 22:23 26.12.2019
5758 Clouds 2 1024 86 10000 5.1 240 21:59 26.12.2019
5759 Clouds 2 1024 86 10000 5.1 240 21:39 26.12.2019
5760 Clouds 2 1024 93 10000 3.6 230 21:20 26.12.2019
5761 Clouds 2 1024 100 10000 4.1 220 20:46 26.12.2019
5762 Clouds 2 1024 92 10000 1.5 220 20:23 26.12.2019
5763 Clouds 2 1023 92 10000 1 220 19:59 26.12.2019
5764 Clouds 2 1023 92 10000 1 220 19:40 26.12.2019
5765 Clouds 2 1023 92 10000 0.5 280 19:22 26.12.2019
5766 Clouds 2 1023 92 10000 0.5 280 18:58 26.12.2019
5767 -273 0 0 0 0 0 18:40 26.12.2019
5768 Clouds 2 1022 93 10000 1.5 60 18:19 26.12.2019
5769 Clouds 2 1022 92 10000 1.5 110 17:57 26.12.2019
5770 Clouds 2 1022 92 10000 1.5 110 17:38 26.12.2019
5771 Clouds 2 1022 92 10000 1.5 110 17:38 26.12.2019
5772 Clouds 2 1022 92 10000 1.5 110 17:38 26.12.2019
5773 Clouds 3 1022 93 10000 0.5 0 17:19 26.12.2019
5774 Clouds 4 1023 86 10000 0.76 96 16:45 26.12.2019
5775 Clouds 4 1023 90 10000 1 100 16:24 26.12.2019
5776 Clouds 4 1023 75 10000 2.1 100 15:56 26.12.2019
5777 Clouds 4 1022 80 10000 2.1 70 15:38 26.12.2019
5778 Rain 4 1022 80 10000 2.1 100 15:18 26.12.2019
5779 Clouds 5 1022 90 10000 2.1 120 14:41 26.12.2019
5780 Clouds 5 1023 70 10000 1 70 14:22 26.12.2019
5781 Clouds 5 1023 80 10000 1.5 60 13:44 26.12.2019
5782 Clouds 5 1023 86 10000 1.5 50 13:23 26.12.2019
5783 Clouds 5 1024 86 10000 1.5 40 12:58 26.12.2019
5784 Clouds 4 1024 86 10000 1.5 40 12:39 26.12.2019
5785 Clouds 4 1024 86 10000 2.6 30 12:21 26.12.2019
5786 Clouds 4 1024 86 10000 2.1 50 11:58 26.12.2019
5787 Clouds 4 1024 86 10000 2.1 50 11:39 26.12.2019
5788 Clouds 3 1024 86 10000 2.6 150 11:20 26.12.2019
5789 Clouds 3 1024 86 10000 1.5 130 10:49 26.12.2019
5790 Clouds 2 1024 86 10000 1.5 130 10:24 26.12.2019
5791 Clouds 2 1025 100 10000 3.1 180 09:54 26.12.2019
5792 Clouds 1 1025 100 10000 3.1 180 09:33 26.12.2019
5793 Clouds 1 1024 100 10000 1.5 150 08:58 26.12.2019
5794 Clouds 1 1024 100 2600 2.1 160 08:39 26.12.2019
5795 Clouds 1 1024 100 500 1.5 190 08:20 26.12.2019
5796 Clouds 1 1024 92 1100 1 190 07:38 26.12.2019
5797 Clouds 1 1024 100 2300 1.5 160 07:19 26.12.2019
5798 Clouds 1 1024 100 6000 1 150 06:37 26.12.2019
5799 Clouds 1 1024 100 6000 1.5 180 06:19 26.12.2019
5800 Clouds 1 1024 100 1300 1.5 170 05:41 26.12.2019
5801 Snow 2 1024 94 10000 1.5 180 04:33 26.12.2019
5802 Rain 2 1025 94 10000 3.1 230 03:31 26.12.2019
5803 Snow 2 1025 93 10000 3.1 220 02:46 26.12.2019
5804 Snow 2 1025 93 10000 3.1 220 02:27 26.12.2019
5805 Rain 3 1024 93 10000 2.6 230 01:44 26.12.2019
5806 Rain 3 1024 93 10000 3.1 250 01:25 26.12.2019
5807 Rain 3 1025 93 6000 3.6 250 00:44 26.12.2019
5808 Rain 3 1025 93 9000 3.1 270 00:23 26.12.2019
5809 Rain 3 1025 93 9000 3.1 270 23:57 25.12.2019
5810 Rain 3 1024 93 10000 3.6 290 23:37 25.12.2019
5811 Rain 3 1024 93 10000 4.6 270 23:19 25.12.2019
5812 Rain 3 1024 93 10000 4.6 270 22:56 25.12.2019
5813 Rain 3 1024 93 8000 4.6 260 22:37 25.12.2019
5814 Rain 4 1024 86 10000 4.6 260 22:18 25.12.2019
5815 Rain 4 1024 86 10000 4.1 270 21:55 25.12.2019
5816 Rain 4 1024 86 10000 4.1 270 21:37 25.12.2019
5817 Rain 4 1023 86 10000 4.6 260 21:19 25.12.2019
5818 Rain 4 1023 86 10000 4.6 270 20:40 25.12.2019
5819 Rain 4 1023 86 10000 6.2 260 20:21 25.12.2019
5820 Rain 4 1023 86 10000 5.7 250 19:59 25.12.2019
5821 Rain 4 1023 86 10000 5.7 250 19:41 25.12.2019
5822 Rain 5 1022 86 10000 5.7 250 19:21 25.12.2019
5823 Rain 5 1022 86 10000 6.2 250 18:40 25.12.2019
5824 Rain 5 1022 86 10000 6.2 260 18:21 25.12.2019
5825 Rain 5 1021 86 10000 5.1 260 17:59 25.12.2019
5826 Rain 5 1021 86 10000 5.1 260 17:39 25.12.2019
5827 Rain 5 1020 93 10000 5.1 260 17:18 25.12.2019
5828 Rain 5 1020 93 10000 5.1 260 16:55 25.12.2019
5829 Rain 5 1020 86 10000 6.2 270 16:36 25.12.2019
5830 Rain 5 1019 86 10000 5.7 280 16:18 25.12.2019
5831 Rain 5 1019 86 10000 5.7 270 15:56 25.12.2019
5832 Rain 5 1019 86 10000 5.7 270 15:37 25.12.2019
5833 Rain 5 1018 93 10000 5.7 260 15:18 25.12.2019
5834 Rain 5 1018 93 10000 5.7 260 14:55 25.12.2019
5835 Rain 5 1018 93 10000 5.7 260 14:37 25.12.2019
5836 Rain 5 1018 86 10000 5.7 270 14:18 25.12.2019
5837 Rain 5 1016 93 10000 6.7 270 13:42 25.12.2019
5838 Rain 5 1016 81 10000 11.3 250 13:21 25.12.2019
5839 Rain 6 1016 87 10000 10.8 240 12:44 25.12.2019
5840 Rain 6 1016 81 10000 9.3 240 12:22 25.12.2019
5841 Rain 6 1016 81 10000 10.3 240 11:58 25.12.2019
5842 Rain 6 1016 81 10000 10.3 240 11:40 25.12.2019
5843 Rain 7 1016 81 10000 9.8 240 11:21 25.12.2019
5844 Rain 6 1016 87 10000 8.7 240 10:41 25.12.2019
5845 Rain 6 1016 87 10000 8.7 240 10:21 25.12.2019
5846 Rain 6 1016 87 10000 8.2 250 09:59 25.12.2019
5847 Rain 6 1016 87 10000 8.2 250 09:41 25.12.2019
5848 Rain 6 1016 87 10000 7.7 240 09:23 25.12.2019
5849 Rain 6 1016 87 10000 8.2 240 08:44 25.12.2019
5850 Rain 6 1015 87 10000 8.2 250 08:24 25.12.2019
5851 Rain 6 1015 87 10000 8.2 250 08:24 25.12.2019
5852 Rain 6 1015 81 10000 9.3 250 07:44 25.12.2019
5853 Rain 6 1015 81 10000 7.2 240 07:23 25.12.2019
5854 Rain 6 1015 81 10000 7.2 240 06:41 25.12.2019
5855 Rain 5 1015 81 10000 7.2 240 06:21 25.12.2019
5856 Rain 6 1015 81 10000 7.2 240 04:47 25.12.2019
5857 Rain 6 1015 81 10000 7.7 240 04:25 25.12.2019
5858 Rain 6 1015 75 10000 7.2 240 03:52 25.12.2019
5859 Rain 6 1015 75 10000 7.2 240 03:32 25.12.2019
5860 Rain 6 1015 81 10000 7.2 240 02:32 25.12.2019
5861 Rain 6 1015 81 10000 6.7 230 01:55 25.12.2019
5862 Rain 6 1015 86 10000 5.7 230 01:24 25.12.2019
5863 Rain 6 1015 80 10000 6.2 250 00:48 25.12.2019
5864 Rain 6 1015 75 10000 9.3 250 00:28 25.12.2019
5865 Rain 6 1015 75 10000 9.3 250 23:55 24.12.2019
5866 Rain 6 1015 93 10000 3.6 240 23:37 24.12.2019
5867 Rain 5 1015 86 10000 4.6 230 23:19 24.12.2019
5868 Rain 5 1015 93 10000 3.6 220 22:39 24.12.2019
5869 Rain 5 1015 86 10000 3.1 240 22:20 24.12.2019
5870 Rain 5 1015 86 10000 3.1 240 22:20 24.12.2019
5871 Rain 6 1015 87 10000 5.1 250 21:42 24.12.2019
5872 Rain 6 1015 87 10000 5.1 240 21:22 24.12.2019
5873 Rain 6 1015 87 10000 5.1 240 21:22 24.12.2019
5874 Rain 6 1015 87 10000 7.2 240 20:54 24.12.2019
5875 Rain 6 1015 87 10000 7.2 240 20:36 24.12.2019
5876 Rain 6 1015 87 10000 6.2 250 20:18 24.12.2019
5877 Rain 6 1014 87 10000 7.2 250 19:43 24.12.2019
5878 Rain 6 1015 87 10000 6.7 240 19:19 24.12.2019
5879 Rain 6 1014 87 10000 5.1 250 18:43 24.12.2019
5880 Rain 6 1014 87 10000 5.7 250 18:24 24.12.2019
5881 Rain 6 1014 87 10000 7.2 250 17:58 24.12.2019
5882 Rain 6 1014 87 10000 7.2 250 17:38 24.12.2019
5883 Rain 6 1013 87 10000 6.7 260 17:20 24.12.2019
5884 Rain 6 1013 87 10000 6.7 260 16:55 24.12.2019
5885 Rain 5 1012 93 10000 8.2 240 16:37 24.12.2019
5886 Rain 5 1012 93 10000 5.7 240 16:19 24.12.2019
5887 Rain 5 1012 93 3000 3.1 210 15:54 24.12.2019
5888 Rain 5 1012 93 3000 3.1 210 15:36 24.12.2019
5889 Rain 5 1011 93 8000 4.6 180 15:18 24.12.2019
5890 Rain 5 1011 93 8000 4.6 180 14:55 24.12.2019
5891 Rain 5 1011 93 10000 4.6 180 14:36 24.12.2019
5892 Rain 5 1012 93 10000 2.1 160 14:18 24.12.2019
5893 Rain 5 1012 75 10000 3.1 190 13:55 24.12.2019
5894 Rain 6 1012 75 10000 3.1 190 13:37 24.12.2019
5895 Rain 6 1013 83 10000 3.1 190 13:19 24.12.2019
5896 Rain 6 1013 70 10000 4.1 160 12:55 24.12.2019
5897 Rain 6 1013 70 10000 4.1 160 12:36 24.12.2019
5898 Rain 6 1014 75 10000 4.1 160 12:18 24.12.2019
5899 Rain 5 1015 83 10000 2.6 190 11:55 24.12.2019
5900 Rain 5 1015 83 10000 2.6 190 11:36 24.12.2019
5901 Clouds 5 1016 82 10000 2.1 190 11:18 24.12.2019
5902 Clouds 5 1016 82 10000 2.6 200 10:55 24.12.2019
5903 Clouds 5 1016 82 10000 2.6 200 10:55 24.12.2019
5904 Clouds 4 1016 82 10000 2.6 200 10:37 24.12.2019
5905 Clouds 4 1017 82 10000 3.1 190 10:19 24.12.2019
5906 Clouds 4 1017 82 10000 3.1 200 09:54 24.12.2019
5907 Clouds 3 1017 82 10000 3.1 200 09:36 24.12.2019
5908 Clouds 2 1017 82 10000 4.1 220 09:18 24.12.2019
5909 Clouds 2 1018 86 10000 4.1 220 08:44 24.12.2019
5910 Clouds 3 1018 94 10000 4.6 220 08:20 24.12.2019
5911 Clouds 3 1018 94 10000 3.1 210 07:46 24.12.2019
5912 Clouds 3 1018 94 10000 3.1 210 07:25 24.12.2019
5913 Clouds 3 1019 94 10000 4.1 230 07:25 24.12.2019
5914 Clouds 3 1019 94 10000 4.1 230 06:58 24.12.2019
5915 Clouds 4 1019 80 10000 4.6 230 06:38 24.12.2019
5916 Clouds 4 1019 80 10000 5.1 230 06:19 24.12.2019
5917 Rain 4 1019 86 10000 6.7 240 05:21 24.12.2019
5918 Rain 4 1019 86 10000 5.1 240 04:44 24.12.2019
5919 Rain 4 1019 86 10000 5.7 240 03:50 24.12.2019
5920 Rain 4 1019 86 10000 6.7 250 03:22 24.12.2019
5921 Rain 5 1019 80 10000 7.2 250 02:23 24.12.2019
5922 Rain 4 1018 93 10000 5.1 240 01:50 24.12.2019
5923 Rain 4 1018 93 10000 5.7 250 01:22 24.12.2019
5924 Rain 5 1018 86 10000 6.2 240 00:45 24.12.2019
5925 Rain 5 1018 93 10000 5.1 240 00:24 24.12.2019
5926 Rain 5 1018 93 10000 5.1 240 23:59 23.12.2019
5927 Rain 5 1017 93 10000 7.2 250 23:40 23.12.2019
5928 Rain 5 1017 86 10000 6.2 260 23:22 23.12.2019
5929 Rain 5 1017 86 10000 6.2 260 22:56 23.12.2019
5930 Rain 5 1017 86 10000 6.2 260 22:37 23.12.2019
5931 Rain 5 1016 93 10000 6.7 260 22:19 23.12.2019
5932 Rain 5 1016 93 10000 6.7 250 21:55 23.12.2019
5933 Rain 5 1016 93 10000 6.7 250 21:36 23.12.2019
5934 Rain 5 1016 93 10000 6.7 250 21:36 23.12.2019
5935 Rain 5 1015 86 10000 6.7 260 21:18 23.12.2019
5936 Rain 5 1015 86 10000 6.7 260 20:57 23.12.2019
5937 Rain 5 1015 86 10000 7.7 250 20:39 23.12.2019
5938 Rain 5 1015 86 10000 5.7 250 20:18 23.12.2019
5939 Rain 5 1014 86 10000 5.7 260 19:56 23.12.2019
5940 Rain 5 1014 86 10000 5.7 260 19:38 23.12.2019
5941 Rain 5 1014 86 10000 7.2 250 19:19 23.12.2019
5942 Rain 5 1014 86 10000 6.7 260 18:58 23.12.2019
5943 Rain 5 1014 86 10000 6.7 260 18:38 23.12.2019
5944 Rain 5 1013 86 10000 6.7 250 18:20 23.12.2019
5945 Rain 5 1013 86 10000 6.7 250 17:56 23.12.2019
5946 Rain 5 1013 86 10000 6.7 250 17:38 23.12.2019
5947 Rain 5 1012 86 10000 6.7 250 17:19 23.12.2019
5948 Rain 5 1012 86 10000 6.7 250 16:55 23.12.2019
5949 Rain 5 1012 86 10000 5.1 250 16:55 23.12.2019
5950 Rain 5 1012 86 10000 5.1 250 16:36 23.12.2019
5951 Clouds 5 1011 86 10000 4.6 260 16:18 23.12.2019
5952 Rain 5 1011 86 10000 6.7 260 15:55 23.12.2019
5953 Rain 5 1011 86 10000 6.7 260 15:36 23.12.2019
5954 Rain 6 1010 86 10000 7.7 260 15:18 23.12.2019
5955 Rain 6 1010 80 10000 7.7 250 14:45 23.12.2019
5956 Rain 6 1009 80 10000 8.7 260 14:27 23.12.2019
5957 Rain 6 1009 81 10000 7.2 250 13:59 23.12.2019
5958 Rain 6 1009 81 10000 7.2 250 13:41 23.12.2019
5959 Clouds 6 1008 75 10000 7.2 260 13:23 23.12.2019
5960 Clouds 6 1008 75 10000 7.2 260 12:59 23.12.2019
5961 Rain 6 1008 80 10000 7.2 260 12:40 23.12.2019
5962 Clouds 6 1008 80 10000 8.7 260 12:21 23.12.2019
5963 Clouds 6 1008 80 10000 8.7 260 11:59 23.12.2019
5964 Rain 5 1007 87 10000 8.7 270 11:41 23.12.2019
5965 Rain 5 1007 86 10000 8.7 250 11:22 23.12.2019
5966 Rain 5 1007 93 10000 7.7 250 10:55 23.12.2019
5967 Rain 5 1007 93 10000 7.7 250 10:37 23.12.2019
5968 Rain 5 1007 93 10000 7.7 250 10:37 23.12.2019
5969 Rain 5 1007 93 10000 6.7 240 10:18 23.12.2019
5970 Rain 5 1006 80 10000 7.2 240 09:56 23.12.2019
5971 Rain 5 1006 80 10000 7.2 240 09:37 23.12.2019
5972 Clouds 5 1006 80 10000 6.7 240 09:19 23.12.2019
5973 Clouds 5 1006 80 10000 6.7 240 08:41 23.12.2019
5974 Clouds 5 1005 80 10000 8.2 250 08:22 23.12.2019
5975 Clouds 5 1005 80 10000 8.2 250 07:57 23.12.2019
5976 Rain 5 1005 80 10000 6.7 250 07:38 23.12.2019
5977 Rain 5 1004 80 10000 7.2 260 07:19 23.12.2019
5978 Rain 5 1004 86 10000 7.2 250 06:43 23.12.2019
5979 Rain 5 1004 86 10000 8.2 260 06:22 23.12.2019
5980 Rain 5 1003 80 10000 6.2 260 05:46 23.12.2019
5981 Rain 5 1002 86 10000 8.2 260 04:55 23.12.2019
5982 Rain 5 1001 80 10000 8.7 250 04:19 23.12.2019
5983 Rain 5 1000 80 10000 7.7 250 02:48 23.12.2019
5984 Rain 5 999 80 10000 7.2 250 02:23 23.12.2019
5985 Rain 5 999 80 10000 6.7 250 01:51 23.12.2019
5986 Clouds 5 999 80 10000 6.7 250 01:32 23.12.2019
5987 Clouds 5 998 80 10000 7.7 240 00:55 23.12.2019
5988 Clouds 5 998 80 10000 7.7 240 00:35 23.12.2019
5989 Clouds 5 998 80 10000 8.2 250 23:57 22.12.2019
5990 Clouds 5 998 80 10000 8.2 250 23:57 22.12.2019
5991 Clouds 5 998 80 10000 8.2 250 23:39 22.12.2019
5992 Rain 6 997 80 10000 7.2 250 23:20 22.12.2019
5993 Rain 6 997 80 10000 7.2 250 22:57 22.12.2019
5994 Rain 6 997 75 10000 8.2 240 22:38 22.12.2019
5995 Rain 6 996 75 10000 8.7 250 22:19 22.12.2019
5996 Rain 6 996 75 10000 9.3 240 21:57 22.12.2019
5997 Rain 6 996 75 10000 9.3 240 21:39 22.12.2019
5998 Rain 6 995 81 10000 8.2 240 21:20 22.12.2019
5999 Rain 6 995 81 10000 8.2 240 20:56 22.12.2019
6000 Rain 6 995 81 10000 8.2 240 20:38 22.12.2019
6001 Rain 6 995 81 10000 7.7 240 20:18 22.12.2019
6002 Rain 6 995 81 10000 7.7 240 19:54 22.12.2019
6003 Rain 6 995 81 10000 8.2 250 19:36 22.12.2019
6004 Rain 6 994 87 10000 8.2 240 19:18 22.12.2019
6005 Rain 6 994 87 10000 8.2 240 18:39 22.12.2019
6006 Rain 6 993 81 10000 8.7 240 18:21 22.12.2019
6007 Rain 6 993 81 10000 7.7 240 17:55 22.12.2019
6008 Rain 6 993 81 10000 7.7 240 17:37 22.12.2019
6009 Rain 6 992 87 10000 8.7 250 17:18 22.12.2019
6010 Rain 6 992 81 10000 8.7 250 16:56 22.12.2019
6011 Rain 7 992 81 10000 8.7 250 16:37 22.12.2019
6012 Rain 7 991 75 10000 9.3 250 16:19 22.12.2019
6013 Rain 7 991 75 10000 7.7 240 15:55 22.12.2019
6014 Rain 7 991 75 10000 7.7 240 15:36 22.12.2019
6015 Rain 7 990 70 10000 7.2 240 15:18 22.12.2019
6016 Rain 7 990 81 10000 3.6 220 14:54 22.12.2019
6017 Rain 7 990 81 10000 3.6 220 14:54 22.12.2019
6018 Rain 7 990 81 10000 3.6 220 14:36 22.12.2019
6019 Clouds 7 990 87 10000 3.1 210 14:18 22.12.2019
6020 Clouds 7 990 81 10000 3.1 200 13:54 22.12.2019
6021 Clouds 6 990 81 10000 3.1 200 13:36 22.12.2019
6022 Clouds 6 989 81 10000 2.1 200 13:18 22.12.2019
6023 Clouds 6 990 87 10000 3.1 210 12:54 22.12.2019
6024 Clouds 5 990 87 10000 3.1 210 12:36 22.12.2019
6025 Clouds 5 990 81 10000 2.6 190 12:18 22.12.2019
6026 Clouds 4 990 81 10000 3.1 200 11:39 22.12.2019
6027 Clouds 4 990 86 10000 3.1 160 11:21 22.12.2019
6028 Clouds 3 990 80 10000 5.1 150 10:59 22.12.2019
6029 Clouds 3 990 80 10000 5.1 150 10:40 22.12.2019
6030 Clouds 3 990 86 10000 3.6 180 10:21 22.12.2019
6031 Clouds 3 990 100 10000 3.1 210 09:59 22.12.2019
6032 Clouds 3 990 100 10000 3.1 210 09:40 22.12.2019
6033 Clouds 2 989 93 10000 3.1 200 09:22 22.12.2019
6034 Clouds 2 989 93 10000 3.1 200 08:59 22.12.2019
6035 Clouds 2 989 93 10000 1.5 200 08:38 22.12.2019
6036 Clouds 2 989 93 10000 3.1 170 08:18 22.12.2019
6037 Rain 2 989 93 10000 4.1 210 07:38 22.12.2019
6038 Rain 2 989 86 10000 5.7 230 07:20 22.12.2019
6039 Clouds 1 989 100 10000 4.1 220 06:40 22.12.2019
6040 Clouds 1 988 90 10000 1 0 05:54 22.12.2019
6041 Clouds 1 988 93 10000 2.1 220 05:23 22.12.2019
6042 Clouds 1 988 100 10000 3.1 170 04:29 22.12.2019
6043 Clouds 1 988 93 10000 3.1 170 03:56 22.12.2019
6044 Clouds 1 989 93 2700 2.1 210 02:42 22.12.2019
6045 Clouds 1 989 93 2700 2.1 210 02:42 22.12.2019
6046 Clouds 0 989 89 10000 2.1 140 01:51 22.12.2019
6047 Clouds 0 989 89 10000 2.1 140 01:30 22.12.2019
6048 Clouds 0 989 100 10000 2.1 120 01:30 22.12.2019
6049 Clouds 0 989 92 10000 1.5 160 00:47 22.12.2019
6050 Clouds 0 989 100 10000 3.1 80 00:24 22.12.2019
6051 Clouds 0 990 89 10000 1 0 23:57 21.12.2019
6052 Clouds 1 990 89 10000 1 0 23:38 21.12.2019
6053 Clouds 1 990 93 10000 1.5 150 23:19 21.12.2019
6054 Clouds 1 990 90 10000 2.1 130 22:45 21.12.2019
6055 Clouds 1 990 93 10000 3.1 130 22:20 21.12.2019
6056 Clouds 1 991 93 10000 3.1 140 21:58 21.12.2019
6057 Clouds 1 991 93 10000 3.1 140 21:38 21.12.2019
6058 Clouds 1 992 93 10000 3.6 140 21:20 21.12.2019
6059 Clouds 1 992 93 10000 3.6 140 20:59 21.12.2019
6060 Clouds 1 992 93 10000 2.1 140 20:41 21.12.2019
6061 Clouds 2 993 100 10000 2.1 160 20:22 21.12.2019
6062 Clouds 2 993 100 10000 2.1 160 20:22 21.12.2019
6063 Clouds 2 993 100 10000 2.1 160 19:58 21.12.2019
6064 Clouds 2 993 93 10000 2.1 150 19:40 21.12.2019
6065 Clouds 3 993 93 10000 2.6 190 19:20 21.12.2019
6066 Clouds 3 994 100 10000 2.6 200 18:56 21.12.2019
6067 Clouds 3 994 100 10000 2.6 200 18:38 21.12.2019
6068 Clouds 3 993 93 10000 3.6 180 18:20 21.12.2019
6069 Clouds 4 994 93 10000 4.1 170 17:55 21.12.2019
6070 Clouds 4 994 93 10000 4.1 170 17:37 21.12.2019
6071 Rain 4 994 100 10000 3.1 170 17:18 21.12.2019
6072 Rain 5 995 93 10000 3.6 180 16:54 21.12.2019
6073 Rain 5 995 93 10000 3.6 180 16:36 21.12.2019
6074 Rain 5 995 93 10000 3.1 180 16:18 21.12.2019
6075 Rain 5 995 93 10000 3.1 180 15:54 21.12.2019
6076 Rain 5 995 93 10000 3.6 180 15:36 21.12.2019
6077 Rain 5 995 93 10000 3.6 180 15:18 21.12.2019
6078 Rain 5 995 93 10000 3.1 190 14:40 21.12.2019
6079 Rain 5 995 93 10000 3.1 220 14:22 21.12.2019
6080 Rain 5 995 93 10000 3.1 220 13:57 21.12.2019
6081 Rain 5 995 93 10000 3.1 220 13:39 21.12.2019
6082 Rain 5 995 93 10000 2.6 230 13:19 21.12.2019
6083 Rain 5 995 93 10000 2.1 280 12:56 21.12.2019
6084 Rain 5 995 93 10000 2.1 280 12:37 21.12.2019
6085 Rain 5 995 93 10000 3.1 190 12:19 21.12.2019
6086 Rain 5 995 93 10000 3.1 180 11:45 21.12.2019
6087 Rain 4 995 87 10000 3.6 160 11:26 21.12.2019
6088 Rain 4 995 93 10000 3.1 150 10:57 21.12.2019
6089 Rain 4 995 93 10000 3.1 150 10:39 21.12.2019
6090 Rain 4 996 100 10000 1 170 10:21 21.12.2019
6091 Rain 4 996 100 10000 1 170 09:57 21.12.2019
6092 Rain 4 996 100 10000 2.1 220 09:39 21.12.2019
6093 Rain 4 996 100 10000 2.1 220 09:39 21.12.2019
6094 Clouds 4 996 93 10000 1 0 09:19 21.12.2019
6095 Rain 3 996 93 10000 2.1 220 08:47 21.12.2019
6096 Rain 3 997 93 10000 1 0 08:27 21.12.2019
6097 Clouds 3 996 93 10000 3.1 150 07:47 21.12.2019
6098 Clouds 3 996 93 10000 0.8 147 07:23 21.12.2019
6099 Clouds 3 996 93 10000 0.8 147 06:58 21.12.2019
6100 Clouds 3 996 93 10000 1 0 06:40 21.12.2019
6101 Clouds 3 996 93 10000 1.5 140 06:21 21.12.2019
6102 Rain 3 997 93 10000 1.5 110 05:25 21.12.2019
6103 Rain 4 997 93 10000 3.6 160 04:34 21.12.2019
6104 Rain 4 998 93 10000 2.6 150 03:56 21.12.2019
6105 Rain 5 998 93 10000 6.2 180 02:25 21.12.2019
6106 Rain 5 999 100 10000 5.7 190 01:50 21.12.2019
6107 Rain 5 999 93 10000 7.7 220 01:25 21.12.2019
6108 Rain 6 998 86 10000 5.7 230 00:48 21.12.2019
6109 Rain 6 998 87 10000 6.2 250 00:28 21.12.2019
6110 Rain 7 997 93 10000 6.2 250 23:39 20.12.2019
6111 Rain 6 997 93 10000 6.2 250 23:39 20.12.2019
6112 Rain 7 996 87 7000 9.3 250 23:21 20.12.2019
6113 Rain 7 996 87 7000 9.3 250 22:59 20.12.2019
6114 Clouds 8 995 81 10000 7.7 250 22:39 20.12.2019
6115 Clouds 8 995 70 10000 8.2 250 22:19 20.12.2019
6116 Clouds 8 995 66 10000 4.1 250 21:56 20.12.2019
6117 Clouds 8 995 66 10000 4.1 250 21:38 20.12.2019
6118 Clouds 8 994 66 10000 2.6 250 21:18 20.12.2019
6119 Clouds 8 994 61 10000 5.1 270 20:39 20.12.2019
6120 Clouds 8 994 61 10000 5.1 270 20:39 20.12.2019
6121 Clouds 9 994 50 10000 9.3 250 20:19 20.12.2019
6122 Clouds 10 993 43 10000 5.7 240 19:57 20.12.2019
6123 Clouds 10 993 43 10000 5.7 240 19:39 20.12.2019
6124 Clouds 10 992 77 10000 5.7 180 19:19 20.12.2019
6125 Clouds 9 991 77 10000 5.7 160 18:42 20.12.2019
6126 Clouds 9 991 77 10000 5.7 160 18:42 20.12.2019
6127 Clouds 8 991 77 10000 5.7 160 18:23 20.12.2019
6128 Clouds 8 991 77 10000 5.7 160 17:58 20.12.2019
6129 Clouds 8 991 86 10000 1.5 290 17:40 20.12.2019
6130 Clouds 11 991 43 10000 4.6 150 17:21 20.12.2019
6131 Clouds 11 992 47 10000 4.1 150 16:59 20.12.2019
6132 Clouds 11 992 44 10000 5.1 150 16:39 20.12.2019
6133 Clouds 11 992 44 10000 5.1 150 16:20 20.12.2019
6134 Clouds 10 992 44 10000 5.1 150 15:56 20.12.2019
6135 Clouds 11 992 47 10000 3.6 150 15:38 20.12.2019
6136 Clouds 11 992 47 10000 3.6 150 15:19 20.12.2019
6137 Clouds 10 993 44 10000 4.1 150 14:54 20.12.2019
6138 Clouds 10 993 41 10000 5.1 150 14:36 20.12.2019
6139 Clouds 11 993 41 10000 5.7 150 14:18 20.12.2019
6140 Clouds 11 993 80 10000 0.5 20 13:41 20.12.2019
6141 Clouds 11 994 41 10000 5.7 160 13:20 20.12.2019
6142 Clouds 11 994 38 10000 6.7 160 12:58 20.12.2019
6143 Clouds 11 994 80 10000 1.5 280 12:38 20.12.2019
6144 Clouds 10 995 38 10000 5.7 160 12:19 20.12.2019
6145 Clouds 10 995 41 10000 4.6 150 11:59 20.12.2019
6146 Clouds 10 995 41 10000 4.6 150 11:59 20.12.2019
6147 Mist 10 995 100 5000 0.5 90 11:39 20.12.2019
6148 Clouds 6 996 86 10000 1 0 11:19 20.12.2019
6149 Clouds 6 997 93 10000 1 0 10:58 20.12.2019
6150 Clouds 5 996 69 10000 1.5 280 10:39 20.12.2019
6151 Clouds 3 997 100 10000 1 340 10:20 20.12.2019
6152 Clouds 5 996 46 10000 6.7 160 09:55 20.12.2019
6153 Clouds 3 997 50 10000 5.7 160 09:37 20.12.2019
6154 Clouds 3 997 50 10000 5.7 160 09:19 20.12.2019
6155 Clouds 3 997 57 10000 3.1 160 08:42 20.12.2019
6156 Fog 1 998 100 10000 2.1 80 08:22 20.12.2019
6157 Fog 1 999 86 10000 1 0 07:58 20.12.2019
6158 Clouds 1 998 100 10000 1 0 07:40 20.12.2019
6159 Fog 0 999 100 10000 1.5 70 07:19 20.12.2019
6160 Fog 1 1000 100 10000 1 0 06:51 20.12.2019
6161 Clear 1 1001 100 10000 1 50 06:31 20.12.2019
6162 Fog 1 1001 86 10000 1.5 50 05:53 20.12.2019
6163 Fog 1 1002 100 10000 1.5 60 05:35 20.12.2019
6164 Fog 1 1003 100 10000 1 0 04:33 20.12.2019
6165 Fog 1 1004 100 9000 2.1 70 03:30 20.12.2019
6166 Fog 1 1004 100 9000 2.1 70 03:30 20.12.2019
6167 Fog 1 1005 92 9000 1.5 320 02:43 20.12.2019
6168 Clouds 3 1004 61 10000 4.1 160 01:52 20.12.2019
6169 Clouds 3 1005 84 10000 3.1 150 01:33 20.12.2019
6170 Fog 2 1005 92 2500 1 10 00:44 20.12.2019
6171 Fog 2 1006 83 9000 1 0 00:25 20.12.2019
6172 Fog 2 1007 83 9000 1.5 70 23:54 19.12.2019
6173 Clouds 3 1007 100 200 2.6 70 23:36 19.12.2019
6174 Clouds 3 1007 80 10000 2.1 120 23:18 19.12.2019
6175 Clouds 3 1008 100 100 3.1 80 22:37 19.12.2019
6176 Clouds 2 1008 75 10000 3.1 150 22:19 19.12.2019
6177 Clouds 2 1009 100 10000 1 0 21:56 19.12.2019
6178 Clouds 2 1009 93 7000 0.5 0 21:37 19.12.2019
6179 Clouds 2 1009 93 7000 0.5 0 21:18 19.12.2019
6180 Clouds 3 1010 93 10000 2.1 90 20:56 19.12.2019
6181 Clouds 3 1011 100 100 2.6 80 20:37 19.12.2019
6182 Clouds 3 1010 80 10000 1.5 170 20:18 19.12.2019
6183 Clouds 3 1010 93 10000 1 0 19:57 19.12.2019
6184 Clouds 3 1010 93 10000 1 0 19:57 19.12.2019
6185 Fog 3 1010 80 10000 0.5 10 19:39 19.12.2019
6186 Fog 3 1010 80 10000 0.5 10 19:39 19.12.2019
6187 Clouds 4 1010 100 10000 2.1 170 19:19 19.12.2019
6188 Clouds 4 1010 100 10000 2.1 170 19:19 19.12.2019
6189 Clouds 4 1011 100 10000 1 0 18:55 19.12.2019
6190 Fog 4 1011 93 10000 1.44 208 18:37 19.12.2019
6191 Clouds 4 1011 100 10000 0.5 0 18:18 19.12.2019
6192 Clouds 5 1011 93 10000 0.5 0 17:54 19.12.2019
6193 Clouds 5 1011 87 10000 1 0 17:36 19.12.2019
6194 Clouds 6 1011 87 10000 1 0 17:18 19.12.2019
6195 Clouds 7 1011 87 10000 2.6 60 16:55 19.12.2019
6196 Clouds 7 1012 81 10000 1 0 16:36 19.12.2019
6197 Clouds 8 1012 81 10000 1 0 16:18 19.12.2019
6198 Clouds 8 1012 71 10000 2.1 40 15:55 19.12.2019
6199 Clouds 8 1012 71 10000 2.1 20 15:36 19.12.2019
6200 Clouds 8 1012 71 10000 2.1 20 15:18 19.12.2019
6201 Clouds 8 1012 76 10000 2.1 330 14:42 19.12.2019
6202 Clouds 8 1012 71 10000 3.1 10 14:20 19.12.2019
6203 Clouds 8 1012 66 10000 1.5 10 13:58 19.12.2019
6204 Clouds 7 1013 71 10000 2.6 20 13:38 19.12.2019
6205 Clouds 7 1013 71 10000 2.6 20 13:19 19.12.2019
6206 Clouds 7 1014 76 10000 1 0 12:57 19.12.2019
6207 Clouds 7 1014 81 10000 1 0 12:39 19.12.2019
6208 Fog 6 1015 100 5000 1.5 60 12:19 19.12.2019
6209 Clouds 6 1014 81 10000 1 0 12:19 19.12.2019
6210 Clouds 6 1015 86 10000 1 0 11:58 19.12.2019
6211 Clouds 5 1015 93 10000 0.5 0 11:40 19.12.2019
6212 Clouds 4 1015 93 10000 0.5 0 11:18 19.12.2019
6213 Clouds 3 1015 93 10000 1 0 10:58 19.12.2019
6214 Fog 2 1016 74 200 1 260 10:38 19.12.2019
6215 Clouds 2 1016 93 10000 0.5 0 10:20 19.12.2019
6216 Clouds 2 1016 74 10000 1.5 160 09:55 19.12.2019
6217 Clouds 1 1015 74 10000 1 0 09:37 19.12.2019
6218 Clouds 1 1016 100 10000 0.5 0 09:18 19.12.2019
6219 Clouds 1 1016 74 10000 2.6 230 08:42 19.12.2019
6220 Fog 0 1017 92 200 1 180 08:20 19.12.2019
6221 Clouds 0 1016 85 10000 2.6 230 08:20 19.12.2019
6222 Clouds 0 1016 85 10000 2.6 230 08:20 19.12.2019
6223 Clouds 0 1016 85 10000 2.1 240 07:59 19.12.2019
6224 Clouds 0 1016 100 10000 2.1 180 07:40 19.12.2019
6225 Clouds 0 1016 100 10000 2.1 180 07:22 19.12.2019
6226 Clouds 0 1016 100 10000 1.5 250 06:52 19.12.2019
6227 Clouds 0 1016 100 10000 1.5 250 06:52 19.12.2019
6228 Clouds 0 1016 100 10000 1.5 250 06:52 19.12.2019
6229 Clouds 1 1016 85 10000 1 0 06:33 19.12.2019
6230 Clouds 0 1016 92 10000 2.1 220 05:59 19.12.2019
6231 Fog 0 1017 92 1300 0.5 0 05:41 19.12.2019
6232 Fog 1 1017 100 1700 1 100 05:18 19.12.2019
6233 Clouds 1 1017 84 10000 1.25 161 03:46 19.12.2019
6234 Clouds 3 1018 86 10000 1.38 137 02:25 19.12.2019
6235 Clouds 4 1018 66 10000 4.1 130 01:24 19.12.2019
6236 Clouds 3 1019 70 10000 4.1 130 00:55 19.12.2019
6237 Clouds 4 1019 70 10000 3.6 120 00:36 19.12.2019
6238 Clouds 4 1019 70 10000 3.6 120 00:18 19.12.2019
6239 Clouds 4 1019 75 10000 3.6 120 23:44 18.12.2019
6240 Clouds 4 1020 75 10000 2.6 100 23:19 18.12.2019
6241 Clouds 4 1020 81 10000 3.6 100 22:56 18.12.2019
6242 Fog 4 1020 100 10000 0.5 10 22:38 18.12.2019
6243 Clouds 4 1020 75 10000 3.6 100 22:20 18.12.2019
6244 Clouds 5 1020 76 10000 2.1 90 21:58 18.12.2019
6245 Clouds 5 1020 93 10000 1.5 350 21:39 18.12.2019
6246 Clouds 5 1020 75 10000 3.1 100 21:20 18.12.2019
6247 Clouds 5 1020 81 10000 3.1 110 20:56 18.12.2019
6248 Clouds 5 1020 87 10000 3.1 100 20:38 18.12.2019
6249 Clouds 6 1020 87 10000 2.1 110 20:19 18.12.2019
6250 Clouds 6 1020 87 10000 2.1 110 19:56 18.12.2019
6251 Clouds 6 1020 87 10000 1.5 120 19:38 18.12.2019
6252 Clouds 6 1020 87 10000 1.5 120 19:18 18.12.2019
6253 Clouds 6 1020 87 10000 2.1 130 18:54 18.12.2019
6254 Clouds 6 1020 86 10000 2.1 110 18:36 18.12.2019
6255 Clouds 7 1020 86 10000 1.5 130 18:18 18.12.2019
6256 Clouds 7 1020 87 10000 0.5 0 17:55 18.12.2019
6257 Clouds 8 1019 81 10000 2.1 110 17:37 18.12.2019
6258 Clouds 9 1019 70 10000 1 40 17:18 18.12.2019
6259 Clouds 9 1019 70 10000 1 40 16:42 18.12.2019
6260 Clouds 11 1019 62 10000 1.5 60 16:23 18.12.2019
6261 Clouds 11 1019 62 10000 2.6 30 15:57 18.12.2019
6262 Clouds 12 1019 62 10000 2.6 30 15:39 18.12.2019
6263 Clouds 12 1019 62 10000 2.1 30 15:21 18.12.2019
6264 Clouds 13 1019 62 10000 2.1 30 14:56 18.12.2019
6265 Clouds 12 1019 58 10000 2.6 360 14:38 18.12.2019
6266 Clouds 13 1019 54 10000 1 0 14:19 18.12.2019
6267 Clouds 13 1019 54 10000 1 0 13:55 18.12.2019
6268 Clouds 13 1019 54 10000 1 0 13:36 18.12.2019
6269 Clouds 12 1019 54 10000 1 0 13:18 18.12.2019
6270 Clouds 12 1019 54 10000 1 0 13:18 18.12.2019
6271 Clouds 13 1019 54 10000 2.1 360 12:40 18.12.2019
6272 Clouds 13 1019 54 10000 2.6 320 12:21 18.12.2019
6273 Clouds 12 1019 47 10000 0.5 0 11:57 18.12.2019
6274 Clouds 12 1019 47 10000 0.5 0 11:39 18.12.2019
6275 Clouds 9 1019 54 10000 0.89 171 11:20 18.12.2019
6276 Clouds 9 1019 66 10000 1 0 10:58 18.12.2019
6277 Clouds 9 1019 66 10000 1 0 10:39 18.12.2019
6278 Clouds 8 1019 76 10000 0.5 160 10:20 18.12.2019
6279 Clouds 7 1019 76 10000 0.5 160 09:59 18.12.2019
6280 Clouds 7 1019 76 10000 0.5 160 09:59 18.12.2019
6281 Clouds 7 1018 70 10000 1.5 160 09:20 18.12.2019
6282 Clouds 7 1018 70 10000 1.5 160 08:55 18.12.2019
6283 Clouds 7 1018 75 10000 1 170 08:37 18.12.2019
6284 Clouds 6 1017 70 10000 1.5 210 08:19 18.12.2019
6285 Clouds 6 1017 66 10000 0.5 0 07:42 18.12.2019
6286 Clouds 6 1017 66 10000 0.5 0 07:21 18.12.2019
6287 Clouds 6 1017 70 10000 3.1 210 06:52 18.12.2019
6288 Clouds 5 1016 66 10000 2.1 210 06:26 18.12.2019
6289 Clouds 6 1016 66 10000 2.1 240 05:37 18.12.2019
6290 Clouds 5 1015 93 10000 1 300 04:35 18.12.2019
6291 Clouds 4 1013 75 10000 1.5 230 02:50 18.12.2019
6292 Clouds 4 1013 75 10000 1.5 230 02:30 18.12.2019
6293 Clouds 5 1012 65 10000 2.1 180 01:47 18.12.2019
6294 Clouds 5 1012 70 10000 3.1 230 01:28 18.12.2019
6295 Clouds 5 1012 70 10000 3.1 230 00:59 18.12.2019
6296 Clouds 5 1012 66 10000 3.6 230 00:39 18.12.2019
6297 Clouds 5 1012 57 10000 3.6 210 00:21 18.12.2019
6298 Clouds 6 1011 50 10000 5.7 170 23:54 17.12.2019
6299 Clouds 6 1011 50 10000 5.7 170 23:36 17.12.2019
6300 Clouds 6 1011 50 10000 5.7 170 23:18 17.12.2019
6301 Clouds 6 1011 50 10000 5.7 170 22:54 17.12.2019
6302 Clouds 6 1011 50 10000 5.7 170 22:36 17.12.2019
6303 Clouds 5 1010 50 10000 5.1 160 22:18 17.12.2019
6304 Clouds 5 1010 50 10000 5.1 160 21:55 17.12.2019
6305 Clouds 3 1010 93 10000 0.5 0 21:36 17.12.2019
6306 Clouds 3 1010 100 10000 0.5 40 21:18 17.12.2019
6307 Clouds 3 1010 100 10000 0.5 0 20:55 17.12.2019
6308 Clouds 5 1010 47 10000 5.7 170 20:36 17.12.2019
6309 Clouds 6 1010 47 10000 5.7 170 20:18 17.12.2019
6310 Clouds 7 1010 44 10000 7.2 170 19:41 17.12.2019
6311 Clouds 7 1010 44 10000 7.2 170 19:41 17.12.2019
6312 Clouds 7 1010 44 10000 6.2 160 19:20 17.12.2019
6313 Clouds 6 1010 44 10000 6.2 160 18:58 17.12.2019
6314 Clouds 6 1010 44 10000 7.2 160 18:40 17.12.2019
6315 Clouds 5 1009 44 10000 6.7 170 18:21 17.12.2019
6316 Clouds 5 1010 93 10000 1.5 60 17:58 17.12.2019
6317 Clouds 6 1010 44 10000 6.2 160 17:39 17.12.2019
6318 Clouds 8 1009 44 10000 4.6 170 17:19 17.12.2019
6319 Clouds 9 1009 44 10000 5.7 160 16:56 17.12.2019
6320 Clouds 8 1009 44 10000 5.7 160 16:37 17.12.2019
6321 Clouds 8 1009 44 10000 5.7 160 16:37 17.12.2019
6322 Clouds 9 1009 44 10000 5.1 160 16:19 17.12.2019
6323 Clouds 8 1009 44 10000 2.6 130 15:55 17.12.2019
6324 Clouds 8 1009 44 10000 2.6 130 15:37 17.12.2019
6325 Clouds 7 1009 47 10000 4.1 170 15:18 17.12.2019
6326 Clouds 8 1009 47 10000 4.1 170 14:55 17.12.2019
6327 Clouds 8 1009 41 10000 4.1 170 14:36 17.12.2019
6328 Clouds 9 1009 47 10000 4.1 150 14:18 17.12.2019
6329 Clouds 9 1009 47 10000 3.6 150 13:55 17.12.2019
6330 Clouds 8 1009 47 10000 3.6 150 13:37 17.12.2019
6331 Clouds 8 1009 41 10000 4.1 150 13:18 17.12.2019
6332 Clouds 10 1009 41 10000 3.6 140 12:41 17.12.2019
6333 Clouds 9 1009 44 10000 4.6 160 12:19 17.12.2019
6334 Clouds 9 1009 44 10000 4.6 160 12:19 17.12.2019
6335 Clouds 9 1009 44 10000 4.6 160 12:19 17.12.2019
6336 Clouds 9 1009 44 10000 4.6 160 11:59 17.12.2019
6337 Clouds 9 1009 50 10000 3.1 150 11:37 17.12.2019
6338 Clouds 5 1009 44 10000 3.6 130 11:19 17.12.2019
6339 Clouds 4 1009 47 10000 5.1 160 10:59 17.12.2019
6340 Clouds 4 1009 47 10000 5.1 160 10:41 17.12.2019
6341 Clouds 4 1009 74 10000 1 80 10:22 17.12.2019
6342 Clouds 5 1008 43 10000 6.2 170 09:59 17.12.2019
6343 Clouds 5 1008 43 10000 6.2 170 09:41 17.12.2019
6344 Clouds 5 1008 43 10000 6.7 170 09:20 17.12.2019
6345 Clouds 5 1008 43 10000 6.7 160 08:56 17.12.2019
6346 Clouds 5 1008 43 10000 6.7 160 08:56 17.12.2019
6347 Clouds 5 1008 43 10000 6.7 160 08:38 17.12.2019
6348 Clouds 2 1008 83 10000 0.5 0 08:20 17.12.2019
6349 Clouds 2 1007 83 10000 1 0 07:54 17.12.2019
6350 Clouds 2 1007 83 10000 1 0 07:36 17.12.2019
6351 Clouds 1 1007 83 10000 1 0 07:18 17.12.2019
6352 Clouds 1 1007 83 10000 1 0 06:35 17.12.2019
6353 Clouds 1 1007 83 10000 2.1 80 05:56 17.12.2019
6354 Clouds 1 1007 83 10000 2.1 80 05:36 17.12.2019
6355 Clouds 1 1007 83 10000 1.5 10 04:33 17.12.2019
6356 Clouds 1 1007 93 10000 1.37 187 02:47 17.12.2019
6357 Clouds 1 1007 82 10000 2.1 340 01:56 17.12.2019
6358 Clouds 2 1007 82 10000 1.5 350 01:20 17.12.2019
6359 Clouds 2 1007 86 10000 1.5 0 00:38 17.12.2019
6360 Clouds 2 1007 82 10000 1.5 0 00:20 17.12.2019
6361 Clouds 1 1007 82 10000 1 0 23:42 16.12.2019
6362 Clouds 2 1007 80 10000 2.26 161 23:19 16.12.2019
6363 Clouds 2 1007 80 10000 2.26 161 22:58 16.12.2019
6364 Clouds 2 1007 80 10000 2.26 161 22:38 16.12.2019
6365 Clouds 2 1008 80 10000 0.5 110 22:20 16.12.2019
6366 Clouds 1 1008 80 10000 2.1 170 21:56 16.12.2019
6367 Clouds 2 1008 80 10000 2.1 170 21:38 16.12.2019
6368 Clouds 2 1008 80 10000 1 260 21:20 16.12.2019
6369 Clouds 1 1009 80 10000 1 0 20:58 16.12.2019
6370 Clouds 2 1009 81 10000 1 0 20:39 16.12.2019
6371 Clouds 2 1009 82 10000 2.1 150 20:19 16.12.2019
6372 Clouds 2 1009 93 10000 1 0 19:56 16.12.2019
6373 Clouds 3 1009 93 10000 1 0 19:37 16.12.2019
6374 Clouds 3 1009 82 10000 0.5 0 19:19 16.12.2019
6375 Clouds 3 1009 82 10000 0.5 0 18:58 16.12.2019
6376 Clouds 4 1009 82 10000 0.5 0 18:40 16.12.2019
6377 Clouds 4 1009 86 10000 1 80 18:20 16.12.2019
6378 Clouds 4 1009 93 10000 1.5 40 17:58 16.12.2019
6379 Clouds 5 1009 93 10000 1.5 40 17:39 16.12.2019
6380 Clouds 5 1010 86 10000 1.5 20 17:21 16.12.2019
6381 Clouds 5 1009 80 10000 1.5 10 16:57 16.12.2019
6382 Clouds 6 1009 80 10000 1.5 10 16:39 16.12.2019
6383 Clouds 6 1009 75 10000 1.5 50 16:20 16.12.2019
6384 Clouds 6 1009 75 10000 1.5 50 15:59 16.12.2019
6385 Clouds 6 1009 75 10000 1.5 50 15:59 16.12.2019
6386 Clouds 7 1009 75 10000 1 0 15:39 16.12.2019
6387 Clouds 7 1009 70 10000 2.1 60 15:20 16.12.2019
6388 Clouds 7 1009 70 10000 1.5 30 14:57 16.12.2019
6389 Clouds 8 1009 70 10000 1.5 30 14:37 16.12.2019
6390 Clouds 8 1009 65 10000 1.5 30 14:19 16.12.2019
6391 Clouds 8 1009 75 10000 2.1 340 13:56 16.12.2019
6392 Clouds 7 1009 75 10000 2.1 340 13:38 16.12.2019
6393 Clouds 7 1009 75 10000 2.1 340 13:38 16.12.2019
6394 Clouds 6 1010 75 10000 1 0 13:19 16.12.2019
6395 Clouds 6 1010 75 10000 0.85 155 12:58 16.12.2019
6396 Clouds 6 1010 75 10000 0.85 155 12:39 16.12.2019
6397 Clouds 5 1010 86 10000 0.97 193 12:19 16.12.2019
6398 Clouds 4 1011 93 10000 1 0 11:59 16.12.2019
6399 Clouds 3 1011 93 10000 1 0 11:40 16.12.2019
6400 Clouds 3 1011 93 10000 1 200 11:20 16.12.2019
6401 Clouds 2 1011 74 10000 0.5 0 10:58 16.12.2019
6402 Clouds 2 1011 74 10000 0.5 0 10:39 16.12.2019
6403 Clouds 2 1011 74 10000 1 0 10:20 16.12.2019
6404 Clouds 2 1011 74 10000 1 0 09:45 16.12.2019
6405 Clouds 1 1011 74 10000 1 0 09:27 16.12.2019
6406 Clouds 1 1011 92 10000 1 0 08:57 16.12.2019
6407 Clouds 1 1011 92 10000 1 0 08:38 16.12.2019
6408 Clouds 1 1011 92 10000 0.5 10 08:18 16.12.2019
6409 Clouds 1 1011 92 10000 1.5 360 07:47 16.12.2019
6410 Clouds 1 1011 92 10000 1.5 360 07:29 16.12.2019
6411 Clouds 1 1011 92 10000 1.5 150 06:46 16.12.2019
6412 Clouds 1 1011 100 10000 1 190 06:26 16.12.2019
6413 Clouds 1 1011 100 10000 1.54 164 05:54 16.12.2019
6414 Clouds 2 1011 81 10000 1 0 05:35 16.12.2019
6415 Clouds 3 1012 81 10000 1.5 130 04:33 16.12.2019
6416 Clouds 4 1012 100 10000 0.5 0 02:49 16.12.2019
6417 Clouds 5 1012 100 900 1.33 133 01:45 16.12.2019
6418 Clouds 5 1012 100 7000 1.63 151 00:55 16.12.2019
6419 Clouds 6 1012 93 10000 1.63 151 00:36 16.12.2019
6420 Clouds 6 1012 93 10000 1 0 00:18 16.12.2019
6421 Clouds 6 1012 93 10000 1 0 23:40 15.12.2019
6422 Clouds 6 1013 93 10000 1.5 120 23:22 15.12.2019
6423 Clouds 6 1013 93 10000 2.6 110 22:57 15.12.2019
6424 Clouds 6 1013 93 10000 2.6 110 22:38 15.12.2019
6425 Clouds 6 1013 93 10000 2.6 110 22:19 15.12.2019
6426 Clouds 6 1013 100 10000 2.1 100 21:57 15.12.2019
6427 Clouds 6 1013 100 10000 2.1 100 21:38 15.12.2019
6428 Clouds 6 1012 93 10000 2.1 90 21:19 15.12.2019
6429 Clouds 6 1012 93 10000 2.1 90 20:58 15.12.2019
6430 Clouds 7 1012 93 10000 2.1 50 20:39 15.12.2019
6431 Clouds 7 1012 93 10000 2.1 50 20:39 15.12.2019
6432 Clouds 7 1012 93 10000 3.1 30 20:21 15.12.2019
6433 Clouds 7 1011 87 10000 4.1 50 19:58 15.12.2019
6434 Clouds 8 1011 87 10000 4.1 50 19:40 15.12.2019
6435 Clouds 8 1011 71 10000 3.1 250 19:20 15.12.2019
6436 Clouds 8 1011 71 10000 3.1 250 18:57 15.12.2019
6437 Rain 8 1011 87 10000 1.5 340 18:39 15.12.2019
6438 Clouds 9 1010 66 10000 3.6 250 18:19 15.12.2019
6439 Rain 9 1010 81 10000 6.7 330 17:56 15.12.2019
6440 Clouds 10 1010 62 10000 4.1 230 17:38 15.12.2019
6441 Clouds 10 1009 54 10000 6.7 240 17:19 15.12.2019
6442 Clouds 11 1009 62 10000 6.7 250 16:57 15.12.2019
6443 Clouds 12 1009 62 10000 6.7 250 16:39 15.12.2019
6444 Clouds 12 1008 62 10000 8.2 260 16:21 15.12.2019
6445 Clouds 12 1008 58 10000 8.2 260 15:56 15.12.2019
6446 Clouds 13 1008 58 10000 8.2 260 15:38 15.12.2019
6447 Clouds 13 1008 54 10000 9.3 260 15:19 15.12.2019
6448 Clouds 13 1007 54 10000 10.8 250 14:56 15.12.2019
6449 Clouds 13 1007 54 10000 10.8 250 14:37 15.12.2019
6450 Clouds 13 1007 47 10000 9.3 260 14:18 15.12.2019
6451 Clouds 13 1007 47 10000 9.3 260 13:58 15.12.2019
6452 Clouds 13 1007 54 10000 7.7 250 13:37 15.12.2019
6453 Clouds 13 1007 54 10000 7.7 250 13:37 15.12.2019
6454 Clouds 13 1007 50 10000 9.3 250 13:19 15.12.2019
6455 Clouds 13 1007 50 10000 9.3 250 12:56 15.12.2019
6456 Clouds 13 1007 50 10000 9.3 250 12:38 15.12.2019
6457 Clouds 13 1007 47 10000 11.3 250 12:20 15.12.2019
6458 Clouds 12 1007 50 10000 10.8 250 11:56 15.12.2019
6459 Clouds 12 1007 50 10000 10.8 250 11:36 15.12.2019
6460 Clouds 12 1007 50 10000 9.3 240 11:18 15.12.2019
6461 Clouds 11 1006 58 10000 7.7 230 10:55 15.12.2019
6462 Clouds 10 1006 58 10000 7.7 230 10:36 15.12.2019
6463 Clouds 10 1006 54 10000 8.2 220 10:18 15.12.2019
6464 Clouds 9 1006 66 10000 8.7 220 09:40 15.12.2019
6465 Clouds 9 1006 66 10000 7.2 220 09:20 15.12.2019
6466 Clouds 8 1006 66 10000 7.2 220 08:58 15.12.2019
6467 Clouds 8 1006 70 10000 7.7 230 08:39 15.12.2019
6468 Clouds 7 1006 75 10000 5.7 220 08:21 15.12.2019
6469 Clouds 7 1005 75 10000 5.7 220 07:56 15.12.2019
6470 Clouds 7 1005 70 10000 4.1 210 07:34 15.12.2019
6471 Clouds 7 1005 65 10000 4.6 180 06:51 15.12.2019
6472 Clouds 6 1005 80 10000 2.6 180 06:20 15.12.2019
6473 Clouds 6 1005 93 10000 3.1 160 05:26 15.12.2019
6474 Clouds 6 1006 93 10000 3.1 210 04:47 15.12.2019
6475 Clouds 6 1005 87 10000 2.6 150 03:31 15.12.2019
6476 Clouds 6 1006 87 10000 3.1 160 02:34 15.12.2019
6477 Clouds 6 1006 81 10000 3.1 190 01:47 15.12.2019
6478 Clouds 7 1006 75 10000 4.6 240 01:28 15.12.2019
6479 Clouds 7 1006 75 10000 4.6 240 00:59 15.12.2019
6480 Clouds 7 1006 75 10000 5.7 230 00:41 15.12.2019
6481 Clouds 7 1007 70 10000 6.2 240 00:23 15.12.2019
6482 Clouds 8 1007 70 10000 6.2 240 23:40 14.12.2019
6483 Clouds 8 1007 70 10000 6.2 240 23:40 14.12.2019
6484 Clouds 8 1007 70 10000 6.2 240 23:40 14.12.2019
6485 Clouds 8 1007 66 10000 7.2 240 23:21 14.12.2019
6486 Clouds 8 1006 66 10000 8.2 240 22:58 14.12.2019
6487 Clouds 8 1006 66 10000 8.2 240 22:40 14.12.2019
6488 Clouds 8 1006 66 10000 9.8 250 22:21 14.12.2019
6489 Clouds 8 1005 61 10000 9.8 240 21:56 14.12.2019
6490 Clouds 8 1005 61 10000 9.8 240 21:38 14.12.2019
6491 Clouds 8 1005 61 10000 9.3 240 21:19 14.12.2019
6492 Clouds 8 1005 61 10000 9.3 240 20:57 14.12.2019
6493 Clouds 8 1005 85 10000 10.8 240 20:39 14.12.2019
6494 Clouds 7 1004 49 10000 12.3 240 20:19 14.12.2019
6495 Clouds 7 1004 49 10000 12.3 240 19:57 14.12.2019
6496 Clouds 7 1004 49 10000 10.3 230 19:37 14.12.2019
6497 Clouds 7 1004 49 10000 10.3 230 19:19 14.12.2019
6498 Clouds 7 1004 49 10000 11.3 240 18:56 14.12.2019
6499 Clouds 7 1004 49 10000 11.3 240 18:37 14.12.2019
6500 Clouds 6 1004 48 10000 9.3 240 18:19 14.12.2019
6501 Clouds 6 1004 48 10000 9.3 240 18:19 14.12.2019
6502 Clouds 6 1004 48 10000 8.7 230 17:43 14.12.2019
6503 Clouds 6 1004 56 10000 9.8 220 17:24 14.12.2019
6504 Clouds 6 1005 56 10000 9.8 230 16:58 14.12.2019
6505 Clouds 6 1005 56 10000 9.8 230 16:39 14.12.2019
6506 Clouds 6 1005 56 10000 9.8 230 16:39 14.12.2019
6507 Clouds 7 1004 56 10000 11.3 240 16:18 14.12.2019
6508 Clouds 7 1003 52 10000 12.3 250 15:43 14.12.2019
6509 Clouds 7 1002 61 10000 13.4 240 15:22 14.12.2019
6510 Clouds 8 1001 61 10000 10.8 240 14:59 14.12.2019
6511 Clouds 8 1001 61 10000 10.8 240 14:39 14.12.2019
6512 Clouds 8 1000 61 10000 12.9 250 14:20 14.12.2019
6513 Clouds 8 999 65 10000 11.3 260 13:56 14.12.2019
6514 Clouds 8 999 65 10000 11.3 260 13:38 14.12.2019
6515 Clouds 8 999 65 10000 9.8 240 13:18 14.12.2019
6516 Clouds 8 998 66 10000 11.8 260 12:55 14.12.2019
6517 Clouds 8 998 66 10000 11.8 260 12:37 14.12.2019
6518 Clouds 8 998 66 10000 14.9 260 12:18 14.12.2019
6519 Clouds 8 997 65 10000 13.9 250 11:55 14.12.2019
6520 Clouds 8 996 65 10000 13.9 250 11:36 14.12.2019
6521 Rain 8 996 65 10000 13.9 250 11:18 14.12.2019
6522 Rain 7 996 75 10000 11.3 250 10:55 14.12.2019
6523 Rain 7 996 75 10000 11.3 250 10:37 14.12.2019
6524 Rain 6 994 81 10000 11.3 240 10:18 14.12.2019
6525 Rain 6 994 81 10000 11.8 250 09:40 14.12.2019
6526 Rain 5 993 81 10000 9.3 260 09:21 14.12.2019
6527 Rain 4 992 81 10000 6.7 230 08:45 14.12.2019
6528 Rain 3 991 86 10000 5.1 220 08:20 14.12.2019
6529 Rain 3 991 86 10000 5.1 220 07:58 14.12.2019
6530 Rain 2 991 77 10000 4.6 170 07:38 14.12.2019
6531 Rain 2 991 77 10000 4.6 160 07:19 14.12.2019
6532 Rain 2 991 77 10000 4.1 170 06:42 14.12.2019
6533 Rain 2 992 80 8000 8.2 210 06:22 14.12.2019
6534 Snow 3 992 51 10000 5.7 200 05:35 14.12.2019
6535 Clear 3 993 64 10000 6.2 230 03:44 14.12.2019
6536 Clouds 3 993 69 10000 5.1 220 02:23 14.12.2019
6537 Clouds 4 994 64 10000 8.2 230 01:44 14.12.2019
6538 Clouds 4 994 64 10000 8.2 230 01:20 14.12.2019
6539 Clouds 4 993 69 10000 9.3 230 00:41 14.12.2019
6540 Clouds 4 993 74 10000 9.8 240 00:20 14.12.2019
6541 Clouds 3 993 74 10000 11.8 240 23:41 13.12.2019
6542 Clouds 3 992 74 10000 11.3 240 23:20 13.12.2019
6543 Clouds 3 992 74 10000 11.3 240 22:59 13.12.2019
6544 Clouds 4 992 74 10000 12.3 240 22:40 13.12.2019
6545 Clouds 4 991 69 10000 12.9 240 22:19 13.12.2019
6546 Clouds 4 991 85 10000 12.3 240 21:55 13.12.2019
6547 Clouds 4 991 85 10000 12.3 240 21:36 13.12.2019
6548 Clouds 4 990 85 10000 10.8 240 21:18 13.12.2019
6549 Clouds 4 990 85 10000 11.8 240 20:40 13.12.2019
6550 Snow 4 989 84 10000 10.8 240 20:21 13.12.2019
6551 Snow 4 989 84 10000 10.8 240 19:58 13.12.2019
6552 Snow 4 989 84 9000 9.3 210 19:40 13.12.2019
6553 Snow 4 989 84 10000 9.3 230 19:20 13.12.2019
6554 Snow 4 988 84 10000 9.3 220 18:57 13.12.2019
6555 Snow 4 988 84 10000 9.8 210 18:39 13.12.2019
6556 Snow 4 988 84 10000 10.8 230 18:18 13.12.2019
6557 Clouds 4 987 84 10000 7.7 240 17:42 13.12.2019
6558 Clouds 4 987 89 10000 7.7 240 17:19 13.12.2019
6559 Clouds 4 987 89 10000 7.7 240 17:19 13.12.2019
6560 Clouds 4 986 89 10000 9.8 240 16:59 13.12.2019
6561 Clouds 4 985 89 10000 9.8 230 16:39 13.12.2019
6562 Clouds 4 985 89 10000 9.8 230 16:20 13.12.2019
6563 Clouds 4 985 89 10000 9.8 230 16:20 13.12.2019
6564 Clouds 4 985 89 10000 9.8 240 15:43 13.12.2019
6565 Clouds 4 984 70 10000 11.3 250 15:23 13.12.2019
6566 Clouds 4 984 89 10000 12.3 230 15:23 13.12.2019
6567 Clouds 4 983 89 10000 11.8 240 14:59 13.12.2019
6568 Clouds 4 983 80 10000 5.1 250 14:41 13.12.2019
6569 Clouds 4 983 70 10000 10.3 240 14:20 13.12.2019
6570 Rain 4 983 74 5000 11.3 270 13:57 13.12.2019
6571 Rain 3 982 80 10000 10.3 230 13:38 13.12.2019
6572 Rain 3 982 80 10000 10.3 230 13:19 13.12.2019
6573 Rain 1 982 86 6000 4.1 210 12:42 13.12.2019
6574 Rain 1 982 86 6000 4.1 210 12:20 13.12.2019
6575 Rain 1 982 74 7000 5.7 220 11:57 13.12.2019
6576 Rain 1 982 74 7000 5.7 220 11:57 13.12.2019
6577 Rain 1 981 86 3800 1 0 11:39 13.12.2019
6578 Clouds 1 980 69 10000 2.1 170 11:21 13.12.2019
6579 Clouds 0 981 92 10000 3.1 90 10:55 13.12.2019
6580 Snow 0 981 58 2000 2.1 120 10:37 13.12.2019
6581 Snow 0 981 58 2000 1.5 90 10:19 13.12.2019
6582 Clouds -1 981 86 10000 1 0 09:39 13.12.2019
6583 Clouds -1 981 92 10000 1 0 09:19 13.12.2019
6584 Clouds -1 981 92 10000 1 0 08:42 13.12.2019
6585 Clouds -1 982 100 10000 1.5 80 08:24 13.12.2019
6586 Clouds -1 982 86 10000 2.1 120 07:47 13.12.2019
6587 Clouds -1 984 92 10000 1 0 07:24 13.12.2019
6588 Clouds -1 985 92 10000 2.6 250 06:55 13.12.2019
6589 Clouds -1 985 92 10000 1 80 06:29 13.12.2019
6590 Clouds -2 985 92 10000 1.5 10 05:51 13.12.2019
6591 Clouds -2 986 92 10000 1 0 05:30 13.12.2019
6592 Clouds -2 987 86 10000 1 0 04:46 13.12.2019
6593 Clouds -2 988 92 10000 0.5 0 03:49 13.12.2019
6594 Clouds -2 990 100 10000 1.5 150 02:35 13.12.2019
6595 Clouds -2 991 86 10000 1 110 01:49 13.12.2019
6596 Clear -2 992 86 10000 2.6 120 01:21 13.12.2019
6597 Clear -2 993 92 10000 2.6 110 00:46 13.12.2019
6598 Clear -2 994 86 10000 2.1 130 00:24 13.12.2019
6599 Clear -2 994 100 10000 2.1 120 23:41 12.12.2019
6600 Clear -1 996 86 10000 2.1 140 23:22 12.12.2019
6601 Clear -1 996 86 10000 3.1 130 22:56 12.12.2019
6602 Clear -1 997 86 10000 3.6 130 22:38 12.12.2019
6603 Clear -1 997 86 10000 3.6 130 22:19 12.12.2019
6604 Clear -1 998 100 10000 3.1 140 21:55 12.12.2019
6605 Clear -1 997 92 10000 1.5 140 21:37 12.12.2019
6606 Clear -1 999 92 10000 2.1 150 21:19 12.12.2019
6607 Clear -1 999 92 10000 2.1 150 20:58 12.12.2019
6608 Fog -1 999 100 10000 2.1 150 20:39 12.12.2019
6609 Clouds 0 1000 100 10000 2.1 130 20:21 12.12.2019
6610 Clouds 0 1000 92 10000 2.6 150 19:55 12.12.2019
6611 Clouds 0 1001 92 10000 1.5 140 19:37 12.12.2019
6612 Clouds 0 1001 92 10000 1.5 140 19:18 12.12.2019
6613 Clouds 1 1001 100 10000 2.1 160 18:55 12.12.2019
6614 Clouds 1 1001 100 10000 1 160 18:36 12.12.2019
6615 Clouds 1 1002 92 10000 2.1 180 18:18 12.12.2019
6616 Clouds 1 1002 86 10000 3.1 220 17:55 12.12.2019
6617 Clouds 1 1002 93 10000 1 190 17:37 12.12.2019
6618 Clouds 2 1002 86 10000 5.1 240 17:19 12.12.2019
6619 Clouds 2 1003 80 10000 5.7 240 16:54 12.12.2019
6620 Rain 2 1003 87 10000 4.6 230 16:36 12.12.2019
6621 Rain 2 1003 87 10000 4.6 230 16:18 12.12.2019
6622 Rain 2 1003 93 10000 5.1 240 15:42 12.12.2019
6623 Rain 2 1003 93 10000 5.1 240 15:20 12.12.2019
6624 Rain 2 1003 93 10000 5.1 240 15:20 12.12.2019
6625 Rain 2 1004 93 10000 5.1 240 14:57 12.12.2019
6626 Rain 2 1004 93 10000 5.1 240 14:57 12.12.2019
6627 Rain 2 1004 93 10000 3.6 250 14:37 12.12.2019
6628 Rain 2 1004 93 10000 3.6 250 14:19 12.12.2019
6629 Rain 3 1004 93 7000 3.1 220 13:55 12.12.2019
6630 Rain 3 1005 93 8000 3.1 210 13:37 12.12.2019
6631 Rain 3 1005 93 10000 4.1 210 13:19 12.12.2019
6632 Rain 3 1005 93 10000 4.1 210 12:56 12.12.2019
6633 Drizzle 3 1005 93 10000 4.1 220 12:38 12.12.2019
6634 Drizzle 3 1005 93 10000 4.1 220 12:18 12.12.2019
6635 Clouds 3 1005 94 10000 3.6 220 11:54 12.12.2019
6636 Snow 3 1006 94 10000 3.6 210 11:36 12.12.2019
6637 Clouds 2 1006 86 10000 3.6 210 11:18 12.12.2019
6638 Rain 2 1006 86 10000 2.6 180 10:41 12.12.2019
6639 Rain 2 1006 86 10000 2.6 180 10:23 12.12.2019
6640 Rain 1 1006 86 10000 2.6 170 09:59 12.12.2019
6641 Clouds 1 1006 86 10000 3.1 170 09:41 12.12.2019
6642 Clouds 1 1006 86 10000 3.1 170 09:23 12.12.2019
6643 Clouds 1 1006 86 10000 2.1 190 08:55 12.12.2019
6644 Clouds 1 1006 86 10000 2.6 170 08:37 12.12.2019
6645 Clouds 1 1006 90 10000 2.6 170 08:18 12.12.2019
6646 Rain 1 1006 90 10000 3.1 160 07:41 12.12.2019
6647 Rain 1 1006 90 10000 3.1 160 07:23 12.12.2019
6648 Rain 1 1006 90 10000 2.6 200 06:44 12.12.2019
6649 Rain 1 1006 90 10000 2.6 200 06:24 12.12.2019
6650 Rain 1 1006 90 7000 3.6 230 05:36 12.12.2019
6651 Rain 1 1006 94 5000 3.6 220 04:51 12.12.2019
6652 Rain 2 1007 93 10000 4.1 240 02:57 12.12.2019
6653 Rain 2 1007 93 10000 4.6 230 02:37 12.12.2019
6654 Rain 2 1007 93 10000 4.6 230 02:18 12.12.2019
6655 Rain 2 1007 92 10000 4.1 230 01:37 12.12.2019
6656 Rain 2 1007 93 10000 5.1 240 01:18 12.12.2019
6657 Rain 2 1008 93 10000 6.2 240 00:40 12.12.2019
6658 Rain 2 1008 93 10000 6.2 240 00:19 12.12.2019
6659 Rain 2 1008 93 10000 7.7 250 23:44 11.12.2019
6660 Rain 2 1007 86 10000 8.2 240 23:20 11.12.2019
6661 Clouds 2 1008 74 10000 6.7 250 22:57 11.12.2019
6662 Clouds 1 1008 84 8000 6.2 220 22:38 11.12.2019
6663 Clouds 1 1008 74 10000 4.1 210 22:19 11.12.2019
6664 Clouds 1 1008 69 10000 3.6 230 21:57 11.12.2019
6665 Clouds 1 1008 74 10000 3.1 240 21:38 11.12.2019
6666 Clouds 1 1008 74 10000 3.1 240 21:19 11.12.2019
6667 Clouds 1 1008 74 10000 3.1 240 21:19 11.12.2019
6668 Clouds 1 1008 84 10000 3.6 230 20:56 11.12.2019
6669 Clouds 0 1008 81 10000 2.6 210 20:37 11.12.2019
6670 Clouds 0 1008 54 10000 2.6 210 20:19 11.12.2019
6671 Clouds 0 1008 54 10000 1 260 19:58 11.12.2019
6672 Clouds 0 1008 54 10000 2.1 190 19:39 11.12.2019
6673 Clouds 0 1008 92 10000 2.1 180 19:19 11.12.2019
6674 Clouds 0 1008 86 10000 0.5 0 18:42 11.12.2019
6675 Clouds 0 1008 86 10000 0.5 0 18:22 11.12.2019
6676 Clouds 0 1008 86 10000 1.5 130 17:57 11.12.2019
6677 Clouds 0 1008 54 10000 2.05 221 17:39 11.12.2019
6678 Clouds 0 1008 54 10000 0.5 210 17:19 11.12.2019
6679 Clouds 0 1009 54 10000 1.5 170 16:58 11.12.2019
6680 Clouds 1 1008 54 10000 2.6 110 16:40 11.12.2019
6681 Clouds 1 1009 74 10000 1 0 16:22 11.12.2019
6682 Clouds 1 1009 69 10000 2.6 130 15:59 11.12.2019
6683 Clouds 1 1009 69 10000 2.6 130 15:59 11.12.2019
6684 Clouds 2 1009 74 10000 1.5 140 15:41 11.12.2019
6685 Clouds 2 1010 69 10000 1 0 15:23 11.12.2019
6686 Clouds 2 1010 64 10000 0.5 120 14:57 11.12.2019
6687 Clouds 2 1010 69 10000 1 130 14:38 11.12.2019
6688 Clouds 2 1010 64 10000 1 0 14:20 11.12.2019
6689 Clouds 2 1011 64 10000 0.44 93 13:56 11.12.2019
6690 Clouds 2 1011 69 10000 1.5 170 13:38 11.12.2019
6691 Clouds 2 1011 64 10000 1 0 13:19 11.12.2019
6692 Clouds 2 1012 74 10000 1 0 12:57 11.12.2019
6693 Clouds 1 1012 74 10000 1 0 12:38 11.12.2019
6694 Clouds 1 1012 69 10000 0.5 134 12:19 11.12.2019
6695 Clouds 1 1013 45 10000 0.5 0 11:57 11.12.2019
6696 Clouds 1 1013 45 10000 1.5 150 11:38 11.12.2019
6697 Clouds 0 1014 80 10000 0.11 180 11:18 11.12.2019
6698 Clouds 0 1014 80 10000 0.11 180 11:18 11.12.2019
6699 Clouds -1 1014 80 10000 0.11 180 10:56 11.12.2019
6700 Clouds -2 1014 86 10000 0.11 180 10:38 11.12.2019
6701 Clouds -2 1014 86 10000 0.11 180 10:19 11.12.2019
6702 Clouds -3 1015 85 10000 1.5 160 09:41 11.12.2019
6703 Clouds -4 1015 92 10000 1 150 09:21 11.12.2019
6704 Clouds -4 1015 92 10000 0.11 180 08:58 11.12.2019
6705 Clouds -5 1017 100 10000 0.5 40 08:38 11.12.2019
6706 Clear -6 1015 100 10000 1 0 08:19 11.12.2019
6707 Clear -6 1015 92 10000 1 0 07:57 11.12.2019
6708 Clouds -6 1016 92 10000 1 180 07:39 11.12.2019
6709 Clear -5 1016 92 10000 1 0 07:21 11.12.2019
6710 Clear -5 1016 92 10000 1 0 06:44 11.12.2019
6711 Clear -5 1016 100 10000 1 240 06:22 11.12.2019
6712 Clear -5 1016 100 10000 1 0 05:46 11.12.2019
6713 Clear -5 1017 100 10000 2.1 150 05:27 11.12.2019
6714 Clear -5 1018 92 10000 1.5 150 04:41 11.12.2019
6715 Clear -5 1020 92 10000 2.1 160 02:50 11.12.2019
6716 Clear -4 1021 86 10000 1.5 210 01:30 11.12.2019
6717 Clear -4 1022 92 10000 2.1 150 00:56 11.12.2019
6718 Clear -3 1022 92 10000 1.5 160 00:36 11.12.2019
6719 Clear -3 1022 92 10000 1.5 160 00:18 11.12.2019
6720 Clear -3 1022 86 10000 1 140 23:41 10.12.2019
6721 Clear -3 1022 86 10000 1 140 23:21 10.12.2019
6722 Clear -2 1023 92 10000 2.6 150 22:42 10.12.2019
6723 Clear -2 1023 92 10000 2.6 150 22:24 10.12.2019
6724 Clear -2 1023 92 10000 2.6 150 22:24 10.12.2019
6725 Clear -2 1023 92 10000 2.6 160 21:58 10.12.2019
6726 Clear -2 1023 92 10000 1 140 21:39 10.12.2019
6727 Clear -2 1024 92 10000 2.1 140 21:21 10.12.2019
6728 Clear -2 1024